<?xml version="1.0" encoding="UTF-8" standalone="no" ?>
<gpx xmlns="http://www.topografix.com/GPX/1/1" xmlns:xsi="http://www.w3.org/2001/XMLSchema-instance" xsi:schemaLocation="http://www.topografix.com/GPX/1/1 http://www.topografix.com/GPX/1/1/gpx.xsd" version="1.1" creator="VisuGPX - https://www.visugpx.com">
  <metadata>
    <name>Col des Fonds (2907m)</name>
    <desc><![CDATA[Traversée Méribel Mottaret - Refuge de Peclet-Polset par le Col des Fonds.
Plan de Tueda, vallon du Fruit, refuge du Saut, lac de Chanrouge, Col des Fonds, LAc Blanc, refuge Peclet-Polset]]></desc>
  </metadata>
  <trk>
    <name><![CDATA[Col des Fonds]]></name>
    <trkseg>
      <trkpt lat="45.3687" lon="6.58415">
        <ele>1689</ele>
        <time>2012-04-08T06:08:42Z</time>
      </trkpt>
      <trkpt lat="45.36871" lon="6.5842">
        <ele>1689</ele>
        <time>2012-04-08T06:08:47Z</time>
      </trkpt>
      <trkpt lat="45.3687" lon="6.58426">
        <ele>1689</ele>
        <time>2012-04-08T06:08:52Z</time>
      </trkpt>
      <trkpt lat="45.36867" lon="6.58432">
        <ele>1689</ele>
        <time>2012-04-08T06:08:57Z</time>
      </trkpt>
      <trkpt lat="45.36865" lon="6.58436">
        <ele>1689</ele>
        <time>2012-04-08T06:09:02Z</time>
      </trkpt>
      <trkpt lat="45.36865" lon="6.5844">
        <ele>1689</ele>
        <time>2012-04-08T06:09:07Z</time>
      </trkpt>
      <trkpt lat="45.36862" lon="6.58444">
        <ele>1689</ele>
        <time>2012-04-08T06:09:12Z</time>
      </trkpt>
      <trkpt lat="45.36858" lon="6.58447">
        <ele>1689</ele>
        <time>2012-04-08T06:09:17Z</time>
      </trkpt>
      <trkpt lat="45.36853" lon="6.5845">
        <ele>1689</ele>
        <time>2012-04-08T06:09:22Z</time>
      </trkpt>
      <trkpt lat="45.36849" lon="6.58455">
        <ele>1688</ele>
        <time>2012-04-08T06:09:27Z</time>
      </trkpt>
      <trkpt lat="45.36844" lon="6.58458">
        <ele>1688</ele>
        <time>2012-04-08T06:09:32Z</time>
      </trkpt>
      <trkpt lat="45.3684" lon="6.5846">
        <ele>1688</ele>
        <time>2012-04-08T06:09:37Z</time>
      </trkpt>
      <trkpt lat="45.36834" lon="6.58463">
        <ele>1688</ele>
        <time>2012-04-08T06:09:42Z</time>
      </trkpt>
      <trkpt lat="45.36828" lon="6.58464">
        <ele>1689</ele>
        <time>2012-04-08T06:09:47Z</time>
      </trkpt>
      <trkpt lat="45.36823" lon="6.58466">
        <ele>1688</ele>
        <time>2012-04-08T06:09:52Z</time>
      </trkpt>
      <trkpt lat="45.36817" lon="6.58467">
        <ele>1689</ele>
        <time>2012-04-08T06:09:57Z</time>
      </trkpt>
      <trkpt lat="45.3681" lon="6.58468">
        <ele>1690</ele>
        <time>2012-04-08T06:10:02Z</time>
      </trkpt>
      <trkpt lat="45.36804" lon="6.58469">
        <ele>1691</ele>
        <time>2012-04-08T06:10:07Z</time>
      </trkpt>
      <trkpt lat="45.36804" lon="6.58469">
        <ele>1691</ele>
        <time>2012-04-08T06:10:12Z</time>
      </trkpt>
      <trkpt lat="45.36804" lon="6.58469">
        <ele>1692</ele>
        <time>2012-04-08T06:10:57Z</time>
      </trkpt>
      <trkpt lat="45.368" lon="6.5847">
        <ele>1692</ele>
        <time>2012-04-08T06:11:02Z</time>
      </trkpt>
      <trkpt lat="45.36797" lon="6.58472">
        <ele>1692</ele>
        <time>2012-04-08T06:11:07Z</time>
      </trkpt>
      <trkpt lat="45.36794" lon="6.58473">
        <ele>1691</ele>
        <time>2012-04-08T06:11:12Z</time>
      </trkpt>
      <trkpt lat="45.36791" lon="6.58471">
        <ele>1692</ele>
        <time>2012-04-08T06:15:17Z</time>
      </trkpt>
      <trkpt lat="45.36791" lon="6.58472">
        <ele>1692</ele>
        <time>2012-04-08T06:15:22Z</time>
      </trkpt>
      <trkpt lat="45.36786" lon="6.58475">
        <ele>1692</ele>
        <time>2012-04-08T06:15:27Z</time>
      </trkpt>
      <trkpt lat="45.36779" lon="6.58479">
        <ele>1693</ele>
        <time>2012-04-08T06:15:32Z</time>
      </trkpt>
      <trkpt lat="45.36775" lon="6.58483">
        <ele>1693</ele>
        <time>2012-04-08T06:15:37Z</time>
      </trkpt>
      <trkpt lat="45.36768" lon="6.58485">
        <ele>1693</ele>
        <time>2012-04-08T06:15:42Z</time>
      </trkpt>
      <trkpt lat="45.36762" lon="6.58486">
        <ele>1692</ele>
        <time>2012-04-08T06:15:47Z</time>
      </trkpt>
      <trkpt lat="45.36755" lon="6.58487">
        <ele>1692</ele>
        <time>2012-04-08T06:15:52Z</time>
      </trkpt>
      <trkpt lat="45.36749" lon="6.58487">
        <ele>1693</ele>
        <time>2012-04-08T06:15:57Z</time>
      </trkpt>
      <trkpt lat="45.36744" lon="6.58487">
        <ele>1693</ele>
        <time>2012-04-08T06:16:02Z</time>
      </trkpt>
      <trkpt lat="45.36741" lon="6.58488">
        <ele>1693</ele>
        <time>2012-04-08T06:16:07Z</time>
      </trkpt>
      <trkpt lat="45.36741" lon="6.58488">
        <ele>1693</ele>
        <time>2012-04-08T06:16:12Z</time>
      </trkpt>
      <trkpt lat="45.3674" lon="6.58488">
        <ele>1693</ele>
        <time>2012-04-08T06:16:17Z</time>
      </trkpt>
      <trkpt lat="45.36736" lon="6.58488">
        <ele>1693</ele>
        <time>2012-04-08T06:16:22Z</time>
      </trkpt>
      <trkpt lat="45.36732" lon="6.5849">
        <ele>1693</ele>
        <time>2012-04-08T06:16:27Z</time>
      </trkpt>
      <trkpt lat="45.36729" lon="6.58492">
        <ele>1693</ele>
        <time>2012-04-08T06:16:32Z</time>
      </trkpt>
      <trkpt lat="45.36725" lon="6.58491">
        <ele>1693</ele>
        <time>2012-04-08T06:16:37Z</time>
      </trkpt>
      <trkpt lat="45.36722" lon="6.58491">
        <ele>1693</ele>
        <time>2012-04-08T06:16:42Z</time>
      </trkpt>
      <trkpt lat="45.36717" lon="6.58496">
        <ele>1693</ele>
        <time>2012-04-08T06:16:47Z</time>
      </trkpt>
      <trkpt lat="45.36713" lon="6.58503">
        <ele>1693</ele>
        <time>2012-04-08T06:16:52Z</time>
      </trkpt>
      <trkpt lat="45.36709" lon="6.58509">
        <ele>1693</ele>
        <time>2012-04-08T06:16:57Z</time>
      </trkpt>
      <trkpt lat="45.36705" lon="6.58515">
        <ele>1693</ele>
        <time>2012-04-08T06:17:02Z</time>
      </trkpt>
      <trkpt lat="45.36701" lon="6.58521">
        <ele>1693</ele>
        <time>2012-04-08T06:17:07Z</time>
      </trkpt>
      <trkpt lat="45.367" lon="6.58522">
        <ele>1693</ele>
        <time>2012-04-08T06:17:12Z</time>
      </trkpt>
      <trkpt lat="45.36696" lon="6.58527">
        <ele>1693</ele>
        <time>2012-04-08T06:17:17Z</time>
      </trkpt>
      <trkpt lat="45.36692" lon="6.58533">
        <ele>1692</ele>
        <time>2012-04-08T06:17:22Z</time>
      </trkpt>
      <trkpt lat="45.36687" lon="6.58539">
        <ele>1693</ele>
        <time>2012-04-08T06:17:27Z</time>
      </trkpt>
      <trkpt lat="45.36683" lon="6.58544">
        <ele>1693</ele>
        <time>2012-04-08T06:17:32Z</time>
      </trkpt>
      <trkpt lat="45.36679" lon="6.58549">
        <ele>1693</ele>
        <time>2012-04-08T06:17:37Z</time>
      </trkpt>
      <trkpt lat="45.36674" lon="6.58553">
        <ele>1693</ele>
        <time>2012-04-08T06:17:42Z</time>
      </trkpt>
      <trkpt lat="45.3667" lon="6.58557">
        <ele>1693</ele>
        <time>2012-04-08T06:17:47Z</time>
      </trkpt>
      <trkpt lat="45.36665" lon="6.58559">
        <ele>1693</ele>
        <time>2012-04-08T06:17:52Z</time>
      </trkpt>
      <trkpt lat="45.3666" lon="6.58562">
        <ele>1694</ele>
        <time>2012-04-08T06:17:57Z</time>
      </trkpt>
      <trkpt lat="45.36656" lon="6.58563">
        <ele>1694</ele>
        <time>2012-04-08T06:18:02Z</time>
      </trkpt>
      <trkpt lat="45.36651" lon="6.58565">
        <ele>1696</ele>
        <time>2012-04-08T06:18:07Z</time>
      </trkpt>
      <trkpt lat="45.36646" lon="6.58567">
        <ele>1696</ele>
        <time>2012-04-08T06:18:12Z</time>
      </trkpt>
      <trkpt lat="45.36641" lon="6.58568">
        <ele>1697</ele>
        <time>2012-04-08T06:18:17Z</time>
      </trkpt>
      <trkpt lat="45.36636" lon="6.58568">
        <ele>1697</ele>
        <time>2012-04-08T06:18:22Z</time>
      </trkpt>
      <trkpt lat="45.3663" lon="6.58566">
        <ele>1698</ele>
        <time>2012-04-08T06:18:27Z</time>
      </trkpt>
      <trkpt lat="45.36625" lon="6.58565">
        <ele>1699</ele>
        <time>2012-04-08T06:18:32Z</time>
      </trkpt>
      <trkpt lat="45.3662" lon="6.58564">
        <ele>1700</ele>
        <time>2012-04-08T06:18:37Z</time>
      </trkpt>
      <trkpt lat="45.36616" lon="6.58563">
        <ele>1701</ele>
        <time>2012-04-08T06:18:42Z</time>
      </trkpt>
      <trkpt lat="45.36611" lon="6.58561">
        <ele>1701</ele>
        <time>2012-04-08T06:18:47Z</time>
      </trkpt>
      <trkpt lat="45.36607" lon="6.5856">
        <ele>1702</ele>
        <time>2012-04-08T06:18:52Z</time>
      </trkpt>
      <trkpt lat="45.36602" lon="6.58558">
        <ele>1703</ele>
        <time>2012-04-08T06:18:57Z</time>
      </trkpt>
      <trkpt lat="45.36597" lon="6.58555">
        <ele>1704</ele>
        <time>2012-04-08T06:19:02Z</time>
      </trkpt>
      <trkpt lat="45.36592" lon="6.58552">
        <ele>1705</ele>
        <time>2012-04-08T06:19:07Z</time>
      </trkpt>
      <trkpt lat="45.36588" lon="6.58549">
        <ele>1705</ele>
        <time>2012-04-08T06:19:12Z</time>
      </trkpt>
      <trkpt lat="45.36583" lon="6.58548">
        <ele>1705</ele>
        <time>2012-04-08T06:19:17Z</time>
      </trkpt>
      <trkpt lat="45.36578" lon="6.58547">
        <ele>1706</ele>
        <time>2012-04-08T06:19:22Z</time>
      </trkpt>
      <trkpt lat="45.36573" lon="6.58546">
        <ele>1706</ele>
        <time>2012-04-08T06:19:27Z</time>
      </trkpt>
      <trkpt lat="45.36569" lon="6.58545">
        <ele>1706</ele>
        <time>2012-04-08T06:19:32Z</time>
      </trkpt>
      <trkpt lat="45.36564" lon="6.58545">
        <ele>1706</ele>
        <time>2012-04-08T06:19:37Z</time>
      </trkpt>
      <trkpt lat="45.36559" lon="6.58545">
        <ele>1706</ele>
        <time>2012-04-08T06:19:42Z</time>
      </trkpt>
      <trkpt lat="45.36555" lon="6.58546">
        <ele>1706</ele>
        <time>2012-04-08T06:19:47Z</time>
      </trkpt>
      <trkpt lat="45.36549" lon="6.58547">
        <ele>1706</ele>
        <time>2012-04-08T06:19:52Z</time>
      </trkpt>
      <trkpt lat="45.36543" lon="6.58547">
        <ele>1706</ele>
        <time>2012-04-08T06:19:57Z</time>
      </trkpt>
      <trkpt lat="45.36538" lon="6.58548">
        <ele>1706</ele>
        <time>2012-04-08T06:20:02Z</time>
      </trkpt>
      <trkpt lat="45.36533" lon="6.58547">
        <ele>1706</ele>
        <time>2012-04-08T06:20:07Z</time>
      </trkpt>
      <trkpt lat="45.36528" lon="6.58547">
        <ele>1706</ele>
        <time>2012-04-08T06:20:12Z</time>
      </trkpt>
      <trkpt lat="45.36523" lon="6.58547">
        <ele>1706</ele>
        <time>2012-04-08T06:20:17Z</time>
      </trkpt>
      <trkpt lat="45.36517" lon="6.58548">
        <ele>1706</ele>
        <time>2012-04-08T06:20:22Z</time>
      </trkpt>
      <trkpt lat="45.36512" lon="6.58549">
        <ele>1706</ele>
        <time>2012-04-08T06:20:27Z</time>
      </trkpt>
      <trkpt lat="45.36506" lon="6.5855">
        <ele>1706</ele>
        <time>2012-04-08T06:20:32Z</time>
      </trkpt>
      <trkpt lat="45.36501" lon="6.58551">
        <ele>1706</ele>
        <time>2012-04-08T06:20:37Z</time>
      </trkpt>
      <trkpt lat="45.36495" lon="6.58553">
        <ele>1706</ele>
        <time>2012-04-08T06:20:42Z</time>
      </trkpt>
      <trkpt lat="45.3649" lon="6.58555">
        <ele>1706</ele>
        <time>2012-04-08T06:20:47Z</time>
      </trkpt>
      <trkpt lat="45.36484" lon="6.58556">
        <ele>1706</ele>
        <time>2012-04-08T06:20:52Z</time>
      </trkpt>
      <trkpt lat="45.36478" lon="6.58558">
        <ele>1706</ele>
        <time>2012-04-08T06:20:57Z</time>
      </trkpt>
      <trkpt lat="45.36472" lon="6.5856">
        <ele>1706</ele>
        <time>2012-04-08T06:21:02Z</time>
      </trkpt>
      <trkpt lat="45.36467" lon="6.58563">
        <ele>1706</ele>
        <time>2012-04-08T06:21:07Z</time>
      </trkpt>
      <trkpt lat="45.36462" lon="6.58566">
        <ele>1706</ele>
        <time>2012-04-08T06:21:12Z</time>
      </trkpt>
      <trkpt lat="45.36456" lon="6.5857">
        <ele>1705</ele>
        <time>2012-04-08T06:21:17Z</time>
      </trkpt>
      <trkpt lat="45.36451" lon="6.58574">
        <ele>1705</ele>
        <time>2012-04-08T06:21:22Z</time>
      </trkpt>
      <trkpt lat="45.36446" lon="6.58577">
        <ele>1705</ele>
        <time>2012-04-08T06:21:27Z</time>
      </trkpt>
      <trkpt lat="45.36441" lon="6.5858">
        <ele>1704</ele>
        <time>2012-04-08T06:21:32Z</time>
      </trkpt>
      <trkpt lat="45.36435" lon="6.58583">
        <ele>1704</ele>
        <time>2012-04-08T06:21:37Z</time>
      </trkpt>
      <trkpt lat="45.3643" lon="6.58586">
        <ele>1704</ele>
        <time>2012-04-08T06:21:42Z</time>
      </trkpt>
      <trkpt lat="45.36425" lon="6.58589">
        <ele>1704</ele>
        <time>2012-04-08T06:21:47Z</time>
      </trkpt>
      <trkpt lat="45.3642" lon="6.58591">
        <ele>1704</ele>
        <time>2012-04-08T06:21:52Z</time>
      </trkpt>
      <trkpt lat="45.36415" lon="6.58594">
        <ele>1703</ele>
        <time>2012-04-08T06:21:57Z</time>
      </trkpt>
      <trkpt lat="45.36409" lon="6.58597">
        <ele>1703</ele>
        <time>2012-04-08T06:22:02Z</time>
      </trkpt>
      <trkpt lat="45.36406" lon="6.58601">
        <ele>1703</ele>
        <time>2012-04-08T06:22:07Z</time>
      </trkpt>
      <trkpt lat="45.36402" lon="6.58606">
        <ele>1703</ele>
        <time>2012-04-08T06:22:12Z</time>
      </trkpt>
      <trkpt lat="45.364" lon="6.58613">
        <ele>1703</ele>
        <time>2012-04-08T06:22:17Z</time>
      </trkpt>
      <trkpt lat="45.36397" lon="6.5862">
        <ele>1703</ele>
        <time>2012-04-08T06:22:22Z</time>
      </trkpt>
      <trkpt lat="45.36393" lon="6.58625">
        <ele>1703</ele>
        <time>2012-04-08T06:22:27Z</time>
      </trkpt>
      <trkpt lat="45.36388" lon="6.5863">
        <ele>1703</ele>
        <time>2012-04-08T06:22:32Z</time>
      </trkpt>
      <trkpt lat="45.36384" lon="6.58635">
        <ele>1702</ele>
        <time>2012-04-08T06:22:37Z</time>
      </trkpt>
      <trkpt lat="45.3638" lon="6.5864">
        <ele>1702</ele>
        <time>2012-04-08T06:22:42Z</time>
      </trkpt>
      <trkpt lat="45.36376" lon="6.58646">
        <ele>1702</ele>
        <time>2012-04-08T06:22:47Z</time>
      </trkpt>
      <trkpt lat="45.36372" lon="6.58652">
        <ele>1702</ele>
        <time>2012-04-08T06:22:52Z</time>
      </trkpt>
      <trkpt lat="45.36369" lon="6.58658">
        <ele>1702</ele>
        <time>2012-04-08T06:22:57Z</time>
      </trkpt>
      <trkpt lat="45.36366" lon="6.58664">
        <ele>1702</ele>
        <time>2012-04-08T06:23:02Z</time>
      </trkpt>
      <trkpt lat="45.36363" lon="6.5867">
        <ele>1703</ele>
        <time>2012-04-08T06:23:07Z</time>
      </trkpt>
      <trkpt lat="45.3636" lon="6.58676">
        <ele>1703</ele>
        <time>2012-04-08T06:23:12Z</time>
      </trkpt>
      <trkpt lat="45.36357" lon="6.58682">
        <ele>1703</ele>
        <time>2012-04-08T06:23:17Z</time>
      </trkpt>
      <trkpt lat="45.36355" lon="6.58689">
        <ele>1703</ele>
        <time>2012-04-08T06:23:22Z</time>
      </trkpt>
      <trkpt lat="45.36352" lon="6.58696">
        <ele>1703</ele>
        <time>2012-04-08T06:23:27Z</time>
      </trkpt>
      <trkpt lat="45.3635" lon="6.58702">
        <ele>1703</ele>
        <time>2012-04-08T06:23:32Z</time>
      </trkpt>
      <trkpt lat="45.36347" lon="6.58709">
        <ele>1703</ele>
        <time>2012-04-08T06:23:37Z</time>
      </trkpt>
      <trkpt lat="45.36344" lon="6.58715">
        <ele>1703</ele>
        <time>2012-04-08T06:23:42Z</time>
      </trkpt>
      <trkpt lat="45.3634" lon="6.58719">
        <ele>1703</ele>
        <time>2012-04-08T06:23:47Z</time>
      </trkpt>
      <trkpt lat="45.36335" lon="6.58724">
        <ele>1703</ele>
        <time>2012-04-08T06:23:52Z</time>
      </trkpt>
      <trkpt lat="45.36331" lon="6.58729">
        <ele>1703</ele>
        <time>2012-04-08T06:23:57Z</time>
      </trkpt>
      <trkpt lat="45.36326" lon="6.58733">
        <ele>1703</ele>
        <time>2012-04-08T06:24:02Z</time>
      </trkpt>
      <trkpt lat="45.36321" lon="6.58738">
        <ele>1703</ele>
        <time>2012-04-08T06:24:07Z</time>
      </trkpt>
      <trkpt lat="45.36316" lon="6.58743">
        <ele>1703</ele>
        <time>2012-04-08T06:24:12Z</time>
      </trkpt>
      <trkpt lat="45.36311" lon="6.58748">
        <ele>1703</ele>
        <time>2012-04-08T06:24:17Z</time>
      </trkpt>
      <trkpt lat="45.36307" lon="6.58752">
        <ele>1703</ele>
        <time>2012-04-08T06:24:22Z</time>
      </trkpt>
      <trkpt lat="45.36302" lon="6.58757">
        <ele>1703</ele>
        <time>2012-04-08T06:24:27Z</time>
      </trkpt>
      <trkpt lat="45.36298" lon="6.58761">
        <ele>1703</ele>
        <time>2012-04-08T06:24:32Z</time>
      </trkpt>
      <trkpt lat="45.36293" lon="6.58766">
        <ele>1703</ele>
        <time>2012-04-08T06:24:37Z</time>
      </trkpt>
      <trkpt lat="45.36288" lon="6.5877">
        <ele>1703</ele>
        <time>2012-04-08T06:24:42Z</time>
      </trkpt>
      <trkpt lat="45.36283" lon="6.58775">
        <ele>1703</ele>
        <time>2012-04-08T06:24:47Z</time>
      </trkpt>
      <trkpt lat="45.36277" lon="6.58779">
        <ele>1703</ele>
        <time>2012-04-08T06:24:52Z</time>
      </trkpt>
      <trkpt lat="45.36272" lon="6.58782">
        <ele>1703</ele>
        <time>2012-04-08T06:24:57Z</time>
      </trkpt>
      <trkpt lat="45.36268" lon="6.58785">
        <ele>1703</ele>
        <time>2012-04-08T06:25:02Z</time>
      </trkpt>
      <trkpt lat="45.36263" lon="6.58788">
        <ele>1703</ele>
        <time>2012-04-08T06:25:07Z</time>
      </trkpt>
      <trkpt lat="45.36257" lon="6.58791">
        <ele>1703</ele>
        <time>2012-04-08T06:25:12Z</time>
      </trkpt>
      <trkpt lat="45.36252" lon="6.58794">
        <ele>1703</ele>
        <time>2012-04-08T06:25:17Z</time>
      </trkpt>
      <trkpt lat="45.36246" lon="6.58797">
        <ele>1703</ele>
        <time>2012-04-08T06:25:22Z</time>
      </trkpt>
      <trkpt lat="45.3624" lon="6.588">
        <ele>1703</ele>
        <time>2012-04-08T06:25:27Z</time>
      </trkpt>
      <trkpt lat="45.36236" lon="6.58804">
        <ele>1703</ele>
        <time>2012-04-08T06:25:32Z</time>
      </trkpt>
      <trkpt lat="45.36231" lon="6.58807">
        <ele>1703</ele>
        <time>2012-04-08T06:25:37Z</time>
      </trkpt>
      <trkpt lat="45.36227" lon="6.58811">
        <ele>1703</ele>
        <time>2012-04-08T06:25:42Z</time>
      </trkpt>
      <trkpt lat="45.36222" lon="6.58815">
        <ele>1703</ele>
        <time>2012-04-08T06:25:47Z</time>
      </trkpt>
      <trkpt lat="45.36217" lon="6.5882">
        <ele>1703</ele>
        <time>2012-04-08T06:25:52Z</time>
      </trkpt>
      <trkpt lat="45.36212" lon="6.58823">
        <ele>1703</ele>
        <time>2012-04-08T06:25:57Z</time>
      </trkpt>
      <trkpt lat="45.36207" lon="6.58826">
        <ele>1703</ele>
        <time>2012-04-08T06:26:02Z</time>
      </trkpt>
      <trkpt lat="45.36201" lon="6.58827">
        <ele>1703</ele>
        <time>2012-04-08T06:26:07Z</time>
      </trkpt>
      <trkpt lat="45.36195" lon="6.58827">
        <ele>1703</ele>
        <time>2012-04-08T06:26:12Z</time>
      </trkpt>
      <trkpt lat="45.36189" lon="6.58828">
        <ele>1703</ele>
        <time>2012-04-08T06:26:17Z</time>
      </trkpt>
      <trkpt lat="45.36184" lon="6.58829">
        <ele>1703</ele>
        <time>2012-04-08T06:26:22Z</time>
      </trkpt>
      <trkpt lat="45.36178" lon="6.5883">
        <ele>1704</ele>
        <time>2012-04-08T06:26:27Z</time>
      </trkpt>
      <trkpt lat="45.36171" lon="6.5883">
        <ele>1704</ele>
        <time>2012-04-08T06:26:32Z</time>
      </trkpt>
      <trkpt lat="45.36165" lon="6.5883">
        <ele>1704</ele>
        <time>2012-04-08T06:26:37Z</time>
      </trkpt>
      <trkpt lat="45.36159" lon="6.5883">
        <ele>1704</ele>
        <time>2012-04-08T06:26:42Z</time>
      </trkpt>
      <trkpt lat="45.36153" lon="6.58829">
        <ele>1704</ele>
        <time>2012-04-08T06:26:47Z</time>
      </trkpt>
      <trkpt lat="45.36147" lon="6.5883">
        <ele>1705</ele>
        <time>2012-04-08T06:26:52Z</time>
      </trkpt>
      <trkpt lat="45.36141" lon="6.58829">
        <ele>1705</ele>
        <time>2012-04-08T06:26:57Z</time>
      </trkpt>
      <trkpt lat="45.36135" lon="6.5883">
        <ele>1705</ele>
        <time>2012-04-08T06:27:02Z</time>
      </trkpt>
      <trkpt lat="45.36129" lon="6.5883">
        <ele>1705</ele>
        <time>2012-04-08T06:27:07Z</time>
      </trkpt>
      <trkpt lat="45.36123" lon="6.58831">
        <ele>1705</ele>
        <time>2012-04-08T06:27:12Z</time>
      </trkpt>
      <trkpt lat="45.36117" lon="6.58831">
        <ele>1705</ele>
        <time>2012-04-08T06:27:17Z</time>
      </trkpt>
      <trkpt lat="45.36111" lon="6.5883">
        <ele>1705</ele>
        <time>2012-04-08T06:27:22Z</time>
      </trkpt>
      <trkpt lat="45.36106" lon="6.58828">
        <ele>1705</ele>
        <time>2012-04-08T06:27:27Z</time>
      </trkpt>
      <trkpt lat="45.361" lon="6.58826">
        <ele>1705</ele>
        <time>2012-04-08T06:27:32Z</time>
      </trkpt>
      <trkpt lat="45.36094" lon="6.58825">
        <ele>1705</ele>
        <time>2012-04-08T06:27:37Z</time>
      </trkpt>
      <trkpt lat="45.36089" lon="6.58826">
        <ele>1705</ele>
        <time>2012-04-08T06:27:42Z</time>
      </trkpt>
      <trkpt lat="45.36089" lon="6.58826">
        <ele>1705</ele>
        <time>2012-04-08T06:27:47Z</time>
      </trkpt>
      <trkpt lat="45.36089" lon="6.58826">
        <ele>1705</ele>
        <time>2012-04-08T06:27:52Z</time>
      </trkpt>
      <trkpt lat="45.36089" lon="6.58826">
        <ele>1705</ele>
        <time>2012-04-08T06:27:57Z</time>
      </trkpt>
      <trkpt lat="45.36089" lon="6.58826">
        <ele>1705</ele>
        <time>2012-04-08T06:28:02Z</time>
      </trkpt>
      <trkpt lat="45.36084" lon="6.58829">
        <ele>1705</ele>
        <time>2012-04-08T06:28:07Z</time>
      </trkpt>
      <trkpt lat="45.3608" lon="6.58833">
        <ele>1705</ele>
        <time>2012-04-08T06:28:12Z</time>
      </trkpt>
      <trkpt lat="45.36076" lon="6.58839">
        <ele>1705</ele>
        <time>2012-04-08T06:28:17Z</time>
      </trkpt>
      <trkpt lat="45.36071" lon="6.58844">
        <ele>1705</ele>
        <time>2012-04-08T06:28:22Z</time>
      </trkpt>
      <trkpt lat="45.36068" lon="6.58847">
        <ele>1705</ele>
        <time>2012-04-08T06:28:27Z</time>
      </trkpt>
      <trkpt lat="45.36063" lon="6.5885">
        <ele>1705</ele>
        <time>2012-04-08T06:28:32Z</time>
      </trkpt>
      <trkpt lat="45.36058" lon="6.58853">
        <ele>1705</ele>
        <time>2012-04-08T06:28:37Z</time>
      </trkpt>
      <trkpt lat="45.36053" lon="6.58856">
        <ele>1706</ele>
        <time>2012-04-08T06:28:42Z</time>
      </trkpt>
      <trkpt lat="45.36048" lon="6.5886">
        <ele>1706</ele>
        <time>2012-04-08T06:28:47Z</time>
      </trkpt>
      <trkpt lat="45.36043" lon="6.58864">
        <ele>1706</ele>
        <time>2012-04-08T06:28:52Z</time>
      </trkpt>
      <trkpt lat="45.36038" lon="6.58868">
        <ele>1706</ele>
        <time>2012-04-08T06:28:57Z</time>
      </trkpt>
      <trkpt lat="45.36033" lon="6.58872">
        <ele>1706</ele>
        <time>2012-04-08T06:29:02Z</time>
      </trkpt>
      <trkpt lat="45.36028" lon="6.58877">
        <ele>1706</ele>
        <time>2012-04-08T06:29:07Z</time>
      </trkpt>
      <trkpt lat="45.36023" lon="6.58881">
        <ele>1706</ele>
        <time>2012-04-08T06:29:12Z</time>
      </trkpt>
      <trkpt lat="45.36018" lon="6.58886">
        <ele>1706</ele>
        <time>2012-04-08T06:29:17Z</time>
      </trkpt>
      <trkpt lat="45.36013" lon="6.58891">
        <ele>1706</ele>
        <time>2012-04-08T06:29:22Z</time>
      </trkpt>
      <trkpt lat="45.36009" lon="6.58895">
        <ele>1706</ele>
        <time>2012-04-08T06:29:27Z</time>
      </trkpt>
      <trkpt lat="45.36004" lon="6.58901">
        <ele>1706</ele>
        <time>2012-04-08T06:29:32Z</time>
      </trkpt>
      <trkpt lat="45.36" lon="6.58905">
        <ele>1706</ele>
        <time>2012-04-08T06:29:37Z</time>
      </trkpt>
      <trkpt lat="45.35995" lon="6.5891">
        <ele>1705</ele>
        <time>2012-04-08T06:29:42Z</time>
      </trkpt>
      <trkpt lat="45.35989" lon="6.58916">
        <ele>1705</ele>
        <time>2012-04-08T06:29:47Z</time>
      </trkpt>
      <trkpt lat="45.35985" lon="6.58921">
        <ele>1705</ele>
        <time>2012-04-08T06:29:52Z</time>
      </trkpt>
      <trkpt lat="45.3598" lon="6.58925">
        <ele>1705</ele>
        <time>2012-04-08T06:29:57Z</time>
      </trkpt>
      <trkpt lat="45.35976" lon="6.5893">
        <ele>1705</ele>
        <time>2012-04-08T06:30:02Z</time>
      </trkpt>
      <trkpt lat="45.35972" lon="6.58935">
        <ele>1705</ele>
        <time>2012-04-08T06:30:07Z</time>
      </trkpt>
      <trkpt lat="45.35967" lon="6.5894">
        <ele>1705</ele>
        <time>2012-04-08T06:30:12Z</time>
      </trkpt>
      <trkpt lat="45.35963" lon="6.58944">
        <ele>1705</ele>
        <time>2012-04-08T06:30:17Z</time>
      </trkpt>
      <trkpt lat="45.35959" lon="6.58949">
        <ele>1705</ele>
        <time>2012-04-08T06:30:22Z</time>
      </trkpt>
      <trkpt lat="45.35955" lon="6.58953">
        <ele>1705</ele>
        <time>2012-04-08T06:30:27Z</time>
      </trkpt>
      <trkpt lat="45.35951" lon="6.58957">
        <ele>1705</ele>
        <time>2012-04-08T06:30:32Z</time>
      </trkpt>
      <trkpt lat="45.35947" lon="6.58962">
        <ele>1706</ele>
        <time>2012-04-08T06:30:37Z</time>
      </trkpt>
      <trkpt lat="45.35943" lon="6.58968">
        <ele>1706</ele>
        <time>2012-04-08T06:30:42Z</time>
      </trkpt>
      <trkpt lat="45.35938" lon="6.58973">
        <ele>1706</ele>
        <time>2012-04-08T06:30:47Z</time>
      </trkpt>
      <trkpt lat="45.35934" lon="6.58978">
        <ele>1706</ele>
        <time>2012-04-08T06:30:52Z</time>
      </trkpt>
      <trkpt lat="45.3593" lon="6.58984">
        <ele>1706</ele>
        <time>2012-04-08T06:30:57Z</time>
      </trkpt>
      <trkpt lat="45.35925" lon="6.58989">
        <ele>1706</ele>
        <time>2012-04-08T06:31:02Z</time>
      </trkpt>
      <trkpt lat="45.3592" lon="6.58994">
        <ele>1706</ele>
        <time>2012-04-08T06:31:07Z</time>
      </trkpt>
      <trkpt lat="45.35916" lon="6.58999">
        <ele>1706</ele>
        <time>2012-04-08T06:31:12Z</time>
      </trkpt>
      <trkpt lat="45.35911" lon="6.59004">
        <ele>1706</ele>
        <time>2012-04-08T06:31:17Z</time>
      </trkpt>
      <trkpt lat="45.35907" lon="6.59009">
        <ele>1706</ele>
        <time>2012-04-08T06:31:22Z</time>
      </trkpt>
      <trkpt lat="45.35902" lon="6.59014">
        <ele>1706</ele>
        <time>2012-04-08T06:31:27Z</time>
      </trkpt>
      <trkpt lat="45.35897" lon="6.59019">
        <ele>1706</ele>
        <time>2012-04-08T06:31:32Z</time>
      </trkpt>
      <trkpt lat="45.35893" lon="6.59024">
        <ele>1706</ele>
        <time>2012-04-08T06:31:37Z</time>
      </trkpt>
      <trkpt lat="45.35889" lon="6.59029">
        <ele>1706</ele>
        <time>2012-04-08T06:31:42Z</time>
      </trkpt>
      <trkpt lat="45.35885" lon="6.59035">
        <ele>1706</ele>
        <time>2012-04-08T06:31:47Z</time>
      </trkpt>
      <trkpt lat="45.35881" lon="6.59039">
        <ele>1706</ele>
        <time>2012-04-08T06:31:52Z</time>
      </trkpt>
      <trkpt lat="45.35877" lon="6.59045">
        <ele>1706</ele>
        <time>2012-04-08T06:31:57Z</time>
      </trkpt>
      <trkpt lat="45.35872" lon="6.5905">
        <ele>1706</ele>
        <time>2012-04-08T06:32:02Z</time>
      </trkpt>
      <trkpt lat="45.35868" lon="6.59055">
        <ele>1706</ele>
        <time>2012-04-08T06:32:07Z</time>
      </trkpt>
      <trkpt lat="45.35865" lon="6.59061">
        <ele>1706</ele>
        <time>2012-04-08T06:32:12Z</time>
      </trkpt>
      <trkpt lat="45.35861" lon="6.59066">
        <ele>1706</ele>
        <time>2012-04-08T06:32:17Z</time>
      </trkpt>
      <trkpt lat="45.35857" lon="6.59071">
        <ele>1706</ele>
        <time>2012-04-08T06:32:22Z</time>
      </trkpt>
      <trkpt lat="45.35853" lon="6.59075">
        <ele>1706</ele>
        <time>2012-04-08T06:32:27Z</time>
      </trkpt>
      <trkpt lat="45.35848" lon="6.5908">
        <ele>1706</ele>
        <time>2012-04-08T06:32:32Z</time>
      </trkpt>
      <trkpt lat="45.35845" lon="6.59085">
        <ele>1706</ele>
        <time>2012-04-08T06:32:37Z</time>
      </trkpt>
      <trkpt lat="45.3584" lon="6.5909">
        <ele>1706</ele>
        <time>2012-04-08T06:32:42Z</time>
      </trkpt>
      <trkpt lat="45.35836" lon="6.59094">
        <ele>1706</ele>
        <time>2012-04-08T06:32:47Z</time>
      </trkpt>
      <trkpt lat="45.35832" lon="6.59099">
        <ele>1707</ele>
        <time>2012-04-08T06:32:52Z</time>
      </trkpt>
      <trkpt lat="45.35828" lon="6.59104">
        <ele>1707</ele>
        <time>2012-04-08T06:32:57Z</time>
      </trkpt>
      <trkpt lat="45.35824" lon="6.59109">
        <ele>1707</ele>
        <time>2012-04-08T06:33:02Z</time>
      </trkpt>
      <trkpt lat="45.35819" lon="6.59114">
        <ele>1707</ele>
        <time>2012-04-08T06:33:07Z</time>
      </trkpt>
      <trkpt lat="45.35815" lon="6.59119">
        <ele>1707</ele>
        <time>2012-04-08T06:33:12Z</time>
      </trkpt>
      <trkpt lat="45.35811" lon="6.59124">
        <ele>1707</ele>
        <time>2012-04-08T06:33:17Z</time>
      </trkpt>
      <trkpt lat="45.35807" lon="6.59128">
        <ele>1707</ele>
        <time>2012-04-08T06:33:22Z</time>
      </trkpt>
      <trkpt lat="45.35803" lon="6.59133">
        <ele>1708</ele>
        <time>2012-04-08T06:33:27Z</time>
      </trkpt>
      <trkpt lat="45.35798" lon="6.59138">
        <ele>1708</ele>
        <time>2012-04-08T06:33:32Z</time>
      </trkpt>
      <trkpt lat="45.35794" lon="6.59142">
        <ele>1708</ele>
        <time>2012-04-08T06:33:37Z</time>
      </trkpt>
      <trkpt lat="45.3579" lon="6.59147">
        <ele>1708</ele>
        <time>2012-04-08T06:33:42Z</time>
      </trkpt>
      <trkpt lat="45.35785" lon="6.59152">
        <ele>1708</ele>
        <time>2012-04-08T06:33:47Z</time>
      </trkpt>
      <trkpt lat="45.35781" lon="6.59157">
        <ele>1708</ele>
        <time>2012-04-08T06:33:52Z</time>
      </trkpt>
      <trkpt lat="45.35777" lon="6.59161">
        <ele>1708</ele>
        <time>2012-04-08T06:33:57Z</time>
      </trkpt>
      <trkpt lat="45.35772" lon="6.59166">
        <ele>1708</ele>
        <time>2012-04-08T06:34:02Z</time>
      </trkpt>
      <trkpt lat="45.35768" lon="6.59171">
        <ele>1708</ele>
        <time>2012-04-08T06:34:07Z</time>
      </trkpt>
      <trkpt lat="45.35763" lon="6.59175">
        <ele>1709</ele>
        <time>2012-04-08T06:34:12Z</time>
      </trkpt>
      <trkpt lat="45.35759" lon="6.5918">
        <ele>1709</ele>
        <time>2012-04-08T06:34:17Z</time>
      </trkpt>
      <trkpt lat="45.35754" lon="6.59184">
        <ele>1709</ele>
        <time>2012-04-08T06:34:22Z</time>
      </trkpt>
      <trkpt lat="45.3575" lon="6.59189">
        <ele>1709</ele>
        <time>2012-04-08T06:34:27Z</time>
      </trkpt>
      <trkpt lat="45.35746" lon="6.59193">
        <ele>1709</ele>
        <time>2012-04-08T06:34:32Z</time>
      </trkpt>
      <trkpt lat="45.35742" lon="6.59197">
        <ele>1709</ele>
        <time>2012-04-08T06:34:37Z</time>
      </trkpt>
      <trkpt lat="45.35737" lon="6.59202">
        <ele>1709</ele>
        <time>2012-04-08T06:34:42Z</time>
      </trkpt>
      <trkpt lat="45.35737" lon="6.59203">
        <ele>1709</ele>
        <time>2012-04-08T06:34:47Z</time>
      </trkpt>
      <trkpt lat="45.35733" lon="6.59206">
        <ele>1709</ele>
        <time>2012-04-08T06:34:52Z</time>
      </trkpt>
      <trkpt lat="45.35729" lon="6.59211">
        <ele>1709</ele>
        <time>2012-04-08T06:34:57Z</time>
      </trkpt>
      <trkpt lat="45.35725" lon="6.59215">
        <ele>1708</ele>
        <time>2012-04-08T06:35:02Z</time>
      </trkpt>
      <trkpt lat="45.35721" lon="6.5922">
        <ele>1709</ele>
        <time>2012-04-08T06:35:07Z</time>
      </trkpt>
      <trkpt lat="45.35716" lon="6.59224">
        <ele>1709</ele>
        <time>2012-04-08T06:35:12Z</time>
      </trkpt>
      <trkpt lat="45.35712" lon="6.59227">
        <ele>1709</ele>
        <time>2012-04-08T06:35:17Z</time>
      </trkpt>
      <trkpt lat="45.35707" lon="6.59231">
        <ele>1709</ele>
        <time>2012-04-08T06:35:22Z</time>
      </trkpt>
      <trkpt lat="45.35703" lon="6.59235">
        <ele>1709</ele>
        <time>2012-04-08T06:35:27Z</time>
      </trkpt>
      <trkpt lat="45.35698" lon="6.5924">
        <ele>1709</ele>
        <time>2012-04-08T06:35:32Z</time>
      </trkpt>
      <trkpt lat="45.35694" lon="6.59244">
        <ele>1709</ele>
        <time>2012-04-08T06:35:37Z</time>
      </trkpt>
      <trkpt lat="45.3569" lon="6.59249">
        <ele>1709</ele>
        <time>2012-04-08T06:35:42Z</time>
      </trkpt>
      <trkpt lat="45.35685" lon="6.59254">
        <ele>1710</ele>
        <time>2012-04-08T06:35:47Z</time>
      </trkpt>
      <trkpt lat="45.35681" lon="6.5926">
        <ele>1710</ele>
        <time>2012-04-08T06:35:52Z</time>
      </trkpt>
      <trkpt lat="45.35676" lon="6.59265">
        <ele>1710</ele>
        <time>2012-04-08T06:35:57Z</time>
      </trkpt>
      <trkpt lat="45.35672" lon="6.59271">
        <ele>1710</ele>
        <time>2012-04-08T06:36:02Z</time>
      </trkpt>
      <trkpt lat="45.35668" lon="6.59276">
        <ele>1710</ele>
        <time>2012-04-08T06:36:07Z</time>
      </trkpt>
      <trkpt lat="45.35664" lon="6.59281">
        <ele>1710</ele>
        <time>2012-04-08T06:36:12Z</time>
      </trkpt>
      <trkpt lat="45.35659" lon="6.59286">
        <ele>1710</ele>
        <time>2012-04-08T06:36:17Z</time>
      </trkpt>
      <trkpt lat="45.35655" lon="6.59291">
        <ele>1710</ele>
        <time>2012-04-08T06:36:22Z</time>
      </trkpt>
      <trkpt lat="45.35651" lon="6.59297">
        <ele>1710</ele>
        <time>2012-04-08T06:36:27Z</time>
      </trkpt>
      <trkpt lat="45.35647" lon="6.59303">
        <ele>1710</ele>
        <time>2012-04-08T06:36:32Z</time>
      </trkpt>
      <trkpt lat="45.35644" lon="6.59309">
        <ele>1710</ele>
        <time>2012-04-08T06:36:37Z</time>
      </trkpt>
      <trkpt lat="45.35641" lon="6.59315">
        <ele>1710</ele>
        <time>2012-04-08T06:36:42Z</time>
      </trkpt>
      <trkpt lat="45.35639" lon="6.59321">
        <ele>1710</ele>
        <time>2012-04-08T06:36:47Z</time>
      </trkpt>
      <trkpt lat="45.35636" lon="6.59326">
        <ele>1711</ele>
        <time>2012-04-08T06:36:52Z</time>
      </trkpt>
      <trkpt lat="45.35633" lon="6.59333">
        <ele>1711</ele>
        <time>2012-04-08T06:36:57Z</time>
      </trkpt>
      <trkpt lat="45.3563" lon="6.59338">
        <ele>1711</ele>
        <time>2012-04-08T06:37:02Z</time>
      </trkpt>
      <trkpt lat="45.35627" lon="6.59345">
        <ele>1711</ele>
        <time>2012-04-08T06:37:07Z</time>
      </trkpt>
      <trkpt lat="45.35623" lon="6.5935">
        <ele>1711</ele>
        <time>2012-04-08T06:37:12Z</time>
      </trkpt>
      <trkpt lat="45.35621" lon="6.59356">
        <ele>1711</ele>
        <time>2012-04-08T06:37:17Z</time>
      </trkpt>
      <trkpt lat="45.35618" lon="6.59361">
        <ele>1711</ele>
        <time>2012-04-08T06:37:22Z</time>
      </trkpt>
      <trkpt lat="45.35614" lon="6.59367">
        <ele>1711</ele>
        <time>2012-04-08T06:37:27Z</time>
      </trkpt>
      <trkpt lat="45.35611" lon="6.59374">
        <ele>1711</ele>
        <time>2012-04-08T06:37:32Z</time>
      </trkpt>
      <trkpt lat="45.3561" lon="6.59379">
        <ele>1711</ele>
        <time>2012-04-08T06:37:37Z</time>
      </trkpt>
      <trkpt lat="45.35607" lon="6.59384">
        <ele>1711</ele>
        <time>2012-04-08T06:37:42Z</time>
      </trkpt>
      <trkpt lat="45.35605" lon="6.5939">
        <ele>1712</ele>
        <time>2012-04-08T06:37:47Z</time>
      </trkpt>
      <trkpt lat="45.35603" lon="6.59395">
        <ele>1712</ele>
        <time>2012-04-08T06:37:52Z</time>
      </trkpt>
      <trkpt lat="45.35601" lon="6.59401">
        <ele>1712</ele>
        <time>2012-04-08T06:37:57Z</time>
      </trkpt>
      <trkpt lat="45.35599" lon="6.59407">
        <ele>1712</ele>
        <time>2012-04-08T06:38:02Z</time>
      </trkpt>
      <trkpt lat="45.35597" lon="6.59412">
        <ele>1712</ele>
        <time>2012-04-08T06:38:07Z</time>
      </trkpt>
      <trkpt lat="45.35596" lon="6.59418">
        <ele>1713</ele>
        <time>2012-04-08T06:38:12Z</time>
      </trkpt>
      <trkpt lat="45.35594" lon="6.59424">
        <ele>1713</ele>
        <time>2012-04-08T06:38:17Z</time>
      </trkpt>
      <trkpt lat="45.35593" lon="6.59431">
        <ele>1713</ele>
        <time>2012-04-08T06:38:22Z</time>
      </trkpt>
      <trkpt lat="45.35592" lon="6.59437">
        <ele>1713</ele>
        <time>2012-04-08T06:38:27Z</time>
      </trkpt>
      <trkpt lat="45.3559" lon="6.59444">
        <ele>1713</ele>
        <time>2012-04-08T06:38:32Z</time>
      </trkpt>
      <trkpt lat="45.35589" lon="6.59451">
        <ele>1714</ele>
        <time>2012-04-08T06:38:37Z</time>
      </trkpt>
      <trkpt lat="45.35589" lon="6.59458">
        <ele>1714</ele>
        <time>2012-04-08T06:38:42Z</time>
      </trkpt>
      <trkpt lat="45.35589" lon="6.59464">
        <ele>1714</ele>
        <time>2012-04-08T06:38:47Z</time>
      </trkpt>
      <trkpt lat="45.35588" lon="6.5947">
        <ele>1714</ele>
        <time>2012-04-08T06:38:52Z</time>
      </trkpt>
      <trkpt lat="45.35587" lon="6.59477">
        <ele>1715</ele>
        <time>2012-04-08T06:38:57Z</time>
      </trkpt>
      <trkpt lat="45.35587" lon="6.59483">
        <ele>1715</ele>
        <time>2012-04-08T06:39:02Z</time>
      </trkpt>
      <trkpt lat="45.35585" lon="6.59489">
        <ele>1716</ele>
        <time>2012-04-08T06:39:07Z</time>
      </trkpt>
      <trkpt lat="45.35585" lon="6.59495">
        <ele>1716</ele>
        <time>2012-04-08T06:39:12Z</time>
      </trkpt>
      <trkpt lat="45.35584" lon="6.59501">
        <ele>1717</ele>
        <time>2012-04-08T06:39:17Z</time>
      </trkpt>
      <trkpt lat="45.35583" lon="6.59506">
        <ele>1719</ele>
        <time>2012-04-08T06:39:22Z</time>
      </trkpt>
      <trkpt lat="45.35582" lon="6.59511">
        <ele>1721</ele>
        <time>2012-04-08T06:39:27Z</time>
      </trkpt>
      <trkpt lat="45.35581" lon="6.59517">
        <ele>1722</ele>
        <time>2012-04-08T06:39:32Z</time>
      </trkpt>
      <trkpt lat="45.35581" lon="6.59521">
        <ele>1722</ele>
        <time>2012-04-08T06:39:37Z</time>
      </trkpt>
      <trkpt lat="45.35579" lon="6.59526">
        <ele>1723</ele>
        <time>2012-04-08T06:39:42Z</time>
      </trkpt>
      <trkpt lat="45.35579" lon="6.59531">
        <ele>1723</ele>
        <time>2012-04-08T06:39:47Z</time>
      </trkpt>
      <trkpt lat="45.35578" lon="6.59535">
        <ele>1723</ele>
        <time>2012-04-08T06:39:52Z</time>
      </trkpt>
      <trkpt lat="45.35577" lon="6.5954">
        <ele>1724</ele>
        <time>2012-04-08T06:39:57Z</time>
      </trkpt>
      <trkpt lat="45.35575" lon="6.59545">
        <ele>1724</ele>
        <time>2012-04-08T06:40:02Z</time>
      </trkpt>
      <trkpt lat="45.35573" lon="6.5955">
        <ele>1725</ele>
        <time>2012-04-08T06:40:07Z</time>
      </trkpt>
      <trkpt lat="45.35572" lon="6.59554">
        <ele>1725</ele>
        <time>2012-04-08T06:40:12Z</time>
      </trkpt>
      <trkpt lat="45.35571" lon="6.59559">
        <ele>1726</ele>
        <time>2012-04-08T06:40:17Z</time>
      </trkpt>
      <trkpt lat="45.35569" lon="6.59565">
        <ele>1726</ele>
        <time>2012-04-08T06:40:22Z</time>
      </trkpt>
      <trkpt lat="45.35568" lon="6.5957">
        <ele>1727</ele>
        <time>2012-04-08T06:40:27Z</time>
      </trkpt>
      <trkpt lat="45.35566" lon="6.59576">
        <ele>1727</ele>
        <time>2012-04-08T06:40:32Z</time>
      </trkpt>
      <trkpt lat="45.35566" lon="6.59582">
        <ele>1728</ele>
        <time>2012-04-08T06:40:37Z</time>
      </trkpt>
      <trkpt lat="45.35567" lon="6.59587">
        <ele>1728</ele>
        <time>2012-04-08T06:40:42Z</time>
      </trkpt>
      <trkpt lat="45.35568" lon="6.59594">
        <ele>1729</ele>
        <time>2012-04-08T06:40:47Z</time>
      </trkpt>
      <trkpt lat="45.35569" lon="6.596">
        <ele>1729</ele>
        <time>2012-04-08T06:40:52Z</time>
      </trkpt>
      <trkpt lat="45.35571" lon="6.59606">
        <ele>1729</ele>
        <time>2012-04-08T06:40:57Z</time>
      </trkpt>
      <trkpt lat="45.35572" lon="6.59612">
        <ele>1731</ele>
        <time>2012-04-08T06:41:02Z</time>
      </trkpt>
      <trkpt lat="45.35571" lon="6.59618">
        <ele>1731</ele>
        <time>2012-04-08T06:41:07Z</time>
      </trkpt>
      <trkpt lat="45.35565" lon="6.59613">
        <ele>1744</ele>
        <time>2012-04-08T06:48:22Z</time>
      </trkpt>
      <trkpt lat="45.35566" lon="6.59614">
        <ele>1742</ele>
        <time>2012-04-08T06:48:27Z</time>
      </trkpt>
      <trkpt lat="45.35566" lon="6.59615">
        <ele>1741</ele>
        <time>2012-04-08T06:48:32Z</time>
      </trkpt>
      <trkpt lat="45.35566" lon="6.59616">
        <ele>1739</ele>
        <time>2012-04-08T06:48:37Z</time>
      </trkpt>
      <trkpt lat="45.35565" lon="6.59618">
        <ele>1738</ele>
        <time>2012-04-08T06:48:42Z</time>
      </trkpt>
      <trkpt lat="45.35562" lon="6.59622">
        <ele>1737</ele>
        <time>2012-04-08T06:48:47Z</time>
      </trkpt>
      <trkpt lat="45.3556" lon="6.59628">
        <ele>1737</ele>
        <time>2012-04-08T06:48:52Z</time>
      </trkpt>
      <trkpt lat="45.35557" lon="6.59632">
        <ele>1737</ele>
        <time>2012-04-08T06:48:57Z</time>
      </trkpt>
      <trkpt lat="45.35556" lon="6.59635">
        <ele>1737</ele>
        <time>2012-04-08T06:49:02Z</time>
      </trkpt>
      <trkpt lat="45.35556" lon="6.5964">
        <ele>1738</ele>
        <time>2012-04-08T06:49:07Z</time>
      </trkpt>
      <trkpt lat="45.35558" lon="6.59644">
        <ele>1740</ele>
        <time>2012-04-08T06:49:12Z</time>
      </trkpt>
      <trkpt lat="45.3556" lon="6.59646">
        <ele>1741</ele>
        <time>2012-04-08T06:49:17Z</time>
      </trkpt>
      <trkpt lat="45.35561" lon="6.59647">
        <ele>1742</ele>
        <time>2012-04-08T06:49:22Z</time>
      </trkpt>
      <trkpt lat="45.35565" lon="6.59651">
        <ele>1743</ele>
        <time>2012-04-08T06:49:27Z</time>
      </trkpt>
      <trkpt lat="45.35565" lon="6.59656">
        <ele>1744</ele>
        <time>2012-04-08T06:49:32Z</time>
      </trkpt>
      <trkpt lat="45.35565" lon="6.5966">
        <ele>1746</ele>
        <time>2012-04-08T06:49:37Z</time>
      </trkpt>
      <trkpt lat="45.35564" lon="6.59662">
        <ele>1747</ele>
        <time>2012-04-08T06:49:42Z</time>
      </trkpt>
      <trkpt lat="45.35562" lon="6.59666">
        <ele>1747</ele>
        <time>2012-04-08T06:49:47Z</time>
      </trkpt>
      <trkpt lat="45.35561" lon="6.59671">
        <ele>1748</ele>
        <time>2012-04-08T06:49:52Z</time>
      </trkpt>
      <trkpt lat="45.35563" lon="6.59674">
        <ele>1749</ele>
        <time>2012-04-08T06:49:57Z</time>
      </trkpt>
      <trkpt lat="45.35566" lon="6.59675">
        <ele>1750</ele>
        <time>2012-04-08T06:50:02Z</time>
      </trkpt>
      <trkpt lat="45.35569" lon="6.59672">
        <ele>1751</ele>
        <time>2012-04-08T06:50:07Z</time>
      </trkpt>
      <trkpt lat="45.35573" lon="6.5967">
        <ele>1752</ele>
        <time>2012-04-08T06:50:12Z</time>
      </trkpt>
      <trkpt lat="45.35576" lon="6.59669">
        <ele>1753</ele>
        <time>2012-04-08T06:50:17Z</time>
      </trkpt>
      <trkpt lat="45.35579" lon="6.59669">
        <ele>1753</ele>
        <time>2012-04-08T06:50:22Z</time>
      </trkpt>
      <trkpt lat="45.35581" lon="6.59672">
        <ele>1754</ele>
        <time>2012-04-08T06:50:27Z</time>
      </trkpt>
      <trkpt lat="45.35583" lon="6.59674">
        <ele>1755</ele>
        <time>2012-04-08T06:50:32Z</time>
      </trkpt>
      <trkpt lat="45.35586" lon="6.59675">
        <ele>1754</ele>
        <time>2012-04-08T06:50:37Z</time>
      </trkpt>
      <trkpt lat="45.35589" lon="6.59676">
        <ele>1755</ele>
        <time>2012-04-08T06:50:42Z</time>
      </trkpt>
      <trkpt lat="45.35592" lon="6.59677">
        <ele>1757</ele>
        <time>2012-04-08T06:50:47Z</time>
      </trkpt>
      <trkpt lat="45.35594" lon="6.5968">
        <ele>1759</ele>
        <time>2012-04-08T06:50:52Z</time>
      </trkpt>
      <trkpt lat="45.35597" lon="6.59681">
        <ele>1759</ele>
        <time>2012-04-08T06:50:57Z</time>
      </trkpt>
      <trkpt lat="45.35601" lon="6.59683">
        <ele>1759</ele>
        <time>2012-04-08T06:51:02Z</time>
      </trkpt>
      <trkpt lat="45.35604" lon="6.59685">
        <ele>1759</ele>
        <time>2012-04-08T06:51:07Z</time>
      </trkpt>
      <trkpt lat="45.35607" lon="6.59688">
        <ele>1760</ele>
        <time>2012-04-08T06:51:12Z</time>
      </trkpt>
      <trkpt lat="45.35608" lon="6.59692">
        <ele>1761</ele>
        <time>2012-04-08T06:51:17Z</time>
      </trkpt>
      <trkpt lat="45.35607" lon="6.59698">
        <ele>1762</ele>
        <time>2012-04-08T06:51:22Z</time>
      </trkpt>
      <trkpt lat="45.35606" lon="6.59704">
        <ele>1762</ele>
        <time>2012-04-08T06:51:27Z</time>
      </trkpt>
      <trkpt lat="45.35606" lon="6.5971">
        <ele>1762</ele>
        <time>2012-04-08T06:51:32Z</time>
      </trkpt>
      <trkpt lat="45.35606" lon="6.59715">
        <ele>1763</ele>
        <time>2012-04-08T06:51:37Z</time>
      </trkpt>
      <trkpt lat="45.35607" lon="6.5972">
        <ele>1764</ele>
        <time>2012-04-08T06:51:42Z</time>
      </trkpt>
      <trkpt lat="45.35607" lon="6.59728">
        <ele>1764</ele>
        <time>2012-04-08T06:51:47Z</time>
      </trkpt>
      <trkpt lat="45.35604" lon="6.59733">
        <ele>1764</ele>
        <time>2012-04-08T06:51:52Z</time>
      </trkpt>
      <trkpt lat="45.35601" lon="6.59735">
        <ele>1763</ele>
        <time>2012-04-08T06:51:57Z</time>
      </trkpt>
      <trkpt lat="45.35597" lon="6.59738">
        <ele>1762</ele>
        <time>2012-04-08T06:52:02Z</time>
      </trkpt>
      <trkpt lat="45.35594" lon="6.59741">
        <ele>1762</ele>
        <time>2012-04-08T06:52:07Z</time>
      </trkpt>
      <trkpt lat="45.35591" lon="6.59744">
        <ele>1762</ele>
        <time>2012-04-08T06:52:12Z</time>
      </trkpt>
      <trkpt lat="45.35588" lon="6.59748">
        <ele>1764</ele>
        <time>2012-04-08T06:52:17Z</time>
      </trkpt>
      <trkpt lat="45.35586" lon="6.59752">
        <ele>1765</ele>
        <time>2012-04-08T06:52:22Z</time>
      </trkpt>
      <trkpt lat="45.35585" lon="6.59756">
        <ele>1766</ele>
        <time>2012-04-08T06:52:27Z</time>
      </trkpt>
      <trkpt lat="45.35589" lon="6.59757">
        <ele>1767</ele>
        <time>2012-04-08T06:52:32Z</time>
      </trkpt>
      <trkpt lat="45.35592" lon="6.59757">
        <ele>1768</ele>
        <time>2012-04-08T06:52:37Z</time>
      </trkpt>
      <trkpt lat="45.35595" lon="6.59758">
        <ele>1769</ele>
        <time>2012-04-08T06:52:42Z</time>
      </trkpt>
      <trkpt lat="45.35599" lon="6.59759">
        <ele>1770</ele>
        <time>2012-04-08T06:52:47Z</time>
      </trkpt>
      <trkpt lat="45.35602" lon="6.59761">
        <ele>1770</ele>
        <time>2012-04-08T06:52:52Z</time>
      </trkpt>
      <trkpt lat="45.35605" lon="6.59765">
        <ele>1771</ele>
        <time>2012-04-08T06:52:57Z</time>
      </trkpt>
      <trkpt lat="45.35608" lon="6.59769">
        <ele>1771</ele>
        <time>2012-04-08T06:53:02Z</time>
      </trkpt>
      <trkpt lat="45.35611" lon="6.59774">
        <ele>1771</ele>
        <time>2012-04-08T06:53:07Z</time>
      </trkpt>
      <trkpt lat="45.35614" lon="6.59779">
        <ele>1772</ele>
        <time>2012-04-08T06:53:12Z</time>
      </trkpt>
      <trkpt lat="45.35617" lon="6.59783">
        <ele>1772</ele>
        <time>2012-04-08T06:53:17Z</time>
      </trkpt>
      <trkpt lat="45.3562" lon="6.59787">
        <ele>1772</ele>
        <time>2012-04-08T06:53:22Z</time>
      </trkpt>
      <trkpt lat="45.35622" lon="6.59792">
        <ele>1773</ele>
        <time>2012-04-08T06:53:27Z</time>
      </trkpt>
      <trkpt lat="45.35624" lon="6.59797">
        <ele>1774</ele>
        <time>2012-04-08T06:53:32Z</time>
      </trkpt>
      <trkpt lat="45.35627" lon="6.59801">
        <ele>1775</ele>
        <time>2012-04-08T06:53:37Z</time>
      </trkpt>
      <trkpt lat="45.35627" lon="6.59805">
        <ele>1776</ele>
        <time>2012-04-08T06:53:42Z</time>
      </trkpt>
      <trkpt lat="45.35626" lon="6.5981">
        <ele>1777</ele>
        <time>2012-04-08T06:53:47Z</time>
      </trkpt>
      <trkpt lat="45.35624" lon="6.59814">
        <ele>1778</ele>
        <time>2012-04-08T06:53:52Z</time>
      </trkpt>
      <trkpt lat="45.35621" lon="6.59818">
        <ele>1778</ele>
        <time>2012-04-08T06:53:57Z</time>
      </trkpt>
      <trkpt lat="45.35618" lon="6.59821">
        <ele>1779</ele>
        <time>2012-04-08T06:54:02Z</time>
      </trkpt>
      <trkpt lat="45.35614" lon="6.59824">
        <ele>1779</ele>
        <time>2012-04-08T06:54:07Z</time>
      </trkpt>
      <trkpt lat="45.35611" lon="6.59827">
        <ele>1779</ele>
        <time>2012-04-08T06:54:12Z</time>
      </trkpt>
      <trkpt lat="45.35608" lon="6.59828">
        <ele>1779</ele>
        <time>2012-04-08T06:54:17Z</time>
      </trkpt>
      <trkpt lat="45.35604" lon="6.5983">
        <ele>1779</ele>
        <time>2012-04-08T06:54:22Z</time>
      </trkpt>
      <trkpt lat="45.35602" lon="6.59833">
        <ele>1777</ele>
        <time>2012-04-08T06:54:27Z</time>
      </trkpt>
      <trkpt lat="45.35598" lon="6.59835">
        <ele>1777</ele>
        <time>2012-04-08T06:54:32Z</time>
      </trkpt>
      <trkpt lat="45.35595" lon="6.59836">
        <ele>1781</ele>
        <time>2012-04-08T06:54:37Z</time>
      </trkpt>
      <trkpt lat="45.35593" lon="6.5984">
        <ele>1782</ele>
        <time>2012-04-08T06:54:42Z</time>
      </trkpt>
      <trkpt lat="45.35591" lon="6.59844">
        <ele>1785</ele>
        <time>2012-04-08T06:54:47Z</time>
      </trkpt>
      <trkpt lat="45.35591" lon="6.5985">
        <ele>1786</ele>
        <time>2012-04-08T06:54:52Z</time>
      </trkpt>
      <trkpt lat="45.35591" lon="6.59855">
        <ele>1786</ele>
        <time>2012-04-08T06:54:57Z</time>
      </trkpt>
      <trkpt lat="45.35592" lon="6.59861">
        <ele>1786</ele>
        <time>2012-04-08T06:55:02Z</time>
      </trkpt>
      <trkpt lat="45.35592" lon="6.59866">
        <ele>1786</ele>
        <time>2012-04-08T06:55:07Z</time>
      </trkpt>
      <trkpt lat="45.35592" lon="6.59871">
        <ele>1787</ele>
        <time>2012-04-08T06:55:12Z</time>
      </trkpt>
      <trkpt lat="45.35593" lon="6.59876">
        <ele>1787</ele>
        <time>2012-04-08T06:55:17Z</time>
      </trkpt>
      <trkpt lat="45.35593" lon="6.59882">
        <ele>1788</ele>
        <time>2012-04-08T06:55:22Z</time>
      </trkpt>
      <trkpt lat="45.35593" lon="6.59887">
        <ele>1789</ele>
        <time>2012-04-08T06:55:27Z</time>
      </trkpt>
      <trkpt lat="45.35592" lon="6.59892">
        <ele>1789</ele>
        <time>2012-04-08T06:55:32Z</time>
      </trkpt>
      <trkpt lat="45.35592" lon="6.59897">
        <ele>1790</ele>
        <time>2012-04-08T06:55:37Z</time>
      </trkpt>
      <trkpt lat="45.35592" lon="6.59903">
        <ele>1790</ele>
        <time>2012-04-08T06:55:42Z</time>
      </trkpt>
      <trkpt lat="45.35593" lon="6.59908">
        <ele>1791</ele>
        <time>2012-04-08T06:55:47Z</time>
      </trkpt>
      <trkpt lat="45.35593" lon="6.59913">
        <ele>1792</ele>
        <time>2012-04-08T06:55:52Z</time>
      </trkpt>
      <trkpt lat="45.35592" lon="6.59919">
        <ele>1793</ele>
        <time>2012-04-08T06:55:57Z</time>
      </trkpt>
      <trkpt lat="45.35591" lon="6.59924">
        <ele>1794</ele>
        <time>2012-04-08T06:56:02Z</time>
      </trkpt>
      <trkpt lat="45.35591" lon="6.59929">
        <ele>1795</ele>
        <time>2012-04-08T06:56:07Z</time>
      </trkpt>
      <trkpt lat="45.35591" lon="6.59933">
        <ele>1795</ele>
        <time>2012-04-08T06:56:12Z</time>
      </trkpt>
      <trkpt lat="45.3559" lon="6.59939">
        <ele>1796</ele>
        <time>2012-04-08T06:56:17Z</time>
      </trkpt>
      <trkpt lat="45.35589" lon="6.59944">
        <ele>1796</ele>
        <time>2012-04-08T06:56:22Z</time>
      </trkpt>
      <trkpt lat="45.35587" lon="6.59948">
        <ele>1797</ele>
        <time>2012-04-08T06:56:27Z</time>
      </trkpt>
      <trkpt lat="45.35586" lon="6.59953">
        <ele>1796</ele>
        <time>2012-04-08T06:56:32Z</time>
      </trkpt>
      <trkpt lat="45.35586" lon="6.59958">
        <ele>1798</ele>
        <time>2012-04-08T06:56:37Z</time>
      </trkpt>
      <trkpt lat="45.35586" lon="6.59958">
        <ele>1799</ele>
        <time>2012-04-08T06:56:42Z</time>
      </trkpt>
      <trkpt lat="45.35589" lon="6.59956">
        <ele>1799</ele>
        <time>2012-04-08T06:56:47Z</time>
      </trkpt>
      <trkpt lat="45.35592" lon="6.59954">
        <ele>1800</ele>
        <time>2012-04-08T06:56:52Z</time>
      </trkpt>
      <trkpt lat="45.35596" lon="6.59951">
        <ele>1801</ele>
        <time>2012-04-08T06:56:57Z</time>
      </trkpt>
      <trkpt lat="45.356" lon="6.5995">
        <ele>1801</ele>
        <time>2012-04-08T06:57:02Z</time>
      </trkpt>
      <trkpt lat="45.35603" lon="6.59951">
        <ele>1801</ele>
        <time>2012-04-08T06:57:07Z</time>
      </trkpt>
      <trkpt lat="45.35603" lon="6.59955">
        <ele>1802</ele>
        <time>2012-04-08T06:57:12Z</time>
      </trkpt>
      <trkpt lat="45.35603" lon="6.59959">
        <ele>1803</ele>
        <time>2012-04-08T06:57:17Z</time>
      </trkpt>
      <trkpt lat="45.35605" lon="6.59964">
        <ele>1804</ele>
        <time>2012-04-08T06:57:22Z</time>
      </trkpt>
      <trkpt lat="45.35606" lon="6.59967">
        <ele>1805</ele>
        <time>2012-04-08T06:57:27Z</time>
      </trkpt>
      <trkpt lat="45.35607" lon="6.59971">
        <ele>1807</ele>
        <time>2012-04-08T06:57:32Z</time>
      </trkpt>
      <trkpt lat="45.35608" lon="6.59974">
        <ele>1807</ele>
        <time>2012-04-08T06:57:37Z</time>
      </trkpt>
      <trkpt lat="45.3561" lon="6.59977">
        <ele>1808</ele>
        <time>2012-04-08T06:57:42Z</time>
      </trkpt>
      <trkpt lat="45.35611" lon="6.59981">
        <ele>1809</ele>
        <time>2012-04-08T06:57:47Z</time>
      </trkpt>
      <trkpt lat="45.35612" lon="6.59985">
        <ele>1810</ele>
        <time>2012-04-08T06:57:52Z</time>
      </trkpt>
      <trkpt lat="45.35613" lon="6.59989">
        <ele>1811</ele>
        <time>2012-04-08T06:57:57Z</time>
      </trkpt>
      <trkpt lat="45.35614" lon="6.59992">
        <ele>1812</ele>
        <time>2012-04-08T06:58:02Z</time>
      </trkpt>
      <trkpt lat="45.35614" lon="6.59996">
        <ele>1813</ele>
        <time>2012-04-08T06:58:07Z</time>
      </trkpt>
      <trkpt lat="45.35616" lon="6.59999">
        <ele>1814</ele>
        <time>2012-04-08T06:58:12Z</time>
      </trkpt>
      <trkpt lat="45.35618" lon="6.60002">
        <ele>1815</ele>
        <time>2012-04-08T06:58:17Z</time>
      </trkpt>
      <trkpt lat="45.35621" lon="6.60005">
        <ele>1816</ele>
        <time>2012-04-08T06:58:22Z</time>
      </trkpt>
      <trkpt lat="45.35623" lon="6.60009">
        <ele>1816</ele>
        <time>2012-04-08T06:58:27Z</time>
      </trkpt>
      <trkpt lat="45.35622" lon="6.60013">
        <ele>1817</ele>
        <time>2012-04-08T06:58:32Z</time>
      </trkpt>
      <trkpt lat="45.3562" lon="6.60017">
        <ele>1818</ele>
        <time>2012-04-08T06:58:37Z</time>
      </trkpt>
      <trkpt lat="45.35618" lon="6.60021">
        <ele>1819</ele>
        <time>2012-04-08T06:58:42Z</time>
      </trkpt>
      <trkpt lat="45.35615" lon="6.60026">
        <ele>1819</ele>
        <time>2012-04-08T06:58:47Z</time>
      </trkpt>
      <trkpt lat="45.35613" lon="6.60029">
        <ele>1820</ele>
        <time>2012-04-08T06:58:52Z</time>
      </trkpt>
      <trkpt lat="45.35611" lon="6.60033">
        <ele>1821</ele>
        <time>2012-04-08T06:58:57Z</time>
      </trkpt>
      <trkpt lat="45.35608" lon="6.60037">
        <ele>1822</ele>
        <time>2012-04-08T06:59:02Z</time>
      </trkpt>
      <trkpt lat="45.35606" lon="6.6004">
        <ele>1822</ele>
        <time>2012-04-08T06:59:07Z</time>
      </trkpt>
      <trkpt lat="45.35604" lon="6.60044">
        <ele>1823</ele>
        <time>2012-04-08T06:59:12Z</time>
      </trkpt>
      <trkpt lat="45.35602" lon="6.60047">
        <ele>1824</ele>
        <time>2012-04-08T06:59:17Z</time>
      </trkpt>
      <trkpt lat="45.356" lon="6.60051">
        <ele>1824</ele>
        <time>2012-04-08T06:59:22Z</time>
      </trkpt>
      <trkpt lat="45.35597" lon="6.60054">
        <ele>1825</ele>
        <time>2012-04-08T06:59:27Z</time>
      </trkpt>
      <trkpt lat="45.35595" lon="6.60058">
        <ele>1826</ele>
        <time>2012-04-08T06:59:32Z</time>
      </trkpt>
      <trkpt lat="45.35592" lon="6.60062">
        <ele>1826</ele>
        <time>2012-04-08T06:59:37Z</time>
      </trkpt>
      <trkpt lat="45.3559" lon="6.60066">
        <ele>1826</ele>
        <time>2012-04-08T06:59:42Z</time>
      </trkpt>
      <trkpt lat="45.35588" lon="6.6007">
        <ele>1826</ele>
        <time>2012-04-08T06:59:47Z</time>
      </trkpt>
      <trkpt lat="45.35585" lon="6.60074">
        <ele>1827</ele>
        <time>2012-04-08T06:59:52Z</time>
      </trkpt>
      <trkpt lat="45.35584" lon="6.60078">
        <ele>1827</ele>
        <time>2012-04-08T06:59:57Z</time>
      </trkpt>
      <trkpt lat="45.35582" lon="6.60082">
        <ele>1828</ele>
        <time>2012-04-08T07:00:02Z</time>
      </trkpt>
      <trkpt lat="45.35581" lon="6.60085">
        <ele>1829</ele>
        <time>2012-04-08T07:00:07Z</time>
      </trkpt>
      <trkpt lat="45.35579" lon="6.60091">
        <ele>1829</ele>
        <time>2012-04-08T07:00:12Z</time>
      </trkpt>
      <trkpt lat="45.35578" lon="6.60095">
        <ele>1829</ele>
        <time>2012-04-08T07:00:17Z</time>
      </trkpt>
      <trkpt lat="45.35577" lon="6.601">
        <ele>1830</ele>
        <time>2012-04-08T07:00:22Z</time>
      </trkpt>
      <trkpt lat="45.35575" lon="6.60105">
        <ele>1831</ele>
        <time>2012-04-08T07:00:27Z</time>
      </trkpt>
      <trkpt lat="45.35573" lon="6.60109">
        <ele>1831</ele>
        <time>2012-04-08T07:00:32Z</time>
      </trkpt>
      <trkpt lat="45.35571" lon="6.60113">
        <ele>1832</ele>
        <time>2012-04-08T07:00:37Z</time>
      </trkpt>
      <trkpt lat="45.35568" lon="6.60117">
        <ele>1832</ele>
        <time>2012-04-08T07:00:42Z</time>
      </trkpt>
      <trkpt lat="45.35565" lon="6.6012">
        <ele>1833</ele>
        <time>2012-04-08T07:00:47Z</time>
      </trkpt>
      <trkpt lat="45.35563" lon="6.60122">
        <ele>1834</ele>
        <time>2012-04-08T07:00:52Z</time>
      </trkpt>
      <trkpt lat="45.3556" lon="6.60125">
        <ele>1833</ele>
        <time>2012-04-08T07:00:57Z</time>
      </trkpt>
      <trkpt lat="45.35558" lon="6.60127">
        <ele>1832</ele>
        <time>2012-04-08T07:01:02Z</time>
      </trkpt>
      <trkpt lat="45.35555" lon="6.60129">
        <ele>1833</ele>
        <time>2012-04-08T07:01:07Z</time>
      </trkpt>
      <trkpt lat="45.35552" lon="6.60132">
        <ele>1834</ele>
        <time>2012-04-08T07:01:12Z</time>
      </trkpt>
      <trkpt lat="45.3555" lon="6.60134">
        <ele>1835</ele>
        <time>2012-04-08T07:01:17Z</time>
      </trkpt>
      <trkpt lat="45.35547" lon="6.60136">
        <ele>1836</ele>
        <time>2012-04-08T07:01:22Z</time>
      </trkpt>
      <trkpt lat="45.35544" lon="6.60139">
        <ele>1837</ele>
        <time>2012-04-08T07:01:27Z</time>
      </trkpt>
      <trkpt lat="45.35542" lon="6.60142">
        <ele>1837</ele>
        <time>2012-04-08T07:01:32Z</time>
      </trkpt>
      <trkpt lat="45.35542" lon="6.60147">
        <ele>1838</ele>
        <time>2012-04-08T07:01:37Z</time>
      </trkpt>
      <trkpt lat="45.35544" lon="6.60151">
        <ele>1838</ele>
        <time>2012-04-08T07:01:42Z</time>
      </trkpt>
      <trkpt lat="45.35546" lon="6.60153">
        <ele>1839</ele>
        <time>2012-04-08T07:01:47Z</time>
      </trkpt>
      <trkpt lat="45.35549" lon="6.60154">
        <ele>1839</ele>
        <time>2012-04-08T07:01:52Z</time>
      </trkpt>
      <trkpt lat="45.35553" lon="6.60155">
        <ele>1840</ele>
        <time>2012-04-08T07:01:57Z</time>
      </trkpt>
      <trkpt lat="45.35557" lon="6.60156">
        <ele>1840</ele>
        <time>2012-04-08T07:02:02Z</time>
      </trkpt>
      <trkpt lat="45.3556" lon="6.60157">
        <ele>1840</ele>
        <time>2012-04-08T07:02:07Z</time>
      </trkpt>
      <trkpt lat="45.35563" lon="6.60158">
        <ele>1841</ele>
        <time>2012-04-08T07:02:12Z</time>
      </trkpt>
      <trkpt lat="45.35566" lon="6.6016">
        <ele>1841</ele>
        <time>2012-04-08T07:02:17Z</time>
      </trkpt>
      <trkpt lat="45.35568" lon="6.60163">
        <ele>1842</ele>
        <time>2012-04-08T07:02:22Z</time>
      </trkpt>
      <trkpt lat="45.35571" lon="6.60166">
        <ele>1842</ele>
        <time>2012-04-08T07:02:27Z</time>
      </trkpt>
      <trkpt lat="45.35572" lon="6.6017">
        <ele>1843</ele>
        <time>2012-04-08T07:02:32Z</time>
      </trkpt>
      <trkpt lat="45.35572" lon="6.60174">
        <ele>1844</ele>
        <time>2012-04-08T07:02:37Z</time>
      </trkpt>
      <trkpt lat="45.35572" lon="6.60178">
        <ele>1844</ele>
        <time>2012-04-08T07:02:42Z</time>
      </trkpt>
      <trkpt lat="45.35573" lon="6.60183">
        <ele>1844</ele>
        <time>2012-04-08T07:02:47Z</time>
      </trkpt>
      <trkpt lat="45.35573" lon="6.60187">
        <ele>1845</ele>
        <time>2012-04-08T07:02:52Z</time>
      </trkpt>
      <trkpt lat="45.35575" lon="6.60191">
        <ele>1845</ele>
        <time>2012-04-08T07:02:57Z</time>
      </trkpt>
      <trkpt lat="45.35577" lon="6.60195">
        <ele>1845</ele>
        <time>2012-04-08T07:03:02Z</time>
      </trkpt>
      <trkpt lat="45.35579" lon="6.60198">
        <ele>1846</ele>
        <time>2012-04-08T07:03:07Z</time>
      </trkpt>
      <trkpt lat="45.35582" lon="6.602">
        <ele>1847</ele>
        <time>2012-04-08T07:03:12Z</time>
      </trkpt>
      <trkpt lat="45.35585" lon="6.60203">
        <ele>1847</ele>
        <time>2012-04-08T07:03:17Z</time>
      </trkpt>
      <trkpt lat="45.35588" lon="6.60206">
        <ele>1848</ele>
        <time>2012-04-08T07:03:22Z</time>
      </trkpt>
      <trkpt lat="45.3559" lon="6.60209">
        <ele>1849</ele>
        <time>2012-04-08T07:03:27Z</time>
      </trkpt>
      <trkpt lat="45.35593" lon="6.60211">
        <ele>1849</ele>
        <time>2012-04-08T07:03:32Z</time>
      </trkpt>
      <trkpt lat="45.35595" lon="6.60214">
        <ele>1850</ele>
        <time>2012-04-08T07:03:37Z</time>
      </trkpt>
      <trkpt lat="45.35597" lon="6.60216">
        <ele>1850</ele>
        <time>2012-04-08T07:03:42Z</time>
      </trkpt>
      <trkpt lat="45.35597" lon="6.60216">
        <ele>1850</ele>
        <time>2012-04-08T07:03:47Z</time>
      </trkpt>
      <trkpt lat="45.35597" lon="6.60216">
        <ele>1849</ele>
        <time>2012-04-08T07:03:52Z</time>
      </trkpt>
      <trkpt lat="45.35597" lon="6.60216">
        <ele>1849</ele>
        <time>2012-04-08T07:03:57Z</time>
      </trkpt>
      <trkpt lat="45.35597" lon="6.60216">
        <ele>1850</ele>
        <time>2012-04-08T07:04:02Z</time>
      </trkpt>
      <trkpt lat="45.35599" lon="6.60219">
        <ele>1851</ele>
        <time>2012-04-08T07:04:07Z</time>
      </trkpt>
      <trkpt lat="45.35602" lon="6.60223">
        <ele>1853</ele>
        <time>2012-04-08T07:04:12Z</time>
      </trkpt>
      <trkpt lat="45.35605" lon="6.60227">
        <ele>1854</ele>
        <time>2012-04-08T07:04:17Z</time>
      </trkpt>
      <trkpt lat="45.35607" lon="6.60231">
        <ele>1855</ele>
        <time>2012-04-08T07:04:22Z</time>
      </trkpt>
      <trkpt lat="45.3561" lon="6.60235">
        <ele>1855</ele>
        <time>2012-04-08T07:04:27Z</time>
      </trkpt>
      <trkpt lat="45.35613" lon="6.60238">
        <ele>1856</ele>
        <time>2012-04-08T07:04:32Z</time>
      </trkpt>
      <trkpt lat="45.35613" lon="6.60238">
        <ele>1856</ele>
        <time>2012-04-08T07:04:37Z</time>
      </trkpt>
      <trkpt lat="45.35613" lon="6.60238">
        <ele>1857</ele>
        <time>2012-04-08T07:04:42Z</time>
      </trkpt>
      <trkpt lat="45.35612" lon="6.60238">
        <ele>1858</ele>
        <time>2012-04-08T07:04:47Z</time>
      </trkpt>
      <trkpt lat="45.35612" lon="6.60238">
        <ele>1858</ele>
        <time>2012-04-08T07:04:52Z</time>
      </trkpt>
      <trkpt lat="45.35611" lon="6.60238">
        <ele>1859</ele>
        <time>2012-04-08T07:04:57Z</time>
      </trkpt>
      <trkpt lat="45.35614" lon="6.60241">
        <ele>1858</ele>
        <time>2012-04-08T07:05:02Z</time>
      </trkpt>
      <trkpt lat="45.35616" lon="6.60243">
        <ele>1858</ele>
        <time>2012-04-08T07:05:07Z</time>
      </trkpt>
      <trkpt lat="45.35617" lon="6.60245">
        <ele>1857</ele>
        <time>2012-04-08T07:05:12Z</time>
      </trkpt>
      <trkpt lat="45.3562" lon="6.60248">
        <ele>1857</ele>
        <time>2012-04-08T07:05:17Z</time>
      </trkpt>
      <trkpt lat="45.35622" lon="6.60251">
        <ele>1857</ele>
        <time>2012-04-08T07:05:22Z</time>
      </trkpt>
      <trkpt lat="45.35627" lon="6.60255">
        <ele>1857</ele>
        <time>2012-04-08T07:05:27Z</time>
      </trkpt>
      <trkpt lat="45.3563" lon="6.60259">
        <ele>1857</ele>
        <time>2012-04-08T07:05:32Z</time>
      </trkpt>
      <trkpt lat="45.35634" lon="6.60264">
        <ele>1857</ele>
        <time>2012-04-08T07:05:37Z</time>
      </trkpt>
      <trkpt lat="45.35637" lon="6.60268">
        <ele>1857</ele>
        <time>2012-04-08T07:05:42Z</time>
      </trkpt>
      <trkpt lat="45.35641" lon="6.60272">
        <ele>1857</ele>
        <time>2012-04-08T07:05:47Z</time>
      </trkpt>
      <trkpt lat="45.35645" lon="6.60276">
        <ele>1857</ele>
        <time>2012-04-08T07:05:52Z</time>
      </trkpt>
      <trkpt lat="45.35648" lon="6.60281">
        <ele>1858</ele>
        <time>2012-04-08T07:05:57Z</time>
      </trkpt>
      <trkpt lat="45.35651" lon="6.60285">
        <ele>1858</ele>
        <time>2012-04-08T07:06:02Z</time>
      </trkpt>
      <trkpt lat="45.35653" lon="6.6029">
        <ele>1858</ele>
        <time>2012-04-08T07:06:07Z</time>
      </trkpt>
      <trkpt lat="45.35654" lon="6.60295">
        <ele>1859</ele>
        <time>2012-04-08T07:06:12Z</time>
      </trkpt>
      <trkpt lat="45.35656" lon="6.60299">
        <ele>1860</ele>
        <time>2012-04-08T07:06:17Z</time>
      </trkpt>
      <trkpt lat="45.35656" lon="6.60303">
        <ele>1860</ele>
        <time>2012-04-08T07:06:22Z</time>
      </trkpt>
      <trkpt lat="45.35656" lon="6.60307">
        <ele>1861</ele>
        <time>2012-04-08T07:06:27Z</time>
      </trkpt>
      <trkpt lat="45.35656" lon="6.60312">
        <ele>1862</ele>
        <time>2012-04-08T07:06:32Z</time>
      </trkpt>
      <trkpt lat="45.35657" lon="6.60316">
        <ele>1862</ele>
        <time>2012-04-08T07:06:37Z</time>
      </trkpt>
      <trkpt lat="45.35658" lon="6.6032">
        <ele>1863</ele>
        <time>2012-04-08T07:06:42Z</time>
      </trkpt>
      <trkpt lat="45.35658" lon="6.60324">
        <ele>1864</ele>
        <time>2012-04-08T07:06:47Z</time>
      </trkpt>
      <trkpt lat="45.35659" lon="6.60329">
        <ele>1864</ele>
        <time>2012-04-08T07:06:52Z</time>
      </trkpt>
      <trkpt lat="45.35661" lon="6.60334">
        <ele>1865</ele>
        <time>2012-04-08T07:06:57Z</time>
      </trkpt>
      <trkpt lat="45.35661" lon="6.60339">
        <ele>1865</ele>
        <time>2012-04-08T07:07:02Z</time>
      </trkpt>
      <trkpt lat="45.35661" lon="6.60345">
        <ele>1866</ele>
        <time>2012-04-08T07:07:07Z</time>
      </trkpt>
      <trkpt lat="45.35661" lon="6.60351">
        <ele>1867</ele>
        <time>2012-04-08T07:07:12Z</time>
      </trkpt>
      <trkpt lat="45.35659" lon="6.60356">
        <ele>1867</ele>
        <time>2012-04-08T07:07:17Z</time>
      </trkpt>
      <trkpt lat="45.35658" lon="6.60362">
        <ele>1868</ele>
        <time>2012-04-08T07:07:22Z</time>
      </trkpt>
      <trkpt lat="45.35656" lon="6.60369">
        <ele>1868</ele>
        <time>2012-04-08T07:07:27Z</time>
      </trkpt>
      <trkpt lat="45.35656" lon="6.60376">
        <ele>1869</ele>
        <time>2012-04-08T07:07:32Z</time>
      </trkpt>
      <trkpt lat="45.35655" lon="6.60383">
        <ele>1869</ele>
        <time>2012-04-08T07:07:37Z</time>
      </trkpt>
      <trkpt lat="45.35653" lon="6.60388">
        <ele>1869</ele>
        <time>2012-04-08T07:07:42Z</time>
      </trkpt>
      <trkpt lat="45.35652" lon="6.60391">
        <ele>1869</ele>
        <time>2012-04-08T07:07:47Z</time>
      </trkpt>
      <trkpt lat="45.35651" lon="6.60396">
        <ele>1870</ele>
        <time>2012-04-08T07:07:52Z</time>
      </trkpt>
      <trkpt lat="45.3565" lon="6.60401">
        <ele>1871</ele>
        <time>2012-04-08T07:07:57Z</time>
      </trkpt>
      <trkpt lat="45.3565" lon="6.60402">
        <ele>1871</ele>
        <time>2012-04-08T07:08:02Z</time>
      </trkpt>
      <trkpt lat="45.3565" lon="6.60407">
        <ele>1872</ele>
        <time>2012-04-08T07:08:07Z</time>
      </trkpt>
      <trkpt lat="45.35649" lon="6.60412">
        <ele>1872</ele>
        <time>2012-04-08T07:08:12Z</time>
      </trkpt>
      <trkpt lat="45.35649" lon="6.60417">
        <ele>1873</ele>
        <time>2012-04-08T07:08:17Z</time>
      </trkpt>
      <trkpt lat="45.35648" lon="6.60421">
        <ele>1874</ele>
        <time>2012-04-08T07:08:22Z</time>
      </trkpt>
      <trkpt lat="45.35647" lon="6.60424">
        <ele>1875</ele>
        <time>2012-04-08T07:08:27Z</time>
      </trkpt>
      <trkpt lat="45.35647" lon="6.60428">
        <ele>1875</ele>
        <time>2012-04-08T07:08:32Z</time>
      </trkpt>
      <trkpt lat="45.35646" lon="6.60432">
        <ele>1876</ele>
        <time>2012-04-08T07:08:37Z</time>
      </trkpt>
      <trkpt lat="45.35645" lon="6.60435">
        <ele>1876</ele>
        <time>2012-04-08T07:08:42Z</time>
      </trkpt>
      <trkpt lat="45.35644" lon="6.60435">
        <ele>1877</ele>
        <time>2012-04-08T07:08:47Z</time>
      </trkpt>
      <trkpt lat="45.35644" lon="6.60437">
        <ele>1877</ele>
        <time>2012-04-08T07:08:52Z</time>
      </trkpt>
      <trkpt lat="45.35643" lon="6.60441">
        <ele>1878</ele>
        <time>2012-04-08T07:08:57Z</time>
      </trkpt>
      <trkpt lat="45.35642" lon="6.60445">
        <ele>1878</ele>
        <time>2012-04-08T07:09:02Z</time>
      </trkpt>
      <trkpt lat="45.35641" lon="6.60449">
        <ele>1878</ele>
        <time>2012-04-08T07:09:07Z</time>
      </trkpt>
      <trkpt lat="45.3564" lon="6.60454">
        <ele>1879</ele>
        <time>2012-04-08T07:09:12Z</time>
      </trkpt>
      <trkpt lat="45.35639" lon="6.60458">
        <ele>1879</ele>
        <time>2012-04-08T07:09:17Z</time>
      </trkpt>
      <trkpt lat="45.35637" lon="6.60462">
        <ele>1880</ele>
        <time>2012-04-08T07:09:22Z</time>
      </trkpt>
      <trkpt lat="45.35637" lon="6.60466">
        <ele>1881</ele>
        <time>2012-04-08T07:09:27Z</time>
      </trkpt>
      <trkpt lat="45.35635" lon="6.60469">
        <ele>1881</ele>
        <time>2012-04-08T07:09:32Z</time>
      </trkpt>
      <trkpt lat="45.35633" lon="6.60473">
        <ele>1882</ele>
        <time>2012-04-08T07:09:37Z</time>
      </trkpt>
      <trkpt lat="45.35631" lon="6.60476">
        <ele>1883</ele>
        <time>2012-04-08T07:09:42Z</time>
      </trkpt>
      <trkpt lat="45.3563" lon="6.60478">
        <ele>1883</ele>
        <time>2012-04-08T07:09:47Z</time>
      </trkpt>
      <trkpt lat="45.35629" lon="6.6048">
        <ele>1884</ele>
        <time>2012-04-08T07:09:52Z</time>
      </trkpt>
      <trkpt lat="45.35627" lon="6.60483">
        <ele>1885</ele>
        <time>2012-04-08T07:09:57Z</time>
      </trkpt>
      <trkpt lat="45.35626" lon="6.60486">
        <ele>1885</ele>
        <time>2012-04-08T07:10:02Z</time>
      </trkpt>
      <trkpt lat="45.35624" lon="6.60489">
        <ele>1886</ele>
        <time>2012-04-08T07:10:07Z</time>
      </trkpt>
      <trkpt lat="45.35622" lon="6.60492">
        <ele>1887</ele>
        <time>2012-04-08T07:10:12Z</time>
      </trkpt>
      <trkpt lat="45.35623" lon="6.60496">
        <ele>1888</ele>
        <time>2012-04-08T07:10:17Z</time>
      </trkpt>
      <trkpt lat="45.35624" lon="6.60498">
        <ele>1888</ele>
        <time>2012-04-08T07:10:22Z</time>
      </trkpt>
      <trkpt lat="45.35627" lon="6.60499">
        <ele>1889</ele>
        <time>2012-04-08T07:10:27Z</time>
      </trkpt>
      <trkpt lat="45.35629" lon="6.60501">
        <ele>1890</ele>
        <time>2012-04-08T07:10:32Z</time>
      </trkpt>
      <trkpt lat="45.35631" lon="6.60503">
        <ele>1891</ele>
        <time>2012-04-08T07:10:37Z</time>
      </trkpt>
      <trkpt lat="45.35634" lon="6.60505">
        <ele>1891</ele>
        <time>2012-04-08T07:10:42Z</time>
      </trkpt>
      <trkpt lat="45.35637" lon="6.60507">
        <ele>1892</ele>
        <time>2012-04-08T07:10:47Z</time>
      </trkpt>
      <trkpt lat="45.35639" lon="6.6051">
        <ele>1893</ele>
        <time>2012-04-08T07:10:52Z</time>
      </trkpt>
      <trkpt lat="45.35642" lon="6.60512">
        <ele>1893</ele>
        <time>2012-04-08T07:10:57Z</time>
      </trkpt>
      <trkpt lat="45.35645" lon="6.60514">
        <ele>1893</ele>
        <time>2012-04-08T07:11:02Z</time>
      </trkpt>
      <trkpt lat="45.35648" lon="6.60515">
        <ele>1894</ele>
        <time>2012-04-08T07:11:07Z</time>
      </trkpt>
      <trkpt lat="45.3565" lon="6.60517">
        <ele>1895</ele>
        <time>2012-04-08T07:11:12Z</time>
      </trkpt>
      <trkpt lat="45.35652" lon="6.60519">
        <ele>1895</ele>
        <time>2012-04-08T07:11:17Z</time>
      </trkpt>
      <trkpt lat="45.35654" lon="6.60522">
        <ele>1896</ele>
        <time>2012-04-08T07:11:22Z</time>
      </trkpt>
      <trkpt lat="45.35656" lon="6.60524">
        <ele>1897</ele>
        <time>2012-04-08T07:11:27Z</time>
      </trkpt>
      <trkpt lat="45.35659" lon="6.60526">
        <ele>1898</ele>
        <time>2012-04-08T07:11:32Z</time>
      </trkpt>
      <trkpt lat="45.35661" lon="6.60528">
        <ele>1899</ele>
        <time>2012-04-08T07:11:37Z</time>
      </trkpt>
      <trkpt lat="45.35663" lon="6.6053">
        <ele>1899</ele>
        <time>2012-04-08T07:11:42Z</time>
      </trkpt>
      <trkpt lat="45.35664" lon="6.60532">
        <ele>1900</ele>
        <time>2012-04-08T07:11:47Z</time>
      </trkpt>
      <trkpt lat="45.35666" lon="6.60535">
        <ele>1901</ele>
        <time>2012-04-08T07:11:52Z</time>
      </trkpt>
      <trkpt lat="45.35668" lon="6.60538">
        <ele>1902</ele>
        <time>2012-04-08T07:11:57Z</time>
      </trkpt>
      <trkpt lat="45.35669" lon="6.60541">
        <ele>1902</ele>
        <time>2012-04-08T07:12:02Z</time>
      </trkpt>
      <trkpt lat="45.35671" lon="6.60543">
        <ele>1903</ele>
        <time>2012-04-08T07:12:07Z</time>
      </trkpt>
      <trkpt lat="45.35673" lon="6.60546">
        <ele>1904</ele>
        <time>2012-04-08T07:12:12Z</time>
      </trkpt>
      <trkpt lat="45.35675" lon="6.60549">
        <ele>1905</ele>
        <time>2012-04-08T07:12:17Z</time>
      </trkpt>
      <trkpt lat="45.35676" lon="6.60552">
        <ele>1905</ele>
        <time>2012-04-08T07:12:22Z</time>
      </trkpt>
      <trkpt lat="45.35679" lon="6.60555">
        <ele>1906</ele>
        <time>2012-04-08T07:12:27Z</time>
      </trkpt>
      <trkpt lat="45.3568" lon="6.60557">
        <ele>1907</ele>
        <time>2012-04-08T07:12:32Z</time>
      </trkpt>
      <trkpt lat="45.35682" lon="6.60559">
        <ele>1908</ele>
        <time>2012-04-08T07:12:37Z</time>
      </trkpt>
      <trkpt lat="45.35685" lon="6.60562">
        <ele>1908</ele>
        <time>2012-04-08T07:12:42Z</time>
      </trkpt>
      <trkpt lat="45.35687" lon="6.60564">
        <ele>1909</ele>
        <time>2012-04-08T07:12:47Z</time>
      </trkpt>
      <trkpt lat="45.35688" lon="6.60566">
        <ele>1910</ele>
        <time>2012-04-08T07:12:52Z</time>
      </trkpt>
      <trkpt lat="45.35689" lon="6.60566">
        <ele>1911</ele>
        <time>2012-04-08T07:12:57Z</time>
      </trkpt>
      <trkpt lat="45.3569" lon="6.60567">
        <ele>1911</ele>
        <time>2012-04-08T07:13:02Z</time>
      </trkpt>
      <trkpt lat="45.35692" lon="6.60569">
        <ele>1912</ele>
        <time>2012-04-08T07:13:07Z</time>
      </trkpt>
      <trkpt lat="45.35693" lon="6.60569">
        <ele>1914</ele>
        <time>2012-04-08T07:13:12Z</time>
      </trkpt>
      <trkpt lat="45.35694" lon="6.60571">
        <ele>1914</ele>
        <time>2012-04-08T07:13:17Z</time>
      </trkpt>
      <trkpt lat="45.35697" lon="6.60574">
        <ele>1915</ele>
        <time>2012-04-08T07:13:22Z</time>
      </trkpt>
      <trkpt lat="45.357" lon="6.60577">
        <ele>1915</ele>
        <time>2012-04-08T07:13:27Z</time>
      </trkpt>
      <trkpt lat="45.35703" lon="6.60579">
        <ele>1916</ele>
        <time>2012-04-08T07:13:32Z</time>
      </trkpt>
      <trkpt lat="45.35705" lon="6.60582">
        <ele>1917</ele>
        <time>2012-04-08T07:13:37Z</time>
      </trkpt>
      <trkpt lat="45.35707" lon="6.60585">
        <ele>1917</ele>
        <time>2012-04-08T07:13:42Z</time>
      </trkpt>
      <trkpt lat="45.35709" lon="6.60587">
        <ele>1918</ele>
        <time>2012-04-08T07:13:47Z</time>
      </trkpt>
      <trkpt lat="45.35712" lon="6.60588">
        <ele>1919</ele>
        <time>2012-04-08T07:13:52Z</time>
      </trkpt>
      <trkpt lat="45.35714" lon="6.6059">
        <ele>1921</ele>
        <time>2012-04-08T07:13:57Z</time>
      </trkpt>
      <trkpt lat="45.35716" lon="6.60592">
        <ele>1921</ele>
        <time>2012-04-08T07:14:02Z</time>
      </trkpt>
      <trkpt lat="45.35719" lon="6.60595">
        <ele>1922</ele>
        <time>2012-04-08T07:14:07Z</time>
      </trkpt>
      <trkpt lat="45.35722" lon="6.60597">
        <ele>1923</ele>
        <time>2012-04-08T07:14:12Z</time>
      </trkpt>
      <trkpt lat="45.35725" lon="6.60599">
        <ele>1923</ele>
        <time>2012-04-08T07:14:17Z</time>
      </trkpt>
      <trkpt lat="45.35727" lon="6.60602">
        <ele>1924</ele>
        <time>2012-04-08T07:14:22Z</time>
      </trkpt>
      <trkpt lat="45.35728" lon="6.60605">
        <ele>1925</ele>
        <time>2012-04-08T07:14:27Z</time>
      </trkpt>
      <trkpt lat="45.35727" lon="6.60609">
        <ele>1925</ele>
        <time>2012-04-08T07:14:32Z</time>
      </trkpt>
      <trkpt lat="45.35723" lon="6.6061">
        <ele>1926</ele>
        <time>2012-04-08T07:14:37Z</time>
      </trkpt>
      <trkpt lat="45.3572" lon="6.60611">
        <ele>1926</ele>
        <time>2012-04-08T07:14:42Z</time>
      </trkpt>
      <trkpt lat="45.35717" lon="6.60611">
        <ele>1926</ele>
        <time>2012-04-08T07:14:47Z</time>
      </trkpt>
      <trkpt lat="45.35714" lon="6.6061">
        <ele>1925</ele>
        <time>2012-04-08T07:14:52Z</time>
      </trkpt>
      <trkpt lat="45.35711" lon="6.6061">
        <ele>1926</ele>
        <time>2012-04-08T07:14:57Z</time>
      </trkpt>
      <trkpt lat="45.35708" lon="6.60611">
        <ele>1926</ele>
        <time>2012-04-08T07:15:02Z</time>
      </trkpt>
      <trkpt lat="45.35705" lon="6.60612">
        <ele>1926</ele>
        <time>2012-04-08T07:15:07Z</time>
      </trkpt>
      <trkpt lat="45.35702" lon="6.60613">
        <ele>1926</ele>
        <time>2012-04-08T07:15:12Z</time>
      </trkpt>
      <trkpt lat="45.357" lon="6.60614">
        <ele>1928</ele>
        <time>2012-04-08T07:15:17Z</time>
      </trkpt>
      <trkpt lat="45.35698" lon="6.60615">
        <ele>1928</ele>
        <time>2012-04-08T07:15:22Z</time>
      </trkpt>
      <trkpt lat="45.35695" lon="6.60616">
        <ele>1931</ele>
        <time>2012-04-08T07:15:27Z</time>
      </trkpt>
      <trkpt lat="45.35692" lon="6.60617">
        <ele>1931</ele>
        <time>2012-04-08T07:15:32Z</time>
      </trkpt>
      <trkpt lat="45.35689" lon="6.60618">
        <ele>1932</ele>
        <time>2012-04-08T07:15:37Z</time>
      </trkpt>
      <trkpt lat="45.35686" lon="6.6062">
        <ele>1933</ele>
        <time>2012-04-08T07:15:42Z</time>
      </trkpt>
      <trkpt lat="45.35684" lon="6.60622">
        <ele>1934</ele>
        <time>2012-04-08T07:15:47Z</time>
      </trkpt>
      <trkpt lat="45.35681" lon="6.60624">
        <ele>1934</ele>
        <time>2012-04-08T07:15:52Z</time>
      </trkpt>
      <trkpt lat="45.35679" lon="6.60626">
        <ele>1935</ele>
        <time>2012-04-08T07:15:57Z</time>
      </trkpt>
      <trkpt lat="45.35677" lon="6.60628">
        <ele>1936</ele>
        <time>2012-04-08T07:16:02Z</time>
      </trkpt>
      <trkpt lat="45.35675" lon="6.60631">
        <ele>1936</ele>
        <time>2012-04-08T07:16:07Z</time>
      </trkpt>
      <trkpt lat="45.35672" lon="6.60633">
        <ele>1937</ele>
        <time>2012-04-08T07:16:12Z</time>
      </trkpt>
      <trkpt lat="45.35671" lon="6.60635">
        <ele>1938</ele>
        <time>2012-04-08T07:16:17Z</time>
      </trkpt>
      <trkpt lat="45.35668" lon="6.60638">
        <ele>1939</ele>
        <time>2012-04-08T07:16:22Z</time>
      </trkpt>
      <trkpt lat="45.35666" lon="6.6064">
        <ele>1940</ele>
        <time>2012-04-08T07:16:27Z</time>
      </trkpt>
      <trkpt lat="45.35664" lon="6.60642">
        <ele>1940</ele>
        <time>2012-04-08T07:16:32Z</time>
      </trkpt>
      <trkpt lat="45.35662" lon="6.60644">
        <ele>1941</ele>
        <time>2012-04-08T07:16:37Z</time>
      </trkpt>
      <trkpt lat="45.35659" lon="6.60647">
        <ele>1942</ele>
        <time>2012-04-08T07:16:42Z</time>
      </trkpt>
      <trkpt lat="45.35657" lon="6.60649">
        <ele>1943</ele>
        <time>2012-04-08T07:16:47Z</time>
      </trkpt>
      <trkpt lat="45.35656" lon="6.60651">
        <ele>1943</ele>
        <time>2012-04-08T07:16:52Z</time>
      </trkpt>
      <trkpt lat="45.35654" lon="6.60654">
        <ele>1944</ele>
        <time>2012-04-08T07:16:57Z</time>
      </trkpt>
      <trkpt lat="45.35652" lon="6.60655">
        <ele>1945</ele>
        <time>2012-04-08T07:17:02Z</time>
      </trkpt>
      <trkpt lat="45.35649" lon="6.60656">
        <ele>1945</ele>
        <time>2012-04-08T07:17:07Z</time>
      </trkpt>
      <trkpt lat="45.35647" lon="6.60658">
        <ele>1946</ele>
        <time>2012-04-08T07:17:12Z</time>
      </trkpt>
      <trkpt lat="45.35647" lon="6.60661">
        <ele>1947</ele>
        <time>2012-04-08T07:17:17Z</time>
      </trkpt>
      <trkpt lat="45.35647" lon="6.60665">
        <ele>1949</ele>
        <time>2012-04-08T07:17:22Z</time>
      </trkpt>
      <trkpt lat="45.3565" lon="6.60667">
        <ele>1949</ele>
        <time>2012-04-08T07:17:27Z</time>
      </trkpt>
      <trkpt lat="45.35653" lon="6.60667">
        <ele>1950</ele>
        <time>2012-04-08T07:17:32Z</time>
      </trkpt>
      <trkpt lat="45.35656" lon="6.60666">
        <ele>1950</ele>
        <time>2012-04-08T07:17:37Z</time>
      </trkpt>
      <trkpt lat="45.35658" lon="6.60666">
        <ele>1950</ele>
        <time>2012-04-08T07:17:42Z</time>
      </trkpt>
      <trkpt lat="45.35661" lon="6.60665">
        <ele>1951</ele>
        <time>2012-04-08T07:17:47Z</time>
      </trkpt>
      <trkpt lat="45.35664" lon="6.60664">
        <ele>1952</ele>
        <time>2012-04-08T07:17:52Z</time>
      </trkpt>
      <trkpt lat="45.35666" lon="6.60664">
        <ele>1953</ele>
        <time>2012-04-08T07:17:57Z</time>
      </trkpt>
      <trkpt lat="45.35669" lon="6.60665">
        <ele>1954</ele>
        <time>2012-04-08T07:18:02Z</time>
      </trkpt>
      <trkpt lat="45.35671" lon="6.60665">
        <ele>1955</ele>
        <time>2012-04-08T07:18:07Z</time>
      </trkpt>
      <trkpt lat="45.35674" lon="6.60665">
        <ele>1956</ele>
        <time>2012-04-08T07:18:12Z</time>
      </trkpt>
      <trkpt lat="45.35676" lon="6.60666">
        <ele>1957</ele>
        <time>2012-04-08T07:18:17Z</time>
      </trkpt>
      <trkpt lat="45.35679" lon="6.60666">
        <ele>1958</ele>
        <time>2012-04-08T07:18:22Z</time>
      </trkpt>
      <trkpt lat="45.35681" lon="6.60667">
        <ele>1960</ele>
        <time>2012-04-08T07:18:27Z</time>
      </trkpt>
      <trkpt lat="45.35684" lon="6.60668">
        <ele>1960</ele>
        <time>2012-04-08T07:18:32Z</time>
      </trkpt>
      <trkpt lat="45.35685" lon="6.6067">
        <ele>1961</ele>
        <time>2012-04-08T07:18:37Z</time>
      </trkpt>
      <trkpt lat="45.35688" lon="6.60672">
        <ele>1962</ele>
        <time>2012-04-08T07:18:42Z</time>
      </trkpt>
      <trkpt lat="45.3569" lon="6.60674">
        <ele>1963</ele>
        <time>2012-04-08T07:18:47Z</time>
      </trkpt>
      <trkpt lat="45.35692" lon="6.60677">
        <ele>1963</ele>
        <time>2012-04-08T07:18:52Z</time>
      </trkpt>
      <trkpt lat="45.35694" lon="6.60679">
        <ele>1964</ele>
        <time>2012-04-08T07:18:57Z</time>
      </trkpt>
      <trkpt lat="45.35696" lon="6.60682">
        <ele>1965</ele>
        <time>2012-04-08T07:19:02Z</time>
      </trkpt>
      <trkpt lat="45.35698" lon="6.60684">
        <ele>1966</ele>
        <time>2012-04-08T07:19:07Z</time>
      </trkpt>
      <trkpt lat="45.357" lon="6.60687">
        <ele>1967</ele>
        <time>2012-04-08T07:19:12Z</time>
      </trkpt>
      <trkpt lat="45.35703" lon="6.60689">
        <ele>1967</ele>
        <time>2012-04-08T07:19:17Z</time>
      </trkpt>
      <trkpt lat="45.35705" lon="6.60692">
        <ele>1968</ele>
        <time>2012-04-08T07:19:22Z</time>
      </trkpt>
      <trkpt lat="45.35707" lon="6.60694">
        <ele>1969</ele>
        <time>2012-04-08T07:19:27Z</time>
      </trkpt>
      <trkpt lat="45.35709" lon="6.60696">
        <ele>1970</ele>
        <time>2012-04-08T07:19:32Z</time>
      </trkpt>
      <trkpt lat="45.35711" lon="6.60699">
        <ele>1971</ele>
        <time>2012-04-08T07:19:37Z</time>
      </trkpt>
      <trkpt lat="45.35713" lon="6.60702">
        <ele>1971</ele>
        <time>2012-04-08T07:19:42Z</time>
      </trkpt>
      <trkpt lat="45.35714" lon="6.60704">
        <ele>1972</ele>
        <time>2012-04-08T07:19:47Z</time>
      </trkpt>
      <trkpt lat="45.35716" lon="6.60707">
        <ele>1974</ele>
        <time>2012-04-08T07:19:52Z</time>
      </trkpt>
      <trkpt lat="45.35717" lon="6.6071">
        <ele>1974</ele>
        <time>2012-04-08T07:19:57Z</time>
      </trkpt>
      <trkpt lat="45.35719" lon="6.60713">
        <ele>1975</ele>
        <time>2012-04-08T07:20:02Z</time>
      </trkpt>
      <trkpt lat="45.35721" lon="6.60716">
        <ele>1976</ele>
        <time>2012-04-08T07:20:07Z</time>
      </trkpt>
      <trkpt lat="45.35723" lon="6.60719">
        <ele>1976</ele>
        <time>2012-04-08T07:20:12Z</time>
      </trkpt>
      <trkpt lat="45.35726" lon="6.60723">
        <ele>1977</ele>
        <time>2012-04-08T07:20:17Z</time>
      </trkpt>
      <trkpt lat="45.35729" lon="6.60727">
        <ele>1978</ele>
        <time>2012-04-08T07:20:22Z</time>
      </trkpt>
      <trkpt lat="45.35733" lon="6.60732">
        <ele>1978</ele>
        <time>2012-04-08T07:20:27Z</time>
      </trkpt>
      <trkpt lat="45.35738" lon="6.60739">
        <ele>1978</ele>
        <time>2012-04-08T07:20:32Z</time>
      </trkpt>
      <trkpt lat="45.35742" lon="6.60743">
        <ele>1978</ele>
        <time>2012-04-08T07:20:37Z</time>
      </trkpt>
      <trkpt lat="45.35744" lon="6.60747">
        <ele>1978</ele>
        <time>2012-04-08T07:20:42Z</time>
      </trkpt>
      <trkpt lat="45.35748" lon="6.6075">
        <ele>1978</ele>
        <time>2012-04-08T07:20:47Z</time>
      </trkpt>
      <trkpt lat="45.3575" lon="6.60752">
        <ele>1979</ele>
        <time>2012-04-08T07:20:52Z</time>
      </trkpt>
      <trkpt lat="45.35752" lon="6.60754">
        <ele>1979</ele>
        <time>2012-04-08T07:20:57Z</time>
      </trkpt>
      <trkpt lat="45.35755" lon="6.60757">
        <ele>1980</ele>
        <time>2012-04-08T07:21:02Z</time>
      </trkpt>
      <trkpt lat="45.35758" lon="6.60759">
        <ele>1980</ele>
        <time>2012-04-08T07:21:07Z</time>
      </trkpt>
      <trkpt lat="45.35761" lon="6.60762">
        <ele>1980</ele>
        <time>2012-04-08T07:21:12Z</time>
      </trkpt>
      <trkpt lat="45.35764" lon="6.60764">
        <ele>1980</ele>
        <time>2012-04-08T07:21:17Z</time>
      </trkpt>
      <trkpt lat="45.35766" lon="6.60766">
        <ele>1980</ele>
        <time>2012-04-08T07:21:22Z</time>
      </trkpt>
      <trkpt lat="45.35768" lon="6.60768">
        <ele>1981</ele>
        <time>2012-04-08T07:21:27Z</time>
      </trkpt>
      <trkpt lat="45.3577" lon="6.60771">
        <ele>1981</ele>
        <time>2012-04-08T07:21:32Z</time>
      </trkpt>
      <trkpt lat="45.35773" lon="6.60774">
        <ele>1982</ele>
        <time>2012-04-08T07:21:37Z</time>
      </trkpt>
      <trkpt lat="45.35774" lon="6.60776">
        <ele>1982</ele>
        <time>2012-04-08T07:21:42Z</time>
      </trkpt>
      <trkpt lat="45.35776" lon="6.60779">
        <ele>1983</ele>
        <time>2012-04-08T07:21:47Z</time>
      </trkpt>
      <trkpt lat="45.35778" lon="6.60781">
        <ele>1983</ele>
        <time>2012-04-08T07:21:52Z</time>
      </trkpt>
      <trkpt lat="45.3578" lon="6.60784">
        <ele>1984</ele>
        <time>2012-04-08T07:21:57Z</time>
      </trkpt>
      <trkpt lat="45.35782" lon="6.60787">
        <ele>1985</ele>
        <time>2012-04-08T07:22:02Z</time>
      </trkpt>
      <trkpt lat="45.35783" lon="6.6079">
        <ele>1986</ele>
        <time>2012-04-08T07:22:07Z</time>
      </trkpt>
      <trkpt lat="45.35785" lon="6.60793">
        <ele>1987</ele>
        <time>2012-04-08T07:22:12Z</time>
      </trkpt>
      <trkpt lat="45.35787" lon="6.60795">
        <ele>1987</ele>
        <time>2012-04-08T07:22:17Z</time>
      </trkpt>
      <trkpt lat="45.35789" lon="6.60798">
        <ele>1988</ele>
        <time>2012-04-08T07:22:22Z</time>
      </trkpt>
      <trkpt lat="45.3579" lon="6.60802">
        <ele>1989</ele>
        <time>2012-04-08T07:22:27Z</time>
      </trkpt>
      <trkpt lat="45.35792" lon="6.60805">
        <ele>1990</ele>
        <time>2012-04-08T07:22:32Z</time>
      </trkpt>
      <trkpt lat="45.35794" lon="6.60808">
        <ele>1991</ele>
        <time>2012-04-08T07:22:37Z</time>
      </trkpt>
      <trkpt lat="45.35795" lon="6.60811">
        <ele>1992</ele>
        <time>2012-04-08T07:22:42Z</time>
      </trkpt>
      <trkpt lat="45.35797" lon="6.60814">
        <ele>1993</ele>
        <time>2012-04-08T07:22:47Z</time>
      </trkpt>
      <trkpt lat="45.35799" lon="6.60818">
        <ele>1993</ele>
        <time>2012-04-08T07:22:52Z</time>
      </trkpt>
      <trkpt lat="45.35801" lon="6.60821">
        <ele>1994</ele>
        <time>2012-04-08T07:22:57Z</time>
      </trkpt>
      <trkpt lat="45.35802" lon="6.60825">
        <ele>1995</ele>
        <time>2012-04-08T07:23:02Z</time>
      </trkpt>
      <trkpt lat="45.35803" lon="6.60829">
        <ele>1996</ele>
        <time>2012-04-08T07:23:07Z</time>
      </trkpt>
      <trkpt lat="45.35804" lon="6.60833">
        <ele>1996</ele>
        <time>2012-04-08T07:23:12Z</time>
      </trkpt>
      <trkpt lat="45.35805" lon="6.60838">
        <ele>1997</ele>
        <time>2012-04-08T07:23:17Z</time>
      </trkpt>
      <trkpt lat="45.35806" lon="6.60843">
        <ele>1998</ele>
        <time>2012-04-08T07:23:22Z</time>
      </trkpt>
      <trkpt lat="45.35806" lon="6.60849">
        <ele>1998</ele>
        <time>2012-04-08T07:23:27Z</time>
      </trkpt>
      <trkpt lat="45.35804" lon="6.60855">
        <ele>1999</ele>
        <time>2012-04-08T07:23:32Z</time>
      </trkpt>
      <trkpt lat="45.35803" lon="6.60859">
        <ele>2000</ele>
        <time>2012-04-08T07:23:37Z</time>
      </trkpt>
      <trkpt lat="45.35802" lon="6.60863">
        <ele>2001</ele>
        <time>2012-04-08T07:23:42Z</time>
      </trkpt>
      <trkpt lat="45.358" lon="6.60867">
        <ele>2002</ele>
        <time>2012-04-08T07:23:47Z</time>
      </trkpt>
      <trkpt lat="45.35798" lon="6.60871">
        <ele>2003</ele>
        <time>2012-04-08T07:23:52Z</time>
      </trkpt>
      <trkpt lat="45.35795" lon="6.60875">
        <ele>2004</ele>
        <time>2012-04-08T07:23:57Z</time>
      </trkpt>
      <trkpt lat="45.35793" lon="6.60876">
        <ele>2004</ele>
        <time>2012-04-08T07:24:02Z</time>
      </trkpt>
      <trkpt lat="45.35793" lon="6.60877">
        <ele>2004</ele>
        <time>2012-04-08T07:24:07Z</time>
      </trkpt>
      <trkpt lat="45.3579" lon="6.60878">
        <ele>2005</ele>
        <time>2012-04-08T07:24:12Z</time>
      </trkpt>
      <trkpt lat="45.35785" lon="6.60878">
        <ele>2005</ele>
        <time>2012-04-08T07:24:17Z</time>
      </trkpt>
      <trkpt lat="45.35781" lon="6.60877">
        <ele>2006</ele>
        <time>2012-04-08T07:24:22Z</time>
      </trkpt>
      <trkpt lat="45.35777" lon="6.60877">
        <ele>2007</ele>
        <time>2012-04-08T07:24:27Z</time>
      </trkpt>
      <trkpt lat="45.35777" lon="6.60873">
        <ele>2011</ele>
        <time>2012-04-08T07:26:27Z</time>
      </trkpt>
      <trkpt lat="45.35777" lon="6.60873">
        <ele>2011</ele>
        <time>2012-04-08T07:26:32Z</time>
      </trkpt>
      <trkpt lat="45.35777" lon="6.60873">
        <ele>2011</ele>
        <time>2012-04-08T07:26:37Z</time>
      </trkpt>
      <trkpt lat="45.35776" lon="6.60873">
        <ele>2011</ele>
        <time>2012-04-08T07:26:42Z</time>
      </trkpt>
      <trkpt lat="45.35777" lon="6.60874">
        <ele>2011</ele>
        <time>2012-04-08T07:26:47Z</time>
      </trkpt>
      <trkpt lat="45.35775" lon="6.60874">
        <ele>2011</ele>
        <time>2012-04-08T07:26:52Z</time>
      </trkpt>
      <trkpt lat="45.35772" lon="6.60877">
        <ele>2011</ele>
        <time>2012-04-08T07:26:57Z</time>
      </trkpt>
      <trkpt lat="45.35769" lon="6.6088">
        <ele>2011</ele>
        <time>2012-04-08T07:27:02Z</time>
      </trkpt>
      <trkpt lat="45.35765" lon="6.60884">
        <ele>2011</ele>
        <time>2012-04-08T07:27:07Z</time>
      </trkpt>
      <trkpt lat="45.35761" lon="6.60888">
        <ele>2011</ele>
        <time>2012-04-08T07:27:12Z</time>
      </trkpt>
      <trkpt lat="45.35757" lon="6.60892">
        <ele>2012</ele>
        <time>2012-04-08T07:27:17Z</time>
      </trkpt>
      <trkpt lat="45.35754" lon="6.60896">
        <ele>2012</ele>
        <time>2012-04-08T07:27:22Z</time>
      </trkpt>
      <trkpt lat="45.35752" lon="6.60899">
        <ele>2012</ele>
        <time>2012-04-08T07:27:27Z</time>
      </trkpt>
      <trkpt lat="45.3575" lon="6.60902">
        <ele>2012</ele>
        <time>2012-04-08T07:27:32Z</time>
      </trkpt>
      <trkpt lat="45.35745" lon="6.60907">
        <ele>2012</ele>
        <time>2012-04-08T07:27:37Z</time>
      </trkpt>
      <trkpt lat="45.3574" lon="6.60916">
        <ele>2010</ele>
        <time>2012-04-08T07:27:42Z</time>
      </trkpt>
      <trkpt lat="45.35737" lon="6.60931">
        <ele>2009</ele>
        <time>2012-04-08T07:27:47Z</time>
      </trkpt>
      <trkpt lat="45.35735" lon="6.6094">
        <ele>2008</ele>
        <time>2012-04-08T07:27:52Z</time>
      </trkpt>
      <trkpt lat="45.35734" lon="6.60948">
        <ele>2008</ele>
        <time>2012-04-08T07:27:57Z</time>
      </trkpt>
      <trkpt lat="45.35734" lon="6.60952">
        <ele>2009</ele>
        <time>2012-04-08T07:28:02Z</time>
      </trkpt>
      <trkpt lat="45.35731" lon="6.60956">
        <ele>2009</ele>
        <time>2012-04-08T07:28:07Z</time>
      </trkpt>
      <trkpt lat="45.35727" lon="6.6096">
        <ele>2008</ele>
        <time>2012-04-08T07:28:12Z</time>
      </trkpt>
      <trkpt lat="45.35722" lon="6.60966">
        <ele>2007</ele>
        <time>2012-04-08T07:28:17Z</time>
      </trkpt>
      <trkpt lat="45.35718" lon="6.6097">
        <ele>2007</ele>
        <time>2012-04-08T07:28:22Z</time>
      </trkpt>
      <trkpt lat="45.35714" lon="6.60976">
        <ele>2007</ele>
        <time>2012-04-08T07:28:27Z</time>
      </trkpt>
      <trkpt lat="45.35711" lon="6.6098">
        <ele>2007</ele>
        <time>2012-04-08T07:28:32Z</time>
      </trkpt>
      <trkpt lat="45.35706" lon="6.60983">
        <ele>2007</ele>
        <time>2012-04-08T07:28:37Z</time>
      </trkpt>
      <trkpt lat="45.35701" lon="6.60987">
        <ele>2007</ele>
        <time>2012-04-08T07:28:42Z</time>
      </trkpt>
      <trkpt lat="45.35696" lon="6.6099">
        <ele>2006</ele>
        <time>2012-04-08T07:28:47Z</time>
      </trkpt>
      <trkpt lat="45.35692" lon="6.60994">
        <ele>2006</ele>
        <time>2012-04-08T07:28:52Z</time>
      </trkpt>
      <trkpt lat="45.35686" lon="6.60998">
        <ele>2006</ele>
        <time>2012-04-08T07:28:57Z</time>
      </trkpt>
      <trkpt lat="45.35681" lon="6.61002">
        <ele>2006</ele>
        <time>2012-04-08T07:29:02Z</time>
      </trkpt>
      <trkpt lat="45.35677" lon="6.61006">
        <ele>2006</ele>
        <time>2012-04-08T07:29:07Z</time>
      </trkpt>
      <trkpt lat="45.35675" lon="6.6101">
        <ele>2007</ele>
        <time>2012-04-08T07:29:12Z</time>
      </trkpt>
      <trkpt lat="45.35672" lon="6.61014">
        <ele>2007</ele>
        <time>2012-04-08T07:29:17Z</time>
      </trkpt>
      <trkpt lat="45.35668" lon="6.61019">
        <ele>2007</ele>
        <time>2012-04-08T07:29:22Z</time>
      </trkpt>
      <trkpt lat="45.35663" lon="6.61022">
        <ele>2007</ele>
        <time>2012-04-08T07:29:27Z</time>
      </trkpt>
      <trkpt lat="45.35658" lon="6.61026">
        <ele>2007</ele>
        <time>2012-04-08T07:29:32Z</time>
      </trkpt>
      <trkpt lat="45.35654" lon="6.61028">
        <ele>2007</ele>
        <time>2012-04-08T07:29:37Z</time>
      </trkpt>
      <trkpt lat="45.35649" lon="6.61031">
        <ele>2008</ele>
        <time>2012-04-08T07:29:42Z</time>
      </trkpt>
      <trkpt lat="45.35643" lon="6.61032">
        <ele>2007</ele>
        <time>2012-04-08T07:29:47Z</time>
      </trkpt>
      <trkpt lat="45.35634" lon="6.61034">
        <ele>2006</ele>
        <time>2012-04-08T07:29:52Z</time>
      </trkpt>
      <trkpt lat="45.35628" lon="6.61036">
        <ele>2006</ele>
        <time>2012-04-08T07:29:57Z</time>
      </trkpt>
      <trkpt lat="45.35624" lon="6.61038">
        <ele>2006</ele>
        <time>2012-04-08T07:30:02Z</time>
      </trkpt>
      <trkpt lat="45.35621" lon="6.61041">
        <ele>2006</ele>
        <time>2012-04-08T07:30:07Z</time>
      </trkpt>
      <trkpt lat="45.35617" lon="6.61046">
        <ele>2006</ele>
        <time>2012-04-08T07:30:12Z</time>
      </trkpt>
      <trkpt lat="45.35611" lon="6.61052">
        <ele>2005</ele>
        <time>2012-04-08T07:30:17Z</time>
      </trkpt>
      <trkpt lat="45.35606" lon="6.61058">
        <ele>2005</ele>
        <time>2012-04-08T07:30:22Z</time>
      </trkpt>
      <trkpt lat="45.35603" lon="6.61064">
        <ele>2005</ele>
        <time>2012-04-08T07:30:27Z</time>
      </trkpt>
      <trkpt lat="45.35601" lon="6.61069">
        <ele>2005</ele>
        <time>2012-04-08T07:30:32Z</time>
      </trkpt>
      <trkpt lat="45.356" lon="6.61075">
        <ele>2005</ele>
        <time>2012-04-08T07:30:37Z</time>
      </trkpt>
      <trkpt lat="45.35598" lon="6.6108">
        <ele>2006</ele>
        <time>2012-04-08T07:30:42Z</time>
      </trkpt>
      <trkpt lat="45.35598" lon="6.61085">
        <ele>2007</ele>
        <time>2012-04-08T07:30:47Z</time>
      </trkpt>
      <trkpt lat="45.35597" lon="6.61091">
        <ele>2007</ele>
        <time>2012-04-08T07:30:52Z</time>
      </trkpt>
      <trkpt lat="45.35595" lon="6.61097">
        <ele>2008</ele>
        <time>2012-04-08T07:30:57Z</time>
      </trkpt>
      <trkpt lat="45.35593" lon="6.61102">
        <ele>2008</ele>
        <time>2012-04-08T07:31:02Z</time>
      </trkpt>
      <trkpt lat="45.35589" lon="6.61105">
        <ele>2009</ele>
        <time>2012-04-08T07:31:07Z</time>
      </trkpt>
      <trkpt lat="45.35585" lon="6.61107">
        <ele>2009</ele>
        <time>2012-04-08T07:31:12Z</time>
      </trkpt>
      <trkpt lat="45.35581" lon="6.61109">
        <ele>2009</ele>
        <time>2012-04-08T07:31:17Z</time>
      </trkpt>
      <trkpt lat="45.35576" lon="6.61111">
        <ele>2009</ele>
        <time>2012-04-08T07:31:22Z</time>
      </trkpt>
      <trkpt lat="45.35567" lon="6.61117">
        <ele>2008</ele>
        <time>2012-04-08T07:31:27Z</time>
      </trkpt>
      <trkpt lat="45.35562" lon="6.61121">
        <ele>2007</ele>
        <time>2012-04-08T07:31:32Z</time>
      </trkpt>
      <trkpt lat="45.35555" lon="6.61124">
        <ele>2006</ele>
        <time>2012-04-08T07:31:37Z</time>
      </trkpt>
      <trkpt lat="45.35548" lon="6.61124">
        <ele>2005</ele>
        <time>2012-04-08T07:31:42Z</time>
      </trkpt>
      <trkpt lat="45.35539" lon="6.61123">
        <ele>2004</ele>
        <time>2012-04-08T07:31:47Z</time>
      </trkpt>
      <trkpt lat="45.35532" lon="6.61125">
        <ele>2003</ele>
        <time>2012-04-08T07:31:52Z</time>
      </trkpt>
      <trkpt lat="45.35525" lon="6.61127">
        <ele>2001</ele>
        <time>2012-04-08T07:31:57Z</time>
      </trkpt>
      <trkpt lat="45.35519" lon="6.61131">
        <ele>2000</ele>
        <time>2012-04-08T07:32:02Z</time>
      </trkpt>
      <trkpt lat="45.35516" lon="6.61133">
        <ele>2000</ele>
        <time>2012-04-08T07:32:07Z</time>
      </trkpt>
      <trkpt lat="45.35512" lon="6.61136">
        <ele>2000</ele>
        <time>2012-04-08T07:32:12Z</time>
      </trkpt>
      <trkpt lat="45.35508" lon="6.6114">
        <ele>2000</ele>
        <time>2012-04-08T07:32:17Z</time>
      </trkpt>
      <trkpt lat="45.35505" lon="6.61143">
        <ele>2000</ele>
        <time>2012-04-08T07:32:22Z</time>
      </trkpt>
      <trkpt lat="45.35501" lon="6.61147">
        <ele>2000</ele>
        <time>2012-04-08T07:32:27Z</time>
      </trkpt>
      <trkpt lat="45.35498" lon="6.61151">
        <ele>2000</ele>
        <time>2012-04-08T07:32:32Z</time>
      </trkpt>
      <trkpt lat="45.35495" lon="6.61153">
        <ele>2001</ele>
        <time>2012-04-08T07:32:37Z</time>
      </trkpt>
      <trkpt lat="45.35491" lon="6.61155">
        <ele>2002</ele>
        <time>2012-04-08T07:32:42Z</time>
      </trkpt>
      <trkpt lat="45.35488" lon="6.61158">
        <ele>2002</ele>
        <time>2012-04-08T07:32:47Z</time>
      </trkpt>
      <trkpt lat="45.35484" lon="6.61161">
        <ele>2002</ele>
        <time>2012-04-08T07:32:52Z</time>
      </trkpt>
      <trkpt lat="45.35481" lon="6.61165">
        <ele>2003</ele>
        <time>2012-04-08T07:32:57Z</time>
      </trkpt>
      <trkpt lat="45.35477" lon="6.61168">
        <ele>2004</ele>
        <time>2012-04-08T07:33:02Z</time>
      </trkpt>
      <trkpt lat="45.35473" lon="6.6117">
        <ele>2004</ele>
        <time>2012-04-08T07:33:07Z</time>
      </trkpt>
      <trkpt lat="45.35468" lon="6.61171">
        <ele>2005</ele>
        <time>2012-04-08T07:33:12Z</time>
      </trkpt>
      <trkpt lat="45.35464" lon="6.61172">
        <ele>2006</ele>
        <time>2012-04-08T07:33:17Z</time>
      </trkpt>
      <trkpt lat="45.3546" lon="6.61173">
        <ele>2006</ele>
        <time>2012-04-08T07:33:22Z</time>
      </trkpt>
      <trkpt lat="45.35454" lon="6.61174">
        <ele>2006</ele>
        <time>2012-04-08T07:33:27Z</time>
      </trkpt>
      <trkpt lat="45.35449" lon="6.61176">
        <ele>2006</ele>
        <time>2012-04-08T07:33:32Z</time>
      </trkpt>
      <trkpt lat="45.35444" lon="6.6118">
        <ele>2006</ele>
        <time>2012-04-08T07:33:37Z</time>
      </trkpt>
      <trkpt lat="45.35442" lon="6.61182">
        <ele>2006</ele>
        <time>2012-04-08T07:33:42Z</time>
      </trkpt>
      <trkpt lat="45.3544" lon="6.61184">
        <ele>2007</ele>
        <time>2012-04-08T07:33:47Z</time>
      </trkpt>
      <trkpt lat="45.35437" lon="6.61186">
        <ele>2008</ele>
        <time>2012-04-08T07:33:52Z</time>
      </trkpt>
      <trkpt lat="45.35435" lon="6.61189">
        <ele>2009</ele>
        <time>2012-04-08T07:33:57Z</time>
      </trkpt>
      <trkpt lat="45.35433" lon="6.61194">
        <ele>2010</ele>
        <time>2012-04-08T07:34:02Z</time>
      </trkpt>
      <trkpt lat="45.35431" lon="6.612">
        <ele>2010</ele>
        <time>2012-04-08T07:34:07Z</time>
      </trkpt>
      <trkpt lat="45.35428" lon="6.61206">
        <ele>2011</ele>
        <time>2012-04-08T07:34:12Z</time>
      </trkpt>
      <trkpt lat="45.35425" lon="6.61211">
        <ele>2011</ele>
        <time>2012-04-08T07:34:17Z</time>
      </trkpt>
      <trkpt lat="45.35421" lon="6.61216">
        <ele>2011</ele>
        <time>2012-04-08T07:34:22Z</time>
      </trkpt>
      <trkpt lat="45.35417" lon="6.61222">
        <ele>2010</ele>
        <time>2012-04-08T07:34:27Z</time>
      </trkpt>
      <trkpt lat="45.35412" lon="6.6123">
        <ele>2010</ele>
        <time>2012-04-08T07:34:32Z</time>
      </trkpt>
      <trkpt lat="45.35408" lon="6.61238">
        <ele>2009</ele>
        <time>2012-04-08T07:34:37Z</time>
      </trkpt>
      <trkpt lat="45.35405" lon="6.61246">
        <ele>2008</ele>
        <time>2012-04-08T07:34:42Z</time>
      </trkpt>
      <trkpt lat="45.354" lon="6.61252">
        <ele>2008</ele>
        <time>2012-04-08T07:34:47Z</time>
      </trkpt>
      <trkpt lat="45.35396" lon="6.61257">
        <ele>2008</ele>
        <time>2012-04-08T07:34:52Z</time>
      </trkpt>
      <trkpt lat="45.35392" lon="6.61261">
        <ele>2008</ele>
        <time>2012-04-08T07:34:57Z</time>
      </trkpt>
      <trkpt lat="45.35387" lon="6.61265">
        <ele>2008</ele>
        <time>2012-04-08T07:35:02Z</time>
      </trkpt>
      <trkpt lat="45.35383" lon="6.61269">
        <ele>2008</ele>
        <time>2012-04-08T07:35:07Z</time>
      </trkpt>
      <trkpt lat="45.35379" lon="6.61272">
        <ele>2009</ele>
        <time>2012-04-08T07:35:12Z</time>
      </trkpt>
      <trkpt lat="45.35374" lon="6.61273">
        <ele>2009</ele>
        <time>2012-04-08T07:35:17Z</time>
      </trkpt>
      <trkpt lat="45.35369" lon="6.61274">
        <ele>2009</ele>
        <time>2012-04-08T07:35:22Z</time>
      </trkpt>
      <trkpt lat="45.35363" lon="6.61274">
        <ele>2010</ele>
        <time>2012-04-08T07:35:27Z</time>
      </trkpt>
      <trkpt lat="45.35359" lon="6.61275">
        <ele>2010</ele>
        <time>2012-04-08T07:35:32Z</time>
      </trkpt>
      <trkpt lat="45.35354" lon="6.61275">
        <ele>2011</ele>
        <time>2012-04-08T07:35:37Z</time>
      </trkpt>
      <trkpt lat="45.35349" lon="6.61275">
        <ele>2011</ele>
        <time>2012-04-08T07:35:42Z</time>
      </trkpt>
      <trkpt lat="45.35344" lon="6.61276">
        <ele>2012</ele>
        <time>2012-04-08T07:35:47Z</time>
      </trkpt>
      <trkpt lat="45.3534" lon="6.61276">
        <ele>2012</ele>
        <time>2012-04-08T07:35:52Z</time>
      </trkpt>
      <trkpt lat="45.35334" lon="6.61277">
        <ele>2012</ele>
        <time>2012-04-08T07:35:57Z</time>
      </trkpt>
      <trkpt lat="45.3533" lon="6.61277">
        <ele>2013</ele>
        <time>2012-04-08T07:36:02Z</time>
      </trkpt>
      <trkpt lat="45.35325" lon="6.61277">
        <ele>2013</ele>
        <time>2012-04-08T07:36:07Z</time>
      </trkpt>
      <trkpt lat="45.3532" lon="6.61278">
        <ele>2013</ele>
        <time>2012-04-08T07:36:12Z</time>
      </trkpt>
      <trkpt lat="45.35316" lon="6.61279">
        <ele>2014</ele>
        <time>2012-04-08T07:36:17Z</time>
      </trkpt>
      <trkpt lat="45.3531" lon="6.61279">
        <ele>2014</ele>
        <time>2012-04-08T07:36:22Z</time>
      </trkpt>
      <trkpt lat="45.35305" lon="6.61281">
        <ele>2014</ele>
        <time>2012-04-08T07:36:27Z</time>
      </trkpt>
      <trkpt lat="45.35301" lon="6.61282">
        <ele>2015</ele>
        <time>2012-04-08T07:36:32Z</time>
      </trkpt>
      <trkpt lat="45.35296" lon="6.61284">
        <ele>2015</ele>
        <time>2012-04-08T07:36:37Z</time>
      </trkpt>
      <trkpt lat="45.35291" lon="6.61285">
        <ele>2015</ele>
        <time>2012-04-08T07:36:42Z</time>
      </trkpt>
      <trkpt lat="45.35285" lon="6.61285">
        <ele>2015</ele>
        <time>2012-04-08T07:36:47Z</time>
      </trkpt>
      <trkpt lat="45.35279" lon="6.61285">
        <ele>2014</ele>
        <time>2012-04-08T07:36:52Z</time>
      </trkpt>
      <trkpt lat="45.35274" lon="6.61286">
        <ele>2015</ele>
        <time>2012-04-08T07:36:57Z</time>
      </trkpt>
      <trkpt lat="45.35268" lon="6.61288">
        <ele>2015</ele>
        <time>2012-04-08T07:37:02Z</time>
      </trkpt>
      <trkpt lat="45.35263" lon="6.6129">
        <ele>2014</ele>
        <time>2012-04-08T07:37:07Z</time>
      </trkpt>
      <trkpt lat="45.35257" lon="6.61291">
        <ele>2014</ele>
        <time>2012-04-08T07:37:12Z</time>
      </trkpt>
      <trkpt lat="45.35251" lon="6.61293">
        <ele>2014</ele>
        <time>2012-04-08T07:37:17Z</time>
      </trkpt>
      <trkpt lat="45.35246" lon="6.61295">
        <ele>2015</ele>
        <time>2012-04-08T07:37:22Z</time>
      </trkpt>
      <trkpt lat="45.35241" lon="6.61295">
        <ele>2015</ele>
        <time>2012-04-08T07:37:27Z</time>
      </trkpt>
      <trkpt lat="45.35236" lon="6.61296">
        <ele>2015</ele>
        <time>2012-04-08T07:37:32Z</time>
      </trkpt>
      <trkpt lat="45.35232" lon="6.61297">
        <ele>2016</ele>
        <time>2012-04-08T07:37:37Z</time>
      </trkpt>
      <trkpt lat="45.35228" lon="6.61298">
        <ele>2017</ele>
        <time>2012-04-08T07:37:42Z</time>
      </trkpt>
      <trkpt lat="45.35223" lon="6.61299">
        <ele>2017</ele>
        <time>2012-04-08T07:37:47Z</time>
      </trkpt>
      <trkpt lat="45.35219" lon="6.61301">
        <ele>2018</ele>
        <time>2012-04-08T07:37:52Z</time>
      </trkpt>
      <trkpt lat="45.35214" lon="6.61303">
        <ele>2018</ele>
        <time>2012-04-08T07:37:57Z</time>
      </trkpt>
      <trkpt lat="45.35209" lon="6.61305">
        <ele>2018</ele>
        <time>2012-04-08T07:38:02Z</time>
      </trkpt>
      <trkpt lat="45.35202" lon="6.61306">
        <ele>2017</ele>
        <time>2012-04-08T07:38:07Z</time>
      </trkpt>
      <trkpt lat="45.35196" lon="6.61308">
        <ele>2017</ele>
        <time>2012-04-08T07:38:12Z</time>
      </trkpt>
      <trkpt lat="45.35189" lon="6.6131">
        <ele>2016</ele>
        <time>2012-04-08T07:38:17Z</time>
      </trkpt>
      <trkpt lat="45.35183" lon="6.61313">
        <ele>2015</ele>
        <time>2012-04-08T07:38:22Z</time>
      </trkpt>
      <trkpt lat="45.35177" lon="6.61318">
        <ele>2014</ele>
        <time>2012-04-08T07:38:27Z</time>
      </trkpt>
      <trkpt lat="45.35172" lon="6.61322">
        <ele>2014</ele>
        <time>2012-04-08T07:38:32Z</time>
      </trkpt>
      <trkpt lat="45.35167" lon="6.61327">
        <ele>2015</ele>
        <time>2012-04-08T07:38:37Z</time>
      </trkpt>
      <trkpt lat="45.35164" lon="6.6133">
        <ele>2015</ele>
        <time>2012-04-08T07:38:42Z</time>
      </trkpt>
      <trkpt lat="45.35161" lon="6.61332">
        <ele>2015</ele>
        <time>2012-04-08T07:38:47Z</time>
      </trkpt>
      <trkpt lat="45.35155" lon="6.61331">
        <ele>2015</ele>
        <time>2012-04-08T07:38:52Z</time>
      </trkpt>
      <trkpt lat="45.35149" lon="6.61331">
        <ele>2015</ele>
        <time>2012-04-08T07:38:57Z</time>
      </trkpt>
      <trkpt lat="45.35145" lon="6.61332">
        <ele>2015</ele>
        <time>2012-04-08T07:39:02Z</time>
      </trkpt>
      <trkpt lat="45.3514" lon="6.61334">
        <ele>2015</ele>
        <time>2012-04-08T07:39:07Z</time>
      </trkpt>
      <trkpt lat="45.35135" lon="6.61335">
        <ele>2016</ele>
        <time>2012-04-08T07:39:12Z</time>
      </trkpt>
      <trkpt lat="45.35129" lon="6.61336">
        <ele>2016</ele>
        <time>2012-04-08T07:39:17Z</time>
      </trkpt>
      <trkpt lat="45.35124" lon="6.61336">
        <ele>2016</ele>
        <time>2012-04-08T07:39:22Z</time>
      </trkpt>
      <trkpt lat="45.35118" lon="6.61336">
        <ele>2016</ele>
        <time>2012-04-08T07:39:27Z</time>
      </trkpt>
      <trkpt lat="45.35113" lon="6.61336">
        <ele>2016</ele>
        <time>2012-04-08T07:39:32Z</time>
      </trkpt>
      <trkpt lat="45.35108" lon="6.61338">
        <ele>2016</ele>
        <time>2012-04-08T07:39:37Z</time>
      </trkpt>
      <trkpt lat="45.35103" lon="6.61341">
        <ele>2016</ele>
        <time>2012-04-08T07:39:42Z</time>
      </trkpt>
      <trkpt lat="45.35098" lon="6.61344">
        <ele>2016</ele>
        <time>2012-04-08T07:39:47Z</time>
      </trkpt>
      <trkpt lat="45.35093" lon="6.61346">
        <ele>2016</ele>
        <time>2012-04-08T07:39:52Z</time>
      </trkpt>
      <trkpt lat="45.35088" lon="6.61349">
        <ele>2015</ele>
        <time>2012-04-08T07:39:57Z</time>
      </trkpt>
      <trkpt lat="45.35082" lon="6.61351">
        <ele>2015</ele>
        <time>2012-04-08T07:40:02Z</time>
      </trkpt>
      <trkpt lat="45.35076" lon="6.61352">
        <ele>2015</ele>
        <time>2012-04-08T07:40:07Z</time>
      </trkpt>
      <trkpt lat="45.35071" lon="6.61353">
        <ele>2015</ele>
        <time>2012-04-08T07:40:12Z</time>
      </trkpt>
      <trkpt lat="45.35066" lon="6.61355">
        <ele>2015</ele>
        <time>2012-04-08T07:40:17Z</time>
      </trkpt>
      <trkpt lat="45.35061" lon="6.61356">
        <ele>2015</ele>
        <time>2012-04-08T07:40:22Z</time>
      </trkpt>
      <trkpt lat="45.35056" lon="6.61357">
        <ele>2015</ele>
        <time>2012-04-08T07:40:27Z</time>
      </trkpt>
      <trkpt lat="45.3505" lon="6.61359">
        <ele>2015</ele>
        <time>2012-04-08T07:40:32Z</time>
      </trkpt>
      <trkpt lat="45.35045" lon="6.61361">
        <ele>2015</ele>
        <time>2012-04-08T07:40:37Z</time>
      </trkpt>
      <trkpt lat="45.3504" lon="6.61363">
        <ele>2015</ele>
        <time>2012-04-08T07:40:42Z</time>
      </trkpt>
      <trkpt lat="45.35035" lon="6.61366">
        <ele>2015</ele>
        <time>2012-04-08T07:40:47Z</time>
      </trkpt>
      <trkpt lat="45.35029" lon="6.61369">
        <ele>2015</ele>
        <time>2012-04-08T07:40:52Z</time>
      </trkpt>
      <trkpt lat="45.35024" lon="6.61371">
        <ele>2016</ele>
        <time>2012-04-08T07:40:57Z</time>
      </trkpt>
      <trkpt lat="45.35018" lon="6.61373">
        <ele>2016</ele>
        <time>2012-04-08T07:41:02Z</time>
      </trkpt>
      <trkpt lat="45.35014" lon="6.61375">
        <ele>2016</ele>
        <time>2012-04-08T07:41:07Z</time>
      </trkpt>
      <trkpt lat="45.35008" lon="6.61378">
        <ele>2016</ele>
        <time>2012-04-08T07:41:12Z</time>
      </trkpt>
      <trkpt lat="45.35003" lon="6.6138">
        <ele>2017</ele>
        <time>2012-04-08T07:41:17Z</time>
      </trkpt>
      <trkpt lat="45.34998" lon="6.61383">
        <ele>2017</ele>
        <time>2012-04-08T07:41:22Z</time>
      </trkpt>
      <trkpt lat="45.34992" lon="6.61385">
        <ele>2017</ele>
        <time>2012-04-08T07:41:27Z</time>
      </trkpt>
      <trkpt lat="45.34988" lon="6.61388">
        <ele>2017</ele>
        <time>2012-04-08T07:41:32Z</time>
      </trkpt>
      <trkpt lat="45.34982" lon="6.61391">
        <ele>2018</ele>
        <time>2012-04-08T07:41:37Z</time>
      </trkpt>
      <trkpt lat="45.34977" lon="6.61394">
        <ele>2017</ele>
        <time>2012-04-08T07:41:42Z</time>
      </trkpt>
      <trkpt lat="45.34971" lon="6.61397">
        <ele>2017</ele>
        <time>2012-04-08T07:41:47Z</time>
      </trkpt>
      <trkpt lat="45.34965" lon="6.614">
        <ele>2017</ele>
        <time>2012-04-08T07:41:52Z</time>
      </trkpt>
      <trkpt lat="45.3496" lon="6.61402">
        <ele>2017</ele>
        <time>2012-04-08T07:41:57Z</time>
      </trkpt>
      <trkpt lat="45.34955" lon="6.61405">
        <ele>2017</ele>
        <time>2012-04-08T07:42:02Z</time>
      </trkpt>
      <trkpt lat="45.34952" lon="6.61407">
        <ele>2017</ele>
        <time>2012-04-08T07:42:07Z</time>
      </trkpt>
      <trkpt lat="45.34949" lon="6.61409">
        <ele>2018</ele>
        <time>2012-04-08T07:42:12Z</time>
      </trkpt>
      <trkpt lat="45.34946" lon="6.61411">
        <ele>2018</ele>
        <time>2012-04-08T07:42:17Z</time>
      </trkpt>
      <trkpt lat="45.34942" lon="6.61412">
        <ele>2019</ele>
        <time>2012-04-08T07:42:22Z</time>
      </trkpt>
      <trkpt lat="45.34939" lon="6.61414">
        <ele>2020</ele>
        <time>2012-04-08T07:42:27Z</time>
      </trkpt>
      <trkpt lat="45.34935" lon="6.61415">
        <ele>2020</ele>
        <time>2012-04-08T07:42:32Z</time>
      </trkpt>
      <trkpt lat="45.34931" lon="6.61416">
        <ele>2020</ele>
        <time>2012-04-08T07:42:37Z</time>
      </trkpt>
      <trkpt lat="45.34926" lon="6.61416">
        <ele>2021</ele>
        <time>2012-04-08T07:42:42Z</time>
      </trkpt>
      <trkpt lat="45.34922" lon="6.61417">
        <ele>2021</ele>
        <time>2012-04-08T07:42:47Z</time>
      </trkpt>
      <trkpt lat="45.34918" lon="6.61418">
        <ele>2021</ele>
        <time>2012-04-08T07:42:52Z</time>
      </trkpt>
      <trkpt lat="45.34913" lon="6.61417">
        <ele>2022</ele>
        <time>2012-04-08T07:42:57Z</time>
      </trkpt>
      <trkpt lat="45.34909" lon="6.61417">
        <ele>2022</ele>
        <time>2012-04-08T07:43:02Z</time>
      </trkpt>
      <trkpt lat="45.34905" lon="6.61416">
        <ele>2023</ele>
        <time>2012-04-08T07:43:07Z</time>
      </trkpt>
      <trkpt lat="45.34901" lon="6.61416">
        <ele>2024</ele>
        <time>2012-04-08T07:43:12Z</time>
      </trkpt>
      <trkpt lat="45.34897" lon="6.61415">
        <ele>2024</ele>
        <time>2012-04-08T07:43:17Z</time>
      </trkpt>
      <trkpt lat="45.34893" lon="6.61415">
        <ele>2025</ele>
        <time>2012-04-08T07:43:22Z</time>
      </trkpt>
      <trkpt lat="45.3489" lon="6.61414">
        <ele>2025</ele>
        <time>2012-04-08T07:43:27Z</time>
      </trkpt>
      <trkpt lat="45.34886" lon="6.61413">
        <ele>2026</ele>
        <time>2012-04-08T07:43:32Z</time>
      </trkpt>
      <trkpt lat="45.34882" lon="6.61412">
        <ele>2026</ele>
        <time>2012-04-08T07:43:37Z</time>
      </trkpt>
      <trkpt lat="45.34883" lon="6.61412">
        <ele>2026</ele>
        <time>2012-04-08T07:43:42Z</time>
      </trkpt>
      <trkpt lat="45.3488" lon="6.61413">
        <ele>2027</ele>
        <time>2012-04-08T07:43:47Z</time>
      </trkpt>
      <trkpt lat="45.34877" lon="6.61414">
        <ele>2027</ele>
        <time>2012-04-08T07:43:52Z</time>
      </trkpt>
      <trkpt lat="45.34874" lon="6.61417">
        <ele>2028</ele>
        <time>2012-04-08T07:43:57Z</time>
      </trkpt>
      <trkpt lat="45.34874" lon="6.61417">
        <ele>2028</ele>
        <time>2012-04-08T07:44:02Z</time>
      </trkpt>
      <trkpt lat="45.34871" lon="6.6142">
        <ele>2028</ele>
        <time>2012-04-08T07:44:07Z</time>
      </trkpt>
      <trkpt lat="45.34868" lon="6.61424">
        <ele>2028</ele>
        <time>2012-04-08T07:44:12Z</time>
      </trkpt>
      <trkpt lat="45.34865" lon="6.61427">
        <ele>2029</ele>
        <time>2012-04-08T07:44:17Z</time>
      </trkpt>
      <trkpt lat="45.34861" lon="6.61431">
        <ele>2029</ele>
        <time>2012-04-08T07:44:22Z</time>
      </trkpt>
      <trkpt lat="45.34856" lon="6.61434">
        <ele>2029</ele>
        <time>2012-04-08T07:44:27Z</time>
      </trkpt>
      <trkpt lat="45.3485" lon="6.61437">
        <ele>2029</ele>
        <time>2012-04-08T07:44:32Z</time>
      </trkpt>
      <trkpt lat="45.34845" lon="6.61441">
        <ele>2029</ele>
        <time>2012-04-08T07:44:37Z</time>
      </trkpt>
      <trkpt lat="45.3484" lon="6.61445">
        <ele>2029</ele>
        <time>2012-04-08T07:44:42Z</time>
      </trkpt>
      <trkpt lat="45.34836" lon="6.61449">
        <ele>2029</ele>
        <time>2012-04-08T07:44:47Z</time>
      </trkpt>
      <trkpt lat="45.34832" lon="6.61453">
        <ele>2030</ele>
        <time>2012-04-08T07:44:52Z</time>
      </trkpt>
      <trkpt lat="45.34828" lon="6.61458">
        <ele>2030</ele>
        <time>2012-04-08T07:44:57Z</time>
      </trkpt>
      <trkpt lat="45.34826" lon="6.61463">
        <ele>2031</ele>
        <time>2012-04-08T07:45:02Z</time>
      </trkpt>
      <trkpt lat="45.34824" lon="6.61469">
        <ele>2031</ele>
        <time>2012-04-08T07:45:07Z</time>
      </trkpt>
      <trkpt lat="45.34821" lon="6.61477">
        <ele>2031</ele>
        <time>2012-04-08T07:45:12Z</time>
      </trkpt>
      <trkpt lat="45.34818" lon="6.61484">
        <ele>2031</ele>
        <time>2012-04-08T07:45:17Z</time>
      </trkpt>
      <trkpt lat="45.34815" lon="6.6149">
        <ele>2031</ele>
        <time>2012-04-08T07:45:22Z</time>
      </trkpt>
      <trkpt lat="45.34813" lon="6.61496">
        <ele>2031</ele>
        <time>2012-04-08T07:45:27Z</time>
      </trkpt>
      <trkpt lat="45.3481" lon="6.61505">
        <ele>2030</ele>
        <time>2012-04-08T07:45:32Z</time>
      </trkpt>
      <trkpt lat="45.34807" lon="6.61514">
        <ele>2030</ele>
        <time>2012-04-08T07:45:37Z</time>
      </trkpt>
      <trkpt lat="45.34804" lon="6.61521">
        <ele>2030</ele>
        <time>2012-04-08T07:45:42Z</time>
      </trkpt>
      <trkpt lat="45.34802" lon="6.61527">
        <ele>2031</ele>
        <time>2012-04-08T07:45:47Z</time>
      </trkpt>
      <trkpt lat="45.34799" lon="6.61533">
        <ele>2031</ele>
        <time>2012-04-08T07:45:52Z</time>
      </trkpt>
      <trkpt lat="45.34797" lon="6.61541">
        <ele>2031</ele>
        <time>2012-04-08T07:45:57Z</time>
      </trkpt>
      <trkpt lat="45.34795" lon="6.61547">
        <ele>2031</ele>
        <time>2012-04-08T07:46:02Z</time>
      </trkpt>
      <trkpt lat="45.34792" lon="6.61555">
        <ele>2031</ele>
        <time>2012-04-08T07:46:07Z</time>
      </trkpt>
      <trkpt lat="45.34789" lon="6.61563">
        <ele>2031</ele>
        <time>2012-04-08T07:46:12Z</time>
      </trkpt>
      <trkpt lat="45.34786" lon="6.61572">
        <ele>2031</ele>
        <time>2012-04-08T07:46:17Z</time>
      </trkpt>
      <trkpt lat="45.34782" lon="6.61579">
        <ele>2031</ele>
        <time>2012-04-08T07:46:22Z</time>
      </trkpt>
      <trkpt lat="45.34777" lon="6.61584">
        <ele>2031</ele>
        <time>2012-04-08T07:46:27Z</time>
      </trkpt>
      <trkpt lat="45.34772" lon="6.61588">
        <ele>2031</ele>
        <time>2012-04-08T07:46:32Z</time>
      </trkpt>
      <trkpt lat="45.34767" lon="6.61592">
        <ele>2030</ele>
        <time>2012-04-08T07:46:37Z</time>
      </trkpt>
      <trkpt lat="45.34762" lon="6.61596">
        <ele>2030</ele>
        <time>2012-04-08T07:46:42Z</time>
      </trkpt>
      <trkpt lat="45.34757" lon="6.61601">
        <ele>2030</ele>
        <time>2012-04-08T07:46:47Z</time>
      </trkpt>
      <trkpt lat="45.34752" lon="6.61605">
        <ele>2031</ele>
        <time>2012-04-08T07:46:52Z</time>
      </trkpt>
      <trkpt lat="45.34747" lon="6.6161">
        <ele>2030</ele>
        <time>2012-04-08T07:46:57Z</time>
      </trkpt>
      <trkpt lat="45.34742" lon="6.61616">
        <ele>2030</ele>
        <time>2012-04-08T07:47:02Z</time>
      </trkpt>
      <trkpt lat="45.34736" lon="6.61625">
        <ele>2029</ele>
        <time>2012-04-08T07:47:07Z</time>
      </trkpt>
      <trkpt lat="45.34728" lon="6.61638">
        <ele>2027</ele>
        <time>2012-04-08T07:47:12Z</time>
      </trkpt>
      <trkpt lat="45.34726" lon="6.61645">
        <ele>2027</ele>
        <time>2012-04-08T07:47:17Z</time>
      </trkpt>
      <trkpt lat="45.34725" lon="6.61651">
        <ele>2027</ele>
        <time>2012-04-08T07:47:22Z</time>
      </trkpt>
      <trkpt lat="45.34723" lon="6.61658">
        <ele>2027</ele>
        <time>2012-04-08T07:47:27Z</time>
      </trkpt>
      <trkpt lat="45.34721" lon="6.61665">
        <ele>2027</ele>
        <time>2012-04-08T07:47:32Z</time>
      </trkpt>
      <trkpt lat="45.34718" lon="6.61672">
        <ele>2028</ele>
        <time>2012-04-08T07:47:37Z</time>
      </trkpt>
      <trkpt lat="45.34714" lon="6.61676">
        <ele>2029</ele>
        <time>2012-04-08T07:47:42Z</time>
      </trkpt>
      <trkpt lat="45.34708" lon="6.61678">
        <ele>2029</ele>
        <time>2012-04-08T07:47:47Z</time>
      </trkpt>
      <trkpt lat="45.34703" lon="6.61681">
        <ele>2029</ele>
        <time>2012-04-08T07:47:52Z</time>
      </trkpt>
      <trkpt lat="45.347" lon="6.61688">
        <ele>2029</ele>
        <time>2012-04-08T07:47:57Z</time>
      </trkpt>
      <trkpt lat="45.34699" lon="6.61694">
        <ele>2029</ele>
        <time>2012-04-08T07:48:02Z</time>
      </trkpt>
      <trkpt lat="45.34698" lon="6.61703">
        <ele>2029</ele>
        <time>2012-04-08T07:48:07Z</time>
      </trkpt>
      <trkpt lat="45.34697" lon="6.61709">
        <ele>2029</ele>
        <time>2012-04-08T07:48:12Z</time>
      </trkpt>
      <trkpt lat="45.34696" lon="6.61716">
        <ele>2030</ele>
        <time>2012-04-08T07:48:17Z</time>
      </trkpt>
      <trkpt lat="45.34694" lon="6.61724">
        <ele>2031</ele>
        <time>2012-04-08T07:48:22Z</time>
      </trkpt>
      <trkpt lat="45.34693" lon="6.61731">
        <ele>2031</ele>
        <time>2012-04-08T07:48:27Z</time>
      </trkpt>
      <trkpt lat="45.34692" lon="6.61739">
        <ele>2031</ele>
        <time>2012-04-08T07:48:32Z</time>
      </trkpt>
      <trkpt lat="45.3469" lon="6.61747">
        <ele>2031</ele>
        <time>2012-04-08T07:48:37Z</time>
      </trkpt>
      <trkpt lat="45.34688" lon="6.61754">
        <ele>2031</ele>
        <time>2012-04-08T07:48:42Z</time>
      </trkpt>
      <trkpt lat="45.34687" lon="6.61762">
        <ele>2032</ele>
        <time>2012-04-08T07:48:47Z</time>
      </trkpt>
      <trkpt lat="45.34686" lon="6.6177">
        <ele>2032</ele>
        <time>2012-04-08T07:48:52Z</time>
      </trkpt>
      <trkpt lat="45.34684" lon="6.61778">
        <ele>2032</ele>
        <time>2012-04-08T07:48:57Z</time>
      </trkpt>
      <trkpt lat="45.34684" lon="6.61786">
        <ele>2032</ele>
        <time>2012-04-08T07:49:02Z</time>
      </trkpt>
      <trkpt lat="45.34683" lon="6.61794">
        <ele>2032</ele>
        <time>2012-04-08T07:49:07Z</time>
      </trkpt>
      <trkpt lat="45.34683" lon="6.61802">
        <ele>2032</ele>
        <time>2012-04-08T07:49:12Z</time>
      </trkpt>
      <trkpt lat="45.34682" lon="6.61809">
        <ele>2032</ele>
        <time>2012-04-08T07:49:17Z</time>
      </trkpt>
      <trkpt lat="45.34681" lon="6.61818">
        <ele>2032</ele>
        <time>2012-04-08T07:49:22Z</time>
      </trkpt>
      <trkpt lat="45.34681" lon="6.61826">
        <ele>2032</ele>
        <time>2012-04-08T07:49:27Z</time>
      </trkpt>
      <trkpt lat="45.3468" lon="6.61834">
        <ele>2032</ele>
        <time>2012-04-08T07:49:32Z</time>
      </trkpt>
      <trkpt lat="45.3468" lon="6.61842">
        <ele>2032</ele>
        <time>2012-04-08T07:49:37Z</time>
      </trkpt>
      <trkpt lat="45.34679" lon="6.61849">
        <ele>2033</ele>
        <time>2012-04-08T07:49:42Z</time>
      </trkpt>
      <trkpt lat="45.34679" lon="6.61854">
        <ele>2033</ele>
        <time>2012-04-08T07:49:47Z</time>
      </trkpt>
      <trkpt lat="45.34678" lon="6.61858">
        <ele>2034</ele>
        <time>2012-04-08T07:49:52Z</time>
      </trkpt>
      <trkpt lat="45.34678" lon="6.61864">
        <ele>2035</ele>
        <time>2012-04-08T07:49:57Z</time>
      </trkpt>
      <trkpt lat="45.34677" lon="6.61871">
        <ele>2035</ele>
        <time>2012-04-08T07:50:02Z</time>
      </trkpt>
      <trkpt lat="45.34675" lon="6.61879">
        <ele>2035</ele>
        <time>2012-04-08T07:50:07Z</time>
      </trkpt>
      <trkpt lat="45.34673" lon="6.61887">
        <ele>2035</ele>
        <time>2012-04-08T07:50:12Z</time>
      </trkpt>
      <trkpt lat="45.34671" lon="6.61893">
        <ele>2035</ele>
        <time>2012-04-08T07:50:17Z</time>
      </trkpt>
      <trkpt lat="45.34668" lon="6.619">
        <ele>2036</ele>
        <time>2012-04-08T07:50:22Z</time>
      </trkpt>
      <trkpt lat="45.34666" lon="6.61906">
        <ele>2036</ele>
        <time>2012-04-08T07:50:27Z</time>
      </trkpt>
      <trkpt lat="45.34662" lon="6.61912">
        <ele>2036</ele>
        <time>2012-04-08T07:50:32Z</time>
      </trkpt>
      <trkpt lat="45.34659" lon="6.61918">
        <ele>2036</ele>
        <time>2012-04-08T07:50:37Z</time>
      </trkpt>
      <trkpt lat="45.34657" lon="6.61924">
        <ele>2037</ele>
        <time>2012-04-08T07:50:42Z</time>
      </trkpt>
      <trkpt lat="45.34655" lon="6.6193">
        <ele>2037</ele>
        <time>2012-04-08T07:50:47Z</time>
      </trkpt>
      <trkpt lat="45.34654" lon="6.61936">
        <ele>2038</ele>
        <time>2012-04-08T07:50:52Z</time>
      </trkpt>
      <trkpt lat="45.34652" lon="6.61942">
        <ele>2038</ele>
        <time>2012-04-08T07:50:57Z</time>
      </trkpt>
      <trkpt lat="45.34649" lon="6.61948">
        <ele>2038</ele>
        <time>2012-04-08T07:51:02Z</time>
      </trkpt>
      <trkpt lat="45.34646" lon="6.61954">
        <ele>2038</ele>
        <time>2012-04-08T07:51:07Z</time>
      </trkpt>
      <trkpt lat="45.34642" lon="6.6196">
        <ele>2038</ele>
        <time>2012-04-08T07:51:12Z</time>
      </trkpt>
      <trkpt lat="45.34638" lon="6.61966">
        <ele>2038</ele>
        <time>2012-04-08T07:51:17Z</time>
      </trkpt>
      <trkpt lat="45.34634" lon="6.61972">
        <ele>2038</ele>
        <time>2012-04-08T07:51:22Z</time>
      </trkpt>
      <trkpt lat="45.34631" lon="6.61978">
        <ele>2038</ele>
        <time>2012-04-08T07:51:27Z</time>
      </trkpt>
      <trkpt lat="45.34627" lon="6.61983">
        <ele>2038</ele>
        <time>2012-04-08T07:51:32Z</time>
      </trkpt>
      <trkpt lat="45.34624" lon="6.61989">
        <ele>2038</ele>
        <time>2012-04-08T07:51:37Z</time>
      </trkpt>
      <trkpt lat="45.3462" lon="6.61995">
        <ele>2039</ele>
        <time>2012-04-08T07:51:42Z</time>
      </trkpt>
      <trkpt lat="45.34617" lon="6.62">
        <ele>2039</ele>
        <time>2012-04-08T07:51:47Z</time>
      </trkpt>
      <trkpt lat="45.34613" lon="6.62006">
        <ele>2039</ele>
        <time>2012-04-08T07:51:52Z</time>
      </trkpt>
      <trkpt lat="45.3461" lon="6.62012">
        <ele>2039</ele>
        <time>2012-04-08T07:51:57Z</time>
      </trkpt>
      <trkpt lat="45.34606" lon="6.62018">
        <ele>2039</ele>
        <time>2012-04-08T07:52:02Z</time>
      </trkpt>
      <trkpt lat="45.34602" lon="6.62025">
        <ele>2039</ele>
        <time>2012-04-08T07:52:07Z</time>
      </trkpt>
      <trkpt lat="45.34598" lon="6.6203">
        <ele>2039</ele>
        <time>2012-04-08T07:52:12Z</time>
      </trkpt>
      <trkpt lat="45.34596" lon="6.62036">
        <ele>2040</ele>
        <time>2012-04-08T07:52:17Z</time>
      </trkpt>
      <trkpt lat="45.34593" lon="6.62042">
        <ele>2040</ele>
        <time>2012-04-08T07:52:22Z</time>
      </trkpt>
      <trkpt lat="45.3459" lon="6.62049">
        <ele>2040</ele>
        <time>2012-04-08T07:52:27Z</time>
      </trkpt>
      <trkpt lat="45.34587" lon="6.62056">
        <ele>2041</ele>
        <time>2012-04-08T07:52:32Z</time>
      </trkpt>
      <trkpt lat="45.34585" lon="6.62062">
        <ele>2041</ele>
        <time>2012-04-08T07:52:37Z</time>
      </trkpt>
      <trkpt lat="45.34583" lon="6.62068">
        <ele>2042</ele>
        <time>2012-04-08T07:52:42Z</time>
      </trkpt>
      <trkpt lat="45.34581" lon="6.62075">
        <ele>2042</ele>
        <time>2012-04-08T07:52:47Z</time>
      </trkpt>
      <trkpt lat="45.34579" lon="6.62081">
        <ele>2042</ele>
        <time>2012-04-08T07:52:52Z</time>
      </trkpt>
      <trkpt lat="45.34577" lon="6.62087">
        <ele>2043</ele>
        <time>2012-04-08T07:52:57Z</time>
      </trkpt>
      <trkpt lat="45.34575" lon="6.62092">
        <ele>2043</ele>
        <time>2012-04-08T07:53:02Z</time>
      </trkpt>
      <trkpt lat="45.34572" lon="6.62098">
        <ele>2044</ele>
        <time>2012-04-08T07:53:07Z</time>
      </trkpt>
      <trkpt lat="45.3457" lon="6.62104">
        <ele>2044</ele>
        <time>2012-04-08T07:53:12Z</time>
      </trkpt>
      <trkpt lat="45.34567" lon="6.62109">
        <ele>2044</ele>
        <time>2012-04-08T07:53:17Z</time>
      </trkpt>
      <trkpt lat="45.34564" lon="6.62115">
        <ele>2044</ele>
        <time>2012-04-08T07:53:22Z</time>
      </trkpt>
      <trkpt lat="45.34561" lon="6.62121">
        <ele>2045</ele>
        <time>2012-04-08T07:53:27Z</time>
      </trkpt>
      <trkpt lat="45.34558" lon="6.62127">
        <ele>2045</ele>
        <time>2012-04-08T07:53:32Z</time>
      </trkpt>
      <trkpt lat="45.34555" lon="6.62134">
        <ele>2045</ele>
        <time>2012-04-08T07:53:37Z</time>
      </trkpt>
      <trkpt lat="45.34551" lon="6.62141">
        <ele>2045</ele>
        <time>2012-04-08T07:53:42Z</time>
      </trkpt>
      <trkpt lat="45.34546" lon="6.6215">
        <ele>2044</ele>
        <time>2012-04-08T07:53:47Z</time>
      </trkpt>
      <trkpt lat="45.34543" lon="6.62156">
        <ele>2044</ele>
        <time>2012-04-08T07:53:52Z</time>
      </trkpt>
      <trkpt lat="45.34539" lon="6.62163">
        <ele>2044</ele>
        <time>2012-04-08T07:53:57Z</time>
      </trkpt>
      <trkpt lat="45.34536" lon="6.62169">
        <ele>2044</ele>
        <time>2012-04-08T07:54:02Z</time>
      </trkpt>
      <trkpt lat="45.34533" lon="6.62175">
        <ele>2044</ele>
        <time>2012-04-08T07:54:07Z</time>
      </trkpt>
      <trkpt lat="45.34531" lon="6.62182">
        <ele>2045</ele>
        <time>2012-04-08T07:54:12Z</time>
      </trkpt>
      <trkpt lat="45.34528" lon="6.62188">
        <ele>2045</ele>
        <time>2012-04-08T07:54:17Z</time>
      </trkpt>
      <trkpt lat="45.34525" lon="6.62193">
        <ele>2045</ele>
        <time>2012-04-08T07:54:22Z</time>
      </trkpt>
      <trkpt lat="45.34522" lon="6.62199">
        <ele>2046</ele>
        <time>2012-04-08T07:54:27Z</time>
      </trkpt>
      <trkpt lat="45.3452" lon="6.62205">
        <ele>2046</ele>
        <time>2012-04-08T07:54:32Z</time>
      </trkpt>
      <trkpt lat="45.34517" lon="6.62211">
        <ele>2047</ele>
        <time>2012-04-08T07:54:37Z</time>
      </trkpt>
      <trkpt lat="45.34514" lon="6.62217">
        <ele>2047</ele>
        <time>2012-04-08T07:54:42Z</time>
      </trkpt>
      <trkpt lat="45.34512" lon="6.62222">
        <ele>2048</ele>
        <time>2012-04-08T07:54:47Z</time>
      </trkpt>
      <trkpt lat="45.34509" lon="6.62228">
        <ele>2048</ele>
        <time>2012-04-08T07:54:52Z</time>
      </trkpt>
      <trkpt lat="45.34507" lon="6.62233">
        <ele>2048</ele>
        <time>2012-04-08T07:54:57Z</time>
      </trkpt>
      <trkpt lat="45.34504" lon="6.62238">
        <ele>2049</ele>
        <time>2012-04-08T07:55:02Z</time>
      </trkpt>
      <trkpt lat="45.34502" lon="6.62242">
        <ele>2050</ele>
        <time>2012-04-08T07:55:07Z</time>
      </trkpt>
      <trkpt lat="45.34499" lon="6.62248">
        <ele>2050</ele>
        <time>2012-04-08T07:55:12Z</time>
      </trkpt>
      <trkpt lat="45.34496" lon="6.62253">
        <ele>2051</ele>
        <time>2012-04-08T07:55:17Z</time>
      </trkpt>
      <trkpt lat="45.34493" lon="6.62258">
        <ele>2051</ele>
        <time>2012-04-08T07:55:22Z</time>
      </trkpt>
      <trkpt lat="45.34491" lon="6.62264">
        <ele>2052</ele>
        <time>2012-04-08T07:55:27Z</time>
      </trkpt>
      <trkpt lat="45.34488" lon="6.62269">
        <ele>2052</ele>
        <time>2012-04-08T07:55:32Z</time>
      </trkpt>
      <trkpt lat="45.34486" lon="6.62274">
        <ele>2052</ele>
        <time>2012-04-08T07:55:37Z</time>
      </trkpt>
      <trkpt lat="45.34483" lon="6.62279">
        <ele>2053</ele>
        <time>2012-04-08T07:55:42Z</time>
      </trkpt>
      <trkpt lat="45.3448" lon="6.62284">
        <ele>2053</ele>
        <time>2012-04-08T07:55:47Z</time>
      </trkpt>
      <trkpt lat="45.34478" lon="6.62288">
        <ele>2053</ele>
        <time>2012-04-08T07:55:52Z</time>
      </trkpt>
      <trkpt lat="45.34475" lon="6.62293">
        <ele>2053</ele>
        <time>2012-04-08T07:55:57Z</time>
      </trkpt>
      <trkpt lat="45.34472" lon="6.62298">
        <ele>2054</ele>
        <time>2012-04-08T07:56:02Z</time>
      </trkpt>
      <trkpt lat="45.34469" lon="6.62302">
        <ele>2054</ele>
        <time>2012-04-08T07:56:07Z</time>
      </trkpt>
      <trkpt lat="45.34467" lon="6.62308">
        <ele>2054</ele>
        <time>2012-04-08T07:56:12Z</time>
      </trkpt>
      <trkpt lat="45.34464" lon="6.62313">
        <ele>2055</ele>
        <time>2012-04-08T07:56:17Z</time>
      </trkpt>
      <trkpt lat="45.34461" lon="6.62317">
        <ele>2055</ele>
        <time>2012-04-08T07:56:22Z</time>
      </trkpt>
      <trkpt lat="45.34459" lon="6.62321">
        <ele>2056</ele>
        <time>2012-04-08T07:56:27Z</time>
      </trkpt>
      <trkpt lat="45.34456" lon="6.62326">
        <ele>2057</ele>
        <time>2012-04-08T07:56:32Z</time>
      </trkpt>
      <trkpt lat="45.34455" lon="6.62331">
        <ele>2057</ele>
        <time>2012-04-08T07:56:37Z</time>
      </trkpt>
      <trkpt lat="45.34454" lon="6.62337">
        <ele>2058</ele>
        <time>2012-04-08T07:56:42Z</time>
      </trkpt>
      <trkpt lat="45.34453" lon="6.62342">
        <ele>2058</ele>
        <time>2012-04-08T07:56:47Z</time>
      </trkpt>
      <trkpt lat="45.34451" lon="6.62348">
        <ele>2059</ele>
        <time>2012-04-08T07:56:52Z</time>
      </trkpt>
      <trkpt lat="45.34449" lon="6.62354">
        <ele>2059</ele>
        <time>2012-04-08T07:56:57Z</time>
      </trkpt>
      <trkpt lat="45.34448" lon="6.62359">
        <ele>2059</ele>
        <time>2012-04-08T07:57:02Z</time>
      </trkpt>
      <trkpt lat="45.34446" lon="6.62363">
        <ele>2060</ele>
        <time>2012-04-08T07:57:07Z</time>
      </trkpt>
      <trkpt lat="45.34443" lon="6.62367">
        <ele>2061</ele>
        <time>2012-04-08T07:57:12Z</time>
      </trkpt>
      <trkpt lat="45.34441" lon="6.6237">
        <ele>2061</ele>
        <time>2012-04-08T07:57:17Z</time>
      </trkpt>
      <trkpt lat="45.34439" lon="6.62374">
        <ele>2062</ele>
        <time>2012-04-08T07:57:22Z</time>
      </trkpt>
      <trkpt lat="45.34436" lon="6.62378">
        <ele>2062</ele>
        <time>2012-04-08T07:57:27Z</time>
      </trkpt>
      <trkpt lat="45.34433" lon="6.62382">
        <ele>2063</ele>
        <time>2012-04-08T07:57:32Z</time>
      </trkpt>
      <trkpt lat="45.34433" lon="6.62382">
        <ele>2063</ele>
        <time>2012-04-08T07:57:37Z</time>
      </trkpt>
      <trkpt lat="45.34433" lon="6.62383">
        <ele>2063</ele>
        <time>2012-04-08T07:57:42Z</time>
      </trkpt>
      <trkpt lat="45.34433" lon="6.62383">
        <ele>2063</ele>
        <time>2012-04-08T07:57:47Z</time>
      </trkpt>
      <trkpt lat="45.34433" lon="6.62383">
        <ele>2063</ele>
        <time>2012-04-08T07:57:52Z</time>
      </trkpt>
      <trkpt lat="45.34433" lon="6.62383">
        <ele>2063</ele>
        <time>2012-04-08T07:57:57Z</time>
      </trkpt>
      <trkpt lat="45.34433" lon="6.62383">
        <ele>2063</ele>
        <time>2012-04-08T07:58:02Z</time>
      </trkpt>
      <trkpt lat="45.34433" lon="6.62383">
        <ele>2063</ele>
        <time>2012-04-08T07:58:07Z</time>
      </trkpt>
      <trkpt lat="45.34433" lon="6.62383">
        <ele>2063</ele>
        <time>2012-04-08T07:58:12Z</time>
      </trkpt>
      <trkpt lat="45.34433" lon="6.62383">
        <ele>2063</ele>
        <time>2012-04-08T07:58:17Z</time>
      </trkpt>
      <trkpt lat="45.34433" lon="6.62383">
        <ele>2063</ele>
        <time>2012-04-08T07:58:22Z</time>
      </trkpt>
      <trkpt lat="45.34433" lon="6.62386">
        <ele>2063</ele>
        <time>2012-04-08T08:03:32Z</time>
      </trkpt>
      <trkpt lat="45.34433" lon="6.62387">
        <ele>2064</ele>
        <time>2012-04-08T08:03:37Z</time>
      </trkpt>
      <trkpt lat="45.34432" lon="6.62392">
        <ele>2064</ele>
        <time>2012-04-08T08:03:42Z</time>
      </trkpt>
      <trkpt lat="45.34431" lon="6.62395">
        <ele>2064</ele>
        <time>2012-04-08T08:03:47Z</time>
      </trkpt>
      <trkpt lat="45.34432" lon="6.62395">
        <ele>2064</ele>
        <time>2012-04-08T08:03:52Z</time>
      </trkpt>
      <trkpt lat="45.34432" lon="6.62395">
        <ele>2065</ele>
        <time>2012-04-08T08:03:57Z</time>
      </trkpt>
      <trkpt lat="45.34431" lon="6.62395">
        <ele>2064</ele>
        <time>2012-04-08T08:04:02Z</time>
      </trkpt>
      <trkpt lat="45.34431" lon="6.62395">
        <ele>2064</ele>
        <time>2012-04-08T08:04:07Z</time>
      </trkpt>
      <trkpt lat="45.34431" lon="6.62395">
        <ele>2064</ele>
        <time>2012-04-08T08:04:12Z</time>
      </trkpt>
      <trkpt lat="45.34431" lon="6.62395">
        <ele>2064</ele>
        <time>2012-04-08T08:04:17Z</time>
      </trkpt>
      <trkpt lat="45.34431" lon="6.62395">
        <ele>2064</ele>
        <time>2012-04-08T08:04:22Z</time>
      </trkpt>
      <trkpt lat="45.3443" lon="6.62399">
        <ele>2065</ele>
        <time>2012-04-08T08:04:27Z</time>
      </trkpt>
      <trkpt lat="45.34429" lon="6.62403">
        <ele>2065</ele>
        <time>2012-04-08T08:04:32Z</time>
      </trkpt>
      <trkpt lat="45.34427" lon="6.62409">
        <ele>2066</ele>
        <time>2012-04-08T08:04:37Z</time>
      </trkpt>
      <trkpt lat="45.34426" lon="6.62413">
        <ele>2067</ele>
        <time>2012-04-08T08:04:42Z</time>
      </trkpt>
      <trkpt lat="45.34425" lon="6.62419">
        <ele>2067</ele>
        <time>2012-04-08T08:04:47Z</time>
      </trkpt>
      <trkpt lat="45.34423" lon="6.62424">
        <ele>2068</ele>
        <time>2012-04-08T08:04:52Z</time>
      </trkpt>
      <trkpt lat="45.34421" lon="6.62429">
        <ele>2069</ele>
        <time>2012-04-08T08:04:57Z</time>
      </trkpt>
      <trkpt lat="45.3442" lon="6.62434">
        <ele>2069</ele>
        <time>2012-04-08T08:05:02Z</time>
      </trkpt>
      <trkpt lat="45.34419" lon="6.62439">
        <ele>2070</ele>
        <time>2012-04-08T08:05:07Z</time>
      </trkpt>
      <trkpt lat="45.34417" lon="6.62444">
        <ele>2070</ele>
        <time>2012-04-08T08:05:12Z</time>
      </trkpt>
      <trkpt lat="45.34416" lon="6.62449">
        <ele>2071</ele>
        <time>2012-04-08T08:05:17Z</time>
      </trkpt>
      <trkpt lat="45.34414" lon="6.62453">
        <ele>2072</ele>
        <time>2012-04-08T08:05:22Z</time>
      </trkpt>
      <trkpt lat="45.34413" lon="6.62457">
        <ele>2072</ele>
        <time>2012-04-08T08:05:27Z</time>
      </trkpt>
      <trkpt lat="45.34411" lon="6.62461">
        <ele>2073</ele>
        <time>2012-04-08T08:05:32Z</time>
      </trkpt>
      <trkpt lat="45.3441" lon="6.62465">
        <ele>2073</ele>
        <time>2012-04-08T08:05:37Z</time>
      </trkpt>
      <trkpt lat="45.34408" lon="6.62469">
        <ele>2074</ele>
        <time>2012-04-08T08:05:42Z</time>
      </trkpt>
      <trkpt lat="45.34407" lon="6.62473">
        <ele>2075</ele>
        <time>2012-04-08T08:05:47Z</time>
      </trkpt>
      <trkpt lat="45.34405" lon="6.62477">
        <ele>2075</ele>
        <time>2012-04-08T08:05:52Z</time>
      </trkpt>
      <trkpt lat="45.34404" lon="6.62481">
        <ele>2076</ele>
        <time>2012-04-08T08:05:57Z</time>
      </trkpt>
      <trkpt lat="45.34403" lon="6.62485">
        <ele>2076</ele>
        <time>2012-04-08T08:06:02Z</time>
      </trkpt>
      <trkpt lat="45.34401" lon="6.62489">
        <ele>2077</ele>
        <time>2012-04-08T08:06:07Z</time>
      </trkpt>
      <trkpt lat="45.34399" lon="6.62493">
        <ele>2077</ele>
        <time>2012-04-08T08:06:12Z</time>
      </trkpt>
      <trkpt lat="45.34397" lon="6.62498">
        <ele>2078</ele>
        <time>2012-04-08T08:06:17Z</time>
      </trkpt>
      <trkpt lat="45.34395" lon="6.62502">
        <ele>2078</ele>
        <time>2012-04-08T08:06:22Z</time>
      </trkpt>
      <trkpt lat="45.34392" lon="6.62507">
        <ele>2079</ele>
        <time>2012-04-08T08:06:27Z</time>
      </trkpt>
      <trkpt lat="45.34389" lon="6.62511">
        <ele>2079</ele>
        <time>2012-04-08T08:06:32Z</time>
      </trkpt>
      <trkpt lat="45.34386" lon="6.62516">
        <ele>2079</ele>
        <time>2012-04-08T08:06:37Z</time>
      </trkpt>
      <trkpt lat="45.34383" lon="6.6252">
        <ele>2080</ele>
        <time>2012-04-08T08:06:42Z</time>
      </trkpt>
      <trkpt lat="45.34382" lon="6.62525">
        <ele>2080</ele>
        <time>2012-04-08T08:06:47Z</time>
      </trkpt>
      <trkpt lat="45.3438" lon="6.6253">
        <ele>2081</ele>
        <time>2012-04-08T08:06:52Z</time>
      </trkpt>
      <trkpt lat="45.34378" lon="6.62534">
        <ele>2081</ele>
        <time>2012-04-08T08:06:57Z</time>
      </trkpt>
      <trkpt lat="45.34377" lon="6.62539">
        <ele>2082</ele>
        <time>2012-04-08T08:07:02Z</time>
      </trkpt>
      <trkpt lat="45.34376" lon="6.62544">
        <ele>2082</ele>
        <time>2012-04-08T08:07:07Z</time>
      </trkpt>
      <trkpt lat="45.34375" lon="6.62549">
        <ele>2083</ele>
        <time>2012-04-08T08:07:12Z</time>
      </trkpt>
      <trkpt lat="45.34373" lon="6.62554">
        <ele>2083</ele>
        <time>2012-04-08T08:07:17Z</time>
      </trkpt>
      <trkpt lat="45.34371" lon="6.62559">
        <ele>2084</ele>
        <time>2012-04-08T08:07:22Z</time>
      </trkpt>
      <trkpt lat="45.34369" lon="6.62563">
        <ele>2084</ele>
        <time>2012-04-08T08:07:27Z</time>
      </trkpt>
      <trkpt lat="45.34367" lon="6.62566">
        <ele>2085</ele>
        <time>2012-04-08T08:07:32Z</time>
      </trkpt>
      <trkpt lat="45.34365" lon="6.6257">
        <ele>2086</ele>
        <time>2012-04-08T08:07:37Z</time>
      </trkpt>
      <trkpt lat="45.34364" lon="6.62574">
        <ele>2087</ele>
        <time>2012-04-08T08:07:42Z</time>
      </trkpt>
      <trkpt lat="45.34362" lon="6.62578">
        <ele>2087</ele>
        <time>2012-04-08T08:07:47Z</time>
      </trkpt>
      <trkpt lat="45.3436" lon="6.62581">
        <ele>2088</ele>
        <time>2012-04-08T08:07:52Z</time>
      </trkpt>
      <trkpt lat="45.34359" lon="6.62585">
        <ele>2088</ele>
        <time>2012-04-08T08:07:57Z</time>
      </trkpt>
      <trkpt lat="45.34358" lon="6.62589">
        <ele>2089</ele>
        <time>2012-04-08T08:08:02Z</time>
      </trkpt>
      <trkpt lat="45.34357" lon="6.62593">
        <ele>2089</ele>
        <time>2012-04-08T08:08:07Z</time>
      </trkpt>
      <trkpt lat="45.34356" lon="6.62597">
        <ele>2090</ele>
        <time>2012-04-08T08:08:12Z</time>
      </trkpt>
      <trkpt lat="45.34356" lon="6.626">
        <ele>2091</ele>
        <time>2012-04-08T08:08:17Z</time>
      </trkpt>
      <trkpt lat="45.34355" lon="6.62604">
        <ele>2092</ele>
        <time>2012-04-08T08:08:22Z</time>
      </trkpt>
      <trkpt lat="45.34354" lon="6.62608">
        <ele>2093</ele>
        <time>2012-04-08T08:08:27Z</time>
      </trkpt>
      <trkpt lat="45.34352" lon="6.62611">
        <ele>2093</ele>
        <time>2012-04-08T08:08:32Z</time>
      </trkpt>
      <trkpt lat="45.34349" lon="6.62611">
        <ele>2094</ele>
        <time>2012-04-08T08:08:37Z</time>
      </trkpt>
      <trkpt lat="45.34346" lon="6.6261">
        <ele>2095</ele>
        <time>2012-04-08T08:08:42Z</time>
      </trkpt>
      <trkpt lat="45.34343" lon="6.6261">
        <ele>2096</ele>
        <time>2012-04-08T08:08:47Z</time>
      </trkpt>
      <trkpt lat="45.34341" lon="6.62612">
        <ele>2097</ele>
        <time>2012-04-08T08:08:52Z</time>
      </trkpt>
      <trkpt lat="45.3434" lon="6.62615">
        <ele>2098</ele>
        <time>2012-04-08T08:08:57Z</time>
      </trkpt>
      <trkpt lat="45.3434" lon="6.62618">
        <ele>2098</ele>
        <time>2012-04-08T08:09:02Z</time>
      </trkpt>
      <trkpt lat="45.3434" lon="6.62618">
        <ele>2098</ele>
        <time>2012-04-08T08:09:07Z</time>
      </trkpt>
      <trkpt lat="45.3434" lon="6.62619">
        <ele>2098</ele>
        <time>2012-04-08T08:09:12Z</time>
      </trkpt>
      <trkpt lat="45.34339" lon="6.62623">
        <ele>2099</ele>
        <time>2012-04-08T08:09:17Z</time>
      </trkpt>
      <trkpt lat="45.34338" lon="6.62626">
        <ele>2100</ele>
        <time>2012-04-08T08:09:22Z</time>
      </trkpt>
      <trkpt lat="45.34337" lon="6.62629">
        <ele>2100</ele>
        <time>2012-04-08T08:09:27Z</time>
      </trkpt>
      <trkpt lat="45.34335" lon="6.62632">
        <ele>2101</ele>
        <time>2012-04-08T08:09:32Z</time>
      </trkpt>
      <trkpt lat="45.34334" lon="6.62635">
        <ele>2102</ele>
        <time>2012-04-08T08:09:37Z</time>
      </trkpt>
      <trkpt lat="45.34332" lon="6.62635">
        <ele>2103</ele>
        <time>2012-04-08T08:09:42Z</time>
      </trkpt>
      <trkpt lat="45.34329" lon="6.62633">
        <ele>2104</ele>
        <time>2012-04-08T08:09:47Z</time>
      </trkpt>
      <trkpt lat="45.34327" lon="6.62633">
        <ele>2105</ele>
        <time>2012-04-08T08:09:52Z</time>
      </trkpt>
      <trkpt lat="45.34323" lon="6.62632">
        <ele>2105</ele>
        <time>2012-04-08T08:09:57Z</time>
      </trkpt>
      <trkpt lat="45.34321" lon="6.62633">
        <ele>2106</ele>
        <time>2012-04-08T08:10:02Z</time>
      </trkpt>
      <trkpt lat="45.34319" lon="6.62634">
        <ele>2106</ele>
        <time>2012-04-08T08:10:07Z</time>
      </trkpt>
      <trkpt lat="45.34316" lon="6.62634">
        <ele>2107</ele>
        <time>2012-04-08T08:10:12Z</time>
      </trkpt>
      <trkpt lat="45.34313" lon="6.62634">
        <ele>2107</ele>
        <time>2012-04-08T08:10:17Z</time>
      </trkpt>
      <trkpt lat="45.34309" lon="6.62633">
        <ele>2108</ele>
        <time>2012-04-08T08:10:22Z</time>
      </trkpt>
      <trkpt lat="45.34307" lon="6.62636">
        <ele>2109</ele>
        <time>2012-04-08T08:10:27Z</time>
      </trkpt>
      <trkpt lat="45.34305" lon="6.62638">
        <ele>2110</ele>
        <time>2012-04-08T08:10:32Z</time>
      </trkpt>
      <trkpt lat="45.34303" lon="6.62641">
        <ele>2111</ele>
        <time>2012-04-08T08:10:37Z</time>
      </trkpt>
      <trkpt lat="45.343" lon="6.62644">
        <ele>2111</ele>
        <time>2012-04-08T08:10:42Z</time>
      </trkpt>
      <trkpt lat="45.34299" lon="6.62646">
        <ele>2112</ele>
        <time>2012-04-08T08:10:47Z</time>
      </trkpt>
      <trkpt lat="45.34297" lon="6.62649">
        <ele>2113</ele>
        <time>2012-04-08T08:10:52Z</time>
      </trkpt>
      <trkpt lat="45.34294" lon="6.62652">
        <ele>2114</ele>
        <time>2012-04-08T08:10:57Z</time>
      </trkpt>
      <trkpt lat="45.34293" lon="6.62656">
        <ele>2115</ele>
        <time>2012-04-08T08:11:02Z</time>
      </trkpt>
      <trkpt lat="45.3429" lon="6.62659">
        <ele>2116</ele>
        <time>2012-04-08T08:11:07Z</time>
      </trkpt>
      <trkpt lat="45.34288" lon="6.62662">
        <ele>2116</ele>
        <time>2012-04-08T08:11:12Z</time>
      </trkpt>
      <trkpt lat="45.34286" lon="6.62666">
        <ele>2117</ele>
        <time>2012-04-08T08:11:17Z</time>
      </trkpt>
      <trkpt lat="45.34285" lon="6.6267">
        <ele>2118</ele>
        <time>2012-04-08T08:11:22Z</time>
      </trkpt>
      <trkpt lat="45.34284" lon="6.62675">
        <ele>2119</ele>
        <time>2012-04-08T08:11:27Z</time>
      </trkpt>
      <trkpt lat="45.34282" lon="6.6268">
        <ele>2119</ele>
        <time>2012-04-08T08:11:32Z</time>
      </trkpt>
      <trkpt lat="45.3428" lon="6.62685">
        <ele>2120</ele>
        <time>2012-04-08T08:11:37Z</time>
      </trkpt>
      <trkpt lat="45.34277" lon="6.62689">
        <ele>2121</ele>
        <time>2012-04-08T08:11:42Z</time>
      </trkpt>
      <trkpt lat="45.34275" lon="6.62694">
        <ele>2121</ele>
        <time>2012-04-08T08:11:47Z</time>
      </trkpt>
      <trkpt lat="45.34273" lon="6.62699">
        <ele>2121</ele>
        <time>2012-04-08T08:11:52Z</time>
      </trkpt>
      <trkpt lat="45.34271" lon="6.62704">
        <ele>2121</ele>
        <time>2012-04-08T08:11:57Z</time>
      </trkpt>
      <trkpt lat="45.34268" lon="6.62708">
        <ele>2121</ele>
        <time>2012-04-08T08:12:02Z</time>
      </trkpt>
      <trkpt lat="45.34265" lon="6.62712">
        <ele>2122</ele>
        <time>2012-04-08T08:12:07Z</time>
      </trkpt>
      <trkpt lat="45.34262" lon="6.62717">
        <ele>2122</ele>
        <time>2012-04-08T08:12:12Z</time>
      </trkpt>
      <trkpt lat="45.34259" lon="6.62723">
        <ele>2122</ele>
        <time>2012-04-08T08:12:17Z</time>
      </trkpt>
      <trkpt lat="45.34256" lon="6.62727">
        <ele>2122</ele>
        <time>2012-04-08T08:12:22Z</time>
      </trkpt>
      <trkpt lat="45.34254" lon="6.62732">
        <ele>2122</ele>
        <time>2012-04-08T08:12:27Z</time>
      </trkpt>
      <trkpt lat="45.34251" lon="6.62738">
        <ele>2122</ele>
        <time>2012-04-08T08:12:32Z</time>
      </trkpt>
      <trkpt lat="45.3425" lon="6.62743">
        <ele>2122</ele>
        <time>2012-04-08T08:12:37Z</time>
      </trkpt>
      <trkpt lat="45.34248" lon="6.62749">
        <ele>2122</ele>
        <time>2012-04-08T08:12:42Z</time>
      </trkpt>
      <trkpt lat="45.34247" lon="6.62754">
        <ele>2123</ele>
        <time>2012-04-08T08:12:47Z</time>
      </trkpt>
      <trkpt lat="45.34245" lon="6.62758">
        <ele>2123</ele>
        <time>2012-04-08T08:12:52Z</time>
      </trkpt>
      <trkpt lat="45.34244" lon="6.62764">
        <ele>2124</ele>
        <time>2012-04-08T08:12:57Z</time>
      </trkpt>
      <trkpt lat="45.34242" lon="6.6277">
        <ele>2124</ele>
        <time>2012-04-08T08:13:02Z</time>
      </trkpt>
      <trkpt lat="45.34241" lon="6.62776">
        <ele>2124</ele>
        <time>2012-04-08T08:13:07Z</time>
      </trkpt>
      <trkpt lat="45.3424" lon="6.62783">
        <ele>2124</ele>
        <time>2012-04-08T08:13:12Z</time>
      </trkpt>
      <trkpt lat="45.34238" lon="6.62789">
        <ele>2124</ele>
        <time>2012-04-08T08:13:17Z</time>
      </trkpt>
      <trkpt lat="45.34236" lon="6.62794">
        <ele>2125</ele>
        <time>2012-04-08T08:13:22Z</time>
      </trkpt>
      <trkpt lat="45.34235" lon="6.62799">
        <ele>2125</ele>
        <time>2012-04-08T08:13:27Z</time>
      </trkpt>
      <trkpt lat="45.34232" lon="6.62804">
        <ele>2125</ele>
        <time>2012-04-08T08:13:32Z</time>
      </trkpt>
      <trkpt lat="45.34231" lon="6.6281">
        <ele>2126</ele>
        <time>2012-04-08T08:13:37Z</time>
      </trkpt>
      <trkpt lat="45.34228" lon="6.62816">
        <ele>2126</ele>
        <time>2012-04-08T08:13:42Z</time>
      </trkpt>
      <trkpt lat="45.34227" lon="6.62822">
        <ele>2126</ele>
        <time>2012-04-08T08:13:47Z</time>
      </trkpt>
      <trkpt lat="45.34225" lon="6.62829">
        <ele>2126</ele>
        <time>2012-04-08T08:13:52Z</time>
      </trkpt>
      <trkpt lat="45.34223" lon="6.62836">
        <ele>2126</ele>
        <time>2012-04-08T08:13:57Z</time>
      </trkpt>
      <trkpt lat="45.34221" lon="6.62844">
        <ele>2126</ele>
        <time>2012-04-08T08:14:02Z</time>
      </trkpt>
      <trkpt lat="45.3422" lon="6.62853">
        <ele>2126</ele>
        <time>2012-04-08T08:14:07Z</time>
      </trkpt>
      <trkpt lat="45.34218" lon="6.62862">
        <ele>2126</ele>
        <time>2012-04-08T08:14:12Z</time>
      </trkpt>
      <trkpt lat="45.34217" lon="6.62869">
        <ele>2126</ele>
        <time>2012-04-08T08:14:17Z</time>
      </trkpt>
      <trkpt lat="45.34217" lon="6.62876">
        <ele>2126</ele>
        <time>2012-04-08T08:14:22Z</time>
      </trkpt>
      <trkpt lat="45.34217" lon="6.62884">
        <ele>2126</ele>
        <time>2012-04-08T08:14:27Z</time>
      </trkpt>
      <trkpt lat="45.34218" lon="6.62891">
        <ele>2126</ele>
        <time>2012-04-08T08:14:32Z</time>
      </trkpt>
      <trkpt lat="45.34218" lon="6.62899">
        <ele>2125</ele>
        <time>2012-04-08T08:14:37Z</time>
      </trkpt>
      <trkpt lat="45.34217" lon="6.6291">
        <ele>2124</ele>
        <time>2012-04-08T08:14:42Z</time>
      </trkpt>
      <trkpt lat="45.34215" lon="6.62919">
        <ele>2124</ele>
        <time>2012-04-08T08:14:47Z</time>
      </trkpt>
      <trkpt lat="45.34213" lon="6.62926">
        <ele>2124</ele>
        <time>2012-04-08T08:14:52Z</time>
      </trkpt>
      <trkpt lat="45.34212" lon="6.62933">
        <ele>2124</ele>
        <time>2012-04-08T08:14:57Z</time>
      </trkpt>
      <trkpt lat="45.34211" lon="6.62939">
        <ele>2124</ele>
        <time>2012-04-08T08:15:02Z</time>
      </trkpt>
      <trkpt lat="45.34209" lon="6.62945">
        <ele>2125</ele>
        <time>2012-04-08T08:15:07Z</time>
      </trkpt>
      <trkpt lat="45.34208" lon="6.62952">
        <ele>2125</ele>
        <time>2012-04-08T08:15:12Z</time>
      </trkpt>
      <trkpt lat="45.34206" lon="6.62959">
        <ele>2125</ele>
        <time>2012-04-08T08:15:17Z</time>
      </trkpt>
      <trkpt lat="45.34205" lon="6.62966">
        <ele>2125</ele>
        <time>2012-04-08T08:15:22Z</time>
      </trkpt>
      <trkpt lat="45.34205" lon="6.62973">
        <ele>2126</ele>
        <time>2012-04-08T08:15:27Z</time>
      </trkpt>
      <trkpt lat="45.34203" lon="6.6298">
        <ele>2126</ele>
        <time>2012-04-08T08:15:32Z</time>
      </trkpt>
      <trkpt lat="45.34201" lon="6.62988">
        <ele>2126</ele>
        <time>2012-04-08T08:15:37Z</time>
      </trkpt>
      <trkpt lat="45.34198" lon="6.62995">
        <ele>2125</ele>
        <time>2012-04-08T08:15:42Z</time>
      </trkpt>
      <trkpt lat="45.34196" lon="6.63">
        <ele>2126</ele>
        <time>2012-04-08T08:15:47Z</time>
      </trkpt>
      <trkpt lat="45.34194" lon="6.63004">
        <ele>2126</ele>
        <time>2012-04-08T08:15:52Z</time>
      </trkpt>
      <trkpt lat="45.34192" lon="6.6301">
        <ele>2127</ele>
        <time>2012-04-08T08:15:57Z</time>
      </trkpt>
      <trkpt lat="45.34189" lon="6.63016">
        <ele>2127</ele>
        <time>2012-04-08T08:16:02Z</time>
      </trkpt>
      <trkpt lat="45.34185" lon="6.63024">
        <ele>2127</ele>
        <time>2012-04-08T08:16:07Z</time>
      </trkpt>
      <trkpt lat="45.34181" lon="6.63031">
        <ele>2126</ele>
        <time>2012-04-08T08:16:12Z</time>
      </trkpt>
      <trkpt lat="45.34176" lon="6.63037">
        <ele>2126</ele>
        <time>2012-04-08T08:16:17Z</time>
      </trkpt>
      <trkpt lat="45.34172" lon="6.63042">
        <ele>2126</ele>
        <time>2012-04-08T08:16:22Z</time>
      </trkpt>
      <trkpt lat="45.34168" lon="6.63046">
        <ele>2126</ele>
        <time>2012-04-08T08:16:27Z</time>
      </trkpt>
      <trkpt lat="45.34164" lon="6.63048">
        <ele>2127</ele>
        <time>2012-04-08T08:16:32Z</time>
      </trkpt>
      <trkpt lat="45.34161" lon="6.6305">
        <ele>2128</ele>
        <time>2012-04-08T08:16:37Z</time>
      </trkpt>
      <trkpt lat="45.34158" lon="6.63053">
        <ele>2129</ele>
        <time>2012-04-08T08:16:42Z</time>
      </trkpt>
      <trkpt lat="45.34155" lon="6.63057">
        <ele>2129</ele>
        <time>2012-04-08T08:16:47Z</time>
      </trkpt>
      <trkpt lat="45.34151" lon="6.6306">
        <ele>2130</ele>
        <time>2012-04-08T08:16:52Z</time>
      </trkpt>
      <trkpt lat="45.34147" lon="6.63063">
        <ele>2130</ele>
        <time>2012-04-08T08:16:57Z</time>
      </trkpt>
      <trkpt lat="45.34141" lon="6.63066">
        <ele>2130</ele>
        <time>2012-04-08T08:17:02Z</time>
      </trkpt>
      <trkpt lat="45.34137" lon="6.63069">
        <ele>2130</ele>
        <time>2012-04-08T08:17:07Z</time>
      </trkpt>
      <trkpt lat="45.34131" lon="6.63073">
        <ele>2130</ele>
        <time>2012-04-08T08:17:12Z</time>
      </trkpt>
      <trkpt lat="45.34126" lon="6.63077">
        <ele>2130</ele>
        <time>2012-04-08T08:17:17Z</time>
      </trkpt>
      <trkpt lat="45.34121" lon="6.6308">
        <ele>2130</ele>
        <time>2012-04-08T08:17:22Z</time>
      </trkpt>
      <trkpt lat="45.34117" lon="6.63083">
        <ele>2130</ele>
        <time>2012-04-08T08:17:27Z</time>
      </trkpt>
      <trkpt lat="45.34112" lon="6.63086">
        <ele>2130</ele>
        <time>2012-04-08T08:17:32Z</time>
      </trkpt>
      <trkpt lat="45.34108" lon="6.63089">
        <ele>2129</ele>
        <time>2012-04-08T08:17:37Z</time>
      </trkpt>
      <trkpt lat="45.34103" lon="6.63091">
        <ele>2130</ele>
        <time>2012-04-08T08:17:42Z</time>
      </trkpt>
      <trkpt lat="45.34099" lon="6.63093">
        <ele>2130</ele>
        <time>2012-04-08T08:17:47Z</time>
      </trkpt>
      <trkpt lat="45.34095" lon="6.63096">
        <ele>2130</ele>
        <time>2012-04-08T08:17:52Z</time>
      </trkpt>
      <trkpt lat="45.34091" lon="6.63098">
        <ele>2131</ele>
        <time>2012-04-08T08:17:57Z</time>
      </trkpt>
      <trkpt lat="45.34086" lon="6.63101">
        <ele>2131</ele>
        <time>2012-04-08T08:18:02Z</time>
      </trkpt>
      <trkpt lat="45.34082" lon="6.63103">
        <ele>2131</ele>
        <time>2012-04-08T08:18:07Z</time>
      </trkpt>
      <trkpt lat="45.34078" lon="6.63106">
        <ele>2132</ele>
        <time>2012-04-08T08:18:12Z</time>
      </trkpt>
      <trkpt lat="45.34074" lon="6.6311">
        <ele>2132</ele>
        <time>2012-04-08T08:18:17Z</time>
      </trkpt>
      <trkpt lat="45.3407" lon="6.63113">
        <ele>2132</ele>
        <time>2012-04-08T08:18:22Z</time>
      </trkpt>
      <trkpt lat="45.34066" lon="6.63117">
        <ele>2133</ele>
        <time>2012-04-08T08:18:27Z</time>
      </trkpt>
      <trkpt lat="45.34062" lon="6.63121">
        <ele>2133</ele>
        <time>2012-04-08T08:18:32Z</time>
      </trkpt>
      <trkpt lat="45.34058" lon="6.63127">
        <ele>2133</ele>
        <time>2012-04-08T08:18:37Z</time>
      </trkpt>
      <trkpt lat="45.34052" lon="6.63131">
        <ele>2133</ele>
        <time>2012-04-08T08:18:42Z</time>
      </trkpt>
      <trkpt lat="45.34046" lon="6.63135">
        <ele>2132</ele>
        <time>2012-04-08T08:18:47Z</time>
      </trkpt>
      <trkpt lat="45.3404" lon="6.63139">
        <ele>2132</ele>
        <time>2012-04-08T08:18:52Z</time>
      </trkpt>
      <trkpt lat="45.34035" lon="6.63143">
        <ele>2132</ele>
        <time>2012-04-08T08:18:57Z</time>
      </trkpt>
      <trkpt lat="45.34029" lon="6.63147">
        <ele>2131</ele>
        <time>2012-04-08T08:19:02Z</time>
      </trkpt>
      <trkpt lat="45.34025" lon="6.6315">
        <ele>2131</ele>
        <time>2012-04-08T08:19:07Z</time>
      </trkpt>
      <trkpt lat="45.3402" lon="6.63154">
        <ele>2131</ele>
        <time>2012-04-08T08:19:12Z</time>
      </trkpt>
      <trkpt lat="45.34015" lon="6.63157">
        <ele>2131</ele>
        <time>2012-04-08T08:19:17Z</time>
      </trkpt>
      <trkpt lat="45.3401" lon="6.63161">
        <ele>2131</ele>
        <time>2012-04-08T08:19:22Z</time>
      </trkpt>
      <trkpt lat="45.34005" lon="6.63166">
        <ele>2131</ele>
        <time>2012-04-08T08:19:27Z</time>
      </trkpt>
      <trkpt lat="45.34" lon="6.63169">
        <ele>2131</ele>
        <time>2012-04-08T08:19:32Z</time>
      </trkpt>
      <trkpt lat="45.33996" lon="6.63171">
        <ele>2132</ele>
        <time>2012-04-08T08:19:37Z</time>
      </trkpt>
      <trkpt lat="45.3399" lon="6.63172">
        <ele>2132</ele>
        <time>2012-04-08T08:19:42Z</time>
      </trkpt>
      <trkpt lat="45.33986" lon="6.63173">
        <ele>2132</ele>
        <time>2012-04-08T08:19:47Z</time>
      </trkpt>
      <trkpt lat="45.3398" lon="6.63174">
        <ele>2132</ele>
        <time>2012-04-08T08:19:52Z</time>
      </trkpt>
      <trkpt lat="45.33975" lon="6.63176">
        <ele>2132</ele>
        <time>2012-04-08T08:19:57Z</time>
      </trkpt>
      <trkpt lat="45.33971" lon="6.63178">
        <ele>2133</ele>
        <time>2012-04-08T08:20:02Z</time>
      </trkpt>
      <trkpt lat="45.33965" lon="6.6318">
        <ele>2133</ele>
        <time>2012-04-08T08:20:07Z</time>
      </trkpt>
      <trkpt lat="45.33959" lon="6.63182">
        <ele>2133</ele>
        <time>2012-04-08T08:20:12Z</time>
      </trkpt>
      <trkpt lat="45.33954" lon="6.63183">
        <ele>2133</ele>
        <time>2012-04-08T08:20:17Z</time>
      </trkpt>
      <trkpt lat="45.33948" lon="6.63185">
        <ele>2133</ele>
        <time>2012-04-08T08:20:22Z</time>
      </trkpt>
      <trkpt lat="45.33943" lon="6.63188">
        <ele>2133</ele>
        <time>2012-04-08T08:20:27Z</time>
      </trkpt>
      <trkpt lat="45.33938" lon="6.63191">
        <ele>2133</ele>
        <time>2012-04-08T08:20:32Z</time>
      </trkpt>
      <trkpt lat="45.33934" lon="6.63192">
        <ele>2134</ele>
        <time>2012-04-08T08:20:37Z</time>
      </trkpt>
      <trkpt lat="45.3393" lon="6.63193">
        <ele>2134</ele>
        <time>2012-04-08T08:20:42Z</time>
      </trkpt>
      <trkpt lat="45.33925" lon="6.63195">
        <ele>2134</ele>
        <time>2012-04-08T08:20:47Z</time>
      </trkpt>
      <trkpt lat="45.3392" lon="6.63197">
        <ele>2134</ele>
        <time>2012-04-08T08:20:52Z</time>
      </trkpt>
      <trkpt lat="45.33915" lon="6.63198">
        <ele>2134</ele>
        <time>2012-04-08T08:20:57Z</time>
      </trkpt>
      <trkpt lat="45.3391" lon="6.63199">
        <ele>2134</ele>
        <time>2012-04-08T08:21:02Z</time>
      </trkpt>
      <trkpt lat="45.33905" lon="6.63199">
        <ele>2134</ele>
        <time>2012-04-08T08:21:07Z</time>
      </trkpt>
      <trkpt lat="45.33901" lon="6.63197">
        <ele>2134</ele>
        <time>2012-04-08T08:21:12Z</time>
      </trkpt>
      <trkpt lat="45.33896" lon="6.63193">
        <ele>2134</ele>
        <time>2012-04-08T08:21:17Z</time>
      </trkpt>
      <trkpt lat="45.33891" lon="6.63191">
        <ele>2134</ele>
        <time>2012-04-08T08:21:22Z</time>
      </trkpt>
      <trkpt lat="45.33886" lon="6.63191">
        <ele>2135</ele>
        <time>2012-04-08T08:21:27Z</time>
      </trkpt>
      <trkpt lat="45.33881" lon="6.63193">
        <ele>2135</ele>
        <time>2012-04-08T08:21:32Z</time>
      </trkpt>
      <trkpt lat="45.33876" lon="6.63195">
        <ele>2135</ele>
        <time>2012-04-08T08:21:37Z</time>
      </trkpt>
      <trkpt lat="45.33871" lon="6.63196">
        <ele>2135</ele>
        <time>2012-04-08T08:21:42Z</time>
      </trkpt>
      <trkpt lat="45.33866" lon="6.63197">
        <ele>2135</ele>
        <time>2012-04-08T08:21:47Z</time>
      </trkpt>
      <trkpt lat="45.3386" lon="6.63198">
        <ele>2135</ele>
        <time>2012-04-08T08:21:52Z</time>
      </trkpt>
      <trkpt lat="45.33855" lon="6.63198">
        <ele>2135</ele>
        <time>2012-04-08T08:21:57Z</time>
      </trkpt>
      <trkpt lat="45.3385" lon="6.632">
        <ele>2135</ele>
        <time>2012-04-08T08:22:02Z</time>
      </trkpt>
      <trkpt lat="45.33844" lon="6.63201">
        <ele>2136</ele>
        <time>2012-04-08T08:22:07Z</time>
      </trkpt>
      <trkpt lat="45.33839" lon="6.63202">
        <ele>2136</ele>
        <time>2012-04-08T08:22:12Z</time>
      </trkpt>
      <trkpt lat="45.33833" lon="6.63203">
        <ele>2136</ele>
        <time>2012-04-08T08:22:17Z</time>
      </trkpt>
      <trkpt lat="45.33827" lon="6.63204">
        <ele>2136</ele>
        <time>2012-04-08T08:22:22Z</time>
      </trkpt>
      <trkpt lat="45.33822" lon="6.63205">
        <ele>2136</ele>
        <time>2012-04-08T08:22:27Z</time>
      </trkpt>
      <trkpt lat="45.33816" lon="6.63207">
        <ele>2136</ele>
        <time>2012-04-08T08:22:32Z</time>
      </trkpt>
      <trkpt lat="45.33808" lon="6.63209">
        <ele>2135</ele>
        <time>2012-04-08T08:22:37Z</time>
      </trkpt>
      <trkpt lat="45.33801" lon="6.6321">
        <ele>2135</ele>
        <time>2012-04-08T08:22:42Z</time>
      </trkpt>
      <trkpt lat="45.33797" lon="6.63211">
        <ele>2135</ele>
        <time>2012-04-08T08:22:47Z</time>
      </trkpt>
      <trkpt lat="45.33793" lon="6.63212">
        <ele>2136</ele>
        <time>2012-04-08T08:22:52Z</time>
      </trkpt>
      <trkpt lat="45.33789" lon="6.63212">
        <ele>2136</ele>
        <time>2012-04-08T08:22:57Z</time>
      </trkpt>
      <trkpt lat="45.33783" lon="6.63213">
        <ele>2136</ele>
        <time>2012-04-08T08:23:02Z</time>
      </trkpt>
      <trkpt lat="45.33778" lon="6.63213">
        <ele>2136</ele>
        <time>2012-04-08T08:23:07Z</time>
      </trkpt>
      <trkpt lat="45.33772" lon="6.63214">
        <ele>2136</ele>
        <time>2012-04-08T08:23:12Z</time>
      </trkpt>
      <trkpt lat="45.33767" lon="6.63214">
        <ele>2137</ele>
        <time>2012-04-08T08:23:17Z</time>
      </trkpt>
      <trkpt lat="45.33761" lon="6.63214">
        <ele>2137</ele>
        <time>2012-04-08T08:23:22Z</time>
      </trkpt>
      <trkpt lat="45.33756" lon="6.63214">
        <ele>2137</ele>
        <time>2012-04-08T08:23:27Z</time>
      </trkpt>
      <trkpt lat="45.33751" lon="6.63212">
        <ele>2137</ele>
        <time>2012-04-08T08:23:32Z</time>
      </trkpt>
      <trkpt lat="45.33747" lon="6.63211">
        <ele>2143</ele>
        <time>2012-04-08T08:23:37Z</time>
      </trkpt>
      <trkpt lat="45.33744" lon="6.63209">
        <ele>2144</ele>
        <time>2012-04-08T08:23:42Z</time>
      </trkpt>
      <trkpt lat="45.33741" lon="6.63207">
        <ele>2144</ele>
        <time>2012-04-08T08:23:47Z</time>
      </trkpt>
      <trkpt lat="45.33738" lon="6.63205">
        <ele>2145</ele>
        <time>2012-04-08T08:23:52Z</time>
      </trkpt>
      <trkpt lat="45.33735" lon="6.63203">
        <ele>2145</ele>
        <time>2012-04-08T08:23:57Z</time>
      </trkpt>
      <trkpt lat="45.33732" lon="6.63203">
        <ele>2146</ele>
        <time>2012-04-08T08:24:02Z</time>
      </trkpt>
      <trkpt lat="45.33729" lon="6.63202">
        <ele>2147</ele>
        <time>2012-04-08T08:24:07Z</time>
      </trkpt>
      <trkpt lat="45.33725" lon="6.63202">
        <ele>2147</ele>
        <time>2012-04-08T08:24:12Z</time>
      </trkpt>
      <trkpt lat="45.33722" lon="6.63201">
        <ele>2148</ele>
        <time>2012-04-08T08:24:17Z</time>
      </trkpt>
      <trkpt lat="45.33718" lon="6.632">
        <ele>2148</ele>
        <time>2012-04-08T08:24:22Z</time>
      </trkpt>
      <trkpt lat="45.33714" lon="6.63198">
        <ele>2148</ele>
        <time>2012-04-08T08:24:27Z</time>
      </trkpt>
      <trkpt lat="45.3371" lon="6.63196">
        <ele>2149</ele>
        <time>2012-04-08T08:24:32Z</time>
      </trkpt>
      <trkpt lat="45.33707" lon="6.63195">
        <ele>2149</ele>
        <time>2012-04-08T08:24:37Z</time>
      </trkpt>
      <trkpt lat="45.33703" lon="6.63192">
        <ele>2150</ele>
        <time>2012-04-08T08:24:42Z</time>
      </trkpt>
      <trkpt lat="45.337" lon="6.6319">
        <ele>2150</ele>
        <time>2012-04-08T08:24:47Z</time>
      </trkpt>
      <trkpt lat="45.33697" lon="6.63188">
        <ele>2151</ele>
        <time>2012-04-08T08:24:52Z</time>
      </trkpt>
      <trkpt lat="45.33693" lon="6.63186">
        <ele>2151</ele>
        <time>2012-04-08T08:24:57Z</time>
      </trkpt>
      <trkpt lat="45.33691" lon="6.63188">
        <ele>2152</ele>
        <time>2012-04-08T08:25:02Z</time>
      </trkpt>
      <trkpt lat="45.33689" lon="6.63191">
        <ele>2152</ele>
        <time>2012-04-08T08:25:07Z</time>
      </trkpt>
      <trkpt lat="45.33689" lon="6.6319">
        <ele>2152</ele>
        <time>2012-04-08T08:25:12Z</time>
      </trkpt>
      <trkpt lat="45.33689" lon="6.63192">
        <ele>2151</ele>
        <time>2012-04-08T08:31:27Z</time>
      </trkpt>
      <trkpt lat="45.33688" lon="6.63194">
        <ele>2151</ele>
        <time>2012-04-08T08:31:32Z</time>
      </trkpt>
      <trkpt lat="45.33686" lon="6.63199">
        <ele>2152</ele>
        <time>2012-04-08T08:31:37Z</time>
      </trkpt>
      <trkpt lat="45.33684" lon="6.63202">
        <ele>2152</ele>
        <time>2012-04-08T08:31:42Z</time>
      </trkpt>
      <trkpt lat="45.33681" lon="6.63208">
        <ele>2152</ele>
        <time>2012-04-08T08:31:47Z</time>
      </trkpt>
      <trkpt lat="45.33675" lon="6.63218">
        <ele>2151</ele>
        <time>2012-04-08T08:31:52Z</time>
      </trkpt>
      <trkpt lat="45.33672" lon="6.63225">
        <ele>2151</ele>
        <time>2012-04-08T08:31:57Z</time>
      </trkpt>
      <trkpt lat="45.33669" lon="6.63235">
        <ele>2150</ele>
        <time>2012-04-08T08:32:02Z</time>
      </trkpt>
      <trkpt lat="45.33665" lon="6.63245">
        <ele>2150</ele>
        <time>2012-04-08T08:32:07Z</time>
      </trkpt>
      <trkpt lat="45.3366" lon="6.63256">
        <ele>2149</ele>
        <time>2012-04-08T08:32:12Z</time>
      </trkpt>
      <trkpt lat="45.33653" lon="6.63266">
        <ele>2147</ele>
        <time>2012-04-08T08:32:17Z</time>
      </trkpt>
      <trkpt lat="45.3365" lon="6.6327">
        <ele>2148</ele>
        <time>2012-04-08T08:32:22Z</time>
      </trkpt>
      <trkpt lat="45.33648" lon="6.63274">
        <ele>2148</ele>
        <time>2012-04-08T08:32:27Z</time>
      </trkpt>
      <trkpt lat="45.33645" lon="6.63278">
        <ele>2148</ele>
        <time>2012-04-08T08:32:32Z</time>
      </trkpt>
      <trkpt lat="45.33643" lon="6.63279">
        <ele>2148</ele>
        <time>2012-04-08T08:32:37Z</time>
      </trkpt>
      <trkpt lat="45.33641" lon="6.63284">
        <ele>2149</ele>
        <time>2012-04-08T08:32:42Z</time>
      </trkpt>
      <trkpt lat="45.33639" lon="6.63292">
        <ele>2149</ele>
        <time>2012-04-08T08:32:47Z</time>
      </trkpt>
      <trkpt lat="45.33638" lon="6.63297">
        <ele>2149</ele>
        <time>2012-04-08T08:32:52Z</time>
      </trkpt>
      <trkpt lat="45.33638" lon="6.63299">
        <ele>2149</ele>
        <time>2012-04-08T08:32:57Z</time>
      </trkpt>
      <trkpt lat="45.33635" lon="6.63301">
        <ele>2149</ele>
        <time>2012-04-08T08:33:02Z</time>
      </trkpt>
      <trkpt lat="45.33632" lon="6.63302">
        <ele>2149</ele>
        <time>2012-04-08T08:33:07Z</time>
      </trkpt>
      <trkpt lat="45.3363" lon="6.63305">
        <ele>2147</ele>
        <time>2012-04-08T08:33:12Z</time>
      </trkpt>
      <trkpt lat="45.33626" lon="6.63315">
        <ele>2146</ele>
        <time>2012-04-08T08:33:17Z</time>
      </trkpt>
      <trkpt lat="45.33628" lon="6.63323">
        <ele>2145</ele>
        <time>2012-04-08T08:33:22Z</time>
      </trkpt>
      <trkpt lat="45.3363" lon="6.6333">
        <ele>2145</ele>
        <time>2012-04-08T08:33:27Z</time>
      </trkpt>
      <trkpt lat="45.33631" lon="6.63337">
        <ele>2145</ele>
        <time>2012-04-08T08:33:32Z</time>
      </trkpt>
      <trkpt lat="45.33632" lon="6.63345">
        <ele>2145</ele>
        <time>2012-04-08T08:33:37Z</time>
      </trkpt>
      <trkpt lat="45.33634" lon="6.63351">
        <ele>2145</ele>
        <time>2012-04-08T08:33:42Z</time>
      </trkpt>
      <trkpt lat="45.33637" lon="6.63355">
        <ele>2145</ele>
        <time>2012-04-08T08:33:47Z</time>
      </trkpt>
      <trkpt lat="45.33639" lon="6.63358">
        <ele>2146</ele>
        <time>2012-04-08T08:33:52Z</time>
      </trkpt>
      <trkpt lat="45.3364" lon="6.63361">
        <ele>2146</ele>
        <time>2012-04-08T08:33:57Z</time>
      </trkpt>
      <trkpt lat="45.33638" lon="6.63366">
        <ele>2147</ele>
        <time>2012-04-08T08:34:02Z</time>
      </trkpt>
      <trkpt lat="45.33635" lon="6.6337">
        <ele>2147</ele>
        <time>2012-04-08T08:34:07Z</time>
      </trkpt>
      <trkpt lat="45.33632" lon="6.63373">
        <ele>2147</ele>
        <time>2012-04-08T08:34:12Z</time>
      </trkpt>
      <trkpt lat="45.33629" lon="6.63376">
        <ele>2148</ele>
        <time>2012-04-08T08:34:17Z</time>
      </trkpt>
      <trkpt lat="45.33625" lon="6.63379">
        <ele>2148</ele>
        <time>2012-04-08T08:34:22Z</time>
      </trkpt>
      <trkpt lat="45.33622" lon="6.63381">
        <ele>2149</ele>
        <time>2012-04-08T08:34:27Z</time>
      </trkpt>
      <trkpt lat="45.33618" lon="6.63384">
        <ele>2149</ele>
        <time>2012-04-08T08:34:32Z</time>
      </trkpt>
      <trkpt lat="45.33615" lon="6.63387">
        <ele>2150</ele>
        <time>2012-04-08T08:34:37Z</time>
      </trkpt>
      <trkpt lat="45.33611" lon="6.63389">
        <ele>2150</ele>
        <time>2012-04-08T08:34:42Z</time>
      </trkpt>
      <trkpt lat="45.33608" lon="6.63392">
        <ele>2150</ele>
        <time>2012-04-08T08:34:47Z</time>
      </trkpt>
      <trkpt lat="45.33604" lon="6.63394">
        <ele>2151</ele>
        <time>2012-04-08T08:34:52Z</time>
      </trkpt>
      <trkpt lat="45.336" lon="6.63398">
        <ele>2151</ele>
        <time>2012-04-08T08:34:57Z</time>
      </trkpt>
      <trkpt lat="45.33597" lon="6.63401">
        <ele>2152</ele>
        <time>2012-04-08T08:35:02Z</time>
      </trkpt>
      <trkpt lat="45.33592" lon="6.63404">
        <ele>2152</ele>
        <time>2012-04-08T08:35:07Z</time>
      </trkpt>
      <trkpt lat="45.33589" lon="6.63408">
        <ele>2152</ele>
        <time>2012-04-08T08:35:12Z</time>
      </trkpt>
      <trkpt lat="45.33586" lon="6.63411">
        <ele>2153</ele>
        <time>2012-04-08T08:35:17Z</time>
      </trkpt>
      <trkpt lat="45.33583" lon="6.63415">
        <ele>2153</ele>
        <time>2012-04-08T08:35:22Z</time>
      </trkpt>
      <trkpt lat="45.33579" lon="6.63419">
        <ele>2153</ele>
        <time>2012-04-08T08:35:27Z</time>
      </trkpt>
      <trkpt lat="45.33574" lon="6.63424">
        <ele>2153</ele>
        <time>2012-04-08T08:35:32Z</time>
      </trkpt>
      <trkpt lat="45.3357" lon="6.63431">
        <ele>2152</ele>
        <time>2012-04-08T08:35:37Z</time>
      </trkpt>
      <trkpt lat="45.33566" lon="6.63433">
        <ele>2152</ele>
        <time>2012-04-08T08:35:42Z</time>
      </trkpt>
      <trkpt lat="45.33566" lon="6.63434">
        <ele>2152</ele>
        <time>2012-04-08T08:35:47Z</time>
      </trkpt>
      <trkpt lat="45.33566" lon="6.63433">
        <ele>2152</ele>
        <time>2012-04-08T08:35:52Z</time>
      </trkpt>
      <trkpt lat="45.33566" lon="6.63433">
        <ele>2152</ele>
        <time>2012-04-08T08:35:57Z</time>
      </trkpt>
      <trkpt lat="45.33564" lon="6.63435">
        <ele>2153</ele>
        <time>2012-04-08T08:36:02Z</time>
      </trkpt>
      <trkpt lat="45.33561" lon="6.63438">
        <ele>2153</ele>
        <time>2012-04-08T08:36:07Z</time>
      </trkpt>
      <trkpt lat="45.33558" lon="6.63441">
        <ele>2154</ele>
        <time>2012-04-08T08:36:12Z</time>
      </trkpt>
      <trkpt lat="45.33555" lon="6.63444">
        <ele>2155</ele>
        <time>2012-04-08T08:36:17Z</time>
      </trkpt>
      <trkpt lat="45.3355" lon="6.63445">
        <ele>2156</ele>
        <time>2012-04-08T08:36:22Z</time>
      </trkpt>
      <trkpt lat="45.33547" lon="6.63445">
        <ele>2156</ele>
        <time>2012-04-08T08:36:27Z</time>
      </trkpt>
      <trkpt lat="45.33543" lon="6.63446">
        <ele>2157</ele>
        <time>2012-04-08T08:36:32Z</time>
      </trkpt>
      <trkpt lat="45.3354" lon="6.63447">
        <ele>2158</ele>
        <time>2012-04-08T08:36:37Z</time>
      </trkpt>
      <trkpt lat="45.33536" lon="6.63448">
        <ele>2158</ele>
        <time>2012-04-08T08:36:42Z</time>
      </trkpt>
      <trkpt lat="45.33534" lon="6.6345">
        <ele>2159</ele>
        <time>2012-04-08T08:36:47Z</time>
      </trkpt>
      <trkpt lat="45.33531" lon="6.63454">
        <ele>2160</ele>
        <time>2012-04-08T08:36:52Z</time>
      </trkpt>
      <trkpt lat="45.33527" lon="6.63457">
        <ele>2160</ele>
        <time>2012-04-08T08:36:57Z</time>
      </trkpt>
      <trkpt lat="45.33524" lon="6.63461">
        <ele>2160</ele>
        <time>2012-04-08T08:37:02Z</time>
      </trkpt>
      <trkpt lat="45.33522" lon="6.63465">
        <ele>2161</ele>
        <time>2012-04-08T08:37:07Z</time>
      </trkpt>
      <trkpt lat="45.33521" lon="6.63468">
        <ele>2161</ele>
        <time>2012-04-08T08:37:12Z</time>
      </trkpt>
      <trkpt lat="45.33519" lon="6.63471">
        <ele>2162</ele>
        <time>2012-04-08T08:37:17Z</time>
      </trkpt>
      <trkpt lat="45.33517" lon="6.63475">
        <ele>2163</ele>
        <time>2012-04-08T08:37:22Z</time>
      </trkpt>
      <trkpt lat="45.33514" lon="6.63479">
        <ele>2163</ele>
        <time>2012-04-08T08:37:27Z</time>
      </trkpt>
      <trkpt lat="45.33512" lon="6.63484">
        <ele>2164</ele>
        <time>2012-04-08T08:37:32Z</time>
      </trkpt>
      <trkpt lat="45.3351" lon="6.63488">
        <ele>2164</ele>
        <time>2012-04-08T08:37:37Z</time>
      </trkpt>
      <trkpt lat="45.33506" lon="6.63493">
        <ele>2164</ele>
        <time>2012-04-08T08:37:42Z</time>
      </trkpt>
      <trkpt lat="45.33503" lon="6.63498">
        <ele>2164</ele>
        <time>2012-04-08T08:37:47Z</time>
      </trkpt>
      <trkpt lat="45.33501" lon="6.63503">
        <ele>2165</ele>
        <time>2012-04-08T08:37:52Z</time>
      </trkpt>
      <trkpt lat="45.33498" lon="6.63509">
        <ele>2165</ele>
        <time>2012-04-08T08:37:57Z</time>
      </trkpt>
      <trkpt lat="45.33495" lon="6.63515">
        <ele>2165</ele>
        <time>2012-04-08T08:38:02Z</time>
      </trkpt>
      <trkpt lat="45.33492" lon="6.6352">
        <ele>2165</ele>
        <time>2012-04-08T08:38:07Z</time>
      </trkpt>
      <trkpt lat="45.33489" lon="6.63525">
        <ele>2166</ele>
        <time>2012-04-08T08:38:12Z</time>
      </trkpt>
      <trkpt lat="45.33487" lon="6.63529">
        <ele>2166</ele>
        <time>2012-04-08T08:38:17Z</time>
      </trkpt>
      <trkpt lat="45.33484" lon="6.63533">
        <ele>2167</ele>
        <time>2012-04-08T08:38:22Z</time>
      </trkpt>
      <trkpt lat="45.33481" lon="6.63537">
        <ele>2167</ele>
        <time>2012-04-08T08:38:27Z</time>
      </trkpt>
      <trkpt lat="45.33477" lon="6.63541">
        <ele>2167</ele>
        <time>2012-04-08T08:38:32Z</time>
      </trkpt>
      <trkpt lat="45.33474" lon="6.63545">
        <ele>2168</ele>
        <time>2012-04-08T08:38:37Z</time>
      </trkpt>
      <trkpt lat="45.33471" lon="6.6355">
        <ele>2168</ele>
        <time>2012-04-08T08:38:42Z</time>
      </trkpt>
      <trkpt lat="45.33468" lon="6.63554">
        <ele>2169</ele>
        <time>2012-04-08T08:38:47Z</time>
      </trkpt>
      <trkpt lat="45.33465" lon="6.63557">
        <ele>2169</ele>
        <time>2012-04-08T08:38:52Z</time>
      </trkpt>
      <trkpt lat="45.33463" lon="6.63559">
        <ele>2170</ele>
        <time>2012-04-08T08:38:57Z</time>
      </trkpt>
      <trkpt lat="45.3346" lon="6.63561">
        <ele>2171</ele>
        <time>2012-04-08T08:39:02Z</time>
      </trkpt>
      <trkpt lat="45.33458" lon="6.63562">
        <ele>2172</ele>
        <time>2012-04-08T08:39:07Z</time>
      </trkpt>
      <trkpt lat="45.33455" lon="6.63563">
        <ele>2172</ele>
        <time>2012-04-08T08:39:12Z</time>
      </trkpt>
      <trkpt lat="45.33453" lon="6.63563">
        <ele>2173</ele>
        <time>2012-04-08T08:39:17Z</time>
      </trkpt>
      <trkpt lat="45.3345" lon="6.63563">
        <ele>2174</ele>
        <time>2012-04-08T08:39:22Z</time>
      </trkpt>
      <trkpt lat="45.33447" lon="6.63563">
        <ele>2175</ele>
        <time>2012-04-08T08:39:27Z</time>
      </trkpt>
      <trkpt lat="45.33445" lon="6.63563">
        <ele>2175</ele>
        <time>2012-04-08T08:39:32Z</time>
      </trkpt>
      <trkpt lat="45.33442" lon="6.63563">
        <ele>2176</ele>
        <time>2012-04-08T08:39:37Z</time>
      </trkpt>
      <trkpt lat="45.33439" lon="6.63564">
        <ele>2177</ele>
        <time>2012-04-08T08:39:42Z</time>
      </trkpt>
      <trkpt lat="45.33436" lon="6.63566">
        <ele>2178</ele>
        <time>2012-04-08T08:39:47Z</time>
      </trkpt>
      <trkpt lat="45.33433" lon="6.63568">
        <ele>2179</ele>
        <time>2012-04-08T08:39:52Z</time>
      </trkpt>
      <trkpt lat="45.33431" lon="6.63569">
        <ele>2179</ele>
        <time>2012-04-08T08:39:57Z</time>
      </trkpt>
      <trkpt lat="45.33428" lon="6.63571">
        <ele>2179</ele>
        <time>2012-04-08T08:40:02Z</time>
      </trkpt>
      <trkpt lat="45.33426" lon="6.63574">
        <ele>2180</ele>
        <time>2012-04-08T08:40:07Z</time>
      </trkpt>
      <trkpt lat="45.33423" lon="6.63577">
        <ele>2180</ele>
        <time>2012-04-08T08:40:12Z</time>
      </trkpt>
      <trkpt lat="45.3342" lon="6.63581">
        <ele>2181</ele>
        <time>2012-04-08T08:40:17Z</time>
      </trkpt>
      <trkpt lat="45.33417" lon="6.63584">
        <ele>2181</ele>
        <time>2012-04-08T08:40:22Z</time>
      </trkpt>
      <trkpt lat="45.33414" lon="6.63586">
        <ele>2182</ele>
        <time>2012-04-08T08:40:27Z</time>
      </trkpt>
      <trkpt lat="45.33412" lon="6.63589">
        <ele>2183</ele>
        <time>2012-04-08T08:40:32Z</time>
      </trkpt>
      <trkpt lat="45.33409" lon="6.63591">
        <ele>2184</ele>
        <time>2012-04-08T08:40:37Z</time>
      </trkpt>
      <trkpt lat="45.33407" lon="6.63593">
        <ele>2184</ele>
        <time>2012-04-08T08:40:42Z</time>
      </trkpt>
      <trkpt lat="45.33405" lon="6.63594">
        <ele>2185</ele>
        <time>2012-04-08T08:40:47Z</time>
      </trkpt>
      <trkpt lat="45.33405" lon="6.63594">
        <ele>2185</ele>
        <time>2012-04-08T08:40:52Z</time>
      </trkpt>
      <trkpt lat="45.33405" lon="6.63594">
        <ele>2185</ele>
        <time>2012-04-08T08:40:57Z</time>
      </trkpt>
      <trkpt lat="45.33405" lon="6.63593">
        <ele>2185</ele>
        <time>2012-04-08T08:41:02Z</time>
      </trkpt>
      <trkpt lat="45.33405" lon="6.63593">
        <ele>2185</ele>
        <time>2012-04-08T08:41:07Z</time>
      </trkpt>
      <trkpt lat="45.33405" lon="6.63593">
        <ele>2185</ele>
        <time>2012-04-08T08:41:12Z</time>
      </trkpt>
      <trkpt lat="45.33405" lon="6.63593">
        <ele>2185</ele>
        <time>2012-04-08T08:41:17Z</time>
      </trkpt>
      <trkpt lat="45.33405" lon="6.63594">
        <ele>2185</ele>
        <time>2012-04-08T08:41:22Z</time>
      </trkpt>
      <trkpt lat="45.33403" lon="6.63596">
        <ele>2186</ele>
        <time>2012-04-08T08:41:27Z</time>
      </trkpt>
      <trkpt lat="45.33399" lon="6.63599">
        <ele>2187</ele>
        <time>2012-04-08T08:41:32Z</time>
      </trkpt>
      <trkpt lat="45.33396" lon="6.63601">
        <ele>2187</ele>
        <time>2012-04-08T08:41:37Z</time>
      </trkpt>
      <trkpt lat="45.33394" lon="6.63605">
        <ele>2188</ele>
        <time>2012-04-08T08:41:42Z</time>
      </trkpt>
      <trkpt lat="45.33391" lon="6.63608">
        <ele>2189</ele>
        <time>2012-04-08T08:41:47Z</time>
      </trkpt>
      <trkpt lat="45.33389" lon="6.63612">
        <ele>2190</ele>
        <time>2012-04-08T08:41:52Z</time>
      </trkpt>
      <trkpt lat="45.33387" lon="6.63616">
        <ele>2191</ele>
        <time>2012-04-08T08:41:57Z</time>
      </trkpt>
      <trkpt lat="45.33385" lon="6.63619">
        <ele>2192</ele>
        <time>2012-04-08T08:42:02Z</time>
      </trkpt>
      <trkpt lat="45.33382" lon="6.63623">
        <ele>2193</ele>
        <time>2012-04-08T08:42:07Z</time>
      </trkpt>
      <trkpt lat="45.3338" lon="6.63626">
        <ele>2193</ele>
        <time>2012-04-08T08:42:12Z</time>
      </trkpt>
      <trkpt lat="45.33378" lon="6.63629">
        <ele>2193</ele>
        <time>2012-04-08T08:42:17Z</time>
      </trkpt>
      <trkpt lat="45.33375" lon="6.63632">
        <ele>2194</ele>
        <time>2012-04-08T08:42:22Z</time>
      </trkpt>
      <trkpt lat="45.33373" lon="6.63635">
        <ele>2195</ele>
        <time>2012-04-08T08:42:27Z</time>
      </trkpt>
      <trkpt lat="45.33371" lon="6.6364">
        <ele>2195</ele>
        <time>2012-04-08T08:42:32Z</time>
      </trkpt>
      <trkpt lat="45.3337" lon="6.63643">
        <ele>2196</ele>
        <time>2012-04-08T08:42:37Z</time>
      </trkpt>
      <trkpt lat="45.33371" lon="6.63646">
        <ele>2197</ele>
        <time>2012-04-08T08:42:42Z</time>
      </trkpt>
      <trkpt lat="45.33374" lon="6.63647">
        <ele>2197</ele>
        <time>2012-04-08T08:42:47Z</time>
      </trkpt>
      <trkpt lat="45.33378" lon="6.63649">
        <ele>2198</ele>
        <time>2012-04-08T08:42:52Z</time>
      </trkpt>
      <trkpt lat="45.33381" lon="6.6365">
        <ele>2198</ele>
        <time>2012-04-08T08:42:57Z</time>
      </trkpt>
      <trkpt lat="45.33384" lon="6.63652">
        <ele>2199</ele>
        <time>2012-04-08T08:43:02Z</time>
      </trkpt>
      <trkpt lat="45.33387" lon="6.63654">
        <ele>2199</ele>
        <time>2012-04-08T08:43:07Z</time>
      </trkpt>
      <trkpt lat="45.3339" lon="6.63656">
        <ele>2200</ele>
        <time>2012-04-08T08:43:12Z</time>
      </trkpt>
      <trkpt lat="45.33392" lon="6.63657">
        <ele>2200</ele>
        <time>2012-04-08T08:43:17Z</time>
      </trkpt>
      <trkpt lat="45.33395" lon="6.63659">
        <ele>2201</ele>
        <time>2012-04-08T08:43:22Z</time>
      </trkpt>
      <trkpt lat="45.33397" lon="6.6366">
        <ele>2201</ele>
        <time>2012-04-08T08:43:27Z</time>
      </trkpt>
      <trkpt lat="45.334" lon="6.63661">
        <ele>2201</ele>
        <time>2012-04-08T08:43:32Z</time>
      </trkpt>
      <trkpt lat="45.33399" lon="6.63662">
        <ele>2202</ele>
        <time>2012-04-08T08:43:37Z</time>
      </trkpt>
      <trkpt lat="45.33396" lon="6.63663">
        <ele>2202</ele>
        <time>2012-04-08T08:43:42Z</time>
      </trkpt>
      <trkpt lat="45.33393" lon="6.63664">
        <ele>2202</ele>
        <time>2012-04-08T08:43:47Z</time>
      </trkpt>
      <trkpt lat="45.33391" lon="6.63666">
        <ele>2203</ele>
        <time>2012-04-08T08:43:52Z</time>
      </trkpt>
      <trkpt lat="45.33387" lon="6.63667">
        <ele>2203</ele>
        <time>2012-04-08T08:43:57Z</time>
      </trkpt>
      <trkpt lat="45.33384" lon="6.63669">
        <ele>2204</ele>
        <time>2012-04-08T08:44:02Z</time>
      </trkpt>
      <trkpt lat="45.33381" lon="6.63671">
        <ele>2204</ele>
        <time>2012-04-08T08:44:07Z</time>
      </trkpt>
      <trkpt lat="45.33379" lon="6.63672">
        <ele>2204</ele>
        <time>2012-04-08T08:44:12Z</time>
      </trkpt>
      <trkpt lat="45.33375" lon="6.63674">
        <ele>2205</ele>
        <time>2012-04-08T08:44:17Z</time>
      </trkpt>
      <trkpt lat="45.33372" lon="6.63676">
        <ele>2205</ele>
        <time>2012-04-08T08:44:22Z</time>
      </trkpt>
      <trkpt lat="45.33369" lon="6.63677">
        <ele>2206</ele>
        <time>2012-04-08T08:44:27Z</time>
      </trkpt>
      <trkpt lat="45.33368" lon="6.63677">
        <ele>2206</ele>
        <time>2012-04-08T08:44:32Z</time>
      </trkpt>
      <trkpt lat="45.33369" lon="6.63678">
        <ele>2207</ele>
        <time>2012-04-08T08:44:37Z</time>
      </trkpt>
      <trkpt lat="45.33372" lon="6.63679">
        <ele>2207</ele>
        <time>2012-04-08T08:44:42Z</time>
      </trkpt>
      <trkpt lat="45.33375" lon="6.63681">
        <ele>2208</ele>
        <time>2012-04-08T08:44:47Z</time>
      </trkpt>
      <trkpt lat="45.33377" lon="6.63682">
        <ele>2209</ele>
        <time>2012-04-08T08:44:52Z</time>
      </trkpt>
      <trkpt lat="45.3338" lon="6.63683">
        <ele>2209</ele>
        <time>2012-04-08T08:44:57Z</time>
      </trkpt>
      <trkpt lat="45.33382" lon="6.63684">
        <ele>2210</ele>
        <time>2012-04-08T08:45:02Z</time>
      </trkpt>
      <trkpt lat="45.33385" lon="6.63685">
        <ele>2211</ele>
        <time>2012-04-08T08:45:07Z</time>
      </trkpt>
      <trkpt lat="45.33387" lon="6.63686">
        <ele>2212</ele>
        <time>2012-04-08T08:45:12Z</time>
      </trkpt>
      <trkpt lat="45.33389" lon="6.63687">
        <ele>2212</ele>
        <time>2012-04-08T08:45:17Z</time>
      </trkpt>
      <trkpt lat="45.33391" lon="6.63687">
        <ele>2213</ele>
        <time>2012-04-08T08:45:22Z</time>
      </trkpt>
      <trkpt lat="45.33389" lon="6.63689">
        <ele>2213</ele>
        <time>2012-04-08T08:45:27Z</time>
      </trkpt>
      <trkpt lat="45.33386" lon="6.63691">
        <ele>2213</ele>
        <time>2012-04-08T08:45:32Z</time>
      </trkpt>
      <trkpt lat="45.33383" lon="6.63693">
        <ele>2214</ele>
        <time>2012-04-08T08:45:37Z</time>
      </trkpt>
      <trkpt lat="45.33381" lon="6.63695">
        <ele>2215</ele>
        <time>2012-04-08T08:45:42Z</time>
      </trkpt>
      <trkpt lat="45.33379" lon="6.63698">
        <ele>2215</ele>
        <time>2012-04-08T08:45:47Z</time>
      </trkpt>
      <trkpt lat="45.33377" lon="6.637">
        <ele>2216</ele>
        <time>2012-04-08T08:45:52Z</time>
      </trkpt>
      <trkpt lat="45.33375" lon="6.63701">
        <ele>2217</ele>
        <time>2012-04-08T08:45:57Z</time>
      </trkpt>
      <trkpt lat="45.33373" lon="6.63703">
        <ele>2218</ele>
        <time>2012-04-08T08:46:02Z</time>
      </trkpt>
      <trkpt lat="45.33371" lon="6.63703">
        <ele>2219</ele>
        <time>2012-04-08T08:46:07Z</time>
      </trkpt>
      <trkpt lat="45.33369" lon="6.63703">
        <ele>2219</ele>
        <time>2012-04-08T08:46:12Z</time>
      </trkpt>
      <trkpt lat="45.3337" lon="6.63705">
        <ele>2220</ele>
        <time>2012-04-08T08:46:17Z</time>
      </trkpt>
      <trkpt lat="45.33373" lon="6.63708">
        <ele>2220</ele>
        <time>2012-04-08T08:46:22Z</time>
      </trkpt>
      <trkpt lat="45.33375" lon="6.6371">
        <ele>2221</ele>
        <time>2012-04-08T08:46:27Z</time>
      </trkpt>
      <trkpt lat="45.33377" lon="6.63712">
        <ele>2221</ele>
        <time>2012-04-08T08:46:32Z</time>
      </trkpt>
      <trkpt lat="45.33379" lon="6.63713">
        <ele>2222</ele>
        <time>2012-04-08T08:46:37Z</time>
      </trkpt>
      <trkpt lat="45.33381" lon="6.63714">
        <ele>2223</ele>
        <time>2012-04-08T08:46:42Z</time>
      </trkpt>
      <trkpt lat="45.33383" lon="6.63713">
        <ele>2224</ele>
        <time>2012-04-08T08:46:47Z</time>
      </trkpt>
      <trkpt lat="45.33385" lon="6.63713">
        <ele>2225</ele>
        <time>2012-04-08T08:46:52Z</time>
      </trkpt>
      <trkpt lat="45.33387" lon="6.63713">
        <ele>2226</ele>
        <time>2012-04-08T08:46:57Z</time>
      </trkpt>
      <trkpt lat="45.3339" lon="6.63713">
        <ele>2226</ele>
        <time>2012-04-08T08:47:02Z</time>
      </trkpt>
      <trkpt lat="45.33392" lon="6.63713">
        <ele>2227</ele>
        <time>2012-04-08T08:47:07Z</time>
      </trkpt>
      <trkpt lat="45.33394" lon="6.63713">
        <ele>2228</ele>
        <time>2012-04-08T08:47:12Z</time>
      </trkpt>
      <trkpt lat="45.33397" lon="6.63714">
        <ele>2229</ele>
        <time>2012-04-08T08:47:17Z</time>
      </trkpt>
      <trkpt lat="45.33397" lon="6.63714">
        <ele>2229</ele>
        <time>2012-04-08T08:47:22Z</time>
      </trkpt>
      <trkpt lat="45.33397" lon="6.63715">
        <ele>2229</ele>
        <time>2012-04-08T08:47:27Z</time>
      </trkpt>
      <trkpt lat="45.33394" lon="6.63717">
        <ele>2230</ele>
        <time>2012-04-08T08:47:32Z</time>
      </trkpt>
      <trkpt lat="45.33392" lon="6.63719">
        <ele>2230</ele>
        <time>2012-04-08T08:47:37Z</time>
      </trkpt>
      <trkpt lat="45.33391" lon="6.63721">
        <ele>2231</ele>
        <time>2012-04-08T08:47:42Z</time>
      </trkpt>
      <trkpt lat="45.3339" lon="6.63723">
        <ele>2231</ele>
        <time>2012-04-08T08:47:47Z</time>
      </trkpt>
      <trkpt lat="45.33388" lon="6.63726">
        <ele>2232</ele>
        <time>2012-04-08T08:47:52Z</time>
      </trkpt>
      <trkpt lat="45.33387" lon="6.63728">
        <ele>2232</ele>
        <time>2012-04-08T08:47:57Z</time>
      </trkpt>
      <trkpt lat="45.33385" lon="6.63732">
        <ele>2233</ele>
        <time>2012-04-08T08:48:02Z</time>
      </trkpt>
      <trkpt lat="45.33384" lon="6.63734">
        <ele>2234</ele>
        <time>2012-04-08T08:48:07Z</time>
      </trkpt>
      <trkpt lat="45.33382" lon="6.63737">
        <ele>2234</ele>
        <time>2012-04-08T08:48:12Z</time>
      </trkpt>
      <trkpt lat="45.3338" lon="6.63739">
        <ele>2235</ele>
        <time>2012-04-08T08:48:17Z</time>
      </trkpt>
      <trkpt lat="45.33378" lon="6.63741">
        <ele>2235</ele>
        <time>2012-04-08T08:48:22Z</time>
      </trkpt>
      <trkpt lat="45.33376" lon="6.63743">
        <ele>2236</ele>
        <time>2012-04-08T08:48:27Z</time>
      </trkpt>
      <trkpt lat="45.33373" lon="6.63743">
        <ele>2237</ele>
        <time>2012-04-08T08:48:32Z</time>
      </trkpt>
      <trkpt lat="45.33371" lon="6.63744">
        <ele>2237</ele>
        <time>2012-04-08T08:48:37Z</time>
      </trkpt>
      <trkpt lat="45.33369" lon="6.63743">
        <ele>2239</ele>
        <time>2012-04-08T08:48:42Z</time>
      </trkpt>
      <trkpt lat="45.3337" lon="6.63744">
        <ele>2239</ele>
        <time>2012-04-08T08:48:47Z</time>
      </trkpt>
      <trkpt lat="45.33372" lon="6.63747">
        <ele>2240</ele>
        <time>2012-04-08T08:48:52Z</time>
      </trkpt>
      <trkpt lat="45.33374" lon="6.63749">
        <ele>2240</ele>
        <time>2012-04-08T08:48:57Z</time>
      </trkpt>
      <trkpt lat="45.33377" lon="6.63751">
        <ele>2241</ele>
        <time>2012-04-08T08:49:02Z</time>
      </trkpt>
      <trkpt lat="45.33379" lon="6.63752">
        <ele>2242</ele>
        <time>2012-04-08T08:49:07Z</time>
      </trkpt>
      <trkpt lat="45.33381" lon="6.63752">
        <ele>2242</ele>
        <time>2012-04-08T08:49:12Z</time>
      </trkpt>
      <trkpt lat="45.33382" lon="6.63751">
        <ele>2243</ele>
        <time>2012-04-08T08:49:17Z</time>
      </trkpt>
      <trkpt lat="45.33382" lon="6.63753">
        <ele>2243</ele>
        <time>2012-04-08T08:49:22Z</time>
      </trkpt>
      <trkpt lat="45.3338" lon="6.63755">
        <ele>2243</ele>
        <time>2012-04-08T08:49:27Z</time>
      </trkpt>
      <trkpt lat="45.33378" lon="6.63757">
        <ele>2243</ele>
        <time>2012-04-08T08:49:32Z</time>
      </trkpt>
      <trkpt lat="45.33376" lon="6.6376">
        <ele>2244</ele>
        <time>2012-04-08T08:49:37Z</time>
      </trkpt>
      <trkpt lat="45.33374" lon="6.63762">
        <ele>2245</ele>
        <time>2012-04-08T08:49:42Z</time>
      </trkpt>
      <trkpt lat="45.33373" lon="6.63763">
        <ele>2246</ele>
        <time>2012-04-08T08:49:47Z</time>
      </trkpt>
      <trkpt lat="45.3337" lon="6.63764">
        <ele>2246</ele>
        <time>2012-04-08T08:49:52Z</time>
      </trkpt>
      <trkpt lat="45.33368" lon="6.63764">
        <ele>2247</ele>
        <time>2012-04-08T08:49:57Z</time>
      </trkpt>
      <trkpt lat="45.33366" lon="6.63763">
        <ele>2248</ele>
        <time>2012-04-08T08:50:02Z</time>
      </trkpt>
      <trkpt lat="45.33364" lon="6.63763">
        <ele>2249</ele>
        <time>2012-04-08T08:50:07Z</time>
      </trkpt>
      <trkpt lat="45.33363" lon="6.63762">
        <ele>2250</ele>
        <time>2012-04-08T08:50:12Z</time>
      </trkpt>
      <trkpt lat="45.33364" lon="6.63765">
        <ele>2250</ele>
        <time>2012-04-08T08:50:17Z</time>
      </trkpt>
      <trkpt lat="45.33366" lon="6.63768">
        <ele>2250</ele>
        <time>2012-04-08T08:50:22Z</time>
      </trkpt>
      <trkpt lat="45.33369" lon="6.63772">
        <ele>2250</ele>
        <time>2012-04-08T08:50:27Z</time>
      </trkpt>
      <trkpt lat="45.33371" lon="6.63775">
        <ele>2251</ele>
        <time>2012-04-08T08:50:32Z</time>
      </trkpt>
      <trkpt lat="45.33374" lon="6.63776">
        <ele>2251</ele>
        <time>2012-04-08T08:50:37Z</time>
      </trkpt>
      <trkpt lat="45.33376" lon="6.63777">
        <ele>2252</ele>
        <time>2012-04-08T08:50:42Z</time>
      </trkpt>
      <trkpt lat="45.33378" lon="6.63777">
        <ele>2252</ele>
        <time>2012-04-08T08:50:47Z</time>
      </trkpt>
      <trkpt lat="45.33376" lon="6.63779">
        <ele>2253</ele>
        <time>2012-04-08T08:50:52Z</time>
      </trkpt>
      <trkpt lat="45.33374" lon="6.63782">
        <ele>2253</ele>
        <time>2012-04-08T08:50:57Z</time>
      </trkpt>
      <trkpt lat="45.33371" lon="6.63784">
        <ele>2253</ele>
        <time>2012-04-08T08:51:02Z</time>
      </trkpt>
      <trkpt lat="45.33369" lon="6.63785">
        <ele>2254</ele>
        <time>2012-04-08T08:51:07Z</time>
      </trkpt>
      <trkpt lat="45.33366" lon="6.63785">
        <ele>2254</ele>
        <time>2012-04-08T08:51:12Z</time>
      </trkpt>
      <trkpt lat="45.33364" lon="6.63785">
        <ele>2255</ele>
        <time>2012-04-08T08:51:17Z</time>
      </trkpt>
      <trkpt lat="45.33362" lon="6.63783">
        <ele>2256</ele>
        <time>2012-04-08T08:51:22Z</time>
      </trkpt>
      <trkpt lat="45.33362" lon="6.63783">
        <ele>2257</ele>
        <time>2012-04-08T08:51:27Z</time>
      </trkpt>
      <trkpt lat="45.33363" lon="6.63786">
        <ele>2258</ele>
        <time>2012-04-08T08:51:32Z</time>
      </trkpt>
      <trkpt lat="45.33365" lon="6.6379">
        <ele>2258</ele>
        <time>2012-04-08T08:51:37Z</time>
      </trkpt>
      <trkpt lat="45.33368" lon="6.63793">
        <ele>2258</ele>
        <time>2012-04-08T08:51:42Z</time>
      </trkpt>
      <trkpt lat="45.3337" lon="6.63795">
        <ele>2259</ele>
        <time>2012-04-08T08:51:47Z</time>
      </trkpt>
      <trkpt lat="45.33372" lon="6.63797">
        <ele>2259</ele>
        <time>2012-04-08T08:51:52Z</time>
      </trkpt>
      <trkpt lat="45.33374" lon="6.63798">
        <ele>2260</ele>
        <time>2012-04-08T08:51:57Z</time>
      </trkpt>
      <trkpt lat="45.33376" lon="6.63798">
        <ele>2260</ele>
        <time>2012-04-08T08:52:02Z</time>
      </trkpt>
      <trkpt lat="45.33375" lon="6.638">
        <ele>2261</ele>
        <time>2012-04-08T08:52:07Z</time>
      </trkpt>
      <trkpt lat="45.33373" lon="6.63803">
        <ele>2261</ele>
        <time>2012-04-08T08:52:12Z</time>
      </trkpt>
      <trkpt lat="45.33371" lon="6.63804">
        <ele>2261</ele>
        <time>2012-04-08T08:52:17Z</time>
      </trkpt>
      <trkpt lat="45.33368" lon="6.63805">
        <ele>2262</ele>
        <time>2012-04-08T08:52:22Z</time>
      </trkpt>
      <trkpt lat="45.33366" lon="6.63805">
        <ele>2263</ele>
        <time>2012-04-08T08:52:27Z</time>
      </trkpt>
      <trkpt lat="45.33363" lon="6.63804">
        <ele>2264</ele>
        <time>2012-04-08T08:52:32Z</time>
      </trkpt>
      <trkpt lat="45.33362" lon="6.63804">
        <ele>2265</ele>
        <time>2012-04-08T08:52:37Z</time>
      </trkpt>
      <trkpt lat="45.33362" lon="6.63803">
        <ele>2265</ele>
        <time>2012-04-08T08:52:42Z</time>
      </trkpt>
      <trkpt lat="45.33362" lon="6.63803">
        <ele>2265</ele>
        <time>2012-04-08T08:52:47Z</time>
      </trkpt>
      <trkpt lat="45.33361" lon="6.63803">
        <ele>2266</ele>
        <time>2012-04-08T08:52:52Z</time>
      </trkpt>
      <trkpt lat="45.33359" lon="6.63802">
        <ele>2267</ele>
        <time>2012-04-08T08:52:57Z</time>
      </trkpt>
      <trkpt lat="45.33358" lon="6.63801">
        <ele>2267</ele>
        <time>2012-04-08T08:53:02Z</time>
      </trkpt>
      <trkpt lat="45.33358" lon="6.63801">
        <ele>2267</ele>
        <time>2012-04-08T08:53:07Z</time>
      </trkpt>
      <trkpt lat="45.33358" lon="6.63804">
        <ele>2268</ele>
        <time>2012-04-08T08:53:12Z</time>
      </trkpt>
      <trkpt lat="45.3336" lon="6.63808">
        <ele>2269</ele>
        <time>2012-04-08T08:53:17Z</time>
      </trkpt>
      <trkpt lat="45.33362" lon="6.63812">
        <ele>2269</ele>
        <time>2012-04-08T08:53:22Z</time>
      </trkpt>
      <trkpt lat="45.33363" lon="6.63816">
        <ele>2270</ele>
        <time>2012-04-08T08:53:27Z</time>
      </trkpt>
      <trkpt lat="45.33365" lon="6.63819">
        <ele>2270</ele>
        <time>2012-04-08T08:53:32Z</time>
      </trkpt>
      <trkpt lat="45.33367" lon="6.63822">
        <ele>2271</ele>
        <time>2012-04-08T08:53:37Z</time>
      </trkpt>
      <trkpt lat="45.33369" lon="6.63824">
        <ele>2272</ele>
        <time>2012-04-08T08:53:42Z</time>
      </trkpt>
      <trkpt lat="45.33372" lon="6.63825">
        <ele>2272</ele>
        <time>2012-04-08T08:53:47Z</time>
      </trkpt>
      <trkpt lat="45.33373" lon="6.63826">
        <ele>2272</ele>
        <time>2012-04-08T08:53:52Z</time>
      </trkpt>
      <trkpt lat="45.33373" lon="6.63826">
        <ele>2272</ele>
        <time>2012-04-08T08:53:57Z</time>
      </trkpt>
      <trkpt lat="45.33373" lon="6.63826">
        <ele>2272</ele>
        <time>2012-04-08T08:54:02Z</time>
      </trkpt>
      <trkpt lat="45.33373" lon="6.63826">
        <ele>2272</ele>
        <time>2012-04-08T08:54:07Z</time>
      </trkpt>
      <trkpt lat="45.33373" lon="6.63826">
        <ele>2272</ele>
        <time>2012-04-08T08:54:12Z</time>
      </trkpt>
      <trkpt lat="45.33373" lon="6.63826">
        <ele>2272</ele>
        <time>2012-04-08T08:54:17Z</time>
      </trkpt>
      <trkpt lat="45.33373" lon="6.63826">
        <ele>2272</ele>
        <time>2012-04-08T08:54:22Z</time>
      </trkpt>
      <trkpt lat="45.33373" lon="6.63826">
        <ele>2272</ele>
        <time>2012-04-08T08:54:27Z</time>
      </trkpt>
      <trkpt lat="45.33374" lon="6.63826">
        <ele>2272</ele>
        <time>2012-04-08T08:54:32Z</time>
      </trkpt>
      <trkpt lat="45.33378" lon="6.63826">
        <ele>2273</ele>
        <time>2012-04-08T08:54:37Z</time>
      </trkpt>
      <trkpt lat="45.33375" lon="6.63829">
        <ele>2275</ele>
        <time>2012-04-08T08:54:42Z</time>
      </trkpt>
      <trkpt lat="45.33372" lon="6.63832">
        <ele>2275</ele>
        <time>2012-04-08T08:54:47Z</time>
      </trkpt>
      <trkpt lat="45.33369" lon="6.63835">
        <ele>2275</ele>
        <time>2012-04-08T08:54:52Z</time>
      </trkpt>
      <trkpt lat="45.33365" lon="6.63837">
        <ele>2276</ele>
        <time>2012-04-08T08:54:57Z</time>
      </trkpt>
      <trkpt lat="45.33362" lon="6.63838">
        <ele>2277</ele>
        <time>2012-04-08T08:55:02Z</time>
      </trkpt>
      <trkpt lat="45.3336" lon="6.63839">
        <ele>2277</ele>
        <time>2012-04-08T08:55:07Z</time>
      </trkpt>
      <trkpt lat="45.33357" lon="6.63838">
        <ele>2278</ele>
        <time>2012-04-08T08:55:12Z</time>
      </trkpt>
      <trkpt lat="45.33355" lon="6.63837">
        <ele>2279</ele>
        <time>2012-04-08T08:55:17Z</time>
      </trkpt>
      <trkpt lat="45.33352" lon="6.63835">
        <ele>2280</ele>
        <time>2012-04-08T08:55:22Z</time>
      </trkpt>
      <trkpt lat="45.33351" lon="6.63834">
        <ele>2281</ele>
        <time>2012-04-08T08:55:27Z</time>
      </trkpt>
      <trkpt lat="45.33349" lon="6.63833">
        <ele>2282</ele>
        <time>2012-04-08T08:55:32Z</time>
      </trkpt>
      <trkpt lat="45.33347" lon="6.63832">
        <ele>2282</ele>
        <time>2012-04-08T08:55:37Z</time>
      </trkpt>
      <trkpt lat="45.33345" lon="6.63831">
        <ele>2283</ele>
        <time>2012-04-08T08:55:42Z</time>
      </trkpt>
      <trkpt lat="45.33345" lon="6.63831">
        <ele>2283</ele>
        <time>2012-04-08T08:55:47Z</time>
      </trkpt>
      <trkpt lat="45.33345" lon="6.63831">
        <ele>2283</ele>
        <time>2012-04-08T08:55:52Z</time>
      </trkpt>
      <trkpt lat="45.33345" lon="6.63831">
        <ele>2284</ele>
        <time>2012-04-08T08:55:57Z</time>
      </trkpt>
      <trkpt lat="45.33345" lon="6.63831">
        <ele>2283</ele>
        <time>2012-04-08T08:56:02Z</time>
      </trkpt>
      <trkpt lat="45.33344" lon="6.6383">
        <ele>2284</ele>
        <time>2012-04-08T08:56:07Z</time>
      </trkpt>
      <trkpt lat="45.33341" lon="6.63829">
        <ele>2285</ele>
        <time>2012-04-08T08:56:12Z</time>
      </trkpt>
      <trkpt lat="45.33341" lon="6.63829">
        <ele>2285</ele>
        <time>2012-04-08T08:56:17Z</time>
      </trkpt>
      <trkpt lat="45.33341" lon="6.63834">
        <ele>2286</ele>
        <time>2012-04-08T08:56:22Z</time>
      </trkpt>
      <trkpt lat="45.33342" lon="6.63838">
        <ele>2287</ele>
        <time>2012-04-08T08:56:27Z</time>
      </trkpt>
      <trkpt lat="45.33343" lon="6.63842">
        <ele>2287</ele>
        <time>2012-04-08T08:56:32Z</time>
      </trkpt>
      <trkpt lat="45.33344" lon="6.63847">
        <ele>2288</ele>
        <time>2012-04-08T08:56:37Z</time>
      </trkpt>
      <trkpt lat="45.33345" lon="6.63851">
        <ele>2289</ele>
        <time>2012-04-08T08:56:42Z</time>
      </trkpt>
      <trkpt lat="45.33345" lon="6.63856">
        <ele>2290</ele>
        <time>2012-04-08T08:56:47Z</time>
      </trkpt>
      <trkpt lat="45.33345" lon="6.6386">
        <ele>2290</ele>
        <time>2012-04-08T08:56:52Z</time>
      </trkpt>
      <trkpt lat="45.33346" lon="6.63864">
        <ele>2291</ele>
        <time>2012-04-08T08:56:57Z</time>
      </trkpt>
      <trkpt lat="45.33347" lon="6.63867">
        <ele>2292</ele>
        <time>2012-04-08T08:57:02Z</time>
      </trkpt>
      <trkpt lat="45.33348" lon="6.63871">
        <ele>2292</ele>
        <time>2012-04-08T08:57:07Z</time>
      </trkpt>
      <trkpt lat="45.33349" lon="6.63873">
        <ele>2293</ele>
        <time>2012-04-08T08:57:12Z</time>
      </trkpt>
      <trkpt lat="45.33351" lon="6.63876">
        <ele>2293</ele>
        <time>2012-04-08T08:57:17Z</time>
      </trkpt>
      <trkpt lat="45.33352" lon="6.63878">
        <ele>2294</ele>
        <time>2012-04-08T08:57:22Z</time>
      </trkpt>
      <trkpt lat="45.33353" lon="6.63879">
        <ele>2294</ele>
        <time>2012-04-08T08:57:27Z</time>
      </trkpt>
      <trkpt lat="45.33355" lon="6.63881">
        <ele>2294</ele>
        <time>2012-04-08T08:57:32Z</time>
      </trkpt>
      <trkpt lat="45.33355" lon="6.63883">
        <ele>2295</ele>
        <time>2012-04-08T08:57:37Z</time>
      </trkpt>
      <trkpt lat="45.33351" lon="6.63884">
        <ele>2295</ele>
        <time>2012-04-08T08:57:42Z</time>
      </trkpt>
      <trkpt lat="45.33348" lon="6.63884">
        <ele>2296</ele>
        <time>2012-04-08T08:57:47Z</time>
      </trkpt>
      <trkpt lat="45.33344" lon="6.63884">
        <ele>2296</ele>
        <time>2012-04-08T08:57:52Z</time>
      </trkpt>
      <trkpt lat="45.33341" lon="6.63884">
        <ele>2297</ele>
        <time>2012-04-08T08:57:57Z</time>
      </trkpt>
      <trkpt lat="45.33339" lon="6.63884">
        <ele>2297</ele>
        <time>2012-04-08T08:58:02Z</time>
      </trkpt>
      <trkpt lat="45.33336" lon="6.63883">
        <ele>2298</ele>
        <time>2012-04-08T08:58:07Z</time>
      </trkpt>
      <trkpt lat="45.33335" lon="6.63883">
        <ele>2298</ele>
        <time>2012-04-08T08:58:12Z</time>
      </trkpt>
      <trkpt lat="45.33332" lon="6.63882">
        <ele>2299</ele>
        <time>2012-04-08T08:58:17Z</time>
      </trkpt>
      <trkpt lat="45.33329" lon="6.63881">
        <ele>2299</ele>
        <time>2012-04-08T08:58:22Z</time>
      </trkpt>
      <trkpt lat="45.33327" lon="6.63883">
        <ele>2301</ele>
        <time>2012-04-08T08:58:27Z</time>
      </trkpt>
      <trkpt lat="45.33325" lon="6.63886">
        <ele>2302</ele>
        <time>2012-04-08T08:58:32Z</time>
      </trkpt>
      <trkpt lat="45.33324" lon="6.63891">
        <ele>2303</ele>
        <time>2012-04-08T08:58:37Z</time>
      </trkpt>
      <trkpt lat="45.33326" lon="6.63896">
        <ele>2304</ele>
        <time>2012-04-08T08:58:42Z</time>
      </trkpt>
      <trkpt lat="45.33327" lon="6.63899">
        <ele>2305</ele>
        <time>2012-04-08T08:58:47Z</time>
      </trkpt>
      <trkpt lat="45.33325" lon="6.63899">
        <ele>2305</ele>
        <time>2012-04-08T08:58:52Z</time>
      </trkpt>
      <trkpt lat="45.33321" lon="6.63898">
        <ele>2306</ele>
        <time>2012-04-08T08:58:57Z</time>
      </trkpt>
      <trkpt lat="45.33317" lon="6.63897">
        <ele>2306</ele>
        <time>2012-04-08T08:59:02Z</time>
      </trkpt>
      <trkpt lat="45.33313" lon="6.63894">
        <ele>2306</ele>
        <time>2012-04-08T08:59:07Z</time>
      </trkpt>
      <trkpt lat="45.3331" lon="6.63891">
        <ele>2307</ele>
        <time>2012-04-08T08:59:12Z</time>
      </trkpt>
      <trkpt lat="45.33308" lon="6.63888">
        <ele>2308</ele>
        <time>2012-04-08T08:59:17Z</time>
      </trkpt>
      <trkpt lat="45.33308" lon="6.63886">
        <ele>2308</ele>
        <time>2012-04-08T08:59:22Z</time>
      </trkpt>
      <trkpt lat="45.33307" lon="6.63889">
        <ele>2309</ele>
        <time>2012-04-08T08:59:27Z</time>
      </trkpt>
      <trkpt lat="45.33306" lon="6.63894">
        <ele>2310</ele>
        <time>2012-04-08T08:59:32Z</time>
      </trkpt>
      <trkpt lat="45.33307" lon="6.63898">
        <ele>2310</ele>
        <time>2012-04-08T08:59:37Z</time>
      </trkpt>
      <trkpt lat="45.33309" lon="6.63901">
        <ele>2311</ele>
        <time>2012-04-08T08:59:42Z</time>
      </trkpt>
      <trkpt lat="45.33312" lon="6.63905">
        <ele>2311</ele>
        <time>2012-04-08T08:59:47Z</time>
      </trkpt>
      <trkpt lat="45.33314" lon="6.63908">
        <ele>2312</ele>
        <time>2012-04-08T08:59:52Z</time>
      </trkpt>
      <trkpt lat="45.33315" lon="6.63911">
        <ele>2313</ele>
        <time>2012-04-08T08:59:57Z</time>
      </trkpt>
      <trkpt lat="45.33318" lon="6.63913">
        <ele>2314</ele>
        <time>2012-04-08T09:00:02Z</time>
      </trkpt>
      <trkpt lat="45.3332" lon="6.63916">
        <ele>2314</ele>
        <time>2012-04-08T09:00:07Z</time>
      </trkpt>
      <trkpt lat="45.33321" lon="6.63919">
        <ele>2315</ele>
        <time>2012-04-08T09:00:12Z</time>
      </trkpt>
      <trkpt lat="45.33322" lon="6.63923">
        <ele>2315</ele>
        <time>2012-04-08T09:00:17Z</time>
      </trkpt>
      <trkpt lat="45.33324" lon="6.63927">
        <ele>2316</ele>
        <time>2012-04-08T09:00:22Z</time>
      </trkpt>
      <trkpt lat="45.33325" lon="6.63931">
        <ele>2317</ele>
        <time>2012-04-08T09:00:27Z</time>
      </trkpt>
      <trkpt lat="45.33326" lon="6.63934">
        <ele>2318</ele>
        <time>2012-04-08T09:00:32Z</time>
      </trkpt>
      <trkpt lat="45.33328" lon="6.63939">
        <ele>2319</ele>
        <time>2012-04-08T09:00:37Z</time>
      </trkpt>
      <trkpt lat="45.3333" lon="6.63942">
        <ele>2319</ele>
        <time>2012-04-08T09:00:42Z</time>
      </trkpt>
      <trkpt lat="45.33331" lon="6.63945">
        <ele>2320</ele>
        <time>2012-04-08T09:00:47Z</time>
      </trkpt>
      <trkpt lat="45.33332" lon="6.63949">
        <ele>2321</ele>
        <time>2012-04-08T09:00:52Z</time>
      </trkpt>
      <trkpt lat="45.33333" lon="6.63952">
        <ele>2322</ele>
        <time>2012-04-08T09:00:57Z</time>
      </trkpt>
      <trkpt lat="45.33334" lon="6.63956">
        <ele>2323</ele>
        <time>2012-04-08T09:01:02Z</time>
      </trkpt>
      <trkpt lat="45.33334" lon="6.63959">
        <ele>2323</ele>
        <time>2012-04-08T09:01:07Z</time>
      </trkpt>
      <trkpt lat="45.33335" lon="6.63963">
        <ele>2324</ele>
        <time>2012-04-08T09:01:12Z</time>
      </trkpt>
      <trkpt lat="45.33334" lon="6.63966">
        <ele>2325</ele>
        <time>2012-04-08T09:01:17Z</time>
      </trkpt>
      <trkpt lat="45.33334" lon="6.6397">
        <ele>2326</ele>
        <time>2012-04-08T09:01:22Z</time>
      </trkpt>
      <trkpt lat="45.33333" lon="6.63973">
        <ele>2327</ele>
        <time>2012-04-08T09:01:27Z</time>
      </trkpt>
      <trkpt lat="45.33332" lon="6.63974">
        <ele>2327</ele>
        <time>2012-04-08T09:01:32Z</time>
      </trkpt>
      <trkpt lat="45.33332" lon="6.63974">
        <ele>2327</ele>
        <time>2012-04-08T09:01:37Z</time>
      </trkpt>
      <trkpt lat="45.33332" lon="6.63974">
        <ele>2327</ele>
        <time>2012-04-08T09:01:42Z</time>
      </trkpt>
      <trkpt lat="45.33332" lon="6.63975">
        <ele>2328</ele>
        <time>2012-04-08T09:01:47Z</time>
      </trkpt>
      <trkpt lat="45.33329" lon="6.63977">
        <ele>2328</ele>
        <time>2012-04-08T09:01:52Z</time>
      </trkpt>
      <trkpt lat="45.33326" lon="6.63979">
        <ele>2329</ele>
        <time>2012-04-08T09:01:57Z</time>
      </trkpt>
      <trkpt lat="45.33324" lon="6.63981">
        <ele>2329</ele>
        <time>2012-04-08T09:02:02Z</time>
      </trkpt>
      <trkpt lat="45.33321" lon="6.63982">
        <ele>2330</ele>
        <time>2012-04-08T09:02:07Z</time>
      </trkpt>
      <trkpt lat="45.33318" lon="6.63982">
        <ele>2331</ele>
        <time>2012-04-08T09:02:12Z</time>
      </trkpt>
      <trkpt lat="45.33315" lon="6.63983">
        <ele>2332</ele>
        <time>2012-04-08T09:02:17Z</time>
      </trkpt>
      <trkpt lat="45.33312" lon="6.63984">
        <ele>2332</ele>
        <time>2012-04-08T09:02:22Z</time>
      </trkpt>
      <trkpt lat="45.3331" lon="6.63984">
        <ele>2333</ele>
        <time>2012-04-08T09:02:27Z</time>
      </trkpt>
      <trkpt lat="45.33307" lon="6.63985">
        <ele>2334</ele>
        <time>2012-04-08T09:02:32Z</time>
      </trkpt>
      <trkpt lat="45.33305" lon="6.63985">
        <ele>2335</ele>
        <time>2012-04-08T09:02:37Z</time>
      </trkpt>
      <trkpt lat="45.33302" lon="6.63983">
        <ele>2335</ele>
        <time>2012-04-08T09:02:42Z</time>
      </trkpt>
      <trkpt lat="45.33299" lon="6.63982">
        <ele>2336</ele>
        <time>2012-04-08T09:02:47Z</time>
      </trkpt>
      <trkpt lat="45.33297" lon="6.63981">
        <ele>2336</ele>
        <time>2012-04-08T09:02:52Z</time>
      </trkpt>
      <trkpt lat="45.33295" lon="6.63979">
        <ele>2337</ele>
        <time>2012-04-08T09:02:57Z</time>
      </trkpt>
      <trkpt lat="45.33293" lon="6.63977">
        <ele>2338</ele>
        <time>2012-04-08T09:03:02Z</time>
      </trkpt>
      <trkpt lat="45.33293" lon="6.63978">
        <ele>2338</ele>
        <time>2012-04-08T09:03:07Z</time>
      </trkpt>
      <trkpt lat="45.33294" lon="6.63981">
        <ele>2339</ele>
        <time>2012-04-08T09:03:12Z</time>
      </trkpt>
      <trkpt lat="45.33294" lon="6.63985">
        <ele>2340</ele>
        <time>2012-04-08T09:03:17Z</time>
      </trkpt>
      <trkpt lat="45.33294" lon="6.63985">
        <ele>2340</ele>
        <time>2012-04-08T09:03:22Z</time>
      </trkpt>
      <trkpt lat="45.33294" lon="6.63985">
        <ele>2340</ele>
        <time>2012-04-08T09:03:27Z</time>
      </trkpt>
      <trkpt lat="45.33294" lon="6.63985">
        <ele>2340</ele>
        <time>2012-04-08T09:03:32Z</time>
      </trkpt>
      <trkpt lat="45.33294" lon="6.63985">
        <ele>2340</ele>
        <time>2012-04-08T09:03:37Z</time>
      </trkpt>
      <trkpt lat="45.33294" lon="6.63985">
        <ele>2340</ele>
        <time>2012-04-08T09:03:42Z</time>
      </trkpt>
      <trkpt lat="45.33294" lon="6.63985">
        <ele>2339</ele>
        <time>2012-04-08T09:03:47Z</time>
      </trkpt>
      <trkpt lat="45.33293" lon="6.63985">
        <ele>2339</ele>
        <time>2012-04-08T09:03:52Z</time>
      </trkpt>
      <trkpt lat="45.33292" lon="6.63984">
        <ele>2340</ele>
        <time>2012-04-08T09:03:57Z</time>
      </trkpt>
      <trkpt lat="45.3329" lon="6.6398">
        <ele>2340</ele>
        <time>2012-04-08T09:04:02Z</time>
      </trkpt>
      <trkpt lat="45.33288" lon="6.63976">
        <ele>2341</ele>
        <time>2012-04-08T09:04:07Z</time>
      </trkpt>
      <trkpt lat="45.33286" lon="6.63973">
        <ele>2342</ele>
        <time>2012-04-08T09:04:12Z</time>
      </trkpt>
      <trkpt lat="45.33284" lon="6.6397">
        <ele>2342</ele>
        <time>2012-04-08T09:04:17Z</time>
      </trkpt>
      <trkpt lat="45.33281" lon="6.63967">
        <ele>2343</ele>
        <time>2012-04-08T09:04:22Z</time>
      </trkpt>
      <trkpt lat="45.33278" lon="6.63965">
        <ele>2344</ele>
        <time>2012-04-08T09:04:27Z</time>
      </trkpt>
      <trkpt lat="45.33275" lon="6.63965">
        <ele>2345</ele>
        <time>2012-04-08T09:04:32Z</time>
      </trkpt>
      <trkpt lat="45.33272" lon="6.63965">
        <ele>2345</ele>
        <time>2012-04-08T09:04:37Z</time>
      </trkpt>
      <trkpt lat="45.33269" lon="6.63965">
        <ele>2346</ele>
        <time>2012-04-08T09:04:42Z</time>
      </trkpt>
      <trkpt lat="45.33267" lon="6.63966">
        <ele>2347</ele>
        <time>2012-04-08T09:04:47Z</time>
      </trkpt>
      <trkpt lat="45.33264" lon="6.63967">
        <ele>2348</ele>
        <time>2012-04-08T09:04:52Z</time>
      </trkpt>
      <trkpt lat="45.33262" lon="6.63967">
        <ele>2348</ele>
        <time>2012-04-08T09:04:57Z</time>
      </trkpt>
      <trkpt lat="45.33259" lon="6.63967">
        <ele>2349</ele>
        <time>2012-04-08T09:05:02Z</time>
      </trkpt>
      <trkpt lat="45.33256" lon="6.63968">
        <ele>2350</ele>
        <time>2012-04-08T09:05:07Z</time>
      </trkpt>
      <trkpt lat="45.33253" lon="6.63968">
        <ele>2350</ele>
        <time>2012-04-08T09:05:12Z</time>
      </trkpt>
      <trkpt lat="45.33254" lon="6.63969">
        <ele>2351</ele>
        <time>2012-04-08T09:05:17Z</time>
      </trkpt>
      <trkpt lat="45.33255" lon="6.63973">
        <ele>2352</ele>
        <time>2012-04-08T09:05:22Z</time>
      </trkpt>
      <trkpt lat="45.33256" lon="6.63976">
        <ele>2353</ele>
        <time>2012-04-08T09:05:27Z</time>
      </trkpt>
      <trkpt lat="45.33257" lon="6.63979">
        <ele>2354</ele>
        <time>2012-04-08T09:05:32Z</time>
      </trkpt>
      <trkpt lat="45.33257" lon="6.63983">
        <ele>2355</ele>
        <time>2012-04-08T09:05:37Z</time>
      </trkpt>
      <trkpt lat="45.33258" lon="6.63986">
        <ele>2355</ele>
        <time>2012-04-08T09:05:42Z</time>
      </trkpt>
      <trkpt lat="45.33259" lon="6.6399">
        <ele>2356</ele>
        <time>2012-04-08T09:05:47Z</time>
      </trkpt>
      <trkpt lat="45.33259" lon="6.63994">
        <ele>2357</ele>
        <time>2012-04-08T09:05:52Z</time>
      </trkpt>
      <trkpt lat="45.3326" lon="6.63998">
        <ele>2358</ele>
        <time>2012-04-08T09:05:57Z</time>
      </trkpt>
      <trkpt lat="45.3326" lon="6.64001">
        <ele>2359</ele>
        <time>2012-04-08T09:06:02Z</time>
      </trkpt>
      <trkpt lat="45.33261" lon="6.64004">
        <ele>2359</ele>
        <time>2012-04-08T09:06:07Z</time>
      </trkpt>
      <trkpt lat="45.33259" lon="6.64005">
        <ele>2360</ele>
        <time>2012-04-08T09:06:12Z</time>
      </trkpt>
      <trkpt lat="45.33256" lon="6.64004">
        <ele>2360</ele>
        <time>2012-04-08T09:06:17Z</time>
      </trkpt>
      <trkpt lat="45.33253" lon="6.64004">
        <ele>2361</ele>
        <time>2012-04-08T09:06:22Z</time>
      </trkpt>
      <trkpt lat="45.3325" lon="6.64003">
        <ele>2362</ele>
        <time>2012-04-08T09:06:27Z</time>
      </trkpt>
      <trkpt lat="45.33247" lon="6.64003">
        <ele>2362</ele>
        <time>2012-04-08T09:06:32Z</time>
      </trkpt>
      <trkpt lat="45.33244" lon="6.64003">
        <ele>2363</ele>
        <time>2012-04-08T09:06:37Z</time>
      </trkpt>
      <trkpt lat="45.33241" lon="6.64002">
        <ele>2363</ele>
        <time>2012-04-08T09:06:42Z</time>
      </trkpt>
      <trkpt lat="45.33238" lon="6.64002">
        <ele>2364</ele>
        <time>2012-04-08T09:06:47Z</time>
      </trkpt>
      <trkpt lat="45.33236" lon="6.64002">
        <ele>2364</ele>
        <time>2012-04-08T09:06:52Z</time>
      </trkpt>
      <trkpt lat="45.33233" lon="6.64002">
        <ele>2365</ele>
        <time>2012-04-08T09:06:57Z</time>
      </trkpt>
      <trkpt lat="45.33231" lon="6.64001">
        <ele>2366</ele>
        <time>2012-04-08T09:07:02Z</time>
      </trkpt>
      <trkpt lat="45.33228" lon="6.64">
        <ele>2366</ele>
        <time>2012-04-08T09:07:07Z</time>
      </trkpt>
      <trkpt lat="45.33226" lon="6.63999">
        <ele>2367</ele>
        <time>2012-04-08T09:07:12Z</time>
      </trkpt>
      <trkpt lat="45.33222" lon="6.63998">
        <ele>2367</ele>
        <time>2012-04-08T09:07:17Z</time>
      </trkpt>
      <trkpt lat="45.33219" lon="6.63997">
        <ele>2367</ele>
        <time>2012-04-08T09:07:22Z</time>
      </trkpt>
      <trkpt lat="45.33215" lon="6.63998">
        <ele>2368</ele>
        <time>2012-04-08T09:07:27Z</time>
      </trkpt>
      <trkpt lat="45.33211" lon="6.63999">
        <ele>2369</ele>
        <time>2012-04-08T09:07:32Z</time>
      </trkpt>
      <trkpt lat="45.33208" lon="6.64">
        <ele>2369</ele>
        <time>2012-04-08T09:07:37Z</time>
      </trkpt>
      <trkpt lat="45.33204" lon="6.64002">
        <ele>2369</ele>
        <time>2012-04-08T09:07:42Z</time>
      </trkpt>
      <trkpt lat="45.332" lon="6.64004">
        <ele>2370</ele>
        <time>2012-04-08T09:07:47Z</time>
      </trkpt>
      <trkpt lat="45.33196" lon="6.64006">
        <ele>2370</ele>
        <time>2012-04-08T09:07:52Z</time>
      </trkpt>
      <trkpt lat="45.33194" lon="6.64008">
        <ele>2370</ele>
        <time>2012-04-08T09:07:57Z</time>
      </trkpt>
      <trkpt lat="45.33193" lon="6.64011">
        <ele>2371</ele>
        <time>2012-04-08T09:08:02Z</time>
      </trkpt>
      <trkpt lat="45.3319" lon="6.64014">
        <ele>2371</ele>
        <time>2012-04-08T09:08:07Z</time>
      </trkpt>
      <trkpt lat="45.33188" lon="6.64018">
        <ele>2372</ele>
        <time>2012-04-08T09:08:12Z</time>
      </trkpt>
      <trkpt lat="45.33185" lon="6.64022">
        <ele>2372</ele>
        <time>2012-04-08T09:08:17Z</time>
      </trkpt>
      <trkpt lat="45.33182" lon="6.64026">
        <ele>2373</ele>
        <time>2012-04-08T09:08:22Z</time>
      </trkpt>
      <trkpt lat="45.33179" lon="6.64032">
        <ele>2373</ele>
        <time>2012-04-08T09:08:27Z</time>
      </trkpt>
      <trkpt lat="45.33176" lon="6.64037">
        <ele>2373</ele>
        <time>2012-04-08T09:08:32Z</time>
      </trkpt>
      <trkpt lat="45.33173" lon="6.64042">
        <ele>2373</ele>
        <time>2012-04-08T09:08:37Z</time>
      </trkpt>
      <trkpt lat="45.33171" lon="6.64048">
        <ele>2374</ele>
        <time>2012-04-08T09:08:42Z</time>
      </trkpt>
      <trkpt lat="45.33168" lon="6.64053">
        <ele>2374</ele>
        <time>2012-04-08T09:08:47Z</time>
      </trkpt>
      <trkpt lat="45.33166" lon="6.64057">
        <ele>2374</ele>
        <time>2012-04-08T09:08:52Z</time>
      </trkpt>
      <trkpt lat="45.33165" lon="6.64062">
        <ele>2374</ele>
        <time>2012-04-08T09:08:57Z</time>
      </trkpt>
      <trkpt lat="45.33163" lon="6.64068">
        <ele>2375</ele>
        <time>2012-04-08T09:09:02Z</time>
      </trkpt>
      <trkpt lat="45.33161" lon="6.64073">
        <ele>2375</ele>
        <time>2012-04-08T09:09:07Z</time>
      </trkpt>
      <trkpt lat="45.33159" lon="6.64079">
        <ele>2375</ele>
        <time>2012-04-08T09:09:12Z</time>
      </trkpt>
      <trkpt lat="45.33157" lon="6.64085">
        <ele>2375</ele>
        <time>2012-04-08T09:09:17Z</time>
      </trkpt>
      <trkpt lat="45.33156" lon="6.64091">
        <ele>2376</ele>
        <time>2012-04-08T09:09:22Z</time>
      </trkpt>
      <trkpt lat="45.33155" lon="6.64097">
        <ele>2376</ele>
        <time>2012-04-08T09:09:27Z</time>
      </trkpt>
      <trkpt lat="45.33154" lon="6.64102">
        <ele>2376</ele>
        <time>2012-04-08T09:09:32Z</time>
      </trkpt>
      <trkpt lat="45.33152" lon="6.64108">
        <ele>2377</ele>
        <time>2012-04-08T09:09:37Z</time>
      </trkpt>
      <trkpt lat="45.33151" lon="6.64114">
        <ele>2377</ele>
        <time>2012-04-08T09:09:42Z</time>
      </trkpt>
      <trkpt lat="45.33149" lon="6.64119">
        <ele>2377</ele>
        <time>2012-04-08T09:09:47Z</time>
      </trkpt>
      <trkpt lat="45.33148" lon="6.64123">
        <ele>2377</ele>
        <time>2012-04-08T09:09:52Z</time>
      </trkpt>
      <trkpt lat="45.33146" lon="6.64129">
        <ele>2377</ele>
        <time>2012-04-08T09:09:57Z</time>
      </trkpt>
      <trkpt lat="45.33143" lon="6.64136">
        <ele>2376</ele>
        <time>2012-04-08T09:10:02Z</time>
      </trkpt>
      <trkpt lat="45.3314" lon="6.64143">
        <ele>2376</ele>
        <time>2012-04-08T09:10:07Z</time>
      </trkpt>
      <trkpt lat="45.33136" lon="6.64151">
        <ele>2375</ele>
        <time>2012-04-08T09:10:12Z</time>
      </trkpt>
      <trkpt lat="45.33133" lon="6.64158">
        <ele>2375</ele>
        <time>2012-04-08T09:10:17Z</time>
      </trkpt>
      <trkpt lat="45.33128" lon="6.64164">
        <ele>2374</ele>
        <time>2012-04-08T09:10:22Z</time>
      </trkpt>
      <trkpt lat="45.33124" lon="6.6417">
        <ele>2374</ele>
        <time>2012-04-08T09:10:27Z</time>
      </trkpt>
      <trkpt lat="45.33121" lon="6.64177">
        <ele>2375</ele>
        <time>2012-04-08T09:10:32Z</time>
      </trkpt>
      <trkpt lat="45.33119" lon="6.64183">
        <ele>2375</ele>
        <time>2012-04-08T09:10:37Z</time>
      </trkpt>
      <trkpt lat="45.33117" lon="6.64188">
        <ele>2375</ele>
        <time>2012-04-08T09:10:42Z</time>
      </trkpt>
      <trkpt lat="45.33115" lon="6.64193">
        <ele>2376</ele>
        <time>2012-04-08T09:10:47Z</time>
      </trkpt>
      <trkpt lat="45.33113" lon="6.64199">
        <ele>2376</ele>
        <time>2012-04-08T09:10:52Z</time>
      </trkpt>
      <trkpt lat="45.33112" lon="6.64204">
        <ele>2377</ele>
        <time>2012-04-08T09:10:57Z</time>
      </trkpt>
      <trkpt lat="45.33112" lon="6.6421">
        <ele>2377</ele>
        <time>2012-04-08T09:11:02Z</time>
      </trkpt>
      <trkpt lat="45.33111" lon="6.64216">
        <ele>2378</ele>
        <time>2012-04-08T09:11:07Z</time>
      </trkpt>
      <trkpt lat="45.3311" lon="6.64222">
        <ele>2378</ele>
        <time>2012-04-08T09:11:12Z</time>
      </trkpt>
      <trkpt lat="45.33108" lon="6.64228">
        <ele>2378</ele>
        <time>2012-04-08T09:11:17Z</time>
      </trkpt>
      <trkpt lat="45.33107" lon="6.64235">
        <ele>2379</ele>
        <time>2012-04-08T09:11:22Z</time>
      </trkpt>
      <trkpt lat="45.33106" lon="6.64241">
        <ele>2379</ele>
        <time>2012-04-08T09:11:27Z</time>
      </trkpt>
      <trkpt lat="45.33104" lon="6.64248">
        <ele>2379</ele>
        <time>2012-04-08T09:11:32Z</time>
      </trkpt>
      <trkpt lat="45.33104" lon="6.64254">
        <ele>2379</ele>
        <time>2012-04-08T09:11:37Z</time>
      </trkpt>
      <trkpt lat="45.33103" lon="6.64259">
        <ele>2380</ele>
        <time>2012-04-08T09:11:42Z</time>
      </trkpt>
      <trkpt lat="45.33103" lon="6.64264">
        <ele>2381</ele>
        <time>2012-04-08T09:11:47Z</time>
      </trkpt>
      <trkpt lat="45.33103" lon="6.64269">
        <ele>2382</ele>
        <time>2012-04-08T09:11:52Z</time>
      </trkpt>
      <trkpt lat="45.33103" lon="6.64273">
        <ele>2382</ele>
        <time>2012-04-08T09:11:57Z</time>
      </trkpt>
      <trkpt lat="45.33102" lon="6.64279">
        <ele>2383</ele>
        <time>2012-04-08T09:12:02Z</time>
      </trkpt>
      <trkpt lat="45.33102" lon="6.64284">
        <ele>2383</ele>
        <time>2012-04-08T09:12:07Z</time>
      </trkpt>
      <trkpt lat="45.33101" lon="6.64289">
        <ele>2384</ele>
        <time>2012-04-08T09:12:12Z</time>
      </trkpt>
      <trkpt lat="45.33101" lon="6.64294">
        <ele>2384</ele>
        <time>2012-04-08T09:12:17Z</time>
      </trkpt>
      <trkpt lat="45.33101" lon="6.643">
        <ele>2385</ele>
        <time>2012-04-08T09:12:22Z</time>
      </trkpt>
      <trkpt lat="45.33102" lon="6.64306">
        <ele>2385</ele>
        <time>2012-04-08T09:12:27Z</time>
      </trkpt>
      <trkpt lat="45.33103" lon="6.64311">
        <ele>2386</ele>
        <time>2012-04-08T09:12:32Z</time>
      </trkpt>
      <trkpt lat="45.33104" lon="6.64317">
        <ele>2386</ele>
        <time>2012-04-08T09:12:37Z</time>
      </trkpt>
      <trkpt lat="45.33105" lon="6.64322">
        <ele>2386</ele>
        <time>2012-04-08T09:12:42Z</time>
      </trkpt>
      <trkpt lat="45.33106" lon="6.64325">
        <ele>2387</ele>
        <time>2012-04-08T09:12:47Z</time>
      </trkpt>
      <trkpt lat="45.33107" lon="6.64329">
        <ele>2388</ele>
        <time>2012-04-08T09:12:52Z</time>
      </trkpt>
      <trkpt lat="45.33107" lon="6.64332">
        <ele>2388</ele>
        <time>2012-04-08T09:12:57Z</time>
      </trkpt>
      <trkpt lat="45.33109" lon="6.64336">
        <ele>2389</ele>
        <time>2012-04-08T09:13:02Z</time>
      </trkpt>
      <trkpt lat="45.3311" lon="6.6434">
        <ele>2390</ele>
        <time>2012-04-08T09:13:07Z</time>
      </trkpt>
      <trkpt lat="45.3311" lon="6.64344">
        <ele>2391</ele>
        <time>2012-04-08T09:13:12Z</time>
      </trkpt>
      <trkpt lat="45.33109" lon="6.64349">
        <ele>2391</ele>
        <time>2012-04-08T09:13:17Z</time>
      </trkpt>
      <trkpt lat="45.3311" lon="6.64353">
        <ele>2392</ele>
        <time>2012-04-08T09:13:22Z</time>
      </trkpt>
      <trkpt lat="45.33111" lon="6.64358">
        <ele>2393</ele>
        <time>2012-04-08T09:13:27Z</time>
      </trkpt>
      <trkpt lat="45.33111" lon="6.64362">
        <ele>2393</ele>
        <time>2012-04-08T09:13:32Z</time>
      </trkpt>
      <trkpt lat="45.33112" lon="6.64367">
        <ele>2394</ele>
        <time>2012-04-08T09:13:37Z</time>
      </trkpt>
      <trkpt lat="45.33112" lon="6.64371">
        <ele>2394</ele>
        <time>2012-04-08T09:13:42Z</time>
      </trkpt>
      <trkpt lat="45.33113" lon="6.64376">
        <ele>2395</ele>
        <time>2012-04-08T09:13:47Z</time>
      </trkpt>
      <trkpt lat="45.33114" lon="6.6438">
        <ele>2395</ele>
        <time>2012-04-08T09:13:52Z</time>
      </trkpt>
      <trkpt lat="45.33114" lon="6.64385">
        <ele>2396</ele>
        <time>2012-04-08T09:13:57Z</time>
      </trkpt>
      <trkpt lat="45.33115" lon="6.6439">
        <ele>2396</ele>
        <time>2012-04-08T09:14:02Z</time>
      </trkpt>
      <trkpt lat="45.33115" lon="6.64395">
        <ele>2397</ele>
        <time>2012-04-08T09:14:07Z</time>
      </trkpt>
      <trkpt lat="45.33115" lon="6.644">
        <ele>2398</ele>
        <time>2012-04-08T09:14:12Z</time>
      </trkpt>
      <trkpt lat="45.33116" lon="6.64405">
        <ele>2398</ele>
        <time>2012-04-08T09:14:17Z</time>
      </trkpt>
      <trkpt lat="45.33117" lon="6.6441">
        <ele>2398</ele>
        <time>2012-04-08T09:14:22Z</time>
      </trkpt>
      <trkpt lat="45.33116" lon="6.6441">
        <ele>2398</ele>
        <time>2012-04-08T09:14:27Z</time>
      </trkpt>
      <trkpt lat="45.33116" lon="6.64414">
        <ele>2399</ele>
        <time>2012-04-08T09:14:32Z</time>
      </trkpt>
      <trkpt lat="45.33115" lon="6.6442">
        <ele>2399</ele>
        <time>2012-04-08T09:14:37Z</time>
      </trkpt>
      <trkpt lat="45.33114" lon="6.64425">
        <ele>2399</ele>
        <time>2012-04-08T09:14:42Z</time>
      </trkpt>
      <trkpt lat="45.33112" lon="6.64429">
        <ele>2400</ele>
        <time>2012-04-08T09:14:47Z</time>
      </trkpt>
      <trkpt lat="45.33112" lon="6.64435">
        <ele>2400</ele>
        <time>2012-04-08T09:14:52Z</time>
      </trkpt>
      <trkpt lat="45.33112" lon="6.64441">
        <ele>2401</ele>
        <time>2012-04-08T09:14:57Z</time>
      </trkpt>
      <trkpt lat="45.33111" lon="6.64445">
        <ele>2402</ele>
        <time>2012-04-08T09:15:02Z</time>
      </trkpt>
      <trkpt lat="45.3311" lon="6.64449">
        <ele>2402</ele>
        <time>2012-04-08T09:15:07Z</time>
      </trkpt>
      <trkpt lat="45.33108" lon="6.64452">
        <ele>2403</ele>
        <time>2012-04-08T09:15:12Z</time>
      </trkpt>
      <trkpt lat="45.33107" lon="6.64455">
        <ele>2404</ele>
        <time>2012-04-08T09:15:17Z</time>
      </trkpt>
      <trkpt lat="45.33106" lon="6.64459">
        <ele>2404</ele>
        <time>2012-04-08T09:15:22Z</time>
      </trkpt>
      <trkpt lat="45.33106" lon="6.64462">
        <ele>2405</ele>
        <time>2012-04-08T09:15:27Z</time>
      </trkpt>
      <trkpt lat="45.33104" lon="6.64466">
        <ele>2406</ele>
        <time>2012-04-08T09:15:32Z</time>
      </trkpt>
      <trkpt lat="45.33104" lon="6.64469">
        <ele>2406</ele>
        <time>2012-04-08T09:15:37Z</time>
      </trkpt>
      <trkpt lat="45.33104" lon="6.64473">
        <ele>2407</ele>
        <time>2012-04-08T09:15:42Z</time>
      </trkpt>
      <trkpt lat="45.33103" lon="6.64477">
        <ele>2408</ele>
        <time>2012-04-08T09:15:47Z</time>
      </trkpt>
      <trkpt lat="45.33103" lon="6.64482">
        <ele>2408</ele>
        <time>2012-04-08T09:15:52Z</time>
      </trkpt>
      <trkpt lat="45.33102" lon="6.64485">
        <ele>2409</ele>
        <time>2012-04-08T09:15:57Z</time>
      </trkpt>
      <trkpt lat="45.33101" lon="6.64488">
        <ele>2409</ele>
        <time>2012-04-08T09:16:02Z</time>
      </trkpt>
      <trkpt lat="45.331" lon="6.64492">
        <ele>2410</ele>
        <time>2012-04-08T09:16:07Z</time>
      </trkpt>
      <trkpt lat="45.33099" lon="6.64496">
        <ele>2411</ele>
        <time>2012-04-08T09:16:12Z</time>
      </trkpt>
      <trkpt lat="45.33097" lon="6.64499">
        <ele>2411</ele>
        <time>2012-04-08T09:16:17Z</time>
      </trkpt>
      <trkpt lat="45.33096" lon="6.64499">
        <ele>2412</ele>
        <time>2012-04-08T09:16:22Z</time>
      </trkpt>
      <trkpt lat="45.33094" lon="6.64497">
        <ele>2413</ele>
        <time>2012-04-08T09:16:27Z</time>
      </trkpt>
      <trkpt lat="45.33093" lon="6.64496">
        <ele>2413</ele>
        <time>2012-04-08T09:16:32Z</time>
      </trkpt>
      <trkpt lat="45.33091" lon="6.64496">
        <ele>2414</ele>
        <time>2012-04-08T09:16:37Z</time>
      </trkpt>
      <trkpt lat="45.3309" lon="6.64499">
        <ele>2415</ele>
        <time>2012-04-08T09:16:42Z</time>
      </trkpt>
      <trkpt lat="45.33089" lon="6.64502">
        <ele>2415</ele>
        <time>2012-04-08T09:16:47Z</time>
      </trkpt>
      <trkpt lat="45.33089" lon="6.64502">
        <ele>2416</ele>
        <time>2012-04-08T09:16:52Z</time>
      </trkpt>
      <trkpt lat="45.33089" lon="6.64502">
        <ele>2416</ele>
        <time>2012-04-08T09:16:57Z</time>
      </trkpt>
      <trkpt lat="45.33089" lon="6.64502">
        <ele>2416</ele>
        <time>2012-04-08T09:17:02Z</time>
      </trkpt>
      <trkpt lat="45.33089" lon="6.64502">
        <ele>2415</ele>
        <time>2012-04-08T09:17:07Z</time>
      </trkpt>
      <trkpt lat="45.33089" lon="6.64502">
        <ele>2415</ele>
        <time>2012-04-08T09:17:12Z</time>
      </trkpt>
      <trkpt lat="45.33088" lon="6.64503">
        <ele>2416</ele>
        <time>2012-04-08T09:17:17Z</time>
      </trkpt>
      <trkpt lat="45.33087" lon="6.64507">
        <ele>2416</ele>
        <time>2012-04-08T09:17:22Z</time>
      </trkpt>
      <trkpt lat="45.33085" lon="6.64512">
        <ele>2416</ele>
        <time>2012-04-08T09:17:27Z</time>
      </trkpt>
      <trkpt lat="45.33083" lon="6.64512">
        <ele>2417</ele>
        <time>2012-04-08T09:17:32Z</time>
      </trkpt>
      <trkpt lat="45.3308" lon="6.64509">
        <ele>2418</ele>
        <time>2012-04-08T09:17:37Z</time>
      </trkpt>
      <trkpt lat="45.33078" lon="6.64507">
        <ele>2419</ele>
        <time>2012-04-08T09:17:42Z</time>
      </trkpt>
      <trkpt lat="45.33077" lon="6.64503">
        <ele>2420</ele>
        <time>2012-04-08T09:17:47Z</time>
      </trkpt>
      <trkpt lat="45.33076" lon="6.64503">
        <ele>2421</ele>
        <time>2012-04-08T09:17:52Z</time>
      </trkpt>
      <trkpt lat="45.33075" lon="6.64505">
        <ele>2421</ele>
        <time>2012-04-08T09:17:57Z</time>
      </trkpt>
      <trkpt lat="45.33073" lon="6.64507">
        <ele>2422</ele>
        <time>2012-04-08T09:18:02Z</time>
      </trkpt>
      <trkpt lat="45.33071" lon="6.6451">
        <ele>2423</ele>
        <time>2012-04-08T09:18:07Z</time>
      </trkpt>
      <trkpt lat="45.3307" lon="6.64512">
        <ele>2423</ele>
        <time>2012-04-08T09:18:12Z</time>
      </trkpt>
      <trkpt lat="45.33068" lon="6.64516">
        <ele>2424</ele>
        <time>2012-04-08T09:18:17Z</time>
      </trkpt>
      <trkpt lat="45.33067" lon="6.64519">
        <ele>2424</ele>
        <time>2012-04-08T09:18:22Z</time>
      </trkpt>
      <trkpt lat="45.33066" lon="6.64522">
        <ele>2425</ele>
        <time>2012-04-08T09:18:27Z</time>
      </trkpt>
      <trkpt lat="45.33065" lon="6.64526">
        <ele>2425</ele>
        <time>2012-04-08T09:18:32Z</time>
      </trkpt>
      <trkpt lat="45.33065" lon="6.6453">
        <ele>2426</ele>
        <time>2012-04-08T09:18:37Z</time>
      </trkpt>
      <trkpt lat="45.33064" lon="6.64534">
        <ele>2426</ele>
        <time>2012-04-08T09:18:42Z</time>
      </trkpt>
      <trkpt lat="45.33064" lon="6.64538">
        <ele>2427</ele>
        <time>2012-04-08T09:18:47Z</time>
      </trkpt>
      <trkpt lat="45.33064" lon="6.64542">
        <ele>2427</ele>
        <time>2012-04-08T09:18:52Z</time>
      </trkpt>
      <trkpt lat="45.33064" lon="6.64545">
        <ele>2428</ele>
        <time>2012-04-08T09:18:57Z</time>
      </trkpt>
      <trkpt lat="45.33064" lon="6.64548">
        <ele>2429</ele>
        <time>2012-04-08T09:19:02Z</time>
      </trkpt>
      <trkpt lat="45.33065" lon="6.64551">
        <ele>2429</ele>
        <time>2012-04-08T09:19:07Z</time>
      </trkpt>
      <trkpt lat="45.33067" lon="6.64555">
        <ele>2430</ele>
        <time>2012-04-08T09:19:12Z</time>
      </trkpt>
      <trkpt lat="45.33068" lon="6.64558">
        <ele>2431</ele>
        <time>2012-04-08T09:19:17Z</time>
      </trkpt>
      <trkpt lat="45.33068" lon="6.64563">
        <ele>2431</ele>
        <time>2012-04-08T09:19:22Z</time>
      </trkpt>
      <trkpt lat="45.33068" lon="6.64567">
        <ele>2432</ele>
        <time>2012-04-08T09:19:27Z</time>
      </trkpt>
      <trkpt lat="45.33069" lon="6.64571">
        <ele>2433</ele>
        <time>2012-04-08T09:19:32Z</time>
      </trkpt>
      <trkpt lat="45.33069" lon="6.64575">
        <ele>2434</ele>
        <time>2012-04-08T09:19:37Z</time>
      </trkpt>
      <trkpt lat="45.33069" lon="6.64578">
        <ele>2434</ele>
        <time>2012-04-08T09:19:42Z</time>
      </trkpt>
      <trkpt lat="45.33069" lon="6.64582">
        <ele>2435</ele>
        <time>2012-04-08T09:19:47Z</time>
      </trkpt>
      <trkpt lat="45.33068" lon="6.64585">
        <ele>2436</ele>
        <time>2012-04-08T09:19:52Z</time>
      </trkpt>
      <trkpt lat="45.33068" lon="6.64589">
        <ele>2437</ele>
        <time>2012-04-08T09:19:57Z</time>
      </trkpt>
      <trkpt lat="45.33068" lon="6.64592">
        <ele>2437</ele>
        <time>2012-04-08T09:20:02Z</time>
      </trkpt>
      <trkpt lat="45.33069" lon="6.64596">
        <ele>2438</ele>
        <time>2012-04-08T09:20:07Z</time>
      </trkpt>
      <trkpt lat="45.33068" lon="6.64601">
        <ele>2439</ele>
        <time>2012-04-08T09:20:12Z</time>
      </trkpt>
      <trkpt lat="45.33068" lon="6.64604">
        <ele>2439</ele>
        <time>2012-04-08T09:20:17Z</time>
      </trkpt>
      <trkpt lat="45.33067" lon="6.64608">
        <ele>2440</ele>
        <time>2012-04-08T09:20:22Z</time>
      </trkpt>
      <trkpt lat="45.33065" lon="6.64611">
        <ele>2441</ele>
        <time>2012-04-08T09:20:27Z</time>
      </trkpt>
      <trkpt lat="45.33064" lon="6.64614">
        <ele>2442</ele>
        <time>2012-04-08T09:20:32Z</time>
      </trkpt>
      <trkpt lat="45.33063" lon="6.64617">
        <ele>2443</ele>
        <time>2012-04-08T09:20:37Z</time>
      </trkpt>
      <trkpt lat="45.33061" lon="6.6462">
        <ele>2444</ele>
        <time>2012-04-08T09:20:42Z</time>
      </trkpt>
      <trkpt lat="45.33059" lon="6.64623">
        <ele>2444</ele>
        <time>2012-04-08T09:20:47Z</time>
      </trkpt>
      <trkpt lat="45.33059" lon="6.64623">
        <ele>2444</ele>
        <time>2012-04-08T09:20:52Z</time>
      </trkpt>
      <trkpt lat="45.33059" lon="6.64625">
        <ele>2444</ele>
        <time>2012-04-08T09:20:57Z</time>
      </trkpt>
      <trkpt lat="45.33058" lon="6.6463">
        <ele>2445</ele>
        <time>2012-04-08T09:21:02Z</time>
      </trkpt>
      <trkpt lat="45.33057" lon="6.64635">
        <ele>2445</ele>
        <time>2012-04-08T09:21:07Z</time>
      </trkpt>
      <trkpt lat="45.33056" lon="6.6464">
        <ele>2445</ele>
        <time>2012-04-08T09:21:12Z</time>
      </trkpt>
      <trkpt lat="45.33054" lon="6.64647">
        <ele>2445</ele>
        <time>2012-04-08T09:21:17Z</time>
      </trkpt>
      <trkpt lat="45.33052" lon="6.64653">
        <ele>2445</ele>
        <time>2012-04-08T09:21:22Z</time>
      </trkpt>
      <trkpt lat="45.3305" lon="6.64657">
        <ele>2446</ele>
        <time>2012-04-08T09:21:27Z</time>
      </trkpt>
      <trkpt lat="45.33049" lon="6.64659">
        <ele>2446</ele>
        <time>2012-04-08T09:21:32Z</time>
      </trkpt>
      <trkpt lat="45.33046" lon="6.64662">
        <ele>2447</ele>
        <time>2012-04-08T09:21:37Z</time>
      </trkpt>
      <trkpt lat="45.33044" lon="6.64665">
        <ele>2448</ele>
        <time>2012-04-08T09:21:42Z</time>
      </trkpt>
      <trkpt lat="45.33041" lon="6.64668">
        <ele>2449</ele>
        <time>2012-04-08T09:21:47Z</time>
      </trkpt>
      <trkpt lat="45.3304" lon="6.6467">
        <ele>2449</ele>
        <time>2012-04-08T09:21:52Z</time>
      </trkpt>
      <trkpt lat="45.3304" lon="6.64667">
        <ele>2450</ele>
        <time>2012-04-08T09:21:57Z</time>
      </trkpt>
      <trkpt lat="45.3304" lon="6.64662">
        <ele>2451</ele>
        <time>2012-04-08T09:22:02Z</time>
      </trkpt>
      <trkpt lat="45.3304" lon="6.64657">
        <ele>2452</ele>
        <time>2012-04-08T09:22:07Z</time>
      </trkpt>
      <trkpt lat="45.33038" lon="6.64655">
        <ele>2453</ele>
        <time>2012-04-08T09:22:12Z</time>
      </trkpt>
      <trkpt lat="45.33035" lon="6.64655">
        <ele>2453</ele>
        <time>2012-04-08T09:22:17Z</time>
      </trkpt>
      <trkpt lat="45.33033" lon="6.64657">
        <ele>2454</ele>
        <time>2012-04-08T09:22:22Z</time>
      </trkpt>
      <trkpt lat="45.33032" lon="6.6466">
        <ele>2455</ele>
        <time>2012-04-08T09:22:27Z</time>
      </trkpt>
      <trkpt lat="45.3303" lon="6.64665">
        <ele>2455</ele>
        <time>2012-04-08T09:22:32Z</time>
      </trkpt>
      <trkpt lat="45.33028" lon="6.64669">
        <ele>2456</ele>
        <time>2012-04-08T09:22:37Z</time>
      </trkpt>
      <trkpt lat="45.33025" lon="6.64672">
        <ele>2456</ele>
        <time>2012-04-08T09:22:42Z</time>
      </trkpt>
      <trkpt lat="45.33023" lon="6.64675">
        <ele>2457</ele>
        <time>2012-04-08T09:22:47Z</time>
      </trkpt>
      <trkpt lat="45.3302" lon="6.64677">
        <ele>2458</ele>
        <time>2012-04-08T09:22:52Z</time>
      </trkpt>
      <trkpt lat="45.33018" lon="6.64682">
        <ele>2458</ele>
        <time>2012-04-08T09:22:57Z</time>
      </trkpt>
      <trkpt lat="45.33017" lon="6.64683">
        <ele>2458</ele>
        <time>2012-04-08T09:23:02Z</time>
      </trkpt>
      <trkpt lat="45.33017" lon="6.64683">
        <ele>2458</ele>
        <time>2012-04-08T09:23:07Z</time>
      </trkpt>
      <trkpt lat="45.33017" lon="6.64682">
        <ele>2457</ele>
        <time>2012-04-08T09:23:12Z</time>
      </trkpt>
      <trkpt lat="45.33017" lon="6.64682">
        <ele>2457</ele>
        <time>2012-04-08T09:23:17Z</time>
      </trkpt>
      <trkpt lat="45.33017" lon="6.64682">
        <ele>2457</ele>
        <time>2012-04-08T09:23:22Z</time>
      </trkpt>
      <trkpt lat="45.33017" lon="6.64682">
        <ele>2457</ele>
        <time>2012-04-08T09:23:27Z</time>
      </trkpt>
      <trkpt lat="45.33017" lon="6.64682">
        <ele>2457</ele>
        <time>2012-04-08T09:23:32Z</time>
      </trkpt>
      <trkpt lat="45.33017" lon="6.64683">
        <ele>2457</ele>
        <time>2012-04-08T09:23:37Z</time>
      </trkpt>
      <trkpt lat="45.33016" lon="6.64683">
        <ele>2457</ele>
        <time>2012-04-08T09:23:42Z</time>
      </trkpt>
      <trkpt lat="45.33013" lon="6.64683">
        <ele>2458</ele>
        <time>2012-04-08T09:23:47Z</time>
      </trkpt>
      <trkpt lat="45.33011" lon="6.64683">
        <ele>2459</ele>
        <time>2012-04-08T09:23:52Z</time>
      </trkpt>
      <trkpt lat="45.33008" lon="6.64684">
        <ele>2460</ele>
        <time>2012-04-08T09:23:57Z</time>
      </trkpt>
      <trkpt lat="45.33004" lon="6.64685">
        <ele>2461</ele>
        <time>2012-04-08T09:24:02Z</time>
      </trkpt>
      <trkpt lat="45.33002" lon="6.64685">
        <ele>2462</ele>
        <time>2012-04-08T09:24:07Z</time>
      </trkpt>
      <trkpt lat="45.32999" lon="6.64685">
        <ele>2463</ele>
        <time>2012-04-08T09:24:12Z</time>
      </trkpt>
      <trkpt lat="45.32996" lon="6.64685">
        <ele>2463</ele>
        <time>2012-04-08T09:24:17Z</time>
      </trkpt>
      <trkpt lat="45.32995" lon="6.64683">
        <ele>2464</ele>
        <time>2012-04-08T09:24:22Z</time>
      </trkpt>
      <trkpt lat="45.32993" lon="6.64678">
        <ele>2465</ele>
        <time>2012-04-08T09:24:27Z</time>
      </trkpt>
      <trkpt lat="45.32992" lon="6.64675">
        <ele>2466</ele>
        <time>2012-04-08T09:24:32Z</time>
      </trkpt>
      <trkpt lat="45.32989" lon="6.64674">
        <ele>2467</ele>
        <time>2012-04-08T09:24:37Z</time>
      </trkpt>
      <trkpt lat="45.32987" lon="6.64673">
        <ele>2467</ele>
        <time>2012-04-08T09:24:42Z</time>
      </trkpt>
      <trkpt lat="45.32984" lon="6.64671">
        <ele>2468</ele>
        <time>2012-04-08T09:24:47Z</time>
      </trkpt>
      <trkpt lat="45.32982" lon="6.64669">
        <ele>2469</ele>
        <time>2012-04-08T09:24:52Z</time>
      </trkpt>
      <trkpt lat="45.3298" lon="6.64668">
        <ele>2470</ele>
        <time>2012-04-08T09:24:57Z</time>
      </trkpt>
      <trkpt lat="45.32977" lon="6.6467">
        <ele>2470</ele>
        <time>2012-04-08T09:25:02Z</time>
      </trkpt>
      <trkpt lat="45.32975" lon="6.64673">
        <ele>2471</ele>
        <time>2012-04-08T09:25:07Z</time>
      </trkpt>
      <trkpt lat="45.32972" lon="6.64679">
        <ele>2468</ele>
        <time>2012-04-08T09:34:57Z</time>
      </trkpt>
      <trkpt lat="45.32972" lon="6.64679">
        <ele>2468</ele>
        <time>2012-04-08T09:35:02Z</time>
      </trkpt>
      <trkpt lat="45.32972" lon="6.64679">
        <ele>2468</ele>
        <time>2012-04-08T09:35:07Z</time>
      </trkpt>
      <trkpt lat="45.32972" lon="6.64679">
        <ele>2468</ele>
        <time>2012-04-08T09:35:12Z</time>
      </trkpt>
      <trkpt lat="45.32972" lon="6.64679">
        <ele>2468</ele>
        <time>2012-04-08T09:35:17Z</time>
      </trkpt>
      <trkpt lat="45.3297" lon="6.6468">
        <ele>2468</ele>
        <time>2012-04-08T09:35:22Z</time>
      </trkpt>
      <trkpt lat="45.32968" lon="6.64685">
        <ele>2469</ele>
        <time>2012-04-08T09:35:27Z</time>
      </trkpt>
      <trkpt lat="45.32966" lon="6.64689">
        <ele>2469</ele>
        <time>2012-04-08T09:35:32Z</time>
      </trkpt>
      <trkpt lat="45.32963" lon="6.64692">
        <ele>2470</ele>
        <time>2012-04-08T09:35:37Z</time>
      </trkpt>
      <trkpt lat="45.32961" lon="6.64697">
        <ele>2471</ele>
        <time>2012-04-08T09:35:42Z</time>
      </trkpt>
      <trkpt lat="45.32958" lon="6.64701">
        <ele>2471</ele>
        <time>2012-04-08T09:35:47Z</time>
      </trkpt>
      <trkpt lat="45.32956" lon="6.64705">
        <ele>2472</ele>
        <time>2012-04-08T09:35:52Z</time>
      </trkpt>
      <trkpt lat="45.32953" lon="6.6471">
        <ele>2473</ele>
        <time>2012-04-08T09:35:57Z</time>
      </trkpt>
      <trkpt lat="45.32951" lon="6.64714">
        <ele>2473</ele>
        <time>2012-04-08T09:36:02Z</time>
      </trkpt>
      <trkpt lat="45.32949" lon="6.64718">
        <ele>2474</ele>
        <time>2012-04-08T09:36:07Z</time>
      </trkpt>
      <trkpt lat="45.32946" lon="6.64722">
        <ele>2474</ele>
        <time>2012-04-08T09:36:12Z</time>
      </trkpt>
      <trkpt lat="45.32944" lon="6.64725">
        <ele>2475</ele>
        <time>2012-04-08T09:36:17Z</time>
      </trkpt>
      <trkpt lat="45.32942" lon="6.64729">
        <ele>2475</ele>
        <time>2012-04-08T09:36:22Z</time>
      </trkpt>
      <trkpt lat="45.3294" lon="6.64734">
        <ele>2476</ele>
        <time>2012-04-08T09:36:27Z</time>
      </trkpt>
      <trkpt lat="45.32937" lon="6.64739">
        <ele>2476</ele>
        <time>2012-04-08T09:36:32Z</time>
      </trkpt>
      <trkpt lat="45.32935" lon="6.64742">
        <ele>2477</ele>
        <time>2012-04-08T09:36:37Z</time>
      </trkpt>
      <trkpt lat="45.32933" lon="6.64745">
        <ele>2477</ele>
        <time>2012-04-08T09:36:42Z</time>
      </trkpt>
      <trkpt lat="45.3293" lon="6.64749">
        <ele>2478</ele>
        <time>2012-04-08T09:36:47Z</time>
      </trkpt>
      <trkpt lat="45.32928" lon="6.64751">
        <ele>2478</ele>
        <time>2012-04-08T09:36:52Z</time>
      </trkpt>
      <trkpt lat="45.32925" lon="6.64753">
        <ele>2479</ele>
        <time>2012-04-08T09:36:57Z</time>
      </trkpt>
      <trkpt lat="45.32923" lon="6.64754">
        <ele>2480</ele>
        <time>2012-04-08T09:37:02Z</time>
      </trkpt>
      <trkpt lat="45.32921" lon="6.64757">
        <ele>2481</ele>
        <time>2012-04-08T09:37:07Z</time>
      </trkpt>
      <trkpt lat="45.32918" lon="6.64759">
        <ele>2481</ele>
        <time>2012-04-08T09:37:12Z</time>
      </trkpt>
      <trkpt lat="45.32916" lon="6.64761">
        <ele>2481</ele>
        <time>2012-04-08T09:37:17Z</time>
      </trkpt>
      <trkpt lat="45.32914" lon="6.64763">
        <ele>2482</ele>
        <time>2012-04-08T09:37:22Z</time>
      </trkpt>
      <trkpt lat="45.32911" lon="6.64766">
        <ele>2482</ele>
        <time>2012-04-08T09:37:27Z</time>
      </trkpt>
      <trkpt lat="45.32908" lon="6.64768">
        <ele>2483</ele>
        <time>2012-04-08T09:37:32Z</time>
      </trkpt>
      <trkpt lat="45.32906" lon="6.6477">
        <ele>2483</ele>
        <time>2012-04-08T09:37:37Z</time>
      </trkpt>
      <trkpt lat="45.32904" lon="6.64772">
        <ele>2484</ele>
        <time>2012-04-08T09:37:42Z</time>
      </trkpt>
      <trkpt lat="45.32901" lon="6.64776">
        <ele>2484</ele>
        <time>2012-04-08T09:37:47Z</time>
      </trkpt>
      <trkpt lat="45.32899" lon="6.64778">
        <ele>2484</ele>
        <time>2012-04-08T09:37:52Z</time>
      </trkpt>
      <trkpt lat="45.32897" lon="6.64781">
        <ele>2484</ele>
        <time>2012-04-08T09:37:57Z</time>
      </trkpt>
      <trkpt lat="45.32895" lon="6.64783">
        <ele>2484</ele>
        <time>2012-04-08T09:38:02Z</time>
      </trkpt>
      <trkpt lat="45.32892" lon="6.64786">
        <ele>2484</ele>
        <time>2012-04-08T09:38:07Z</time>
      </trkpt>
      <trkpt lat="45.3289" lon="6.64787">
        <ele>2484</ele>
        <time>2012-04-08T09:38:12Z</time>
      </trkpt>
      <trkpt lat="45.3289" lon="6.64787">
        <ele>2484</ele>
        <time>2012-04-08T09:38:17Z</time>
      </trkpt>
      <trkpt lat="45.32889" lon="6.64788">
        <ele>2483</ele>
        <time>2012-04-08T09:38:22Z</time>
      </trkpt>
      <trkpt lat="45.32889" lon="6.64788">
        <ele>2483</ele>
        <time>2012-04-08T09:38:27Z</time>
      </trkpt>
      <trkpt lat="45.32889" lon="6.64788">
        <ele>2483</ele>
        <time>2012-04-08T09:38:32Z</time>
      </trkpt>
      <trkpt lat="45.32889" lon="6.64788">
        <ele>2483</ele>
        <time>2012-04-08T09:38:37Z</time>
      </trkpt>
      <trkpt lat="45.32889" lon="6.64788">
        <ele>2483</ele>
        <time>2012-04-08T09:38:42Z</time>
      </trkpt>
      <trkpt lat="45.32888" lon="6.64789">
        <ele>2483</ele>
        <time>2012-04-08T09:38:47Z</time>
      </trkpt>
      <trkpt lat="45.32888" lon="6.6479">
        <ele>2483</ele>
        <time>2012-04-08T09:38:52Z</time>
      </trkpt>
      <trkpt lat="45.32886" lon="6.64791">
        <ele>2483</ele>
        <time>2012-04-08T09:38:57Z</time>
      </trkpt>
      <trkpt lat="45.32885" lon="6.64792">
        <ele>2483</ele>
        <time>2012-04-08T09:39:02Z</time>
      </trkpt>
      <trkpt lat="45.32882" lon="6.64795">
        <ele>2484</ele>
        <time>2012-04-08T09:39:07Z</time>
      </trkpt>
      <trkpt lat="45.32882" lon="6.64795">
        <ele>2484</ele>
        <time>2012-04-08T09:39:12Z</time>
      </trkpt>
      <trkpt lat="45.32881" lon="6.64796">
        <ele>2484</ele>
        <time>2012-04-08T09:39:17Z</time>
      </trkpt>
      <trkpt lat="45.32881" lon="6.64796">
        <ele>2484</ele>
        <time>2012-04-08T09:39:22Z</time>
      </trkpt>
      <trkpt lat="45.32881" lon="6.64796">
        <ele>2484</ele>
        <time>2012-04-08T09:39:27Z</time>
      </trkpt>
      <trkpt lat="45.32879" lon="6.648">
        <ele>2484</ele>
        <time>2012-04-08T09:39:32Z</time>
      </trkpt>
      <trkpt lat="45.32879" lon="6.648">
        <ele>2484</ele>
        <time>2012-04-08T09:39:37Z</time>
      </trkpt>
      <trkpt lat="45.32879" lon="6.648">
        <ele>2484</ele>
        <time>2012-04-08T09:39:42Z</time>
      </trkpt>
      <trkpt lat="45.32879" lon="6.648">
        <ele>2484</ele>
        <time>2012-04-08T09:39:47Z</time>
      </trkpt>
      <trkpt lat="45.32879" lon="6.648">
        <ele>2484</ele>
        <time>2012-04-08T09:39:52Z</time>
      </trkpt>
      <trkpt lat="45.32879" lon="6.648">
        <ele>2484</ele>
        <time>2012-04-08T09:39:57Z</time>
      </trkpt>
      <trkpt lat="45.32879" lon="6.648">
        <ele>2483</ele>
        <time>2012-04-08T09:40:02Z</time>
      </trkpt>
      <trkpt lat="45.32879" lon="6.648">
        <ele>2483</ele>
        <time>2012-04-08T09:40:07Z</time>
      </trkpt>
      <trkpt lat="45.32879" lon="6.648">
        <ele>2483</ele>
        <time>2012-04-08T09:40:12Z</time>
      </trkpt>
      <trkpt lat="45.3288" lon="6.64801">
        <ele>2483</ele>
        <time>2012-04-08T09:40:17Z</time>
      </trkpt>
      <trkpt lat="45.3288" lon="6.64801">
        <ele>2482</ele>
        <time>2012-04-08T09:40:22Z</time>
      </trkpt>
      <trkpt lat="45.3288" lon="6.64801">
        <ele>2482</ele>
        <time>2012-04-08T09:40:27Z</time>
      </trkpt>
      <trkpt lat="45.3288" lon="6.64801">
        <ele>2482</ele>
        <time>2012-04-08T09:40:32Z</time>
      </trkpt>
      <trkpt lat="45.3288" lon="6.64801">
        <ele>2482</ele>
        <time>2012-04-08T09:40:37Z</time>
      </trkpt>
      <trkpt lat="45.3288" lon="6.64801">
        <ele>2482</ele>
        <time>2012-04-08T09:40:42Z</time>
      </trkpt>
      <trkpt lat="45.3288" lon="6.64801">
        <ele>2482</ele>
        <time>2012-04-08T09:40:47Z</time>
      </trkpt>
      <trkpt lat="45.3288" lon="6.64801">
        <ele>2482</ele>
        <time>2012-04-08T09:40:52Z</time>
      </trkpt>
      <trkpt lat="45.3288" lon="6.64801">
        <ele>2482</ele>
        <time>2012-04-08T09:40:57Z</time>
      </trkpt>
      <trkpt lat="45.3288" lon="6.64801">
        <ele>2482</ele>
        <time>2012-04-08T09:41:02Z</time>
      </trkpt>
      <trkpt lat="45.3288" lon="6.64801">
        <ele>2482</ele>
        <time>2012-04-08T09:41:07Z</time>
      </trkpt>
      <trkpt lat="45.3288" lon="6.64801">
        <ele>2481</ele>
        <time>2012-04-08T09:41:12Z</time>
      </trkpt>
      <trkpt lat="45.3288" lon="6.64801">
        <ele>2481</ele>
        <time>2012-04-08T09:41:17Z</time>
      </trkpt>
      <trkpt lat="45.3288" lon="6.64801">
        <ele>2481</ele>
        <time>2012-04-08T09:41:22Z</time>
      </trkpt>
      <trkpt lat="45.3288" lon="6.64801">
        <ele>2481</ele>
        <time>2012-04-08T09:41:27Z</time>
      </trkpt>
      <trkpt lat="45.3288" lon="6.64801">
        <ele>2480</ele>
        <time>2012-04-08T09:41:32Z</time>
      </trkpt>
      <trkpt lat="45.3288" lon="6.64801">
        <ele>2480</ele>
        <time>2012-04-08T09:41:37Z</time>
      </trkpt>
      <trkpt lat="45.3288" lon="6.64801">
        <ele>2480</ele>
        <time>2012-04-08T09:41:42Z</time>
      </trkpt>
      <trkpt lat="45.32881" lon="6.64801">
        <ele>2480</ele>
        <time>2012-04-08T09:41:47Z</time>
      </trkpt>
      <trkpt lat="45.32881" lon="6.64801">
        <ele>2480</ele>
        <time>2012-04-08T09:41:52Z</time>
      </trkpt>
      <trkpt lat="45.32881" lon="6.64801">
        <ele>2480</ele>
        <time>2012-04-08T09:41:57Z</time>
      </trkpt>
      <trkpt lat="45.32881" lon="6.64801">
        <ele>2480</ele>
        <time>2012-04-08T09:42:02Z</time>
      </trkpt>
      <trkpt lat="45.32881" lon="6.64801">
        <ele>2479</ele>
        <time>2012-04-08T09:42:07Z</time>
      </trkpt>
      <trkpt lat="45.32881" lon="6.64801">
        <ele>2479</ele>
        <time>2012-04-08T09:42:12Z</time>
      </trkpt>
      <trkpt lat="45.32881" lon="6.64801">
        <ele>2479</ele>
        <time>2012-04-08T09:42:17Z</time>
      </trkpt>
      <trkpt lat="45.32882" lon="6.64801">
        <ele>2479</ele>
        <time>2012-04-08T09:42:22Z</time>
      </trkpt>
      <trkpt lat="45.32882" lon="6.64801">
        <ele>2479</ele>
        <time>2012-04-08T09:42:27Z</time>
      </trkpt>
      <trkpt lat="45.32882" lon="6.64801">
        <ele>2479</ele>
        <time>2012-04-08T09:42:32Z</time>
      </trkpt>
      <trkpt lat="45.32882" lon="6.64801">
        <ele>2479</ele>
        <time>2012-04-08T09:42:37Z</time>
      </trkpt>
      <trkpt lat="45.32882" lon="6.64801">
        <ele>2479</ele>
        <time>2012-04-08T09:42:42Z</time>
      </trkpt>
      <trkpt lat="45.32882" lon="6.64801">
        <ele>2479</ele>
        <time>2012-04-08T09:42:47Z</time>
      </trkpt>
      <trkpt lat="45.32882" lon="6.64801">
        <ele>2479</ele>
        <time>2012-04-08T09:42:52Z</time>
      </trkpt>
      <trkpt lat="45.32882" lon="6.64801">
        <ele>2480</ele>
        <time>2012-04-08T09:42:57Z</time>
      </trkpt>
      <trkpt lat="45.32882" lon="6.64801">
        <ele>2480</ele>
        <time>2012-04-08T09:43:02Z</time>
      </trkpt>
      <trkpt lat="45.32882" lon="6.64801">
        <ele>2480</ele>
        <time>2012-04-08T09:43:07Z</time>
      </trkpt>
      <trkpt lat="45.32882" lon="6.64801">
        <ele>2480</ele>
        <time>2012-04-08T09:43:12Z</time>
      </trkpt>
      <trkpt lat="45.32882" lon="6.64801">
        <ele>2480</ele>
        <time>2012-04-08T09:43:17Z</time>
      </trkpt>
      <trkpt lat="45.32882" lon="6.64801">
        <ele>2480</ele>
        <time>2012-04-08T09:43:22Z</time>
      </trkpt>
      <trkpt lat="45.32882" lon="6.64801">
        <ele>2480</ele>
        <time>2012-04-08T09:43:27Z</time>
      </trkpt>
      <trkpt lat="45.32881" lon="6.64801">
        <ele>2480</ele>
        <time>2012-04-08T09:43:32Z</time>
      </trkpt>
      <trkpt lat="45.32881" lon="6.64801">
        <ele>2480</ele>
        <time>2012-04-08T09:43:37Z</time>
      </trkpt>
      <trkpt lat="45.32881" lon="6.64801">
        <ele>2480</ele>
        <time>2012-04-08T09:43:42Z</time>
      </trkpt>
      <trkpt lat="45.32882" lon="6.64801">
        <ele>2480</ele>
        <time>2012-04-08T09:43:47Z</time>
      </trkpt>
      <trkpt lat="45.32882" lon="6.64801">
        <ele>2480</ele>
        <time>2012-04-08T09:43:52Z</time>
      </trkpt>
      <trkpt lat="45.32882" lon="6.64801">
        <ele>2480</ele>
        <time>2012-04-08T09:43:57Z</time>
      </trkpt>
      <trkpt lat="45.32882" lon="6.64801">
        <ele>2480</ele>
        <time>2012-04-08T09:44:02Z</time>
      </trkpt>
      <trkpt lat="45.32882" lon="6.64801">
        <ele>2480</ele>
        <time>2012-04-08T09:44:07Z</time>
      </trkpt>
      <trkpt lat="45.32882" lon="6.64801">
        <ele>2480</ele>
        <time>2012-04-08T09:44:12Z</time>
      </trkpt>
      <trkpt lat="45.32882" lon="6.64801">
        <ele>2480</ele>
        <time>2012-04-08T09:44:17Z</time>
      </trkpt>
      <trkpt lat="45.32882" lon="6.64801">
        <ele>2480</ele>
        <time>2012-04-08T09:44:22Z</time>
      </trkpt>
      <trkpt lat="45.32881" lon="6.64802">
        <ele>2480</ele>
        <time>2012-04-08T09:44:27Z</time>
      </trkpt>
      <trkpt lat="45.32878" lon="6.64804">
        <ele>2480</ele>
        <time>2012-04-08T09:44:32Z</time>
      </trkpt>
      <trkpt lat="45.32875" lon="6.64807">
        <ele>2481</ele>
        <time>2012-04-08T09:44:37Z</time>
      </trkpt>
      <trkpt lat="45.32872" lon="6.64809">
        <ele>2481</ele>
        <time>2012-04-08T09:44:42Z</time>
      </trkpt>
      <trkpt lat="45.32869" lon="6.64812">
        <ele>2482</ele>
        <time>2012-04-08T09:44:47Z</time>
      </trkpt>
      <trkpt lat="45.32866" lon="6.64815">
        <ele>2482</ele>
        <time>2012-04-08T09:44:52Z</time>
      </trkpt>
      <trkpt lat="45.32862" lon="6.64818">
        <ele>2483</ele>
        <time>2012-04-08T09:44:57Z</time>
      </trkpt>
      <trkpt lat="45.32859" lon="6.64822">
        <ele>2483</ele>
        <time>2012-04-08T09:45:02Z</time>
      </trkpt>
      <trkpt lat="45.32856" lon="6.64826">
        <ele>2483</ele>
        <time>2012-04-08T09:45:07Z</time>
      </trkpt>
      <trkpt lat="45.32852" lon="6.64829">
        <ele>2484</ele>
        <time>2012-04-08T09:45:12Z</time>
      </trkpt>
      <trkpt lat="45.32849" lon="6.64831">
        <ele>2484</ele>
        <time>2012-04-08T09:45:17Z</time>
      </trkpt>
      <trkpt lat="45.32846" lon="6.64833">
        <ele>2485</ele>
        <time>2012-04-08T09:45:22Z</time>
      </trkpt>
      <trkpt lat="45.32843" lon="6.64835">
        <ele>2486</ele>
        <time>2012-04-08T09:45:27Z</time>
      </trkpt>
      <trkpt lat="45.3284" lon="6.64836">
        <ele>2486</ele>
        <time>2012-04-08T09:45:32Z</time>
      </trkpt>
      <trkpt lat="45.32837" lon="6.64838">
        <ele>2487</ele>
        <time>2012-04-08T09:45:37Z</time>
      </trkpt>
      <trkpt lat="45.32834" lon="6.6484">
        <ele>2488</ele>
        <time>2012-04-08T09:45:42Z</time>
      </trkpt>
      <trkpt lat="45.32831" lon="6.64841">
        <ele>2489</ele>
        <time>2012-04-08T09:45:47Z</time>
      </trkpt>
      <trkpt lat="45.32829" lon="6.64843">
        <ele>2489</ele>
        <time>2012-04-08T09:45:52Z</time>
      </trkpt>
      <trkpt lat="45.32826" lon="6.64844">
        <ele>2490</ele>
        <time>2012-04-08T09:45:57Z</time>
      </trkpt>
      <trkpt lat="45.32823" lon="6.64846">
        <ele>2491</ele>
        <time>2012-04-08T09:46:02Z</time>
      </trkpt>
      <trkpt lat="45.32821" lon="6.64848">
        <ele>2491</ele>
        <time>2012-04-08T09:46:07Z</time>
      </trkpt>
      <trkpt lat="45.32818" lon="6.6485">
        <ele>2492</ele>
        <time>2012-04-08T09:46:12Z</time>
      </trkpt>
      <trkpt lat="45.32814" lon="6.64852">
        <ele>2492</ele>
        <time>2012-04-08T09:46:17Z</time>
      </trkpt>
      <trkpt lat="45.32811" lon="6.64855">
        <ele>2492</ele>
        <time>2012-04-08T09:46:22Z</time>
      </trkpt>
      <trkpt lat="45.32808" lon="6.64859">
        <ele>2492</ele>
        <time>2012-04-08T09:46:27Z</time>
      </trkpt>
      <trkpt lat="45.32808" lon="6.64859">
        <ele>2492</ele>
        <time>2012-04-08T09:46:32Z</time>
      </trkpt>
      <trkpt lat="45.32806" lon="6.6486">
        <ele>2492</ele>
        <time>2012-04-08T09:46:37Z</time>
      </trkpt>
      <trkpt lat="45.32804" lon="6.64861">
        <ele>2493</ele>
        <time>2012-04-08T09:46:42Z</time>
      </trkpt>
      <trkpt lat="45.32802" lon="6.64863">
        <ele>2493</ele>
        <time>2012-04-08T09:46:47Z</time>
      </trkpt>
      <trkpt lat="45.32798" lon="6.64865">
        <ele>2493</ele>
        <time>2012-04-08T09:46:52Z</time>
      </trkpt>
      <trkpt lat="45.32794" lon="6.64868">
        <ele>2493</ele>
        <time>2012-04-08T09:46:57Z</time>
      </trkpt>
      <trkpt lat="45.3279" lon="6.64869">
        <ele>2493</ele>
        <time>2012-04-08T09:47:02Z</time>
      </trkpt>
      <trkpt lat="45.32787" lon="6.6487">
        <ele>2493</ele>
        <time>2012-04-08T09:47:07Z</time>
      </trkpt>
      <trkpt lat="45.32783" lon="6.6487">
        <ele>2494</ele>
        <time>2012-04-08T09:47:12Z</time>
      </trkpt>
      <trkpt lat="45.32779" lon="6.64871">
        <ele>2494</ele>
        <time>2012-04-08T09:47:17Z</time>
      </trkpt>
      <trkpt lat="45.32775" lon="6.64871">
        <ele>2494</ele>
        <time>2012-04-08T09:47:22Z</time>
      </trkpt>
      <trkpt lat="45.32771" lon="6.64871">
        <ele>2494</ele>
        <time>2012-04-08T09:47:27Z</time>
      </trkpt>
      <trkpt lat="45.32767" lon="6.64871">
        <ele>2494</ele>
        <time>2012-04-08T09:47:32Z</time>
      </trkpt>
      <trkpt lat="45.32764" lon="6.6487">
        <ele>2495</ele>
        <time>2012-04-08T09:47:37Z</time>
      </trkpt>
      <trkpt lat="45.3276" lon="6.64869">
        <ele>2495</ele>
        <time>2012-04-08T09:47:42Z</time>
      </trkpt>
      <trkpt lat="45.32757" lon="6.64868">
        <ele>2496</ele>
        <time>2012-04-08T09:47:47Z</time>
      </trkpt>
      <trkpt lat="45.32753" lon="6.64866">
        <ele>2496</ele>
        <time>2012-04-08T09:47:52Z</time>
      </trkpt>
      <trkpt lat="45.32751" lon="6.64864">
        <ele>2497</ele>
        <time>2012-04-08T09:47:57Z</time>
      </trkpt>
      <trkpt lat="45.32749" lon="6.64862">
        <ele>2497</ele>
        <time>2012-04-08T09:48:02Z</time>
      </trkpt>
      <trkpt lat="45.32747" lon="6.64861">
        <ele>2498</ele>
        <time>2012-04-08T09:48:07Z</time>
      </trkpt>
      <trkpt lat="45.32745" lon="6.6486">
        <ele>2498</ele>
        <time>2012-04-08T09:48:12Z</time>
      </trkpt>
      <trkpt lat="45.32742" lon="6.64859">
        <ele>2499</ele>
        <time>2012-04-08T09:48:17Z</time>
      </trkpt>
      <trkpt lat="45.32739" lon="6.64859">
        <ele>2499</ele>
        <time>2012-04-08T09:48:22Z</time>
      </trkpt>
      <trkpt lat="45.32736" lon="6.64858">
        <ele>2499</ele>
        <time>2012-04-08T09:48:27Z</time>
      </trkpt>
      <trkpt lat="45.32733" lon="6.64857">
        <ele>2500</ele>
        <time>2012-04-08T09:48:32Z</time>
      </trkpt>
      <trkpt lat="45.3273" lon="6.64857">
        <ele>2500</ele>
        <time>2012-04-08T09:48:37Z</time>
      </trkpt>
      <trkpt lat="45.32727" lon="6.64856">
        <ele>2500</ele>
        <time>2012-04-08T09:48:42Z</time>
      </trkpt>
      <trkpt lat="45.32725" lon="6.64856">
        <ele>2500</ele>
        <time>2012-04-08T09:48:47Z</time>
      </trkpt>
      <trkpt lat="45.32725" lon="6.64856">
        <ele>2500</ele>
        <time>2012-04-08T09:48:52Z</time>
      </trkpt>
      <trkpt lat="45.32725" lon="6.64856">
        <ele>2500</ele>
        <time>2012-04-08T09:48:57Z</time>
      </trkpt>
      <trkpt lat="45.32723" lon="6.64856">
        <ele>2500</ele>
        <time>2012-04-08T09:49:02Z</time>
      </trkpt>
      <trkpt lat="45.3272" lon="6.64855">
        <ele>2500</ele>
        <time>2012-04-08T09:49:07Z</time>
      </trkpt>
      <trkpt lat="45.32716" lon="6.64854">
        <ele>2501</ele>
        <time>2012-04-08T09:49:12Z</time>
      </trkpt>
      <trkpt lat="45.32713" lon="6.64853">
        <ele>2501</ele>
        <time>2012-04-08T09:49:17Z</time>
      </trkpt>
      <trkpt lat="45.3271" lon="6.64853">
        <ele>2501</ele>
        <time>2012-04-08T09:49:22Z</time>
      </trkpt>
      <trkpt lat="45.32706" lon="6.64852">
        <ele>2502</ele>
        <time>2012-04-08T09:49:27Z</time>
      </trkpt>
      <trkpt lat="45.32703" lon="6.64852">
        <ele>2502</ele>
        <time>2012-04-08T09:49:32Z</time>
      </trkpt>
      <trkpt lat="45.32699" lon="6.64851">
        <ele>2503</ele>
        <time>2012-04-08T09:49:37Z</time>
      </trkpt>
      <trkpt lat="45.32696" lon="6.64849">
        <ele>2503</ele>
        <time>2012-04-08T09:49:42Z</time>
      </trkpt>
      <trkpt lat="45.32693" lon="6.64848">
        <ele>2504</ele>
        <time>2012-04-08T09:49:47Z</time>
      </trkpt>
      <trkpt lat="45.3269" lon="6.64848">
        <ele>2504</ele>
        <time>2012-04-08T09:49:52Z</time>
      </trkpt>
      <trkpt lat="45.32687" lon="6.64848">
        <ele>2504</ele>
        <time>2012-04-08T09:49:57Z</time>
      </trkpt>
      <trkpt lat="45.32684" lon="6.64848">
        <ele>2505</ele>
        <time>2012-04-08T09:50:02Z</time>
      </trkpt>
      <trkpt lat="45.32681" lon="6.64848">
        <ele>2505</ele>
        <time>2012-04-08T09:50:07Z</time>
      </trkpt>
      <trkpt lat="45.32678" lon="6.64848">
        <ele>2506</ele>
        <time>2012-04-08T09:50:12Z</time>
      </trkpt>
      <trkpt lat="45.32675" lon="6.64849">
        <ele>2506</ele>
        <time>2012-04-08T09:50:17Z</time>
      </trkpt>
      <trkpt lat="45.32673" lon="6.64849">
        <ele>2507</ele>
        <time>2012-04-08T09:50:22Z</time>
      </trkpt>
      <trkpt lat="45.3267" lon="6.6485">
        <ele>2507</ele>
        <time>2012-04-08T09:50:27Z</time>
      </trkpt>
      <trkpt lat="45.32667" lon="6.64851">
        <ele>2508</ele>
        <time>2012-04-08T09:50:32Z</time>
      </trkpt>
      <trkpt lat="45.32665" lon="6.6485">
        <ele>2509</ele>
        <time>2012-04-08T09:50:37Z</time>
      </trkpt>
      <trkpt lat="45.32662" lon="6.6485">
        <ele>2510</ele>
        <time>2012-04-08T09:50:42Z</time>
      </trkpt>
      <trkpt lat="45.32659" lon="6.6485">
        <ele>2510</ele>
        <time>2012-04-08T09:50:47Z</time>
      </trkpt>
      <trkpt lat="45.32656" lon="6.6485">
        <ele>2510</ele>
        <time>2012-04-08T09:50:52Z</time>
      </trkpt>
      <trkpt lat="45.32652" lon="6.6485">
        <ele>2511</ele>
        <time>2012-04-08T09:50:57Z</time>
      </trkpt>
      <trkpt lat="45.32649" lon="6.64849">
        <ele>2511</ele>
        <time>2012-04-08T09:51:02Z</time>
      </trkpt>
      <trkpt lat="45.32649" lon="6.64849">
        <ele>2511</ele>
        <time>2012-04-08T09:51:07Z</time>
      </trkpt>
      <trkpt lat="45.32649" lon="6.64849">
        <ele>2511</ele>
        <time>2012-04-08T09:51:12Z</time>
      </trkpt>
      <trkpt lat="45.32649" lon="6.64849">
        <ele>2511</ele>
        <time>2012-04-08T09:51:17Z</time>
      </trkpt>
      <trkpt lat="45.32649" lon="6.64849">
        <ele>2511</ele>
        <time>2012-04-08T09:51:22Z</time>
      </trkpt>
      <trkpt lat="45.32649" lon="6.64849">
        <ele>2511</ele>
        <time>2012-04-08T09:51:27Z</time>
      </trkpt>
      <trkpt lat="45.32647" lon="6.64847">
        <ele>2511</ele>
        <time>2012-04-08T09:51:32Z</time>
      </trkpt>
      <trkpt lat="45.32643" lon="6.64846">
        <ele>2512</ele>
        <time>2012-04-08T09:51:37Z</time>
      </trkpt>
      <trkpt lat="45.3264" lon="6.64844">
        <ele>2512</ele>
        <time>2012-04-08T09:51:42Z</time>
      </trkpt>
      <trkpt lat="45.32637" lon="6.64843">
        <ele>2512</ele>
        <time>2012-04-08T09:51:47Z</time>
      </trkpt>
      <trkpt lat="45.32634" lon="6.64841">
        <ele>2513</ele>
        <time>2012-04-08T09:51:52Z</time>
      </trkpt>
      <trkpt lat="45.32631" lon="6.64839">
        <ele>2513</ele>
        <time>2012-04-08T09:51:57Z</time>
      </trkpt>
      <trkpt lat="45.3263" lon="6.64838">
        <ele>2513</ele>
        <time>2012-04-08T09:52:02Z</time>
      </trkpt>
      <trkpt lat="45.32628" lon="6.64836">
        <ele>2514</ele>
        <time>2012-04-08T09:52:07Z</time>
      </trkpt>
      <trkpt lat="45.32626" lon="6.64834">
        <ele>2514</ele>
        <time>2012-04-08T09:52:12Z</time>
      </trkpt>
      <trkpt lat="45.32624" lon="6.64832">
        <ele>2515</ele>
        <time>2012-04-08T09:52:17Z</time>
      </trkpt>
      <trkpt lat="45.32621" lon="6.6483">
        <ele>2515</ele>
        <time>2012-04-08T09:52:22Z</time>
      </trkpt>
      <trkpt lat="45.32618" lon="6.64828">
        <ele>2516</ele>
        <time>2012-04-08T09:52:27Z</time>
      </trkpt>
      <trkpt lat="45.32615" lon="6.64827">
        <ele>2516</ele>
        <time>2012-04-08T09:52:32Z</time>
      </trkpt>
      <trkpt lat="45.32612" lon="6.64825">
        <ele>2517</ele>
        <time>2012-04-08T09:52:37Z</time>
      </trkpt>
      <trkpt lat="45.32609" lon="6.64823">
        <ele>2517</ele>
        <time>2012-04-08T09:52:42Z</time>
      </trkpt>
      <trkpt lat="45.32606" lon="6.64822">
        <ele>2518</ele>
        <time>2012-04-08T09:52:47Z</time>
      </trkpt>
      <trkpt lat="45.32602" lon="6.64821">
        <ele>2518</ele>
        <time>2012-04-08T09:52:52Z</time>
      </trkpt>
      <trkpt lat="45.32599" lon="6.6482">
        <ele>2519</ele>
        <time>2012-04-08T09:52:57Z</time>
      </trkpt>
      <trkpt lat="45.32595" lon="6.64819">
        <ele>2519</ele>
        <time>2012-04-08T09:53:02Z</time>
      </trkpt>
      <trkpt lat="45.32592" lon="6.64817">
        <ele>2519</ele>
        <time>2012-04-08T09:53:07Z</time>
      </trkpt>
      <trkpt lat="45.32589" lon="6.64815">
        <ele>2520</ele>
        <time>2012-04-08T09:53:12Z</time>
      </trkpt>
      <trkpt lat="45.32586" lon="6.64813">
        <ele>2520</ele>
        <time>2012-04-08T09:53:17Z</time>
      </trkpt>
      <trkpt lat="45.32583" lon="6.64812">
        <ele>2520</ele>
        <time>2012-04-08T09:53:22Z</time>
      </trkpt>
      <trkpt lat="45.3258" lon="6.64811">
        <ele>2521</ele>
        <time>2012-04-08T09:53:27Z</time>
      </trkpt>
      <trkpt lat="45.32576" lon="6.6481">
        <ele>2521</ele>
        <time>2012-04-08T09:53:32Z</time>
      </trkpt>
      <trkpt lat="45.32573" lon="6.64808">
        <ele>2522</ele>
        <time>2012-04-08T09:53:37Z</time>
      </trkpt>
      <trkpt lat="45.3257" lon="6.64808">
        <ele>2522</ele>
        <time>2012-04-08T09:53:42Z</time>
      </trkpt>
      <trkpt lat="45.32567" lon="6.64807">
        <ele>2523</ele>
        <time>2012-04-08T09:53:47Z</time>
      </trkpt>
      <trkpt lat="45.32562" lon="6.64806">
        <ele>2523</ele>
        <time>2012-04-08T09:53:52Z</time>
      </trkpt>
      <trkpt lat="45.32561" lon="6.64806">
        <ele>2523</ele>
        <time>2012-04-08T09:53:57Z</time>
      </trkpt>
      <trkpt lat="45.32559" lon="6.64805">
        <ele>2523</ele>
        <time>2012-04-08T09:54:02Z</time>
      </trkpt>
      <trkpt lat="45.32556" lon="6.64804">
        <ele>2524</ele>
        <time>2012-04-08T09:54:07Z</time>
      </trkpt>
      <trkpt lat="45.32552" lon="6.64803">
        <ele>2524</ele>
        <time>2012-04-08T09:54:12Z</time>
      </trkpt>
      <trkpt lat="45.32549" lon="6.64803">
        <ele>2524</ele>
        <time>2012-04-08T09:54:17Z</time>
      </trkpt>
      <trkpt lat="45.32546" lon="6.64802">
        <ele>2525</ele>
        <time>2012-04-08T09:54:22Z</time>
      </trkpt>
      <trkpt lat="45.32544" lon="6.64801">
        <ele>2525</ele>
        <time>2012-04-08T09:54:27Z</time>
      </trkpt>
      <trkpt lat="45.32541" lon="6.648">
        <ele>2526</ele>
        <time>2012-04-08T09:54:32Z</time>
      </trkpt>
      <trkpt lat="45.32538" lon="6.64799">
        <ele>2526</ele>
        <time>2012-04-08T09:54:37Z</time>
      </trkpt>
      <trkpt lat="45.32536" lon="6.64798">
        <ele>2526</ele>
        <time>2012-04-08T09:54:42Z</time>
      </trkpt>
      <trkpt lat="45.32533" lon="6.64796">
        <ele>2527</ele>
        <time>2012-04-08T09:54:47Z</time>
      </trkpt>
      <trkpt lat="45.32531" lon="6.64795">
        <ele>2527</ele>
        <time>2012-04-08T09:54:52Z</time>
      </trkpt>
      <trkpt lat="45.3253" lon="6.64793">
        <ele>2528</ele>
        <time>2012-04-08T09:54:57Z</time>
      </trkpt>
      <trkpt lat="45.32527" lon="6.64791">
        <ele>2528</ele>
        <time>2012-04-08T09:55:02Z</time>
      </trkpt>
      <trkpt lat="45.32525" lon="6.6479">
        <ele>2528</ele>
        <time>2012-04-08T09:55:07Z</time>
      </trkpt>
      <trkpt lat="45.32526" lon="6.6479">
        <ele>2528</ele>
        <time>2012-04-08T09:55:12Z</time>
      </trkpt>
      <trkpt lat="45.32524" lon="6.64789">
        <ele>2528</ele>
        <time>2012-04-08T09:55:17Z</time>
      </trkpt>
      <trkpt lat="45.32523" lon="6.64787">
        <ele>2529</ele>
        <time>2012-04-08T09:55:22Z</time>
      </trkpt>
      <trkpt lat="45.3252" lon="6.64785">
        <ele>2530</ele>
        <time>2012-04-08T09:55:27Z</time>
      </trkpt>
      <trkpt lat="45.32518" lon="6.64784">
        <ele>2530</ele>
        <time>2012-04-08T09:55:32Z</time>
      </trkpt>
      <trkpt lat="45.32516" lon="6.64783">
        <ele>2531</ele>
        <time>2012-04-08T09:55:37Z</time>
      </trkpt>
      <trkpt lat="45.32514" lon="6.64781">
        <ele>2531</ele>
        <time>2012-04-08T09:55:42Z</time>
      </trkpt>
      <trkpt lat="45.3251" lon="6.6478">
        <ele>2532</ele>
        <time>2012-04-08T09:55:47Z</time>
      </trkpt>
      <trkpt lat="45.32508" lon="6.64779">
        <ele>2532</ele>
        <time>2012-04-08T09:55:52Z</time>
      </trkpt>
      <trkpt lat="45.32506" lon="6.64778">
        <ele>2533</ele>
        <time>2012-04-08T09:55:57Z</time>
      </trkpt>
      <trkpt lat="45.32504" lon="6.64776">
        <ele>2534</ele>
        <time>2012-04-08T09:56:02Z</time>
      </trkpt>
      <trkpt lat="45.32501" lon="6.64774">
        <ele>2534</ele>
        <time>2012-04-08T09:56:07Z</time>
      </trkpt>
      <trkpt lat="45.32498" lon="6.64772">
        <ele>2535</ele>
        <time>2012-04-08T09:56:12Z</time>
      </trkpt>
      <trkpt lat="45.32496" lon="6.6477">
        <ele>2535</ele>
        <time>2012-04-08T09:56:17Z</time>
      </trkpt>
      <trkpt lat="45.32494" lon="6.64767">
        <ele>2536</ele>
        <time>2012-04-08T09:56:22Z</time>
      </trkpt>
      <trkpt lat="45.32491" lon="6.64765">
        <ele>2537</ele>
        <time>2012-04-08T09:56:27Z</time>
      </trkpt>
      <trkpt lat="45.32489" lon="6.64763">
        <ele>2537</ele>
        <time>2012-04-08T09:56:32Z</time>
      </trkpt>
      <trkpt lat="45.32487" lon="6.64762">
        <ele>2538</ele>
        <time>2012-04-08T09:56:37Z</time>
      </trkpt>
      <trkpt lat="45.32485" lon="6.6476">
        <ele>2539</ele>
        <time>2012-04-08T09:56:42Z</time>
      </trkpt>
      <trkpt lat="45.32484" lon="6.6476">
        <ele>2539</ele>
        <time>2012-04-08T09:56:47Z</time>
      </trkpt>
      <trkpt lat="45.32484" lon="6.64759">
        <ele>2539</ele>
        <time>2012-04-08T09:56:52Z</time>
      </trkpt>
      <trkpt lat="45.32484" lon="6.64759">
        <ele>2539</ele>
        <time>2012-04-08T09:56:57Z</time>
      </trkpt>
      <trkpt lat="45.32484" lon="6.6476">
        <ele>2539</ele>
        <time>2012-04-08T09:57:02Z</time>
      </trkpt>
      <trkpt lat="45.32484" lon="6.6476">
        <ele>2539</ele>
        <time>2012-04-08T09:57:07Z</time>
      </trkpt>
      <trkpt lat="45.32484" lon="6.6476">
        <ele>2539</ele>
        <time>2012-04-08T09:57:12Z</time>
      </trkpt>
      <trkpt lat="45.32484" lon="6.6476">
        <ele>2539</ele>
        <time>2012-04-08T09:57:17Z</time>
      </trkpt>
      <trkpt lat="45.32484" lon="6.64759">
        <ele>2539</ele>
        <time>2012-04-08T09:57:22Z</time>
      </trkpt>
      <trkpt lat="45.32484" lon="6.6476">
        <ele>2539</ele>
        <time>2012-04-08T09:57:27Z</time>
      </trkpt>
      <trkpt lat="45.32485" lon="6.6476">
        <ele>2539</ele>
        <time>2012-04-08T09:57:32Z</time>
      </trkpt>
      <trkpt lat="45.32485" lon="6.64759">
        <ele>2539</ele>
        <time>2012-04-08T09:57:37Z</time>
      </trkpt>
      <trkpt lat="45.32485" lon="6.6476">
        <ele>2539</ele>
        <time>2012-04-08T09:57:42Z</time>
      </trkpt>
      <trkpt lat="45.32485" lon="6.6476">
        <ele>2539</ele>
        <time>2012-04-08T09:57:47Z</time>
      </trkpt>
      <trkpt lat="45.32485" lon="6.64759">
        <ele>2539</ele>
        <time>2012-04-08T09:57:52Z</time>
      </trkpt>
      <trkpt lat="45.32485" lon="6.64759">
        <ele>2539</ele>
        <time>2012-04-08T09:57:57Z</time>
      </trkpt>
      <trkpt lat="45.32485" lon="6.64759">
        <ele>2539</ele>
        <time>2012-04-08T09:58:02Z</time>
      </trkpt>
      <trkpt lat="45.32484" lon="6.64759">
        <ele>2539</ele>
        <time>2012-04-08T09:58:07Z</time>
      </trkpt>
      <trkpt lat="45.32485" lon="6.64759">
        <ele>2539</ele>
        <time>2012-04-08T09:58:12Z</time>
      </trkpt>
      <trkpt lat="45.32485" lon="6.64759">
        <ele>2539</ele>
        <time>2012-04-08T09:58:17Z</time>
      </trkpt>
      <trkpt lat="45.32485" lon="6.64759">
        <ele>2539</ele>
        <time>2012-04-08T09:58:22Z</time>
      </trkpt>
      <trkpt lat="45.32484" lon="6.64759">
        <ele>2538</ele>
        <time>2012-04-08T09:58:27Z</time>
      </trkpt>
      <trkpt lat="45.32484" lon="6.64759">
        <ele>2538</ele>
        <time>2012-04-08T09:58:32Z</time>
      </trkpt>
      <trkpt lat="45.32484" lon="6.64758">
        <ele>2537</ele>
        <time>2012-04-08T09:58:37Z</time>
      </trkpt>
      <trkpt lat="45.32484" lon="6.64759">
        <ele>2537</ele>
        <time>2012-04-08T09:58:42Z</time>
      </trkpt>
      <trkpt lat="45.32484" lon="6.64758">
        <ele>2537</ele>
        <time>2012-04-08T09:58:47Z</time>
      </trkpt>
      <trkpt lat="45.32484" lon="6.64758">
        <ele>2537</ele>
        <time>2012-04-08T09:58:52Z</time>
      </trkpt>
      <trkpt lat="45.32484" lon="6.64758">
        <ele>2537</ele>
        <time>2012-04-08T09:58:57Z</time>
      </trkpt>
      <trkpt lat="45.32484" lon="6.64758">
        <ele>2537</ele>
        <time>2012-04-08T09:59:02Z</time>
      </trkpt>
      <trkpt lat="45.32484" lon="6.64758">
        <ele>2537</ele>
        <time>2012-04-08T09:59:07Z</time>
      </trkpt>
      <trkpt lat="45.32484" lon="6.64758">
        <ele>2536</ele>
        <time>2012-04-08T09:59:12Z</time>
      </trkpt>
      <trkpt lat="45.32484" lon="6.64758">
        <ele>2536</ele>
        <time>2012-04-08T09:59:17Z</time>
      </trkpt>
      <trkpt lat="45.32484" lon="6.64758">
        <ele>2536</ele>
        <time>2012-04-08T09:59:22Z</time>
      </trkpt>
      <trkpt lat="45.32484" lon="6.64758">
        <ele>2536</ele>
        <time>2012-04-08T09:59:27Z</time>
      </trkpt>
      <trkpt lat="45.32484" lon="6.64758">
        <ele>2536</ele>
        <time>2012-04-08T09:59:32Z</time>
      </trkpt>
      <trkpt lat="45.32484" lon="6.64758">
        <ele>2536</ele>
        <time>2012-04-08T09:59:37Z</time>
      </trkpt>
      <trkpt lat="45.32484" lon="6.64758">
        <ele>2536</ele>
        <time>2012-04-08T09:59:42Z</time>
      </trkpt>
      <trkpt lat="45.32482" lon="6.64756">
        <ele>2537</ele>
        <time>2012-04-08T09:59:47Z</time>
      </trkpt>
      <trkpt lat="45.3248" lon="6.64752">
        <ele>2537</ele>
        <time>2012-04-08T09:59:52Z</time>
      </trkpt>
      <trkpt lat="45.32477" lon="6.64749">
        <ele>2538</ele>
        <time>2012-04-08T09:59:57Z</time>
      </trkpt>
      <trkpt lat="45.32474" lon="6.64746">
        <ele>2539</ele>
        <time>2012-04-08T10:00:02Z</time>
      </trkpt>
      <trkpt lat="45.32472" lon="6.64742">
        <ele>2539</ele>
        <time>2012-04-08T10:00:07Z</time>
      </trkpt>
      <trkpt lat="45.3247" lon="6.64739">
        <ele>2540</ele>
        <time>2012-04-08T10:00:12Z</time>
      </trkpt>
      <trkpt lat="45.32468" lon="6.64735">
        <ele>2541</ele>
        <time>2012-04-08T10:00:17Z</time>
      </trkpt>
      <trkpt lat="45.32466" lon="6.64731">
        <ele>2541</ele>
        <time>2012-04-08T10:00:22Z</time>
      </trkpt>
      <trkpt lat="45.32464" lon="6.64728">
        <ele>2542</ele>
        <time>2012-04-08T10:00:27Z</time>
      </trkpt>
      <trkpt lat="45.32462" lon="6.64725">
        <ele>2542</ele>
        <time>2012-04-08T10:00:32Z</time>
      </trkpt>
      <trkpt lat="45.3246" lon="6.64722">
        <ele>2543</ele>
        <time>2012-04-08T10:00:37Z</time>
      </trkpt>
      <trkpt lat="45.32457" lon="6.64719">
        <ele>2543</ele>
        <time>2012-04-08T10:00:42Z</time>
      </trkpt>
      <trkpt lat="45.32455" lon="6.64717">
        <ele>2544</ele>
        <time>2012-04-08T10:00:47Z</time>
      </trkpt>
      <trkpt lat="45.32453" lon="6.64715">
        <ele>2544</ele>
        <time>2012-04-08T10:00:52Z</time>
      </trkpt>
      <trkpt lat="45.32451" lon="6.64712">
        <ele>2545</ele>
        <time>2012-04-08T10:00:57Z</time>
      </trkpt>
      <trkpt lat="45.32448" lon="6.6471">
        <ele>2545</ele>
        <time>2012-04-08T10:01:02Z</time>
      </trkpt>
      <trkpt lat="45.32447" lon="6.64708">
        <ele>2546</ele>
        <time>2012-04-08T10:01:07Z</time>
      </trkpt>
      <trkpt lat="45.32445" lon="6.64705">
        <ele>2547</ele>
        <time>2012-04-08T10:01:12Z</time>
      </trkpt>
      <trkpt lat="45.32443" lon="6.64703">
        <ele>2547</ele>
        <time>2012-04-08T10:01:17Z</time>
      </trkpt>
      <trkpt lat="45.32441" lon="6.64701">
        <ele>2548</ele>
        <time>2012-04-08T10:01:22Z</time>
      </trkpt>
      <trkpt lat="45.32438" lon="6.64698">
        <ele>2549</ele>
        <time>2012-04-08T10:01:27Z</time>
      </trkpt>
      <trkpt lat="45.32435" lon="6.64696">
        <ele>2549</ele>
        <time>2012-04-08T10:01:32Z</time>
      </trkpt>
      <trkpt lat="45.32433" lon="6.64695">
        <ele>2549</ele>
        <time>2012-04-08T10:01:37Z</time>
      </trkpt>
      <trkpt lat="45.32431" lon="6.64694">
        <ele>2550</ele>
        <time>2012-04-08T10:01:42Z</time>
      </trkpt>
      <trkpt lat="45.32428" lon="6.64693">
        <ele>2551</ele>
        <time>2012-04-08T10:01:47Z</time>
      </trkpt>
      <trkpt lat="45.32426" lon="6.64692">
        <ele>2551</ele>
        <time>2012-04-08T10:01:52Z</time>
      </trkpt>
      <trkpt lat="45.32423" lon="6.6469">
        <ele>2552</ele>
        <time>2012-04-08T10:01:57Z</time>
      </trkpt>
      <trkpt lat="45.32422" lon="6.64688">
        <ele>2552</ele>
        <time>2012-04-08T10:02:02Z</time>
      </trkpt>
      <trkpt lat="45.3242" lon="6.64686">
        <ele>2553</ele>
        <time>2012-04-08T10:02:07Z</time>
      </trkpt>
      <trkpt lat="45.32419" lon="6.64683">
        <ele>2554</ele>
        <time>2012-04-08T10:02:12Z</time>
      </trkpt>
      <trkpt lat="45.32417" lon="6.64681">
        <ele>2555</ele>
        <time>2012-04-08T10:02:17Z</time>
      </trkpt>
      <trkpt lat="45.32414" lon="6.64681">
        <ele>2555</ele>
        <time>2012-04-08T10:02:22Z</time>
      </trkpt>
      <trkpt lat="45.32411" lon="6.64682">
        <ele>2555</ele>
        <time>2012-04-08T10:02:27Z</time>
      </trkpt>
      <trkpt lat="45.32409" lon="6.64681">
        <ele>2556</ele>
        <time>2012-04-08T10:02:32Z</time>
      </trkpt>
      <trkpt lat="45.32406" lon="6.64681">
        <ele>2556</ele>
        <time>2012-04-08T10:02:37Z</time>
      </trkpt>
      <trkpt lat="45.32403" lon="6.64679">
        <ele>2557</ele>
        <time>2012-04-08T10:02:42Z</time>
      </trkpt>
      <trkpt lat="45.324" lon="6.64677">
        <ele>2557</ele>
        <time>2012-04-08T10:02:47Z</time>
      </trkpt>
      <trkpt lat="45.32398" lon="6.64675">
        <ele>2558</ele>
        <time>2012-04-08T10:02:52Z</time>
      </trkpt>
      <trkpt lat="45.32396" lon="6.64674">
        <ele>2559</ele>
        <time>2012-04-08T10:02:57Z</time>
      </trkpt>
      <trkpt lat="45.32395" lon="6.64671">
        <ele>2560</ele>
        <time>2012-04-08T10:03:02Z</time>
      </trkpt>
      <trkpt lat="45.32395" lon="6.64667">
        <ele>2560</ele>
        <time>2012-04-08T10:03:07Z</time>
      </trkpt>
      <trkpt lat="45.32395" lon="6.64664">
        <ele>2561</ele>
        <time>2012-04-08T10:03:12Z</time>
      </trkpt>
      <trkpt lat="45.32395" lon="6.64661">
        <ele>2562</ele>
        <time>2012-04-08T10:03:17Z</time>
      </trkpt>
      <trkpt lat="45.32394" lon="6.64657">
        <ele>2562</ele>
        <time>2012-04-08T10:03:22Z</time>
      </trkpt>
      <trkpt lat="45.32394" lon="6.64654">
        <ele>2563</ele>
        <time>2012-04-08T10:03:27Z</time>
      </trkpt>
      <trkpt lat="45.32393" lon="6.64651">
        <ele>2564</ele>
        <time>2012-04-08T10:03:32Z</time>
      </trkpt>
      <trkpt lat="45.32393" lon="6.64648">
        <ele>2564</ele>
        <time>2012-04-08T10:03:37Z</time>
      </trkpt>
      <trkpt lat="45.32393" lon="6.64645">
        <ele>2565</ele>
        <time>2012-04-08T10:03:42Z</time>
      </trkpt>
      <trkpt lat="45.32393" lon="6.64643">
        <ele>2566</ele>
        <time>2012-04-08T10:03:47Z</time>
      </trkpt>
      <trkpt lat="45.3239" lon="6.64645">
        <ele>2566</ele>
        <time>2012-04-08T10:03:52Z</time>
      </trkpt>
      <trkpt lat="45.32386" lon="6.64646">
        <ele>2566</ele>
        <time>2012-04-08T10:03:57Z</time>
      </trkpt>
      <trkpt lat="45.32383" lon="6.64647">
        <ele>2567</ele>
        <time>2012-04-08T10:04:02Z</time>
      </trkpt>
      <trkpt lat="45.3238" lon="6.64648">
        <ele>2567</ele>
        <time>2012-04-08T10:04:07Z</time>
      </trkpt>
      <trkpt lat="45.32377" lon="6.64649">
        <ele>2568</ele>
        <time>2012-04-08T10:04:12Z</time>
      </trkpt>
      <trkpt lat="45.32374" lon="6.64649">
        <ele>2568</ele>
        <time>2012-04-08T10:04:17Z</time>
      </trkpt>
      <trkpt lat="45.32372" lon="6.6465">
        <ele>2569</ele>
        <time>2012-04-08T10:04:22Z</time>
      </trkpt>
      <trkpt lat="45.32369" lon="6.64651">
        <ele>2569</ele>
        <time>2012-04-08T10:04:27Z</time>
      </trkpt>
      <trkpt lat="45.32367" lon="6.64651">
        <ele>2570</ele>
        <time>2012-04-08T10:04:32Z</time>
      </trkpt>
      <trkpt lat="45.32364" lon="6.64652">
        <ele>2571</ele>
        <time>2012-04-08T10:04:37Z</time>
      </trkpt>
      <trkpt lat="45.32364" lon="6.64652">
        <ele>2571</ele>
        <time>2012-04-08T10:04:42Z</time>
      </trkpt>
      <trkpt lat="45.32364" lon="6.64652">
        <ele>2571</ele>
        <time>2012-04-08T10:04:47Z</time>
      </trkpt>
      <trkpt lat="45.32364" lon="6.64652">
        <ele>2571</ele>
        <time>2012-04-08T10:04:52Z</time>
      </trkpt>
      <trkpt lat="45.32364" lon="6.64652">
        <ele>2571</ele>
        <time>2012-04-08T10:04:57Z</time>
      </trkpt>
      <trkpt lat="45.32364" lon="6.64652">
        <ele>2571</ele>
        <time>2012-04-08T10:05:02Z</time>
      </trkpt>
      <trkpt lat="45.32362" lon="6.64653">
        <ele>2572</ele>
        <time>2012-04-08T10:05:07Z</time>
      </trkpt>
      <trkpt lat="45.32359" lon="6.64654">
        <ele>2572</ele>
        <time>2012-04-08T10:05:12Z</time>
      </trkpt>
      <trkpt lat="45.32357" lon="6.64655">
        <ele>2573</ele>
        <time>2012-04-08T10:05:17Z</time>
      </trkpt>
      <trkpt lat="45.32354" lon="6.64656">
        <ele>2574</ele>
        <time>2012-04-08T10:05:22Z</time>
      </trkpt>
      <trkpt lat="45.32351" lon="6.64657">
        <ele>2575</ele>
        <time>2012-04-08T10:05:27Z</time>
      </trkpt>
      <trkpt lat="45.32351" lon="6.64654">
        <ele>2576</ele>
        <time>2012-04-08T10:05:32Z</time>
      </trkpt>
      <trkpt lat="45.32351" lon="6.64649">
        <ele>2576</ele>
        <time>2012-04-08T10:05:37Z</time>
      </trkpt>
      <trkpt lat="45.3235" lon="6.64646">
        <ele>2578</ele>
        <time>2012-04-08T10:05:42Z</time>
      </trkpt>
      <trkpt lat="45.32349" lon="6.64642">
        <ele>2579</ele>
        <time>2012-04-08T10:05:47Z</time>
      </trkpt>
      <trkpt lat="45.32348" lon="6.64639">
        <ele>2579</ele>
        <time>2012-04-08T10:05:52Z</time>
      </trkpt>
      <trkpt lat="45.32347" lon="6.64637">
        <ele>2580</ele>
        <time>2012-04-08T10:05:57Z</time>
      </trkpt>
      <trkpt lat="45.32347" lon="6.64634">
        <ele>2581</ele>
        <time>2012-04-08T10:06:02Z</time>
      </trkpt>
      <trkpt lat="45.32345" lon="6.64634">
        <ele>2582</ele>
        <time>2012-04-08T10:06:07Z</time>
      </trkpt>
      <trkpt lat="45.32342" lon="6.64635">
        <ele>2583</ele>
        <time>2012-04-08T10:06:12Z</time>
      </trkpt>
      <trkpt lat="45.3234" lon="6.64635">
        <ele>2583</ele>
        <time>2012-04-08T10:06:17Z</time>
      </trkpt>
      <trkpt lat="45.32338" lon="6.64636">
        <ele>2584</ele>
        <time>2012-04-08T10:06:22Z</time>
      </trkpt>
      <trkpt lat="45.32336" lon="6.64635">
        <ele>2585</ele>
        <time>2012-04-08T10:06:27Z</time>
      </trkpt>
      <trkpt lat="45.32334" lon="6.64634">
        <ele>2585</ele>
        <time>2012-04-08T10:06:32Z</time>
      </trkpt>
      <trkpt lat="45.32332" lon="6.64633">
        <ele>2586</ele>
        <time>2012-04-08T10:06:37Z</time>
      </trkpt>
      <trkpt lat="45.32331" lon="6.64631">
        <ele>2587</ele>
        <time>2012-04-08T10:06:42Z</time>
      </trkpt>
      <trkpt lat="45.32329" lon="6.6463">
        <ele>2587</ele>
        <time>2012-04-08T10:06:47Z</time>
      </trkpt>
      <trkpt lat="45.32327" lon="6.64629">
        <ele>2588</ele>
        <time>2012-04-08T10:06:52Z</time>
      </trkpt>
      <trkpt lat="45.32325" lon="6.64628">
        <ele>2589</ele>
        <time>2012-04-08T10:06:57Z</time>
      </trkpt>
      <trkpt lat="45.32324" lon="6.64626">
        <ele>2589</ele>
        <time>2012-04-08T10:07:02Z</time>
      </trkpt>
      <trkpt lat="45.32322" lon="6.64624">
        <ele>2590</ele>
        <time>2012-04-08T10:07:07Z</time>
      </trkpt>
      <trkpt lat="45.3232" lon="6.64622">
        <ele>2590</ele>
        <time>2012-04-08T10:07:12Z</time>
      </trkpt>
      <trkpt lat="45.32318" lon="6.64621">
        <ele>2591</ele>
        <time>2012-04-08T10:07:17Z</time>
      </trkpt>
      <trkpt lat="45.32316" lon="6.64619">
        <ele>2592</ele>
        <time>2012-04-08T10:07:22Z</time>
      </trkpt>
      <trkpt lat="45.32314" lon="6.64617">
        <ele>2592</ele>
        <time>2012-04-08T10:07:27Z</time>
      </trkpt>
      <trkpt lat="45.32314" lon="6.64616">
        <ele>2592</ele>
        <time>2012-04-08T10:07:32Z</time>
      </trkpt>
      <trkpt lat="45.32314" lon="6.64616">
        <ele>2592</ele>
        <time>2012-04-08T10:07:37Z</time>
      </trkpt>
      <trkpt lat="45.32314" lon="6.64617">
        <ele>2592</ele>
        <time>2012-04-08T10:07:42Z</time>
      </trkpt>
      <trkpt lat="45.32314" lon="6.64617">
        <ele>2592</ele>
        <time>2012-04-08T10:07:47Z</time>
      </trkpt>
      <trkpt lat="45.32312" lon="6.64614">
        <ele>2593</ele>
        <time>2012-04-08T10:07:52Z</time>
      </trkpt>
      <trkpt lat="45.3231" lon="6.64612">
        <ele>2594</ele>
        <time>2012-04-08T10:07:57Z</time>
      </trkpt>
      <trkpt lat="45.32308" lon="6.64609">
        <ele>2594</ele>
        <time>2012-04-08T10:08:02Z</time>
      </trkpt>
      <trkpt lat="45.32306" lon="6.64606">
        <ele>2595</ele>
        <time>2012-04-08T10:08:07Z</time>
      </trkpt>
      <trkpt lat="45.32305" lon="6.64604">
        <ele>2595</ele>
        <time>2012-04-08T10:08:12Z</time>
      </trkpt>
      <trkpt lat="45.32303" lon="6.64601">
        <ele>2596</ele>
        <time>2012-04-08T10:08:17Z</time>
      </trkpt>
      <trkpt lat="45.323" lon="6.646">
        <ele>2596</ele>
        <time>2012-04-08T10:08:22Z</time>
      </trkpt>
      <trkpt lat="45.32297" lon="6.64599">
        <ele>2597</ele>
        <time>2012-04-08T10:08:27Z</time>
      </trkpt>
      <trkpt lat="45.32294" lon="6.64599">
        <ele>2597</ele>
        <time>2012-04-08T10:08:32Z</time>
      </trkpt>
      <trkpt lat="45.32291" lon="6.64598">
        <ele>2598</ele>
        <time>2012-04-08T10:08:37Z</time>
      </trkpt>
      <trkpt lat="45.32288" lon="6.64599">
        <ele>2598</ele>
        <time>2012-04-08T10:08:42Z</time>
      </trkpt>
      <trkpt lat="45.32284" lon="6.64599">
        <ele>2598</ele>
        <time>2012-04-08T10:08:47Z</time>
      </trkpt>
      <trkpt lat="45.32281" lon="6.64598">
        <ele>2598</ele>
        <time>2012-04-08T10:08:52Z</time>
      </trkpt>
      <trkpt lat="45.32278" lon="6.64599">
        <ele>2599</ele>
        <time>2012-04-08T10:08:57Z</time>
      </trkpt>
      <trkpt lat="45.32275" lon="6.64599">
        <ele>2600</ele>
        <time>2012-04-08T10:09:02Z</time>
      </trkpt>
      <trkpt lat="45.32274" lon="6.64599">
        <ele>2600</ele>
        <time>2012-04-08T10:09:07Z</time>
      </trkpt>
      <trkpt lat="45.32274" lon="6.64599">
        <ele>2600</ele>
        <time>2012-04-08T10:09:12Z</time>
      </trkpt>
      <trkpt lat="45.32272" lon="6.646">
        <ele>2600</ele>
        <time>2012-04-08T10:09:17Z</time>
      </trkpt>
      <trkpt lat="45.3227" lon="6.64602">
        <ele>2601</ele>
        <time>2012-04-08T10:09:22Z</time>
      </trkpt>
      <trkpt lat="45.32268" lon="6.64604">
        <ele>2602</ele>
        <time>2012-04-08T10:09:27Z</time>
      </trkpt>
      <trkpt lat="45.32266" lon="6.64605">
        <ele>2603</ele>
        <time>2012-04-08T10:09:32Z</time>
      </trkpt>
      <trkpt lat="45.32266" lon="6.64606">
        <ele>2604</ele>
        <time>2012-04-08T10:09:37Z</time>
      </trkpt>
      <trkpt lat="45.32266" lon="6.64606">
        <ele>2604</ele>
        <time>2012-04-08T10:09:42Z</time>
      </trkpt>
      <trkpt lat="45.32265" lon="6.64606">
        <ele>2604</ele>
        <time>2012-04-08T10:09:47Z</time>
      </trkpt>
      <trkpt lat="45.32264" lon="6.64607">
        <ele>2604</ele>
        <time>2012-04-08T10:09:52Z</time>
      </trkpt>
      <trkpt lat="45.32262" lon="6.64607">
        <ele>2605</ele>
        <time>2012-04-08T10:09:57Z</time>
      </trkpt>
      <trkpt lat="45.3226" lon="6.64606">
        <ele>2606</ele>
        <time>2012-04-08T10:10:02Z</time>
      </trkpt>
      <trkpt lat="45.32258" lon="6.64604">
        <ele>2606</ele>
        <time>2012-04-08T10:10:07Z</time>
      </trkpt>
      <trkpt lat="45.32257" lon="6.64602">
        <ele>2607</ele>
        <time>2012-04-08T10:10:12Z</time>
      </trkpt>
      <trkpt lat="45.32255" lon="6.64601">
        <ele>2607</ele>
        <time>2012-04-08T10:10:17Z</time>
      </trkpt>
      <trkpt lat="45.32253" lon="6.64603">
        <ele>2608</ele>
        <time>2012-04-08T10:10:22Z</time>
      </trkpt>
      <trkpt lat="45.32253" lon="6.64606">
        <ele>2608</ele>
        <time>2012-04-08T10:10:27Z</time>
      </trkpt>
      <trkpt lat="45.32252" lon="6.6461">
        <ele>2609</ele>
        <time>2012-04-08T10:10:32Z</time>
      </trkpt>
      <trkpt lat="45.32251" lon="6.64613">
        <ele>2609</ele>
        <time>2012-04-08T10:10:37Z</time>
      </trkpt>
      <trkpt lat="45.32251" lon="6.64615">
        <ele>2610</ele>
        <time>2012-04-08T10:10:42Z</time>
      </trkpt>
      <trkpt lat="45.32251" lon="6.64618">
        <ele>2610</ele>
        <time>2012-04-08T10:10:47Z</time>
      </trkpt>
      <trkpt lat="45.32251" lon="6.64621">
        <ele>2611</ele>
        <time>2012-04-08T10:10:52Z</time>
      </trkpt>
      <trkpt lat="45.32251" lon="6.64625">
        <ele>2611</ele>
        <time>2012-04-08T10:10:57Z</time>
      </trkpt>
      <trkpt lat="45.32251" lon="6.64627">
        <ele>2612</ele>
        <time>2012-04-08T10:11:02Z</time>
      </trkpt>
      <trkpt lat="45.32251" lon="6.6463">
        <ele>2612</ele>
        <time>2012-04-08T10:11:07Z</time>
      </trkpt>
      <trkpt lat="45.3225" lon="6.6463">
        <ele>2612</ele>
        <time>2012-04-08T10:11:12Z</time>
      </trkpt>
      <trkpt lat="45.3225" lon="6.6463">
        <ele>2612</ele>
        <time>2012-04-08T10:11:17Z</time>
      </trkpt>
      <trkpt lat="45.3225" lon="6.6463">
        <ele>2612</ele>
        <time>2012-04-08T10:11:22Z</time>
      </trkpt>
      <trkpt lat="45.32249" lon="6.64628">
        <ele>2612</ele>
        <time>2012-04-08T10:11:27Z</time>
      </trkpt>
      <trkpt lat="45.32246" lon="6.64625">
        <ele>2612</ele>
        <time>2012-04-08T10:11:32Z</time>
      </trkpt>
      <trkpt lat="45.32245" lon="6.64622">
        <ele>2613</ele>
        <time>2012-04-08T10:11:37Z</time>
      </trkpt>
      <trkpt lat="45.32243" lon="6.6462">
        <ele>2613</ele>
        <time>2012-04-08T10:11:42Z</time>
      </trkpt>
      <trkpt lat="45.32241" lon="6.64618">
        <ele>2614</ele>
        <time>2012-04-08T10:11:47Z</time>
      </trkpt>
      <trkpt lat="45.3224" lon="6.64617">
        <ele>2614</ele>
        <time>2012-04-08T10:11:52Z</time>
      </trkpt>
      <trkpt lat="45.3224" lon="6.64621">
        <ele>2615</ele>
        <time>2012-04-08T10:11:57Z</time>
      </trkpt>
      <trkpt lat="45.3224" lon="6.64625">
        <ele>2615</ele>
        <time>2012-04-08T10:12:02Z</time>
      </trkpt>
      <trkpt lat="45.3224" lon="6.64628">
        <ele>2616</ele>
        <time>2012-04-08T10:12:07Z</time>
      </trkpt>
      <trkpt lat="45.3224" lon="6.64632">
        <ele>2617</ele>
        <time>2012-04-08T10:12:12Z</time>
      </trkpt>
      <trkpt lat="45.3224" lon="6.64637">
        <ele>2618</ele>
        <time>2012-04-08T10:12:17Z</time>
      </trkpt>
      <trkpt lat="45.32238" lon="6.6464">
        <ele>2618</ele>
        <time>2012-04-08T10:12:22Z</time>
      </trkpt>
      <trkpt lat="45.32238" lon="6.6464">
        <ele>2618</ele>
        <time>2012-04-08T10:12:27Z</time>
      </trkpt>
      <trkpt lat="45.32238" lon="6.64641">
        <ele>2618</ele>
        <time>2012-04-08T10:12:32Z</time>
      </trkpt>
      <trkpt lat="45.32238" lon="6.64642">
        <ele>2615</ele>
        <time>2012-04-08T10:19:17Z</time>
      </trkpt>
      <trkpt lat="45.32238" lon="6.64642">
        <ele>2615</ele>
        <time>2012-04-08T10:19:22Z</time>
      </trkpt>
      <trkpt lat="45.32236" lon="6.64642">
        <ele>2615</ele>
        <time>2012-04-08T10:19:27Z</time>
      </trkpt>
      <trkpt lat="45.32232" lon="6.6464">
        <ele>2616</ele>
        <time>2012-04-08T10:19:32Z</time>
      </trkpt>
      <trkpt lat="45.32229" lon="6.64639">
        <ele>2617</ele>
        <time>2012-04-08T10:19:37Z</time>
      </trkpt>
      <trkpt lat="45.32225" lon="6.64639">
        <ele>2617</ele>
        <time>2012-04-08T10:19:42Z</time>
      </trkpt>
      <trkpt lat="45.32221" lon="6.64639">
        <ele>2618</ele>
        <time>2012-04-08T10:19:47Z</time>
      </trkpt>
      <trkpt lat="45.32217" lon="6.64638">
        <ele>2618</ele>
        <time>2012-04-08T10:19:52Z</time>
      </trkpt>
      <trkpt lat="45.32213" lon="6.6464">
        <ele>2619</ele>
        <time>2012-04-08T10:19:57Z</time>
      </trkpt>
      <trkpt lat="45.3221" lon="6.64641">
        <ele>2619</ele>
        <time>2012-04-08T10:20:02Z</time>
      </trkpt>
      <trkpt lat="45.32206" lon="6.64643">
        <ele>2620</ele>
        <time>2012-04-08T10:20:07Z</time>
      </trkpt>
      <trkpt lat="45.32203" lon="6.64644">
        <ele>2620</ele>
        <time>2012-04-08T10:20:12Z</time>
      </trkpt>
      <trkpt lat="45.322" lon="6.64645">
        <ele>2621</ele>
        <time>2012-04-08T10:20:17Z</time>
      </trkpt>
      <trkpt lat="45.32198" lon="6.64646">
        <ele>2622</ele>
        <time>2012-04-08T10:20:22Z</time>
      </trkpt>
      <trkpt lat="45.32196" lon="6.64646">
        <ele>2623</ele>
        <time>2012-04-08T10:20:27Z</time>
      </trkpt>
      <trkpt lat="45.32193" lon="6.64645">
        <ele>2623</ele>
        <time>2012-04-08T10:20:32Z</time>
      </trkpt>
      <trkpt lat="45.32191" lon="6.64644">
        <ele>2624</ele>
        <time>2012-04-08T10:20:37Z</time>
      </trkpt>
      <trkpt lat="45.32188" lon="6.64642">
        <ele>2625</ele>
        <time>2012-04-08T10:20:42Z</time>
      </trkpt>
      <trkpt lat="45.32185" lon="6.6464">
        <ele>2625</ele>
        <time>2012-04-08T10:20:47Z</time>
      </trkpt>
      <trkpt lat="45.32183" lon="6.64638">
        <ele>2626</ele>
        <time>2012-04-08T10:20:52Z</time>
      </trkpt>
      <trkpt lat="45.32181" lon="6.64637">
        <ele>2627</ele>
        <time>2012-04-08T10:20:57Z</time>
      </trkpt>
      <trkpt lat="45.32178" lon="6.64635">
        <ele>2627</ele>
        <time>2012-04-08T10:21:02Z</time>
      </trkpt>
      <trkpt lat="45.32176" lon="6.64634">
        <ele>2628</ele>
        <time>2012-04-08T10:21:07Z</time>
      </trkpt>
      <trkpt lat="45.32174" lon="6.64632">
        <ele>2628</ele>
        <time>2012-04-08T10:21:12Z</time>
      </trkpt>
      <trkpt lat="45.32171" lon="6.64631">
        <ele>2629</ele>
        <time>2012-04-08T10:21:17Z</time>
      </trkpt>
      <trkpt lat="45.32169" lon="6.6463">
        <ele>2630</ele>
        <time>2012-04-08T10:21:22Z</time>
      </trkpt>
      <trkpt lat="45.32168" lon="6.64628">
        <ele>2630</ele>
        <time>2012-04-08T10:21:27Z</time>
      </trkpt>
      <trkpt lat="45.32165" lon="6.64627">
        <ele>2631</ele>
        <time>2012-04-08T10:21:32Z</time>
      </trkpt>
      <trkpt lat="45.32163" lon="6.64626">
        <ele>2632</ele>
        <time>2012-04-08T10:21:37Z</time>
      </trkpt>
      <trkpt lat="45.32161" lon="6.64625">
        <ele>2632</ele>
        <time>2012-04-08T10:21:42Z</time>
      </trkpt>
      <trkpt lat="45.32158" lon="6.64625">
        <ele>2633</ele>
        <time>2012-04-08T10:21:47Z</time>
      </trkpt>
      <trkpt lat="45.32156" lon="6.64624">
        <ele>2633</ele>
        <time>2012-04-08T10:21:52Z</time>
      </trkpt>
      <trkpt lat="45.32154" lon="6.64623">
        <ele>2634</ele>
        <time>2012-04-08T10:21:57Z</time>
      </trkpt>
      <trkpt lat="45.32153" lon="6.64623">
        <ele>2634</ele>
        <time>2012-04-08T10:22:02Z</time>
      </trkpt>
      <trkpt lat="45.32153" lon="6.64625">
        <ele>2635</ele>
        <time>2012-04-08T10:22:07Z</time>
      </trkpt>
      <trkpt lat="45.32155" lon="6.64629">
        <ele>2635</ele>
        <time>2012-04-08T10:22:12Z</time>
      </trkpt>
      <trkpt lat="45.32155" lon="6.64632">
        <ele>2636</ele>
        <time>2012-04-08T10:22:17Z</time>
      </trkpt>
      <trkpt lat="45.32155" lon="6.64636">
        <ele>2636</ele>
        <time>2012-04-08T10:22:22Z</time>
      </trkpt>
      <trkpt lat="45.32155" lon="6.64639">
        <ele>2637</ele>
        <time>2012-04-08T10:22:27Z</time>
      </trkpt>
      <trkpt lat="45.32154" lon="6.64642">
        <ele>2638</ele>
        <time>2012-04-08T10:22:32Z</time>
      </trkpt>
      <trkpt lat="45.32154" lon="6.64646">
        <ele>2638</ele>
        <time>2012-04-08T10:22:37Z</time>
      </trkpt>
      <trkpt lat="45.32153" lon="6.64649">
        <ele>2639</ele>
        <time>2012-04-08T10:22:42Z</time>
      </trkpt>
      <trkpt lat="45.3215" lon="6.6465">
        <ele>2640</ele>
        <time>2012-04-08T10:22:47Z</time>
      </trkpt>
      <trkpt lat="45.32147" lon="6.6465">
        <ele>2641</ele>
        <time>2012-04-08T10:22:52Z</time>
      </trkpt>
      <trkpt lat="45.32144" lon="6.6465">
        <ele>2641</ele>
        <time>2012-04-08T10:22:57Z</time>
      </trkpt>
      <trkpt lat="45.32141" lon="6.64651">
        <ele>2642</ele>
        <time>2012-04-08T10:23:02Z</time>
      </trkpt>
      <trkpt lat="45.32137" lon="6.64651">
        <ele>2642</ele>
        <time>2012-04-08T10:23:07Z</time>
      </trkpt>
      <trkpt lat="45.32134" lon="6.64651">
        <ele>2643</ele>
        <time>2012-04-08T10:23:12Z</time>
      </trkpt>
      <trkpt lat="45.3213" lon="6.6465">
        <ele>2643</ele>
        <time>2012-04-08T10:23:17Z</time>
      </trkpt>
      <trkpt lat="45.32127" lon="6.64649">
        <ele>2643</ele>
        <time>2012-04-08T10:23:22Z</time>
      </trkpt>
      <trkpt lat="45.32123" lon="6.64648">
        <ele>2643</ele>
        <time>2012-04-08T10:23:27Z</time>
      </trkpt>
      <trkpt lat="45.3212" lon="6.64648">
        <ele>2644</ele>
        <time>2012-04-08T10:23:32Z</time>
      </trkpt>
      <trkpt lat="45.32116" lon="6.64647">
        <ele>2644</ele>
        <time>2012-04-08T10:23:37Z</time>
      </trkpt>
      <trkpt lat="45.32112" lon="6.64647">
        <ele>2644</ele>
        <time>2012-04-08T10:23:42Z</time>
      </trkpt>
      <trkpt lat="45.32109" lon="6.64647">
        <ele>2645</ele>
        <time>2012-04-08T10:23:47Z</time>
      </trkpt>
      <trkpt lat="45.32106" lon="6.64646">
        <ele>2645</ele>
        <time>2012-04-08T10:23:52Z</time>
      </trkpt>
      <trkpt lat="45.32103" lon="6.64646">
        <ele>2645</ele>
        <time>2012-04-08T10:23:57Z</time>
      </trkpt>
      <trkpt lat="45.32101" lon="6.64645">
        <ele>2646</ele>
        <time>2012-04-08T10:24:02Z</time>
      </trkpt>
      <trkpt lat="45.32099" lon="6.64645">
        <ele>2646</ele>
        <time>2012-04-08T10:24:07Z</time>
      </trkpt>
      <trkpt lat="45.32096" lon="6.64644">
        <ele>2647</ele>
        <time>2012-04-08T10:24:12Z</time>
      </trkpt>
      <trkpt lat="45.32094" lon="6.64642">
        <ele>2648</ele>
        <time>2012-04-08T10:24:17Z</time>
      </trkpt>
      <trkpt lat="45.32091" lon="6.64642">
        <ele>2648</ele>
        <time>2012-04-08T10:24:22Z</time>
      </trkpt>
      <trkpt lat="45.32089" lon="6.64641">
        <ele>2649</ele>
        <time>2012-04-08T10:24:27Z</time>
      </trkpt>
      <trkpt lat="45.32086" lon="6.6464">
        <ele>2650</ele>
        <time>2012-04-08T10:24:32Z</time>
      </trkpt>
      <trkpt lat="45.32084" lon="6.64639">
        <ele>2650</ele>
        <time>2012-04-08T10:24:37Z</time>
      </trkpt>
      <trkpt lat="45.32082" lon="6.64637">
        <ele>2651</ele>
        <time>2012-04-08T10:24:42Z</time>
      </trkpt>
      <trkpt lat="45.32079" lon="6.64636">
        <ele>2651</ele>
        <time>2012-04-08T10:24:47Z</time>
      </trkpt>
      <trkpt lat="45.32077" lon="6.64634">
        <ele>2652</ele>
        <time>2012-04-08T10:24:52Z</time>
      </trkpt>
      <trkpt lat="45.32075" lon="6.64633">
        <ele>2653</ele>
        <time>2012-04-08T10:24:57Z</time>
      </trkpt>
      <trkpt lat="45.32073" lon="6.64631">
        <ele>2653</ele>
        <time>2012-04-08T10:25:02Z</time>
      </trkpt>
      <trkpt lat="45.32071" lon="6.6463">
        <ele>2654</ele>
        <time>2012-04-08T10:25:07Z</time>
      </trkpt>
      <trkpt lat="45.32069" lon="6.64629">
        <ele>2655</ele>
        <time>2012-04-08T10:25:12Z</time>
      </trkpt>
      <trkpt lat="45.32067" lon="6.64628">
        <ele>2656</ele>
        <time>2012-04-08T10:25:17Z</time>
      </trkpt>
      <trkpt lat="45.32065" lon="6.64627">
        <ele>2656</ele>
        <time>2012-04-08T10:25:22Z</time>
      </trkpt>
      <trkpt lat="45.32063" lon="6.64628">
        <ele>2657</ele>
        <time>2012-04-08T10:25:27Z</time>
      </trkpt>
      <trkpt lat="45.3206" lon="6.64629">
        <ele>2658</ele>
        <time>2012-04-08T10:25:32Z</time>
      </trkpt>
      <trkpt lat="45.3206" lon="6.64629">
        <ele>2658</ele>
        <time>2012-04-08T10:25:37Z</time>
      </trkpt>
      <trkpt lat="45.32058" lon="6.6463">
        <ele>2658</ele>
        <time>2012-04-08T10:25:42Z</time>
      </trkpt>
      <trkpt lat="45.32055" lon="6.64632">
        <ele>2659</ele>
        <time>2012-04-08T10:25:47Z</time>
      </trkpt>
      <trkpt lat="45.32053" lon="6.64633">
        <ele>2659</ele>
        <time>2012-04-08T10:25:52Z</time>
      </trkpt>
      <trkpt lat="45.3205" lon="6.64635">
        <ele>2660</ele>
        <time>2012-04-08T10:25:57Z</time>
      </trkpt>
      <trkpt lat="45.32047" lon="6.64637">
        <ele>2660</ele>
        <time>2012-04-08T10:26:02Z</time>
      </trkpt>
      <trkpt lat="45.32045" lon="6.64639">
        <ele>2660</ele>
        <time>2012-04-08T10:26:07Z</time>
      </trkpt>
      <trkpt lat="45.32042" lon="6.6464">
        <ele>2661</ele>
        <time>2012-04-08T10:26:12Z</time>
      </trkpt>
      <trkpt lat="45.3204" lon="6.64642">
        <ele>2661</ele>
        <time>2012-04-08T10:26:17Z</time>
      </trkpt>
      <trkpt lat="45.32037" lon="6.64644">
        <ele>2662</ele>
        <time>2012-04-08T10:26:22Z</time>
      </trkpt>
      <trkpt lat="45.32035" lon="6.64646">
        <ele>2662</ele>
        <time>2012-04-08T10:26:27Z</time>
      </trkpt>
      <trkpt lat="45.32033" lon="6.64649">
        <ele>2663</ele>
        <time>2012-04-08T10:26:32Z</time>
      </trkpt>
      <trkpt lat="45.32031" lon="6.64651">
        <ele>2664</ele>
        <time>2012-04-08T10:26:37Z</time>
      </trkpt>
      <trkpt lat="45.32028" lon="6.64652">
        <ele>2664</ele>
        <time>2012-04-08T10:26:42Z</time>
      </trkpt>
      <trkpt lat="45.32026" lon="6.64652">
        <ele>2665</ele>
        <time>2012-04-08T10:26:47Z</time>
      </trkpt>
      <trkpt lat="45.32023" lon="6.64652">
        <ele>2665</ele>
        <time>2012-04-08T10:26:52Z</time>
      </trkpt>
      <trkpt lat="45.3202" lon="6.64653">
        <ele>2666</ele>
        <time>2012-04-08T10:26:57Z</time>
      </trkpt>
      <trkpt lat="45.32017" lon="6.64653">
        <ele>2666</ele>
        <time>2012-04-08T10:27:02Z</time>
      </trkpt>
      <trkpt lat="45.32015" lon="6.64653">
        <ele>2667</ele>
        <time>2012-04-08T10:27:07Z</time>
      </trkpt>
      <trkpt lat="45.32011" lon="6.64653">
        <ele>2667</ele>
        <time>2012-04-08T10:27:12Z</time>
      </trkpt>
      <trkpt lat="45.32009" lon="6.64654">
        <ele>2668</ele>
        <time>2012-04-08T10:27:17Z</time>
      </trkpt>
      <trkpt lat="45.32007" lon="6.64654">
        <ele>2668</ele>
        <time>2012-04-08T10:27:22Z</time>
      </trkpt>
      <trkpt lat="45.32004" lon="6.64655">
        <ele>2669</ele>
        <time>2012-04-08T10:27:27Z</time>
      </trkpt>
      <trkpt lat="45.32002" lon="6.64655">
        <ele>2669</ele>
        <time>2012-04-08T10:27:32Z</time>
      </trkpt>
      <trkpt lat="45.31999" lon="6.64657">
        <ele>2670</ele>
        <time>2012-04-08T10:27:37Z</time>
      </trkpt>
      <trkpt lat="45.31996" lon="6.64658">
        <ele>2670</ele>
        <time>2012-04-08T10:27:42Z</time>
      </trkpt>
      <trkpt lat="45.31994" lon="6.64659">
        <ele>2671</ele>
        <time>2012-04-08T10:27:47Z</time>
      </trkpt>
      <trkpt lat="45.31991" lon="6.6466">
        <ele>2671</ele>
        <time>2012-04-08T10:27:52Z</time>
      </trkpt>
      <trkpt lat="45.31988" lon="6.64661">
        <ele>2672</ele>
        <time>2012-04-08T10:27:57Z</time>
      </trkpt>
      <trkpt lat="45.31987" lon="6.64662">
        <ele>2672</ele>
        <time>2012-04-08T10:28:02Z</time>
      </trkpt>
      <trkpt lat="45.31984" lon="6.64663">
        <ele>2672</ele>
        <time>2012-04-08T10:28:07Z</time>
      </trkpt>
      <trkpt lat="45.31981" lon="6.64665">
        <ele>2672</ele>
        <time>2012-04-08T10:28:12Z</time>
      </trkpt>
      <trkpt lat="45.31978" lon="6.64666">
        <ele>2673</ele>
        <time>2012-04-08T10:28:17Z</time>
      </trkpt>
      <trkpt lat="45.31975" lon="6.64667">
        <ele>2673</ele>
        <time>2012-04-08T10:28:22Z</time>
      </trkpt>
      <trkpt lat="45.31972" lon="6.64668">
        <ele>2674</ele>
        <time>2012-04-08T10:28:27Z</time>
      </trkpt>
      <trkpt lat="45.3197" lon="6.64669">
        <ele>2674</ele>
        <time>2012-04-08T10:28:32Z</time>
      </trkpt>
      <trkpt lat="45.31967" lon="6.6467">
        <ele>2675</ele>
        <time>2012-04-08T10:28:37Z</time>
      </trkpt>
      <trkpt lat="45.31965" lon="6.64671">
        <ele>2675</ele>
        <time>2012-04-08T10:28:42Z</time>
      </trkpt>
      <trkpt lat="45.31962" lon="6.64672">
        <ele>2676</ele>
        <time>2012-04-08T10:28:47Z</time>
      </trkpt>
      <trkpt lat="45.3196" lon="6.64673">
        <ele>2676</ele>
        <time>2012-04-08T10:28:52Z</time>
      </trkpt>
      <trkpt lat="45.31958" lon="6.64675">
        <ele>2677</ele>
        <time>2012-04-08T10:28:57Z</time>
      </trkpt>
      <trkpt lat="45.31956" lon="6.64676">
        <ele>2677</ele>
        <time>2012-04-08T10:29:02Z</time>
      </trkpt>
      <trkpt lat="45.31953" lon="6.64677">
        <ele>2678</ele>
        <time>2012-04-08T10:29:07Z</time>
      </trkpt>
      <trkpt lat="45.31951" lon="6.64678">
        <ele>2679</ele>
        <time>2012-04-08T10:29:12Z</time>
      </trkpt>
      <trkpt lat="45.31949" lon="6.64678">
        <ele>2679</ele>
        <time>2012-04-08T10:29:17Z</time>
      </trkpt>
      <trkpt lat="45.31946" lon="6.64679">
        <ele>2680</ele>
        <time>2012-04-08T10:29:22Z</time>
      </trkpt>
      <trkpt lat="45.31944" lon="6.6468">
        <ele>2681</ele>
        <time>2012-04-08T10:29:27Z</time>
      </trkpt>
      <trkpt lat="45.31942" lon="6.6468">
        <ele>2681</ele>
        <time>2012-04-08T10:29:32Z</time>
      </trkpt>
      <trkpt lat="45.3194" lon="6.64681">
        <ele>2682</ele>
        <time>2012-04-08T10:29:37Z</time>
      </trkpt>
      <trkpt lat="45.31937" lon="6.64682">
        <ele>2683</ele>
        <time>2012-04-08T10:29:42Z</time>
      </trkpt>
      <trkpt lat="45.31935" lon="6.64683">
        <ele>2684</ele>
        <time>2012-04-08T10:29:47Z</time>
      </trkpt>
      <trkpt lat="45.31933" lon="6.64684">
        <ele>2684</ele>
        <time>2012-04-08T10:29:52Z</time>
      </trkpt>
      <trkpt lat="45.31931" lon="6.64684">
        <ele>2685</ele>
        <time>2012-04-08T10:29:57Z</time>
      </trkpt>
      <trkpt lat="45.31928" lon="6.64685">
        <ele>2686</ele>
        <time>2012-04-08T10:30:02Z</time>
      </trkpt>
      <trkpt lat="45.31926" lon="6.64686">
        <ele>2686</ele>
        <time>2012-04-08T10:30:07Z</time>
      </trkpt>
      <trkpt lat="45.31923" lon="6.64686">
        <ele>2687</ele>
        <time>2012-04-08T10:30:12Z</time>
      </trkpt>
      <trkpt lat="45.31921" lon="6.64687">
        <ele>2688</ele>
        <time>2012-04-08T10:30:17Z</time>
      </trkpt>
      <trkpt lat="45.31919" lon="6.64687">
        <ele>2688</ele>
        <time>2012-04-08T10:30:22Z</time>
      </trkpt>
      <trkpt lat="45.31916" lon="6.64688">
        <ele>2689</ele>
        <time>2012-04-08T10:30:27Z</time>
      </trkpt>
      <trkpt lat="45.31913" lon="6.64688">
        <ele>2690</ele>
        <time>2012-04-08T10:30:32Z</time>
      </trkpt>
      <trkpt lat="45.31912" lon="6.64689">
        <ele>2690</ele>
        <time>2012-04-08T10:30:37Z</time>
      </trkpt>
      <trkpt lat="45.31909" lon="6.6469">
        <ele>2690</ele>
        <time>2012-04-08T10:30:42Z</time>
      </trkpt>
      <trkpt lat="45.31907" lon="6.6469">
        <ele>2691</ele>
        <time>2012-04-08T10:30:47Z</time>
      </trkpt>
      <trkpt lat="45.31904" lon="6.64691">
        <ele>2691</ele>
        <time>2012-04-08T10:30:52Z</time>
      </trkpt>
      <trkpt lat="45.31901" lon="6.64691">
        <ele>2692</ele>
        <time>2012-04-08T10:30:57Z</time>
      </trkpt>
      <trkpt lat="45.31899" lon="6.64692">
        <ele>2692</ele>
        <time>2012-04-08T10:31:02Z</time>
      </trkpt>
      <trkpt lat="45.31897" lon="6.64692">
        <ele>2693</ele>
        <time>2012-04-08T10:31:07Z</time>
      </trkpt>
      <trkpt lat="45.31894" lon="6.64692">
        <ele>2693</ele>
        <time>2012-04-08T10:31:12Z</time>
      </trkpt>
      <trkpt lat="45.31892" lon="6.64693">
        <ele>2694</ele>
        <time>2012-04-08T10:31:17Z</time>
      </trkpt>
      <trkpt lat="45.3189" lon="6.64693">
        <ele>2694</ele>
        <time>2012-04-08T10:31:22Z</time>
      </trkpt>
      <trkpt lat="45.31888" lon="6.64694">
        <ele>2695</ele>
        <time>2012-04-08T10:31:27Z</time>
      </trkpt>
      <trkpt lat="45.31888" lon="6.64694">
        <ele>2695</ele>
        <time>2012-04-08T10:31:32Z</time>
      </trkpt>
      <trkpt lat="45.31888" lon="6.64694">
        <ele>2695</ele>
        <time>2012-04-08T10:31:37Z</time>
      </trkpt>
      <trkpt lat="45.31888" lon="6.64694">
        <ele>2695</ele>
        <time>2012-04-08T10:31:42Z</time>
      </trkpt>
      <trkpt lat="45.31888" lon="6.64694">
        <ele>2695</ele>
        <time>2012-04-08T10:31:47Z</time>
      </trkpt>
      <trkpt lat="45.31886" lon="6.64694">
        <ele>2695</ele>
        <time>2012-04-08T10:31:52Z</time>
      </trkpt>
      <trkpt lat="45.31883" lon="6.64696">
        <ele>2695</ele>
        <time>2012-04-08T10:31:57Z</time>
      </trkpt>
      <trkpt lat="45.31881" lon="6.64697">
        <ele>2696</ele>
        <time>2012-04-08T10:32:02Z</time>
      </trkpt>
      <trkpt lat="45.31878" lon="6.64698">
        <ele>2696</ele>
        <time>2012-04-08T10:32:07Z</time>
      </trkpt>
      <trkpt lat="45.31875" lon="6.64698">
        <ele>2697</ele>
        <time>2012-04-08T10:32:12Z</time>
      </trkpt>
      <trkpt lat="45.31873" lon="6.64698">
        <ele>2697</ele>
        <time>2012-04-08T10:32:17Z</time>
      </trkpt>
      <trkpt lat="45.3187" lon="6.64699">
        <ele>2698</ele>
        <time>2012-04-08T10:32:22Z</time>
      </trkpt>
      <trkpt lat="45.31868" lon="6.647">
        <ele>2698</ele>
        <time>2012-04-08T10:32:27Z</time>
      </trkpt>
      <trkpt lat="45.31865" lon="6.64701">
        <ele>2699</ele>
        <time>2012-04-08T10:32:32Z</time>
      </trkpt>
      <trkpt lat="45.31863" lon="6.64701">
        <ele>2699</ele>
        <time>2012-04-08T10:32:37Z</time>
      </trkpt>
      <trkpt lat="45.3186" lon="6.64702">
        <ele>2700</ele>
        <time>2012-04-08T10:32:42Z</time>
      </trkpt>
      <trkpt lat="45.31858" lon="6.64702">
        <ele>2700</ele>
        <time>2012-04-08T10:32:47Z</time>
      </trkpt>
      <trkpt lat="45.31855" lon="6.64703">
        <ele>2701</ele>
        <time>2012-04-08T10:32:52Z</time>
      </trkpt>
      <trkpt lat="45.31854" lon="6.64703">
        <ele>2702</ele>
        <time>2012-04-08T10:32:57Z</time>
      </trkpt>
      <trkpt lat="45.31851" lon="6.64704">
        <ele>2702</ele>
        <time>2012-04-08T10:33:02Z</time>
      </trkpt>
      <trkpt lat="45.31849" lon="6.64704">
        <ele>2703</ele>
        <time>2012-04-08T10:33:07Z</time>
      </trkpt>
      <trkpt lat="45.31847" lon="6.64706">
        <ele>2703</ele>
        <time>2012-04-08T10:33:12Z</time>
      </trkpt>
      <trkpt lat="45.31845" lon="6.64707">
        <ele>2704</ele>
        <time>2012-04-08T10:33:17Z</time>
      </trkpt>
      <trkpt lat="45.31842" lon="6.64707">
        <ele>2704</ele>
        <time>2012-04-08T10:33:22Z</time>
      </trkpt>
      <trkpt lat="45.3184" lon="6.64707">
        <ele>2705</ele>
        <time>2012-04-08T10:33:27Z</time>
      </trkpt>
      <trkpt lat="45.31838" lon="6.64707">
        <ele>2705</ele>
        <time>2012-04-08T10:33:32Z</time>
      </trkpt>
      <trkpt lat="45.31836" lon="6.64708">
        <ele>2706</ele>
        <time>2012-04-08T10:33:37Z</time>
      </trkpt>
      <trkpt lat="45.31833" lon="6.64709">
        <ele>2706</ele>
        <time>2012-04-08T10:33:42Z</time>
      </trkpt>
      <trkpt lat="45.31831" lon="6.6471">
        <ele>2707</ele>
        <time>2012-04-08T10:33:47Z</time>
      </trkpt>
      <trkpt lat="45.31828" lon="6.64711">
        <ele>2707</ele>
        <time>2012-04-08T10:33:52Z</time>
      </trkpt>
      <trkpt lat="45.31826" lon="6.64712">
        <ele>2707</ele>
        <time>2012-04-08T10:33:57Z</time>
      </trkpt>
      <trkpt lat="45.31823" lon="6.64714">
        <ele>2708</ele>
        <time>2012-04-08T10:34:02Z</time>
      </trkpt>
      <trkpt lat="45.31821" lon="6.64715">
        <ele>2709</ele>
        <time>2012-04-08T10:34:07Z</time>
      </trkpt>
      <trkpt lat="45.31818" lon="6.64716">
        <ele>2709</ele>
        <time>2012-04-08T10:34:12Z</time>
      </trkpt>
      <trkpt lat="45.31816" lon="6.64718">
        <ele>2710</ele>
        <time>2012-04-08T10:34:17Z</time>
      </trkpt>
      <trkpt lat="45.31814" lon="6.64719">
        <ele>2710</ele>
        <time>2012-04-08T10:34:22Z</time>
      </trkpt>
      <trkpt lat="45.31811" lon="6.6472">
        <ele>2711</ele>
        <time>2012-04-08T10:34:27Z</time>
      </trkpt>
      <trkpt lat="45.31809" lon="6.64721">
        <ele>2712</ele>
        <time>2012-04-08T10:34:32Z</time>
      </trkpt>
      <trkpt lat="45.31807" lon="6.64722">
        <ele>2712</ele>
        <time>2012-04-08T10:34:37Z</time>
      </trkpt>
      <trkpt lat="45.31806" lon="6.64723">
        <ele>2712</ele>
        <time>2012-04-08T10:34:42Z</time>
      </trkpt>
      <trkpt lat="45.31804" lon="6.64724">
        <ele>2712</ele>
        <time>2012-04-08T10:34:47Z</time>
      </trkpt>
      <trkpt lat="45.31802" lon="6.64725">
        <ele>2712</ele>
        <time>2012-04-08T10:34:52Z</time>
      </trkpt>
      <trkpt lat="45.31799" lon="6.64725">
        <ele>2713</ele>
        <time>2012-04-08T10:34:57Z</time>
      </trkpt>
      <trkpt lat="45.31796" lon="6.64726">
        <ele>2714</ele>
        <time>2012-04-08T10:35:02Z</time>
      </trkpt>
      <trkpt lat="45.31794" lon="6.64727">
        <ele>2714</ele>
        <time>2012-04-08T10:35:07Z</time>
      </trkpt>
      <trkpt lat="45.31792" lon="6.64728">
        <ele>2715</ele>
        <time>2012-04-08T10:35:12Z</time>
      </trkpt>
      <trkpt lat="45.31789" lon="6.64729">
        <ele>2715</ele>
        <time>2012-04-08T10:35:17Z</time>
      </trkpt>
      <trkpt lat="45.31787" lon="6.6473">
        <ele>2716</ele>
        <time>2012-04-08T10:35:22Z</time>
      </trkpt>
      <trkpt lat="45.31785" lon="6.64731">
        <ele>2717</ele>
        <time>2012-04-08T10:35:27Z</time>
      </trkpt>
      <trkpt lat="45.31785" lon="6.64729">
        <ele>2717</ele>
        <time>2012-04-08T10:35:32Z</time>
      </trkpt>
      <trkpt lat="45.31786" lon="6.64726">
        <ele>2718</ele>
        <time>2012-04-08T10:35:37Z</time>
      </trkpt>
      <trkpt lat="45.31786" lon="6.64723">
        <ele>2718</ele>
        <time>2012-04-08T10:35:42Z</time>
      </trkpt>
      <trkpt lat="45.31787" lon="6.6472">
        <ele>2719</ele>
        <time>2012-04-08T10:35:47Z</time>
      </trkpt>
      <trkpt lat="45.31788" lon="6.64717">
        <ele>2720</ele>
        <time>2012-04-08T10:35:52Z</time>
      </trkpt>
      <trkpt lat="45.31788" lon="6.64715">
        <ele>2721</ele>
        <time>2012-04-08T10:35:57Z</time>
      </trkpt>
      <trkpt lat="45.31789" lon="6.64712">
        <ele>2722</ele>
        <time>2012-04-08T10:36:02Z</time>
      </trkpt>
      <trkpt lat="45.31788" lon="6.64711">
        <ele>2722</ele>
        <time>2012-04-08T10:36:07Z</time>
      </trkpt>
      <trkpt lat="45.31786" lon="6.64712">
        <ele>2723</ele>
        <time>2012-04-08T10:36:12Z</time>
      </trkpt>
      <trkpt lat="45.31785" lon="6.64713">
        <ele>2723</ele>
        <time>2012-04-08T10:36:17Z</time>
      </trkpt>
      <trkpt lat="45.31783" lon="6.64713">
        <ele>2724</ele>
        <time>2012-04-08T10:36:22Z</time>
      </trkpt>
      <trkpt lat="45.3178" lon="6.64714">
        <ele>2724</ele>
        <time>2012-04-08T10:36:27Z</time>
      </trkpt>
      <trkpt lat="45.31779" lon="6.64714">
        <ele>2724</ele>
        <time>2012-04-08T10:36:32Z</time>
      </trkpt>
      <trkpt lat="45.31777" lon="6.64715">
        <ele>2724</ele>
        <time>2012-04-08T10:36:37Z</time>
      </trkpt>
      <trkpt lat="45.31775" lon="6.64717">
        <ele>2725</ele>
        <time>2012-04-08T10:36:42Z</time>
      </trkpt>
      <trkpt lat="45.31773" lon="6.64718">
        <ele>2725</ele>
        <time>2012-04-08T10:36:47Z</time>
      </trkpt>
      <trkpt lat="45.31771" lon="6.64719">
        <ele>2725</ele>
        <time>2012-04-08T10:36:52Z</time>
      </trkpt>
      <trkpt lat="45.31769" lon="6.6472">
        <ele>2726</ele>
        <time>2012-04-08T10:36:57Z</time>
      </trkpt>
      <trkpt lat="45.31767" lon="6.64721">
        <ele>2726</ele>
        <time>2012-04-08T10:37:02Z</time>
      </trkpt>
      <trkpt lat="45.31765" lon="6.64722">
        <ele>2726</ele>
        <time>2012-04-08T10:37:07Z</time>
      </trkpt>
      <trkpt lat="45.31764" lon="6.64724">
        <ele>2727</ele>
        <time>2012-04-08T10:37:12Z</time>
      </trkpt>
      <trkpt lat="45.31762" lon="6.64726">
        <ele>2728</ele>
        <time>2012-04-08T10:37:17Z</time>
      </trkpt>
      <trkpt lat="45.3176" lon="6.64728">
        <ele>2728</ele>
        <time>2012-04-08T10:37:22Z</time>
      </trkpt>
      <trkpt lat="45.31759" lon="6.6473">
        <ele>2729</ele>
        <time>2012-04-08T10:37:27Z</time>
      </trkpt>
      <trkpt lat="45.31757" lon="6.64732">
        <ele>2729</ele>
        <time>2012-04-08T10:37:32Z</time>
      </trkpt>
      <trkpt lat="45.31756" lon="6.64734">
        <ele>2730</ele>
        <time>2012-04-08T10:37:37Z</time>
      </trkpt>
      <trkpt lat="45.31754" lon="6.64736">
        <ele>2730</ele>
        <time>2012-04-08T10:37:42Z</time>
      </trkpt>
      <trkpt lat="45.31752" lon="6.64738">
        <ele>2731</ele>
        <time>2012-04-08T10:37:47Z</time>
      </trkpt>
      <trkpt lat="45.31751" lon="6.6474">
        <ele>2732</ele>
        <time>2012-04-08T10:37:52Z</time>
      </trkpt>
      <trkpt lat="45.31749" lon="6.64742">
        <ele>2732</ele>
        <time>2012-04-08T10:37:57Z</time>
      </trkpt>
      <trkpt lat="45.31748" lon="6.64744">
        <ele>2733</ele>
        <time>2012-04-08T10:38:02Z</time>
      </trkpt>
      <trkpt lat="45.31746" lon="6.64746">
        <ele>2733</ele>
        <time>2012-04-08T10:38:07Z</time>
      </trkpt>
      <trkpt lat="45.31744" lon="6.64748">
        <ele>2734</ele>
        <time>2012-04-08T10:38:12Z</time>
      </trkpt>
      <trkpt lat="45.31743" lon="6.6475">
        <ele>2734</ele>
        <time>2012-04-08T10:38:17Z</time>
      </trkpt>
      <trkpt lat="45.31741" lon="6.64752">
        <ele>2735</ele>
        <time>2012-04-08T10:38:22Z</time>
      </trkpt>
      <trkpt lat="45.3174" lon="6.64755">
        <ele>2735</ele>
        <time>2012-04-08T10:38:27Z</time>
      </trkpt>
      <trkpt lat="45.31738" lon="6.64758">
        <ele>2735</ele>
        <time>2012-04-08T10:38:32Z</time>
      </trkpt>
      <trkpt lat="45.31737" lon="6.6476">
        <ele>2736</ele>
        <time>2012-04-08T10:38:37Z</time>
      </trkpt>
      <trkpt lat="45.31737" lon="6.6476">
        <ele>2736</ele>
        <time>2012-04-08T10:38:42Z</time>
      </trkpt>
      <trkpt lat="45.31737" lon="6.6476">
        <ele>2736</ele>
        <time>2012-04-08T10:38:47Z</time>
      </trkpt>
      <trkpt lat="45.31737" lon="6.6476">
        <ele>2736</ele>
        <time>2012-04-08T10:38:52Z</time>
      </trkpt>
      <trkpt lat="45.31737" lon="6.6476">
        <ele>2736</ele>
        <time>2012-04-08T10:38:57Z</time>
      </trkpt>
      <trkpt lat="45.31737" lon="6.6476">
        <ele>2736</ele>
        <time>2012-04-08T10:39:02Z</time>
      </trkpt>
      <trkpt lat="45.31738" lon="6.6476">
        <ele>2736</ele>
        <time>2012-04-08T10:39:07Z</time>
      </trkpt>
      <trkpt lat="45.31738" lon="6.6476">
        <ele>2737</ele>
        <time>2012-04-08T10:39:12Z</time>
      </trkpt>
      <trkpt lat="45.31738" lon="6.6476">
        <ele>2737</ele>
        <time>2012-04-08T10:39:17Z</time>
      </trkpt>
      <trkpt lat="45.31736" lon="6.64762">
        <ele>2738</ele>
        <time>2012-04-08T10:39:22Z</time>
      </trkpt>
      <trkpt lat="45.31734" lon="6.64764">
        <ele>2739</ele>
        <time>2012-04-08T10:39:27Z</time>
      </trkpt>
      <trkpt lat="45.31732" lon="6.64765">
        <ele>2740</ele>
        <time>2012-04-08T10:39:32Z</time>
      </trkpt>
      <trkpt lat="45.31731" lon="6.64767">
        <ele>2741</ele>
        <time>2012-04-08T10:39:37Z</time>
      </trkpt>
      <trkpt lat="45.31729" lon="6.64769">
        <ele>2742</ele>
        <time>2012-04-08T10:39:42Z</time>
      </trkpt>
      <trkpt lat="45.31727" lon="6.64771">
        <ele>2742</ele>
        <time>2012-04-08T10:39:47Z</time>
      </trkpt>
      <trkpt lat="45.31725" lon="6.64773">
        <ele>2742</ele>
        <time>2012-04-08T10:39:52Z</time>
      </trkpt>
      <trkpt lat="45.31725" lon="6.64773">
        <ele>2742</ele>
        <time>2012-04-08T10:39:57Z</time>
      </trkpt>
      <trkpt lat="45.31726" lon="6.64773">
        <ele>2742</ele>
        <time>2012-04-08T10:40:02Z</time>
      </trkpt>
      <trkpt lat="45.31725" lon="6.64773">
        <ele>2742</ele>
        <time>2012-04-08T10:40:07Z</time>
      </trkpt>
      <trkpt lat="45.31724" lon="6.64775">
        <ele>2744</ele>
        <time>2012-04-08T10:40:12Z</time>
      </trkpt>
      <trkpt lat="45.31724" lon="6.64776">
        <ele>2745</ele>
        <time>2012-04-08T10:40:17Z</time>
      </trkpt>
      <trkpt lat="45.31726" lon="6.64772">
        <ele>2743</ele>
        <time>2012-04-08T10:44:22Z</time>
      </trkpt>
      <trkpt lat="45.31726" lon="6.64772">
        <ele>2743</ele>
        <time>2012-04-08T10:44:27Z</time>
      </trkpt>
      <trkpt lat="45.31723" lon="6.64773">
        <ele>2744</ele>
        <time>2012-04-08T10:44:32Z</time>
      </trkpt>
      <trkpt lat="45.31721" lon="6.64775">
        <ele>2744</ele>
        <time>2012-04-08T10:44:37Z</time>
      </trkpt>
      <trkpt lat="45.3172" lon="6.64775">
        <ele>2744</ele>
        <time>2012-04-08T10:44:42Z</time>
      </trkpt>
      <trkpt lat="45.31718" lon="6.64778">
        <ele>2744</ele>
        <time>2012-04-08T10:44:47Z</time>
      </trkpt>
      <trkpt lat="45.31715" lon="6.6478">
        <ele>2745</ele>
        <time>2012-04-08T10:44:52Z</time>
      </trkpt>
      <trkpt lat="45.31712" lon="6.64782">
        <ele>2746</ele>
        <time>2012-04-08T10:44:57Z</time>
      </trkpt>
      <trkpt lat="45.3171" lon="6.64784">
        <ele>2747</ele>
        <time>2012-04-08T10:45:02Z</time>
      </trkpt>
      <trkpt lat="45.31709" lon="6.64785">
        <ele>2747</ele>
        <time>2012-04-08T10:45:07Z</time>
      </trkpt>
      <trkpt lat="45.31708" lon="6.64784">
        <ele>2747</ele>
        <time>2012-04-08T10:45:12Z</time>
      </trkpt>
      <trkpt lat="45.31709" lon="6.6478">
        <ele>2748</ele>
        <time>2012-04-08T10:45:17Z</time>
      </trkpt>
      <trkpt lat="45.31709" lon="6.64777">
        <ele>2749</ele>
        <time>2012-04-08T10:45:22Z</time>
      </trkpt>
      <trkpt lat="45.31709" lon="6.64774">
        <ele>2749</ele>
        <time>2012-04-08T10:45:27Z</time>
      </trkpt>
      <trkpt lat="45.31709" lon="6.6477">
        <ele>2750</ele>
        <time>2012-04-08T10:45:32Z</time>
      </trkpt>
      <trkpt lat="45.31709" lon="6.64767">
        <ele>2751</ele>
        <time>2012-04-08T10:45:37Z</time>
      </trkpt>
      <trkpt lat="45.31709" lon="6.64764">
        <ele>2752</ele>
        <time>2012-04-08T10:45:42Z</time>
      </trkpt>
      <trkpt lat="45.31709" lon="6.64761">
        <ele>2752</ele>
        <time>2012-04-08T10:45:47Z</time>
      </trkpt>
      <trkpt lat="45.31709" lon="6.6476">
        <ele>2752</ele>
        <time>2012-04-08T10:45:52Z</time>
      </trkpt>
      <trkpt lat="45.31709" lon="6.64759">
        <ele>2752</ele>
        <time>2012-04-08T10:45:57Z</time>
      </trkpt>
      <trkpt lat="45.31709" lon="6.64757">
        <ele>2753</ele>
        <time>2012-04-08T10:46:02Z</time>
      </trkpt>
      <trkpt lat="45.31709" lon="6.64754">
        <ele>2753</ele>
        <time>2012-04-08T10:46:07Z</time>
      </trkpt>
      <trkpt lat="45.31709" lon="6.64754">
        <ele>2753</ele>
        <time>2012-04-08T10:46:12Z</time>
      </trkpt>
      <trkpt lat="45.31709" lon="6.64754">
        <ele>2753</ele>
        <time>2012-04-08T10:46:17Z</time>
      </trkpt>
      <trkpt lat="45.31709" lon="6.64754">
        <ele>2753</ele>
        <time>2012-04-08T10:46:22Z</time>
      </trkpt>
      <trkpt lat="45.31709" lon="6.64754">
        <ele>2753</ele>
        <time>2012-04-08T10:46:27Z</time>
      </trkpt>
      <trkpt lat="45.31709" lon="6.64754">
        <ele>2753</ele>
        <time>2012-04-08T10:46:32Z</time>
      </trkpt>
      <trkpt lat="45.31709" lon="6.64754">
        <ele>2753</ele>
        <time>2012-04-08T10:46:37Z</time>
      </trkpt>
      <trkpt lat="45.31709" lon="6.64754">
        <ele>2753</ele>
        <time>2012-04-08T10:46:42Z</time>
      </trkpt>
      <trkpt lat="45.31709" lon="6.64754">
        <ele>2753</ele>
        <time>2012-04-08T10:46:47Z</time>
      </trkpt>
      <trkpt lat="45.31709" lon="6.64754">
        <ele>2753</ele>
        <time>2012-04-08T10:46:52Z</time>
      </trkpt>
      <trkpt lat="45.31709" lon="6.64754">
        <ele>2753</ele>
        <time>2012-04-08T10:46:57Z</time>
      </trkpt>
      <trkpt lat="45.31709" lon="6.64754">
        <ele>2753</ele>
        <time>2012-04-08T10:47:02Z</time>
      </trkpt>
      <trkpt lat="45.31709" lon="6.64754">
        <ele>2753</ele>
        <time>2012-04-08T10:47:07Z</time>
      </trkpt>
      <trkpt lat="45.31709" lon="6.64754">
        <ele>2753</ele>
        <time>2012-04-08T10:47:12Z</time>
      </trkpt>
      <trkpt lat="45.31709" lon="6.64754">
        <ele>2753</ele>
        <time>2012-04-08T10:47:17Z</time>
      </trkpt>
      <trkpt lat="45.31709" lon="6.64754">
        <ele>2753</ele>
        <time>2012-04-08T10:47:22Z</time>
      </trkpt>
      <trkpt lat="45.31709" lon="6.64754">
        <ele>2753</ele>
        <time>2012-04-08T10:47:27Z</time>
      </trkpt>
      <trkpt lat="45.31709" lon="6.64754">
        <ele>2753</ele>
        <time>2012-04-08T10:47:32Z</time>
      </trkpt>
      <trkpt lat="45.31709" lon="6.64755">
        <ele>2753</ele>
        <time>2012-04-08T10:47:37Z</time>
      </trkpt>
      <trkpt lat="45.31709" lon="6.64755">
        <ele>2754</ele>
        <time>2012-04-08T10:47:42Z</time>
      </trkpt>
      <trkpt lat="45.31709" lon="6.64755">
        <ele>2754</ele>
        <time>2012-04-08T10:47:47Z</time>
      </trkpt>
      <trkpt lat="45.31709" lon="6.64754">
        <ele>2754</ele>
        <time>2012-04-08T10:47:52Z</time>
      </trkpt>
      <trkpt lat="45.31709" lon="6.6475">
        <ele>2754</ele>
        <time>2012-04-08T10:47:57Z</time>
      </trkpt>
      <trkpt lat="45.31709" lon="6.64746">
        <ele>2755</ele>
        <time>2012-04-08T10:48:02Z</time>
      </trkpt>
      <trkpt lat="45.31709" lon="6.64742">
        <ele>2756</ele>
        <time>2012-04-08T10:48:07Z</time>
      </trkpt>
      <trkpt lat="45.31709" lon="6.64739">
        <ele>2757</ele>
        <time>2012-04-08T10:48:12Z</time>
      </trkpt>
      <trkpt lat="45.31708" lon="6.64738">
        <ele>2758</ele>
        <time>2012-04-08T10:48:17Z</time>
      </trkpt>
      <trkpt lat="45.31706" lon="6.6474">
        <ele>2759</ele>
        <time>2012-04-08T10:48:22Z</time>
      </trkpt>
      <trkpt lat="45.31704" lon="6.64742">
        <ele>2759</ele>
        <time>2012-04-08T10:48:27Z</time>
      </trkpt>
      <trkpt lat="45.31702" lon="6.64744">
        <ele>2760</ele>
        <time>2012-04-08T10:48:32Z</time>
      </trkpt>
      <trkpt lat="45.31699" lon="6.64746">
        <ele>2760</ele>
        <time>2012-04-08T10:48:37Z</time>
      </trkpt>
      <trkpt lat="45.31697" lon="6.64747">
        <ele>2761</ele>
        <time>2012-04-08T10:48:42Z</time>
      </trkpt>
      <trkpt lat="45.31695" lon="6.64749">
        <ele>2762</ele>
        <time>2012-04-08T10:48:47Z</time>
      </trkpt>
      <trkpt lat="45.31693" lon="6.64751">
        <ele>2763</ele>
        <time>2012-04-08T10:48:52Z</time>
      </trkpt>
      <trkpt lat="45.31691" lon="6.64753">
        <ele>2763</ele>
        <time>2012-04-08T10:48:57Z</time>
      </trkpt>
      <trkpt lat="45.31689" lon="6.64755">
        <ele>2764</ele>
        <time>2012-04-08T10:49:02Z</time>
      </trkpt>
      <trkpt lat="45.31687" lon="6.64757">
        <ele>2765</ele>
        <time>2012-04-08T10:49:07Z</time>
      </trkpt>
      <trkpt lat="45.31685" lon="6.64758">
        <ele>2765</ele>
        <time>2012-04-08T10:49:12Z</time>
      </trkpt>
      <trkpt lat="45.31684" lon="6.6476">
        <ele>2766</ele>
        <time>2012-04-08T10:49:17Z</time>
      </trkpt>
      <trkpt lat="45.31682" lon="6.64762">
        <ele>2767</ele>
        <time>2012-04-08T10:49:22Z</time>
      </trkpt>
      <trkpt lat="45.3168" lon="6.64765">
        <ele>2768</ele>
        <time>2012-04-08T10:49:27Z</time>
      </trkpt>
      <trkpt lat="45.31678" lon="6.64767">
        <ele>2768</ele>
        <time>2012-04-08T10:49:32Z</time>
      </trkpt>
      <trkpt lat="45.31676" lon="6.6477">
        <ele>2769</ele>
        <time>2012-04-08T10:49:37Z</time>
      </trkpt>
      <trkpt lat="45.31675" lon="6.64773">
        <ele>2769</ele>
        <time>2012-04-08T10:49:42Z</time>
      </trkpt>
      <trkpt lat="45.31674" lon="6.64775">
        <ele>2770</ele>
        <time>2012-04-08T10:49:47Z</time>
      </trkpt>
      <trkpt lat="45.31672" lon="6.64778">
        <ele>2770</ele>
        <time>2012-04-08T10:49:52Z</time>
      </trkpt>
      <trkpt lat="45.31671" lon="6.64781">
        <ele>2771</ele>
        <time>2012-04-08T10:49:57Z</time>
      </trkpt>
      <trkpt lat="45.3167" lon="6.64783">
        <ele>2771</ele>
        <time>2012-04-08T10:50:02Z</time>
      </trkpt>
      <trkpt lat="45.31669" lon="6.64786">
        <ele>2772</ele>
        <time>2012-04-08T10:50:07Z</time>
      </trkpt>
      <trkpt lat="45.31667" lon="6.64789">
        <ele>2773</ele>
        <time>2012-04-08T10:50:12Z</time>
      </trkpt>
      <trkpt lat="45.31666" lon="6.64792">
        <ele>2773</ele>
        <time>2012-04-08T10:50:17Z</time>
      </trkpt>
      <trkpt lat="45.31665" lon="6.64795">
        <ele>2774</ele>
        <time>2012-04-08T10:50:22Z</time>
      </trkpt>
      <trkpt lat="45.31663" lon="6.64796">
        <ele>2775</ele>
        <time>2012-04-08T10:50:27Z</time>
      </trkpt>
      <trkpt lat="45.31662" lon="6.64794">
        <ele>2776</ele>
        <time>2012-04-08T10:50:32Z</time>
      </trkpt>
      <trkpt lat="45.3166" lon="6.64792">
        <ele>2777</ele>
        <time>2012-04-08T10:50:37Z</time>
      </trkpt>
      <trkpt lat="45.31659" lon="6.64789">
        <ele>2778</ele>
        <time>2012-04-08T10:50:42Z</time>
      </trkpt>
      <trkpt lat="45.31657" lon="6.64787">
        <ele>2778</ele>
        <time>2012-04-08T10:50:47Z</time>
      </trkpt>
      <trkpt lat="45.31656" lon="6.64785">
        <ele>2779</ele>
        <time>2012-04-08T10:50:52Z</time>
      </trkpt>
      <trkpt lat="45.31656" lon="6.64782">
        <ele>2780</ele>
        <time>2012-04-08T10:50:57Z</time>
      </trkpt>
      <trkpt lat="45.31654" lon="6.64779">
        <ele>2780</ele>
        <time>2012-04-08T10:51:02Z</time>
      </trkpt>
      <trkpt lat="45.31653" lon="6.64776">
        <ele>2781</ele>
        <time>2012-04-08T10:51:07Z</time>
      </trkpt>
      <trkpt lat="45.31652" lon="6.64773">
        <ele>2781</ele>
        <time>2012-04-08T10:51:12Z</time>
      </trkpt>
      <trkpt lat="45.31651" lon="6.64771">
        <ele>2782</ele>
        <time>2012-04-08T10:51:17Z</time>
      </trkpt>
      <trkpt lat="45.31649" lon="6.64768">
        <ele>2783</ele>
        <time>2012-04-08T10:51:22Z</time>
      </trkpt>
      <trkpt lat="45.31649" lon="6.64765">
        <ele>2783</ele>
        <time>2012-04-08T10:51:27Z</time>
      </trkpt>
      <trkpt lat="45.31648" lon="6.64762">
        <ele>2784</ele>
        <time>2012-04-08T10:51:32Z</time>
      </trkpt>
      <trkpt lat="45.31648" lon="6.64759">
        <ele>2784</ele>
        <time>2012-04-08T10:51:37Z</time>
      </trkpt>
      <trkpt lat="45.31646" lon="6.64757">
        <ele>2785</ele>
        <time>2012-04-08T10:51:42Z</time>
      </trkpt>
      <trkpt lat="45.31645" lon="6.64757">
        <ele>2786</ele>
        <time>2012-04-08T10:51:47Z</time>
      </trkpt>
      <trkpt lat="45.31643" lon="6.64759">
        <ele>2786</ele>
        <time>2012-04-08T10:51:52Z</time>
      </trkpt>
      <trkpt lat="45.31641" lon="6.6476">
        <ele>2786</ele>
        <time>2012-04-08T10:51:57Z</time>
      </trkpt>
      <trkpt lat="45.31639" lon="6.64762">
        <ele>2786</ele>
        <time>2012-04-08T10:52:02Z</time>
      </trkpt>
      <trkpt lat="45.31637" lon="6.64763">
        <ele>2787</ele>
        <time>2012-04-08T10:52:07Z</time>
      </trkpt>
      <trkpt lat="45.31634" lon="6.64766">
        <ele>2787</ele>
        <time>2012-04-08T10:52:12Z</time>
      </trkpt>
      <trkpt lat="45.31632" lon="6.64768">
        <ele>2788</ele>
        <time>2012-04-08T10:52:17Z</time>
      </trkpt>
      <trkpt lat="45.31632" lon="6.64769">
        <ele>2788</ele>
        <time>2012-04-08T10:52:22Z</time>
      </trkpt>
      <trkpt lat="45.31632" lon="6.64769">
        <ele>2788</ele>
        <time>2012-04-08T10:52:27Z</time>
      </trkpt>
      <trkpt lat="45.31632" lon="6.64769">
        <ele>2788</ele>
        <time>2012-04-08T10:52:32Z</time>
      </trkpt>
      <trkpt lat="45.3163" lon="6.6477">
        <ele>2788</ele>
        <time>2012-04-08T10:52:37Z</time>
      </trkpt>
      <trkpt lat="45.31629" lon="6.64772">
        <ele>2789</ele>
        <time>2012-04-08T10:52:42Z</time>
      </trkpt>
      <trkpt lat="45.31626" lon="6.64775">
        <ele>2789</ele>
        <time>2012-04-08T10:52:47Z</time>
      </trkpt>
      <trkpt lat="45.31624" lon="6.64776">
        <ele>2790</ele>
        <time>2012-04-08T10:52:52Z</time>
      </trkpt>
      <trkpt lat="45.31621" lon="6.64778">
        <ele>2791</ele>
        <time>2012-04-08T10:52:57Z</time>
      </trkpt>
      <trkpt lat="45.31618" lon="6.6478">
        <ele>2792</ele>
        <time>2012-04-08T10:53:02Z</time>
      </trkpt>
      <trkpt lat="45.31616" lon="6.64782">
        <ele>2792</ele>
        <time>2012-04-08T10:53:07Z</time>
      </trkpt>
      <trkpt lat="45.31613" lon="6.64783">
        <ele>2793</ele>
        <time>2012-04-08T10:53:12Z</time>
      </trkpt>
      <trkpt lat="45.3161" lon="6.64785">
        <ele>2793</ele>
        <time>2012-04-08T10:53:17Z</time>
      </trkpt>
      <trkpt lat="45.31607" lon="6.64786">
        <ele>2794</ele>
        <time>2012-04-08T10:53:22Z</time>
      </trkpt>
      <trkpt lat="45.31604" lon="6.64787">
        <ele>2794</ele>
        <time>2012-04-08T10:53:27Z</time>
      </trkpt>
      <trkpt lat="45.31601" lon="6.64789">
        <ele>2795</ele>
        <time>2012-04-08T10:53:32Z</time>
      </trkpt>
      <trkpt lat="45.31598" lon="6.6479">
        <ele>2796</ele>
        <time>2012-04-08T10:53:37Z</time>
      </trkpt>
      <trkpt lat="45.31595" lon="6.64791">
        <ele>2796</ele>
        <time>2012-04-08T10:53:42Z</time>
      </trkpt>
      <trkpt lat="45.31591" lon="6.64792">
        <ele>2797</ele>
        <time>2012-04-08T10:53:47Z</time>
      </trkpt>
      <trkpt lat="45.31589" lon="6.64793">
        <ele>2797</ele>
        <time>2012-04-08T10:53:52Z</time>
      </trkpt>
      <trkpt lat="45.31585" lon="6.64795">
        <ele>2797</ele>
        <time>2012-04-08T10:53:57Z</time>
      </trkpt>
      <trkpt lat="45.31583" lon="6.64797">
        <ele>2798</ele>
        <time>2012-04-08T10:54:02Z</time>
      </trkpt>
      <trkpt lat="45.31581" lon="6.64798">
        <ele>2798</ele>
        <time>2012-04-08T10:54:07Z</time>
      </trkpt>
      <trkpt lat="45.31581" lon="6.64798">
        <ele>2799</ele>
        <time>2012-04-08T10:54:12Z</time>
      </trkpt>
      <trkpt lat="45.31578" lon="6.648">
        <ele>2800</ele>
        <time>2012-04-08T10:54:17Z</time>
      </trkpt>
      <trkpt lat="45.31575" lon="6.64801">
        <ele>2801</ele>
        <time>2012-04-08T10:54:22Z</time>
      </trkpt>
      <trkpt lat="45.31572" lon="6.64802">
        <ele>2802</ele>
        <time>2012-04-08T10:54:27Z</time>
      </trkpt>
      <trkpt lat="45.3157" lon="6.64803">
        <ele>2803</ele>
        <time>2012-04-08T10:54:32Z</time>
      </trkpt>
      <trkpt lat="45.31569" lon="6.64802">
        <ele>2803</ele>
        <time>2012-04-08T10:54:37Z</time>
      </trkpt>
      <trkpt lat="45.31569" lon="6.64802">
        <ele>2804</ele>
        <time>2012-04-08T10:54:42Z</time>
      </trkpt>
      <trkpt lat="45.31566" lon="6.64803">
        <ele>2805</ele>
        <time>2012-04-08T10:54:47Z</time>
      </trkpt>
      <trkpt lat="45.31564" lon="6.64804">
        <ele>2806</ele>
        <time>2012-04-08T10:54:52Z</time>
      </trkpt>
      <trkpt lat="45.31561" lon="6.64803">
        <ele>2806</ele>
        <time>2012-04-08T10:54:57Z</time>
      </trkpt>
      <trkpt lat="45.31561" lon="6.64803">
        <ele>2806</ele>
        <time>2012-04-08T10:55:02Z</time>
      </trkpt>
      <trkpt lat="45.31561" lon="6.64803">
        <ele>2806</ele>
        <time>2012-04-08T10:55:07Z</time>
      </trkpt>
      <trkpt lat="45.31559" lon="6.64805">
        <ele>2806</ele>
        <time>2012-04-08T10:55:12Z</time>
      </trkpt>
      <trkpt lat="45.31556" lon="6.64805">
        <ele>2807</ele>
        <time>2012-04-08T10:55:17Z</time>
      </trkpt>
      <trkpt lat="45.31554" lon="6.64806">
        <ele>2807</ele>
        <time>2012-04-08T10:55:22Z</time>
      </trkpt>
      <trkpt lat="45.31552" lon="6.64807">
        <ele>2808</ele>
        <time>2012-04-08T10:55:27Z</time>
      </trkpt>
      <trkpt lat="45.31548" lon="6.64808">
        <ele>2809</ele>
        <time>2012-04-08T10:55:32Z</time>
      </trkpt>
      <trkpt lat="45.31546" lon="6.64809">
        <ele>2809</ele>
        <time>2012-04-08T10:55:37Z</time>
      </trkpt>
      <trkpt lat="45.31543" lon="6.64809">
        <ele>2810</ele>
        <time>2012-04-08T10:55:42Z</time>
      </trkpt>
      <trkpt lat="45.31542" lon="6.64809">
        <ele>2810</ele>
        <time>2012-04-08T10:55:47Z</time>
      </trkpt>
      <trkpt lat="45.31538" lon="6.6481">
        <ele>2811</ele>
        <time>2012-04-08T10:55:52Z</time>
      </trkpt>
      <trkpt lat="45.31535" lon="6.64811">
        <ele>2812</ele>
        <time>2012-04-08T10:55:57Z</time>
      </trkpt>
      <trkpt lat="45.31532" lon="6.64811">
        <ele>2813</ele>
        <time>2012-04-08T10:56:02Z</time>
      </trkpt>
      <trkpt lat="45.31529" lon="6.64812">
        <ele>2814</ele>
        <time>2012-04-08T10:56:07Z</time>
      </trkpt>
      <trkpt lat="45.31526" lon="6.64813">
        <ele>2814</ele>
        <time>2012-04-08T10:56:12Z</time>
      </trkpt>
      <trkpt lat="45.31523" lon="6.64813">
        <ele>2815</ele>
        <time>2012-04-08T10:56:17Z</time>
      </trkpt>
      <trkpt lat="45.3152" lon="6.64812">
        <ele>2816</ele>
        <time>2012-04-08T10:56:22Z</time>
      </trkpt>
      <trkpt lat="45.31516" lon="6.64812">
        <ele>2816</ele>
        <time>2012-04-08T10:56:27Z</time>
      </trkpt>
      <trkpt lat="45.31513" lon="6.64812">
        <ele>2816</ele>
        <time>2012-04-08T10:56:32Z</time>
      </trkpt>
      <trkpt lat="45.31509" lon="6.64813">
        <ele>2816</ele>
        <time>2012-04-08T10:56:37Z</time>
      </trkpt>
      <trkpt lat="45.31506" lon="6.64813">
        <ele>2816</ele>
        <time>2012-04-08T10:56:42Z</time>
      </trkpt>
      <trkpt lat="45.31503" lon="6.64812">
        <ele>2816</ele>
        <time>2012-04-08T10:56:47Z</time>
      </trkpt>
      <trkpt lat="45.31499" lon="6.64812">
        <ele>2817</ele>
        <time>2012-04-08T10:56:52Z</time>
      </trkpt>
      <trkpt lat="45.31495" lon="6.64811">
        <ele>2818</ele>
        <time>2012-04-08T10:56:57Z</time>
      </trkpt>
      <trkpt lat="45.31492" lon="6.64811">
        <ele>2819</ele>
        <time>2012-04-08T10:57:02Z</time>
      </trkpt>
      <trkpt lat="45.31489" lon="6.64812">
        <ele>2819</ele>
        <time>2012-04-08T10:57:07Z</time>
      </trkpt>
      <trkpt lat="45.31485" lon="6.64813">
        <ele>2819</ele>
        <time>2012-04-08T10:57:12Z</time>
      </trkpt>
      <trkpt lat="45.31482" lon="6.64814">
        <ele>2819</ele>
        <time>2012-04-08T10:57:17Z</time>
      </trkpt>
      <trkpt lat="45.3148" lon="6.64817">
        <ele>2819</ele>
        <time>2012-04-08T10:57:22Z</time>
      </trkpt>
      <trkpt lat="45.31479" lon="6.64818">
        <ele>2819</ele>
        <time>2012-04-08T10:57:27Z</time>
      </trkpt>
      <trkpt lat="45.31479" lon="6.64818">
        <ele>2819</ele>
        <time>2012-04-08T10:57:32Z</time>
      </trkpt>
      <trkpt lat="45.31479" lon="6.64818">
        <ele>2819</ele>
        <time>2012-04-08T10:57:37Z</time>
      </trkpt>
      <trkpt lat="45.31479" lon="6.64818">
        <ele>2819</ele>
        <time>2012-04-08T10:57:42Z</time>
      </trkpt>
      <trkpt lat="45.31479" lon="6.64818">
        <ele>2819</ele>
        <time>2012-04-08T10:57:47Z</time>
      </trkpt>
      <trkpt lat="45.31479" lon="6.64818">
        <ele>2819</ele>
        <time>2012-04-08T10:57:52Z</time>
      </trkpt>
      <trkpt lat="45.31479" lon="6.64818">
        <ele>2819</ele>
        <time>2012-04-08T10:57:57Z</time>
      </trkpt>
      <trkpt lat="45.31479" lon="6.64818">
        <ele>2819</ele>
        <time>2012-04-08T10:58:02Z</time>
      </trkpt>
      <trkpt lat="45.31479" lon="6.64818">
        <ele>2819</ele>
        <time>2012-04-08T10:58:07Z</time>
      </trkpt>
      <trkpt lat="45.31479" lon="6.64818">
        <ele>2820</ele>
        <time>2012-04-08T10:58:12Z</time>
      </trkpt>
      <trkpt lat="45.3148" lon="6.64818">
        <ele>2820</ele>
        <time>2012-04-08T10:58:17Z</time>
      </trkpt>
      <trkpt lat="45.3148" lon="6.64818">
        <ele>2820</ele>
        <time>2012-04-08T10:58:22Z</time>
      </trkpt>
      <trkpt lat="45.3148" lon="6.64818">
        <ele>2820</ele>
        <time>2012-04-08T10:58:27Z</time>
      </trkpt>
      <trkpt lat="45.31477" lon="6.6482">
        <ele>2820</ele>
        <time>2012-04-08T10:58:32Z</time>
      </trkpt>
      <trkpt lat="45.31474" lon="6.64821">
        <ele>2821</ele>
        <time>2012-04-08T10:58:37Z</time>
      </trkpt>
      <trkpt lat="45.31471" lon="6.64824">
        <ele>2821</ele>
        <time>2012-04-08T10:58:42Z</time>
      </trkpt>
      <trkpt lat="45.3147" lon="6.64825">
        <ele>2821</ele>
        <time>2012-04-08T10:58:47Z</time>
      </trkpt>
      <trkpt lat="45.31469" lon="6.64826">
        <ele>2821</ele>
        <time>2012-04-08T10:58:52Z</time>
      </trkpt>
      <trkpt lat="45.31469" lon="6.64826">
        <ele>2821</ele>
        <time>2012-04-08T10:58:57Z</time>
      </trkpt>
      <trkpt lat="45.31469" lon="6.64826">
        <ele>2821</ele>
        <time>2012-04-08T10:59:02Z</time>
      </trkpt>
      <trkpt lat="45.31469" lon="6.64826">
        <ele>2821</ele>
        <time>2012-04-08T10:59:07Z</time>
      </trkpt>
      <trkpt lat="45.31469" lon="6.64826">
        <ele>2821</ele>
        <time>2012-04-08T10:59:12Z</time>
      </trkpt>
      <trkpt lat="45.31469" lon="6.64826">
        <ele>2821</ele>
        <time>2012-04-08T10:59:17Z</time>
      </trkpt>
      <trkpt lat="45.31469" lon="6.64826">
        <ele>2821</ele>
        <time>2012-04-08T10:59:22Z</time>
      </trkpt>
      <trkpt lat="45.31469" lon="6.64826">
        <ele>2820</ele>
        <time>2012-04-08T10:59:27Z</time>
      </trkpt>
      <trkpt lat="45.31469" lon="6.64827">
        <ele>2820</ele>
        <time>2012-04-08T10:59:32Z</time>
      </trkpt>
      <trkpt lat="45.31469" lon="6.64826">
        <ele>2820</ele>
        <time>2012-04-08T10:59:37Z</time>
      </trkpt>
      <trkpt lat="45.31469" lon="6.64826">
        <ele>2820</ele>
        <time>2012-04-08T10:59:42Z</time>
      </trkpt>
      <trkpt lat="45.31469" lon="6.64826">
        <ele>2820</ele>
        <time>2012-04-08T10:59:47Z</time>
      </trkpt>
      <trkpt lat="45.31469" lon="6.64826">
        <ele>2820</ele>
        <time>2012-04-08T10:59:52Z</time>
      </trkpt>
      <trkpt lat="45.31469" lon="6.64826">
        <ele>2820</ele>
        <time>2012-04-08T10:59:57Z</time>
      </trkpt>
      <trkpt lat="45.31469" lon="6.64826">
        <ele>2820</ele>
        <time>2012-04-08T11:00:02Z</time>
      </trkpt>
      <trkpt lat="45.31469" lon="6.64826">
        <ele>2820</ele>
        <time>2012-04-08T11:00:07Z</time>
      </trkpt>
      <trkpt lat="45.31469" lon="6.64826">
        <ele>2820</ele>
        <time>2012-04-08T11:00:12Z</time>
      </trkpt>
      <trkpt lat="45.31469" lon="6.64826">
        <ele>2820</ele>
        <time>2012-04-08T11:00:17Z</time>
      </trkpt>
      <trkpt lat="45.31469" lon="6.64826">
        <ele>2820</ele>
        <time>2012-04-08T11:00:22Z</time>
      </trkpt>
      <trkpt lat="45.31469" lon="6.64826">
        <ele>2820</ele>
        <time>2012-04-08T11:00:27Z</time>
      </trkpt>
      <trkpt lat="45.31469" lon="6.64826">
        <ele>2820</ele>
        <time>2012-04-08T11:00:32Z</time>
      </trkpt>
      <trkpt lat="45.31469" lon="6.64826">
        <ele>2820</ele>
        <time>2012-04-08T11:00:37Z</time>
      </trkpt>
      <trkpt lat="45.31469" lon="6.64826">
        <ele>2820</ele>
        <time>2012-04-08T11:00:42Z</time>
      </trkpt>
      <trkpt lat="45.31469" lon="6.64826">
        <ele>2820</ele>
        <time>2012-04-08T11:00:47Z</time>
      </trkpt>
      <trkpt lat="45.31469" lon="6.64826">
        <ele>2820</ele>
        <time>2012-04-08T11:00:52Z</time>
      </trkpt>
      <trkpt lat="45.31469" lon="6.64826">
        <ele>2820</ele>
        <time>2012-04-08T11:00:57Z</time>
      </trkpt>
      <trkpt lat="45.31469" lon="6.64826">
        <ele>2820</ele>
        <time>2012-04-08T11:01:02Z</time>
      </trkpt>
      <trkpt lat="45.31469" lon="6.64826">
        <ele>2820</ele>
        <time>2012-04-08T11:01:07Z</time>
      </trkpt>
      <trkpt lat="45.31469" lon="6.64826">
        <ele>2820</ele>
        <time>2012-04-08T11:01:12Z</time>
      </trkpt>
      <trkpt lat="45.31469" lon="6.64825">
        <ele>2820</ele>
        <time>2012-04-08T11:01:17Z</time>
      </trkpt>
      <trkpt lat="45.31469" lon="6.64825">
        <ele>2820</ele>
        <time>2012-04-08T11:01:22Z</time>
      </trkpt>
      <trkpt lat="45.31469" lon="6.64825">
        <ele>2821</ele>
        <time>2012-04-08T11:01:27Z</time>
      </trkpt>
      <trkpt lat="45.31469" lon="6.64825">
        <ele>2821</ele>
        <time>2012-04-08T11:01:32Z</time>
      </trkpt>
      <trkpt lat="45.31467" lon="6.64827">
        <ele>2822</ele>
        <time>2012-04-08T11:01:37Z</time>
      </trkpt>
      <trkpt lat="45.31463" lon="6.6483">
        <ele>2823</ele>
        <time>2012-04-08T11:01:42Z</time>
      </trkpt>
      <trkpt lat="45.3146" lon="6.64832">
        <ele>2823</ele>
        <time>2012-04-08T11:01:47Z</time>
      </trkpt>
      <trkpt lat="45.31457" lon="6.64834">
        <ele>2824</ele>
        <time>2012-04-08T11:01:52Z</time>
      </trkpt>
      <trkpt lat="45.31454" lon="6.64836">
        <ele>2824</ele>
        <time>2012-04-08T11:01:57Z</time>
      </trkpt>
      <trkpt lat="45.3145" lon="6.64838">
        <ele>2825</ele>
        <time>2012-04-08T11:02:02Z</time>
      </trkpt>
      <trkpt lat="45.31447" lon="6.6484">
        <ele>2825</ele>
        <time>2012-04-08T11:02:07Z</time>
      </trkpt>
      <trkpt lat="45.31444" lon="6.64843">
        <ele>2826</ele>
        <time>2012-04-08T11:02:12Z</time>
      </trkpt>
      <trkpt lat="45.31441" lon="6.64846">
        <ele>2826</ele>
        <time>2012-04-08T11:02:17Z</time>
      </trkpt>
      <trkpt lat="45.31437" lon="6.64848">
        <ele>2826</ele>
        <time>2012-04-08T11:02:22Z</time>
      </trkpt>
      <trkpt lat="45.31433" lon="6.6485">
        <ele>2826</ele>
        <time>2012-04-08T11:02:27Z</time>
      </trkpt>
      <trkpt lat="45.31429" lon="6.64852">
        <ele>2826</ele>
        <time>2012-04-08T11:02:32Z</time>
      </trkpt>
      <trkpt lat="45.31425" lon="6.64856">
        <ele>2826</ele>
        <time>2012-04-08T11:02:37Z</time>
      </trkpt>
      <trkpt lat="45.31421" lon="6.6486">
        <ele>2826</ele>
        <time>2012-04-08T11:02:42Z</time>
      </trkpt>
      <trkpt lat="45.31418" lon="6.64865">
        <ele>2826</ele>
        <time>2012-04-08T11:02:47Z</time>
      </trkpt>
      <trkpt lat="45.31415" lon="6.64867">
        <ele>2826</ele>
        <time>2012-04-08T11:02:52Z</time>
      </trkpt>
      <trkpt lat="45.31411" lon="6.64869">
        <ele>2826</ele>
        <time>2012-04-08T11:02:57Z</time>
      </trkpt>
      <trkpt lat="45.31407" lon="6.6487">
        <ele>2826</ele>
        <time>2012-04-08T11:03:02Z</time>
      </trkpt>
      <trkpt lat="45.31403" lon="6.64872">
        <ele>2826</ele>
        <time>2012-04-08T11:03:07Z</time>
      </trkpt>
      <trkpt lat="45.31399" lon="6.64873">
        <ele>2826</ele>
        <time>2012-04-08T11:03:12Z</time>
      </trkpt>
      <trkpt lat="45.31395" lon="6.64875">
        <ele>2826</ele>
        <time>2012-04-08T11:03:17Z</time>
      </trkpt>
      <trkpt lat="45.31392" lon="6.64877">
        <ele>2826</ele>
        <time>2012-04-08T11:03:22Z</time>
      </trkpt>
      <trkpt lat="45.3139" lon="6.64879">
        <ele>2826</ele>
        <time>2012-04-08T11:03:27Z</time>
      </trkpt>
      <trkpt lat="45.31387" lon="6.64881">
        <ele>2826</ele>
        <time>2012-04-08T11:03:32Z</time>
      </trkpt>
      <trkpt lat="45.31384" lon="6.64882">
        <ele>2826</ele>
        <time>2012-04-08T11:03:37Z</time>
      </trkpt>
      <trkpt lat="45.31382" lon="6.64883">
        <ele>2826</ele>
        <time>2012-04-08T11:03:42Z</time>
      </trkpt>
      <trkpt lat="45.31381" lon="6.64884">
        <ele>2826</ele>
        <time>2012-04-08T11:03:47Z</time>
      </trkpt>
      <trkpt lat="45.31378" lon="6.64885">
        <ele>2827</ele>
        <time>2012-04-08T11:03:52Z</time>
      </trkpt>
      <trkpt lat="45.31375" lon="6.64887">
        <ele>2827</ele>
        <time>2012-04-08T11:03:57Z</time>
      </trkpt>
      <trkpt lat="45.31372" lon="6.64888">
        <ele>2827</ele>
        <time>2012-04-08T11:04:02Z</time>
      </trkpt>
      <trkpt lat="45.31367" lon="6.64889">
        <ele>2827</ele>
        <time>2012-04-08T11:04:07Z</time>
      </trkpt>
      <trkpt lat="45.31362" lon="6.6489">
        <ele>2827</ele>
        <time>2012-04-08T11:04:12Z</time>
      </trkpt>
      <trkpt lat="45.31357" lon="6.6489">
        <ele>2827</ele>
        <time>2012-04-08T11:04:17Z</time>
      </trkpt>
      <trkpt lat="45.31352" lon="6.64889">
        <ele>2827</ele>
        <time>2012-04-08T11:04:22Z</time>
      </trkpt>
      <trkpt lat="45.31348" lon="6.64887">
        <ele>2827</ele>
        <time>2012-04-08T11:04:27Z</time>
      </trkpt>
      <trkpt lat="45.31345" lon="6.64885">
        <ele>2827</ele>
        <time>2012-04-08T11:04:32Z</time>
      </trkpt>
      <trkpt lat="45.31343" lon="6.64883">
        <ele>2828</ele>
        <time>2012-04-08T11:04:37Z</time>
      </trkpt>
      <trkpt lat="45.3134" lon="6.64881">
        <ele>2829</ele>
        <time>2012-04-08T11:04:42Z</time>
      </trkpt>
      <trkpt lat="45.31337" lon="6.64879">
        <ele>2829</ele>
        <time>2012-04-08T11:04:47Z</time>
      </trkpt>
      <trkpt lat="45.31334" lon="6.64878">
        <ele>2829</ele>
        <time>2012-04-08T11:04:52Z</time>
      </trkpt>
      <trkpt lat="45.31331" lon="6.64877">
        <ele>2830</ele>
        <time>2012-04-08T11:04:57Z</time>
      </trkpt>
      <trkpt lat="45.31327" lon="6.64875">
        <ele>2830</ele>
        <time>2012-04-08T11:05:02Z</time>
      </trkpt>
      <trkpt lat="45.31323" lon="6.6487">
        <ele>2829</ele>
        <time>2012-04-08T11:05:07Z</time>
      </trkpt>
      <trkpt lat="45.3132" lon="6.64865">
        <ele>2829</ele>
        <time>2012-04-08T11:05:12Z</time>
      </trkpt>
      <trkpt lat="45.31316" lon="6.6486">
        <ele>2829</ele>
        <time>2012-04-08T11:05:17Z</time>
      </trkpt>
      <trkpt lat="45.31312" lon="6.64854">
        <ele>2828</ele>
        <time>2012-04-08T11:05:22Z</time>
      </trkpt>
      <trkpt lat="45.31308" lon="6.64849">
        <ele>2828</ele>
        <time>2012-04-08T11:05:27Z</time>
      </trkpt>
      <trkpt lat="45.31304" lon="6.64847">
        <ele>2828</ele>
        <time>2012-04-08T11:05:32Z</time>
      </trkpt>
      <trkpt lat="45.31302" lon="6.64845">
        <ele>2828</ele>
        <time>2012-04-08T11:05:37Z</time>
      </trkpt>
      <trkpt lat="45.31299" lon="6.64846">
        <ele>2829</ele>
        <time>2012-04-08T11:05:42Z</time>
      </trkpt>
      <trkpt lat="45.31296" lon="6.64847">
        <ele>2829</ele>
        <time>2012-04-08T11:05:47Z</time>
      </trkpt>
      <trkpt lat="45.31293" lon="6.64848">
        <ele>2829</ele>
        <time>2012-04-08T11:05:52Z</time>
      </trkpt>
      <trkpt lat="45.31292" lon="6.64848">
        <ele>2829</ele>
        <time>2012-04-08T11:05:57Z</time>
      </trkpt>
      <trkpt lat="45.31292" lon="6.64848">
        <ele>2829</ele>
        <time>2012-04-08T11:06:02Z</time>
      </trkpt>
      <trkpt lat="45.31292" lon="6.64848">
        <ele>2829</ele>
        <time>2012-04-08T11:06:07Z</time>
      </trkpt>
      <trkpt lat="45.31292" lon="6.64848">
        <ele>2830</ele>
        <time>2012-04-08T11:06:12Z</time>
      </trkpt>
      <trkpt lat="45.31292" lon="6.64848">
        <ele>2830</ele>
        <time>2012-04-08T11:06:17Z</time>
      </trkpt>
      <trkpt lat="45.31292" lon="6.64848">
        <ele>2830</ele>
        <time>2012-04-08T11:06:22Z</time>
      </trkpt>
      <trkpt lat="45.31291" lon="6.64848">
        <ele>2830</ele>
        <time>2012-04-08T11:06:27Z</time>
      </trkpt>
      <trkpt lat="45.31287" lon="6.64847">
        <ele>2831</ele>
        <time>2012-04-08T11:06:32Z</time>
      </trkpt>
      <trkpt lat="45.31284" lon="6.64844">
        <ele>2831</ele>
        <time>2012-04-08T11:06:37Z</time>
      </trkpt>
      <trkpt lat="45.31281" lon="6.6484">
        <ele>2832</ele>
        <time>2012-04-08T11:06:42Z</time>
      </trkpt>
      <trkpt lat="45.3128" lon="6.64835">
        <ele>2832</ele>
        <time>2012-04-08T11:06:47Z</time>
      </trkpt>
      <trkpt lat="45.31278" lon="6.64829">
        <ele>2831</ele>
        <time>2012-04-08T11:06:52Z</time>
      </trkpt>
      <trkpt lat="45.31276" lon="6.64824">
        <ele>2831</ele>
        <time>2012-04-08T11:06:57Z</time>
      </trkpt>
      <trkpt lat="45.31271" lon="6.64825">
        <ele>2830</ele>
        <time>2012-04-08T11:07:02Z</time>
      </trkpt>
      <trkpt lat="45.31268" lon="6.64828">
        <ele>2831</ele>
        <time>2012-04-08T11:07:07Z</time>
      </trkpt>
      <trkpt lat="45.31264" lon="6.64831">
        <ele>2831</ele>
        <time>2012-04-08T11:07:12Z</time>
      </trkpt>
      <trkpt lat="45.3126" lon="6.64834">
        <ele>2831</ele>
        <time>2012-04-08T11:07:17Z</time>
      </trkpt>
      <trkpt lat="45.31259" lon="6.64836">
        <ele>2831</ele>
        <time>2012-04-08T11:07:22Z</time>
      </trkpt>
      <trkpt lat="45.31259" lon="6.64836">
        <ele>2832</ele>
        <time>2012-04-08T11:07:27Z</time>
      </trkpt>
      <trkpt lat="45.31258" lon="6.64839">
        <ele>2832</ele>
        <time>2012-04-08T11:07:32Z</time>
      </trkpt>
      <trkpt lat="45.31256" lon="6.64843">
        <ele>2832</ele>
        <time>2012-04-08T11:07:37Z</time>
      </trkpt>
      <trkpt lat="45.31253" lon="6.64846">
        <ele>2832</ele>
        <time>2012-04-08T11:07:42Z</time>
      </trkpt>
      <trkpt lat="45.3125" lon="6.64848">
        <ele>2835</ele>
        <time>2012-04-08T11:07:47Z</time>
      </trkpt>
      <trkpt lat="45.31248" lon="6.6485">
        <ele>2835</ele>
        <time>2012-04-08T11:07:52Z</time>
      </trkpt>
      <trkpt lat="45.31246" lon="6.64853">
        <ele>2835</ele>
        <time>2012-04-08T11:07:57Z</time>
      </trkpt>
      <trkpt lat="45.31244" lon="6.64855">
        <ele>2835</ele>
        <time>2012-04-08T11:08:02Z</time>
      </trkpt>
      <trkpt lat="45.31242" lon="6.64858">
        <ele>2835</ele>
        <time>2012-04-08T11:08:07Z</time>
      </trkpt>
      <trkpt lat="45.31239" lon="6.64859">
        <ele>2835</ele>
        <time>2012-04-08T11:08:12Z</time>
      </trkpt>
      <trkpt lat="45.31237" lon="6.64861">
        <ele>2836</ele>
        <time>2012-04-08T11:08:17Z</time>
      </trkpt>
      <trkpt lat="45.31236" lon="6.64862">
        <ele>2836</ele>
        <time>2012-04-08T11:08:22Z</time>
      </trkpt>
      <trkpt lat="45.31233" lon="6.64863">
        <ele>2837</ele>
        <time>2012-04-08T11:08:27Z</time>
      </trkpt>
      <trkpt lat="45.31231" lon="6.64861">
        <ele>2837</ele>
        <time>2012-04-08T11:08:32Z</time>
      </trkpt>
      <trkpt lat="45.31228" lon="6.64858">
        <ele>2837</ele>
        <time>2012-04-08T11:08:37Z</time>
      </trkpt>
      <trkpt lat="45.31226" lon="6.64856">
        <ele>2837</ele>
        <time>2012-04-08T11:08:42Z</time>
      </trkpt>
      <trkpt lat="45.31224" lon="6.64854">
        <ele>2837</ele>
        <time>2012-04-08T11:08:47Z</time>
      </trkpt>
      <trkpt lat="45.31221" lon="6.64851">
        <ele>2837</ele>
        <time>2012-04-08T11:08:52Z</time>
      </trkpt>
      <trkpt lat="45.31219" lon="6.64849">
        <ele>2837</ele>
        <time>2012-04-08T11:08:57Z</time>
      </trkpt>
      <trkpt lat="45.31217" lon="6.64848">
        <ele>2838</ele>
        <time>2012-04-08T11:09:02Z</time>
      </trkpt>
      <trkpt lat="45.31215" lon="6.64847">
        <ele>2838</ele>
        <time>2012-04-08T11:09:07Z</time>
      </trkpt>
      <trkpt lat="45.31213" lon="6.64846">
        <ele>2839</ele>
        <time>2012-04-08T11:09:12Z</time>
      </trkpt>
      <trkpt lat="45.31213" lon="6.64846">
        <ele>2839</ele>
        <time>2012-04-08T11:09:17Z</time>
      </trkpt>
      <trkpt lat="45.31213" lon="6.64846">
        <ele>2839</ele>
        <time>2012-04-08T11:09:22Z</time>
      </trkpt>
      <trkpt lat="45.3121" lon="6.64844">
        <ele>2839</ele>
        <time>2012-04-08T11:09:27Z</time>
      </trkpt>
      <trkpt lat="45.31208" lon="6.64841">
        <ele>2839</ele>
        <time>2012-04-08T11:09:32Z</time>
      </trkpt>
      <trkpt lat="45.31205" lon="6.64839">
        <ele>2840</ele>
        <time>2012-04-08T11:09:37Z</time>
      </trkpt>
      <trkpt lat="45.31203" lon="6.64837">
        <ele>2840</ele>
        <time>2012-04-08T11:09:42Z</time>
      </trkpt>
      <trkpt lat="45.312" lon="6.64835">
        <ele>2840</ele>
        <time>2012-04-08T11:09:47Z</time>
      </trkpt>
      <trkpt lat="45.31199" lon="6.64833">
        <ele>2841</ele>
        <time>2012-04-08T11:09:52Z</time>
      </trkpt>
      <trkpt lat="45.31196" lon="6.64831">
        <ele>2841</ele>
        <time>2012-04-08T11:09:57Z</time>
      </trkpt>
      <trkpt lat="45.31193" lon="6.64829">
        <ele>2841</ele>
        <time>2012-04-08T11:10:02Z</time>
      </trkpt>
      <trkpt lat="45.3119" lon="6.64827">
        <ele>2840</ele>
        <time>2012-04-08T11:10:07Z</time>
      </trkpt>
      <trkpt lat="45.31188" lon="6.64826">
        <ele>2840</ele>
        <time>2012-04-08T11:10:12Z</time>
      </trkpt>
      <trkpt lat="45.31184" lon="6.64822">
        <ele>2840</ele>
        <time>2012-04-08T11:10:17Z</time>
      </trkpt>
      <trkpt lat="45.3118" lon="6.64818">
        <ele>2839</ele>
        <time>2012-04-08T11:10:22Z</time>
      </trkpt>
      <trkpt lat="45.31174" lon="6.64816">
        <ele>2839</ele>
        <time>2012-04-08T11:10:27Z</time>
      </trkpt>
      <trkpt lat="45.3117" lon="6.64816">
        <ele>2840</ele>
        <time>2012-04-08T11:10:32Z</time>
      </trkpt>
      <trkpt lat="45.31167" lon="6.64818">
        <ele>2840</ele>
        <time>2012-04-08T11:10:37Z</time>
      </trkpt>
      <trkpt lat="45.31162" lon="6.6482">
        <ele>2840</ele>
        <time>2012-04-08T11:10:42Z</time>
      </trkpt>
      <trkpt lat="45.31158" lon="6.64822">
        <ele>2840</ele>
        <time>2012-04-08T11:10:47Z</time>
      </trkpt>
      <trkpt lat="45.31154" lon="6.64822">
        <ele>2841</ele>
        <time>2012-04-08T11:10:52Z</time>
      </trkpt>
      <trkpt lat="45.31153" lon="6.64822">
        <ele>2841</ele>
        <time>2012-04-08T11:10:57Z</time>
      </trkpt>
      <trkpt lat="45.31152" lon="6.64822">
        <ele>2841</ele>
        <time>2012-04-08T11:11:02Z</time>
      </trkpt>
      <trkpt lat="45.31152" lon="6.64822">
        <ele>2841</ele>
        <time>2012-04-08T11:11:07Z</time>
      </trkpt>
      <trkpt lat="45.31152" lon="6.64822">
        <ele>2841</ele>
        <time>2012-04-08T11:11:12Z</time>
      </trkpt>
      <trkpt lat="45.31152" lon="6.64822">
        <ele>2841</ele>
        <time>2012-04-08T11:11:17Z</time>
      </trkpt>
      <trkpt lat="45.31152" lon="6.64822">
        <ele>2842</ele>
        <time>2012-04-08T11:11:22Z</time>
      </trkpt>
      <trkpt lat="45.31152" lon="6.64822">
        <ele>2842</ele>
        <time>2012-04-08T11:11:27Z</time>
      </trkpt>
      <trkpt lat="45.31152" lon="6.64822">
        <ele>2842</ele>
        <time>2012-04-08T11:11:32Z</time>
      </trkpt>
      <trkpt lat="45.31152" lon="6.64822">
        <ele>2842</ele>
        <time>2012-04-08T11:11:37Z</time>
      </trkpt>
      <trkpt lat="45.31152" lon="6.64822">
        <ele>2842</ele>
        <time>2012-04-08T11:11:42Z</time>
      </trkpt>
      <trkpt lat="45.31152" lon="6.64822">
        <ele>2842</ele>
        <time>2012-04-08T11:11:47Z</time>
      </trkpt>
      <trkpt lat="45.31149" lon="6.64825">
        <ele>2842</ele>
        <time>2012-04-08T11:11:52Z</time>
      </trkpt>
      <trkpt lat="45.31145" lon="6.64827">
        <ele>2842</ele>
        <time>2012-04-08T11:11:57Z</time>
      </trkpt>
      <trkpt lat="45.3114" lon="6.64828">
        <ele>2842</ele>
        <time>2012-04-08T11:12:02Z</time>
      </trkpt>
      <trkpt lat="45.31135" lon="6.64829">
        <ele>2842</ele>
        <time>2012-04-08T11:12:07Z</time>
      </trkpt>
      <trkpt lat="45.31131" lon="6.64829">
        <ele>2842</ele>
        <time>2012-04-08T11:12:12Z</time>
      </trkpt>
      <trkpt lat="45.31127" lon="6.64829">
        <ele>2842</ele>
        <time>2012-04-08T11:12:17Z</time>
      </trkpt>
      <trkpt lat="45.31123" lon="6.64828">
        <ele>2842</ele>
        <time>2012-04-08T11:12:22Z</time>
      </trkpt>
      <trkpt lat="45.31118" lon="6.64828">
        <ele>2842</ele>
        <time>2012-04-08T11:12:27Z</time>
      </trkpt>
      <trkpt lat="45.31115" lon="6.64828">
        <ele>2842</ele>
        <time>2012-04-08T11:12:32Z</time>
      </trkpt>
      <trkpt lat="45.31111" lon="6.64829">
        <ele>2842</ele>
        <time>2012-04-08T11:12:37Z</time>
      </trkpt>
      <trkpt lat="45.31107" lon="6.64829">
        <ele>2842</ele>
        <time>2012-04-08T11:12:42Z</time>
      </trkpt>
      <trkpt lat="45.31104" lon="6.64829">
        <ele>2843</ele>
        <time>2012-04-08T11:12:47Z</time>
      </trkpt>
      <trkpt lat="45.31101" lon="6.64829">
        <ele>2843</ele>
        <time>2012-04-08T11:12:52Z</time>
      </trkpt>
      <trkpt lat="45.31098" lon="6.6483">
        <ele>2843</ele>
        <time>2012-04-08T11:12:57Z</time>
      </trkpt>
      <trkpt lat="45.31094" lon="6.64831">
        <ele>2843</ele>
        <time>2012-04-08T11:13:02Z</time>
      </trkpt>
      <trkpt lat="45.31091" lon="6.64832">
        <ele>2844</ele>
        <time>2012-04-08T11:13:07Z</time>
      </trkpt>
      <trkpt lat="45.31088" lon="6.64832">
        <ele>2844</ele>
        <time>2012-04-08T11:13:12Z</time>
      </trkpt>
      <trkpt lat="45.31085" lon="6.64833">
        <ele>2844</ele>
        <time>2012-04-08T11:13:17Z</time>
      </trkpt>
      <trkpt lat="45.31083" lon="6.64833">
        <ele>2844</ele>
        <time>2012-04-08T11:13:22Z</time>
      </trkpt>
      <trkpt lat="45.3108" lon="6.64834">
        <ele>2845</ele>
        <time>2012-04-08T11:13:27Z</time>
      </trkpt>
      <trkpt lat="45.31077" lon="6.64835">
        <ele>2845</ele>
        <time>2012-04-08T11:13:32Z</time>
      </trkpt>
      <trkpt lat="45.31073" lon="6.64835">
        <ele>2845</ele>
        <time>2012-04-08T11:13:37Z</time>
      </trkpt>
      <trkpt lat="45.3107" lon="6.64836">
        <ele>2846</ele>
        <time>2012-04-08T11:13:42Z</time>
      </trkpt>
      <trkpt lat="45.31067" lon="6.64837">
        <ele>2846</ele>
        <time>2012-04-08T11:13:47Z</time>
      </trkpt>
      <trkpt lat="45.31064" lon="6.64838">
        <ele>2846</ele>
        <time>2012-04-08T11:13:52Z</time>
      </trkpt>
      <trkpt lat="45.3106" lon="6.64838">
        <ele>2846</ele>
        <time>2012-04-08T11:13:57Z</time>
      </trkpt>
      <trkpt lat="45.31057" lon="6.64838">
        <ele>2847</ele>
        <time>2012-04-08T11:14:02Z</time>
      </trkpt>
      <trkpt lat="45.31055" lon="6.64838">
        <ele>2847</ele>
        <time>2012-04-08T11:14:07Z</time>
      </trkpt>
      <trkpt lat="45.31053" lon="6.64838">
        <ele>2847</ele>
        <time>2012-04-08T11:14:12Z</time>
      </trkpt>
      <trkpt lat="45.3105" lon="6.64838">
        <ele>2848</ele>
        <time>2012-04-08T11:14:17Z</time>
      </trkpt>
      <trkpt lat="45.31048" lon="6.64839">
        <ele>2848</ele>
        <time>2012-04-08T11:14:22Z</time>
      </trkpt>
      <trkpt lat="45.31046" lon="6.64839">
        <ele>2848</ele>
        <time>2012-04-08T11:14:27Z</time>
      </trkpt>
      <trkpt lat="45.31043" lon="6.64839">
        <ele>2849</ele>
        <time>2012-04-08T11:14:32Z</time>
      </trkpt>
      <trkpt lat="45.31041" lon="6.6484">
        <ele>2849</ele>
        <time>2012-04-08T11:14:37Z</time>
      </trkpt>
      <trkpt lat="45.3104" lon="6.64841">
        <ele>2849</ele>
        <time>2012-04-08T11:14:42Z</time>
      </trkpt>
      <trkpt lat="45.31038" lon="6.64843">
        <ele>2849</ele>
        <time>2012-04-08T11:14:47Z</time>
      </trkpt>
      <trkpt lat="45.31036" lon="6.64846">
        <ele>2850</ele>
        <time>2012-04-08T11:14:52Z</time>
      </trkpt>
      <trkpt lat="45.31035" lon="6.64848">
        <ele>2849</ele>
        <time>2012-04-08T11:14:57Z</time>
      </trkpt>
      <trkpt lat="45.31035" lon="6.64848">
        <ele>2849</ele>
        <time>2012-04-08T11:15:02Z</time>
      </trkpt>
      <trkpt lat="45.31034" lon="6.64848">
        <ele>2850</ele>
        <time>2012-04-08T11:15:07Z</time>
      </trkpt>
      <trkpt lat="45.31033" lon="6.6485">
        <ele>2850</ele>
        <time>2012-04-08T11:15:12Z</time>
      </trkpt>
      <trkpt lat="45.31032" lon="6.64853">
        <ele>2850</ele>
        <time>2012-04-08T11:15:17Z</time>
      </trkpt>
      <trkpt lat="45.3103" lon="6.64856">
        <ele>2850</ele>
        <time>2012-04-08T11:15:22Z</time>
      </trkpt>
      <trkpt lat="45.3103" lon="6.6486">
        <ele>2850</ele>
        <time>2012-04-08T11:15:27Z</time>
      </trkpt>
      <trkpt lat="45.31029" lon="6.64863">
        <ele>2851</ele>
        <time>2012-04-08T11:15:32Z</time>
      </trkpt>
      <trkpt lat="45.31028" lon="6.64866">
        <ele>2851</ele>
        <time>2012-04-08T11:15:37Z</time>
      </trkpt>
      <trkpt lat="45.31028" lon="6.64869">
        <ele>2851</ele>
        <time>2012-04-08T11:15:42Z</time>
      </trkpt>
      <trkpt lat="45.31028" lon="6.64872">
        <ele>2851</ele>
        <time>2012-04-08T11:15:47Z</time>
      </trkpt>
      <trkpt lat="45.31028" lon="6.64874">
        <ele>2852</ele>
        <time>2012-04-08T11:15:52Z</time>
      </trkpt>
      <trkpt lat="45.31027" lon="6.64877">
        <ele>2852</ele>
        <time>2012-04-08T11:15:57Z</time>
      </trkpt>
      <trkpt lat="45.31026" lon="6.64878">
        <ele>2853</ele>
        <time>2012-04-08T11:16:02Z</time>
      </trkpt>
      <trkpt lat="45.31023" lon="6.64879">
        <ele>2853</ele>
        <time>2012-04-08T11:16:07Z</time>
      </trkpt>
      <trkpt lat="45.31021" lon="6.64879">
        <ele>2854</ele>
        <time>2012-04-08T11:16:12Z</time>
      </trkpt>
      <trkpt lat="45.31019" lon="6.64879">
        <ele>2855</ele>
        <time>2012-04-08T11:16:17Z</time>
      </trkpt>
      <trkpt lat="45.31016" lon="6.64879">
        <ele>2856</ele>
        <time>2012-04-08T11:16:22Z</time>
      </trkpt>
      <trkpt lat="45.31014" lon="6.64879">
        <ele>2856</ele>
        <time>2012-04-08T11:16:27Z</time>
      </trkpt>
      <trkpt lat="45.31012" lon="6.64877">
        <ele>2857</ele>
        <time>2012-04-08T11:16:32Z</time>
      </trkpt>
      <trkpt lat="45.3101" lon="6.64876">
        <ele>2858</ele>
        <time>2012-04-08T11:16:37Z</time>
      </trkpt>
      <trkpt lat="45.31009" lon="6.64879">
        <ele>2858</ele>
        <time>2012-04-08T11:16:42Z</time>
      </trkpt>
      <trkpt lat="45.31008" lon="6.64882">
        <ele>2859</ele>
        <time>2012-04-08T11:16:47Z</time>
      </trkpt>
      <trkpt lat="45.31007" lon="6.64885">
        <ele>2859</ele>
        <time>2012-04-08T11:16:52Z</time>
      </trkpt>
      <trkpt lat="45.31007" lon="6.64888">
        <ele>2860</ele>
        <time>2012-04-08T11:16:57Z</time>
      </trkpt>
      <trkpt lat="45.31007" lon="6.64891">
        <ele>2860</ele>
        <time>2012-04-08T11:17:02Z</time>
      </trkpt>
      <trkpt lat="45.31008" lon="6.64893">
        <ele>2861</ele>
        <time>2012-04-08T11:17:07Z</time>
      </trkpt>
      <trkpt lat="45.31009" lon="6.64896">
        <ele>2861</ele>
        <time>2012-04-08T11:17:12Z</time>
      </trkpt>
      <trkpt lat="45.31011" lon="6.64898">
        <ele>2862</ele>
        <time>2012-04-08T11:17:17Z</time>
      </trkpt>
      <trkpt lat="45.31011" lon="6.64898">
        <ele>2863</ele>
        <time>2012-04-08T11:17:22Z</time>
      </trkpt>
      <trkpt lat="45.31011" lon="6.64898">
        <ele>2863</ele>
        <time>2012-04-08T11:17:27Z</time>
      </trkpt>
      <trkpt lat="45.31011" lon="6.64898">
        <ele>2863</ele>
        <time>2012-04-08T11:17:32Z</time>
      </trkpt>
      <trkpt lat="45.31011" lon="6.64898">
        <ele>2863</ele>
        <time>2012-04-08T11:17:37Z</time>
      </trkpt>
      <trkpt lat="45.3101" lon="6.64899">
        <ele>2863</ele>
        <time>2012-04-08T11:17:42Z</time>
      </trkpt>
      <trkpt lat="45.31007" lon="6.649">
        <ele>2863</ele>
        <time>2012-04-08T11:17:47Z</time>
      </trkpt>
      <trkpt lat="45.31005" lon="6.64901">
        <ele>2864</ele>
        <time>2012-04-08T11:17:52Z</time>
      </trkpt>
      <trkpt lat="45.31003" lon="6.64901">
        <ele>2865</ele>
        <time>2012-04-08T11:17:57Z</time>
      </trkpt>
      <trkpt lat="45.31" lon="6.64902">
        <ele>2865</ele>
        <time>2012-04-08T11:18:02Z</time>
      </trkpt>
      <trkpt lat="45.30997" lon="6.64903">
        <ele>2866</ele>
        <time>2012-04-08T11:18:07Z</time>
      </trkpt>
      <trkpt lat="45.30994" lon="6.64903">
        <ele>2867</ele>
        <time>2012-04-08T11:18:12Z</time>
      </trkpt>
      <trkpt lat="45.30992" lon="6.64904">
        <ele>2867</ele>
        <time>2012-04-08T11:18:17Z</time>
      </trkpt>
      <trkpt lat="45.3099" lon="6.64903">
        <ele>2868</ele>
        <time>2012-04-08T11:18:22Z</time>
      </trkpt>
      <trkpt lat="45.30988" lon="6.64902">
        <ele>2869</ele>
        <time>2012-04-08T11:18:27Z</time>
      </trkpt>
      <trkpt lat="45.30985" lon="6.649">
        <ele>2869</ele>
        <time>2012-04-08T11:18:32Z</time>
      </trkpt>
      <trkpt lat="45.30985" lon="6.64901">
        <ele>2869</ele>
        <time>2012-04-08T11:18:37Z</time>
      </trkpt>
      <trkpt lat="45.30985" lon="6.64904">
        <ele>2870</ele>
        <time>2012-04-08T11:18:42Z</time>
      </trkpt>
      <trkpt lat="45.30985" lon="6.64908">
        <ele>2870</ele>
        <time>2012-04-08T11:18:47Z</time>
      </trkpt>
      <trkpt lat="45.30985" lon="6.64911">
        <ele>2870</ele>
        <time>2012-04-08T11:18:52Z</time>
      </trkpt>
      <trkpt lat="45.30985" lon="6.64913">
        <ele>2871</ele>
        <time>2012-04-08T11:18:57Z</time>
      </trkpt>
      <trkpt lat="45.30984" lon="6.64916">
        <ele>2871</ele>
        <time>2012-04-08T11:19:02Z</time>
      </trkpt>
      <trkpt lat="45.30983" lon="6.64917">
        <ele>2872</ele>
        <time>2012-04-08T11:19:07Z</time>
      </trkpt>
      <trkpt lat="45.30983" lon="6.64917">
        <ele>2872</ele>
        <time>2012-04-08T11:19:12Z</time>
      </trkpt>
      <trkpt lat="45.30983" lon="6.64917">
        <ele>2873</ele>
        <time>2012-04-08T11:19:17Z</time>
      </trkpt>
      <trkpt lat="45.30981" lon="6.64917">
        <ele>2873</ele>
        <time>2012-04-08T11:19:22Z</time>
      </trkpt>
      <trkpt lat="45.30978" lon="6.64918">
        <ele>2874</ele>
        <time>2012-04-08T11:19:27Z</time>
      </trkpt>
      <trkpt lat="45.30977" lon="6.64918">
        <ele>2875</ele>
        <time>2012-04-08T11:19:32Z</time>
      </trkpt>
      <trkpt lat="45.30978" lon="6.64922">
        <ele>2875</ele>
        <time>2012-04-08T11:19:37Z</time>
      </trkpt>
      <trkpt lat="45.30979" lon="6.64925">
        <ele>2876</ele>
        <time>2012-04-08T11:19:42Z</time>
      </trkpt>
      <trkpt lat="45.3098" lon="6.64928">
        <ele>2876</ele>
        <time>2012-04-08T11:19:47Z</time>
      </trkpt>
      <trkpt lat="45.30981" lon="6.64931">
        <ele>2877</ele>
        <time>2012-04-08T11:19:52Z</time>
      </trkpt>
      <trkpt lat="45.30982" lon="6.64933">
        <ele>2878</ele>
        <time>2012-04-08T11:19:57Z</time>
      </trkpt>
      <trkpt lat="45.30984" lon="6.64934">
        <ele>2878</ele>
        <time>2012-04-08T11:20:02Z</time>
      </trkpt>
      <trkpt lat="45.30985" lon="6.64935">
        <ele>2879</ele>
        <time>2012-04-08T11:20:07Z</time>
      </trkpt>
      <trkpt lat="45.30986" lon="6.64935">
        <ele>2879</ele>
        <time>2012-04-08T11:20:12Z</time>
      </trkpt>
      <trkpt lat="45.30985" lon="6.64936">
        <ele>2880</ele>
        <time>2012-04-08T11:20:17Z</time>
      </trkpt>
      <trkpt lat="45.30984" lon="6.64936">
        <ele>2880</ele>
        <time>2012-04-08T11:20:22Z</time>
      </trkpt>
      <trkpt lat="45.30981" lon="6.64937">
        <ele>2880</ele>
        <time>2012-04-08T11:20:27Z</time>
      </trkpt>
      <trkpt lat="45.30978" lon="6.64938">
        <ele>2881</ele>
        <time>2012-04-08T11:20:32Z</time>
      </trkpt>
      <trkpt lat="45.30977" lon="6.64938">
        <ele>2880</ele>
        <time>2012-04-08T11:20:37Z</time>
      </trkpt>
      <trkpt lat="45.30974" lon="6.64939">
        <ele>2880</ele>
        <time>2012-04-08T11:20:42Z</time>
      </trkpt>
      <trkpt lat="45.30971" lon="6.6494">
        <ele>2881</ele>
        <time>2012-04-08T11:20:47Z</time>
      </trkpt>
      <trkpt lat="45.30968" lon="6.6494">
        <ele>2881</ele>
        <time>2012-04-08T11:20:52Z</time>
      </trkpt>
      <trkpt lat="45.30966" lon="6.64941">
        <ele>2881</ele>
        <time>2012-04-08T11:20:57Z</time>
      </trkpt>
      <trkpt lat="45.30963" lon="6.64941">
        <ele>2882</ele>
        <time>2012-04-08T11:21:02Z</time>
      </trkpt>
      <trkpt lat="45.30961" lon="6.64942">
        <ele>2883</ele>
        <time>2012-04-08T11:21:07Z</time>
      </trkpt>
      <trkpt lat="45.3096" lon="6.64942">
        <ele>2883</ele>
        <time>2012-04-08T11:21:12Z</time>
      </trkpt>
      <trkpt lat="45.3096" lon="6.64946">
        <ele>2884</ele>
        <time>2012-04-08T11:21:17Z</time>
      </trkpt>
      <trkpt lat="45.30962" lon="6.64948">
        <ele>2885</ele>
        <time>2012-04-08T11:21:22Z</time>
      </trkpt>
      <trkpt lat="45.30964" lon="6.64951">
        <ele>2886</ele>
        <time>2012-04-08T11:21:27Z</time>
      </trkpt>
      <trkpt lat="45.30965" lon="6.64952">
        <ele>2886</ele>
        <time>2012-04-08T11:21:32Z</time>
      </trkpt>
      <trkpt lat="45.30966" lon="6.64953">
        <ele>2887</ele>
        <time>2012-04-08T11:21:37Z</time>
      </trkpt>
      <trkpt lat="45.30966" lon="6.64953">
        <ele>2887</ele>
        <time>2012-04-08T11:21:42Z</time>
      </trkpt>
      <trkpt lat="45.30967" lon="6.64953">
        <ele>2886</ele>
        <time>2012-04-08T11:21:47Z</time>
      </trkpt>
      <trkpt lat="45.30967" lon="6.64953">
        <ele>2886</ele>
        <time>2012-04-08T11:21:52Z</time>
      </trkpt>
      <trkpt lat="45.30967" lon="6.64953">
        <ele>2886</ele>
        <time>2012-04-08T11:21:57Z</time>
      </trkpt>
      <trkpt lat="45.30967" lon="6.64953">
        <ele>2886</ele>
        <time>2012-04-08T11:22:02Z</time>
      </trkpt>
      <trkpt lat="45.30965" lon="6.64954">
        <ele>2886</ele>
        <time>2012-04-08T11:22:07Z</time>
      </trkpt>
      <trkpt lat="45.30962" lon="6.64955">
        <ele>2887</ele>
        <time>2012-04-08T11:22:12Z</time>
      </trkpt>
      <trkpt lat="45.3096" lon="6.64956">
        <ele>2887</ele>
        <time>2012-04-08T11:22:17Z</time>
      </trkpt>
      <trkpt lat="45.30958" lon="6.64957">
        <ele>2888</ele>
        <time>2012-04-08T11:22:22Z</time>
      </trkpt>
      <trkpt lat="45.30955" lon="6.64958">
        <ele>2888</ele>
        <time>2012-04-08T11:22:27Z</time>
      </trkpt>
      <trkpt lat="45.30952" lon="6.64958">
        <ele>2888</ele>
        <time>2012-04-08T11:22:32Z</time>
      </trkpt>
      <trkpt lat="45.30949" lon="6.64958">
        <ele>2889</ele>
        <time>2012-04-08T11:22:37Z</time>
      </trkpt>
      <trkpt lat="45.30947" lon="6.64958">
        <ele>2889</ele>
        <time>2012-04-08T11:22:42Z</time>
      </trkpt>
      <trkpt lat="45.30945" lon="6.64958">
        <ele>2890</ele>
        <time>2012-04-08T11:22:47Z</time>
      </trkpt>
      <trkpt lat="45.30942" lon="6.64959">
        <ele>2890</ele>
        <time>2012-04-08T11:22:52Z</time>
      </trkpt>
      <trkpt lat="45.3094" lon="6.64958">
        <ele>2891</ele>
        <time>2012-04-08T11:22:57Z</time>
      </trkpt>
      <trkpt lat="45.30938" lon="6.64958">
        <ele>2891</ele>
        <time>2012-04-08T11:23:02Z</time>
      </trkpt>
      <trkpt lat="45.30935" lon="6.64957">
        <ele>2891</ele>
        <time>2012-04-08T11:23:07Z</time>
      </trkpt>
      <trkpt lat="45.30933" lon="6.64956">
        <ele>2892</ele>
        <time>2012-04-08T11:23:12Z</time>
      </trkpt>
      <trkpt lat="45.30931" lon="6.64956">
        <ele>2892</ele>
        <time>2012-04-08T11:23:17Z</time>
      </trkpt>
      <trkpt lat="45.30929" lon="6.64955">
        <ele>2892</ele>
        <time>2012-04-08T11:23:22Z</time>
      </trkpt>
      <trkpt lat="45.30926" lon="6.64954">
        <ele>2893</ele>
        <time>2012-04-08T11:23:27Z</time>
      </trkpt>
      <trkpt lat="45.30924" lon="6.64954">
        <ele>2893</ele>
        <time>2012-04-08T11:23:32Z</time>
      </trkpt>
      <trkpt lat="45.30922" lon="6.64954">
        <ele>2894</ele>
        <time>2012-04-08T11:23:37Z</time>
      </trkpt>
      <trkpt lat="45.30919" lon="6.64953">
        <ele>2894</ele>
        <time>2012-04-08T11:23:42Z</time>
      </trkpt>
      <trkpt lat="45.30917" lon="6.64954">
        <ele>2895</ele>
        <time>2012-04-08T11:23:47Z</time>
      </trkpt>
      <trkpt lat="45.30914" lon="6.64954">
        <ele>2895</ele>
        <time>2012-04-08T11:23:52Z</time>
      </trkpt>
      <trkpt lat="45.30912" lon="6.64954">
        <ele>2895</ele>
        <time>2012-04-08T11:23:57Z</time>
      </trkpt>
      <trkpt lat="45.30909" lon="6.64954">
        <ele>2896</ele>
        <time>2012-04-08T11:24:02Z</time>
      </trkpt>
      <trkpt lat="45.30907" lon="6.64954">
        <ele>2896</ele>
        <time>2012-04-08T11:24:07Z</time>
      </trkpt>
      <trkpt lat="45.30904" lon="6.64954">
        <ele>2897</ele>
        <time>2012-04-08T11:24:12Z</time>
      </trkpt>
      <trkpt lat="45.30904" lon="6.64954">
        <ele>2897</ele>
        <time>2012-04-08T11:24:17Z</time>
      </trkpt>
      <trkpt lat="45.30904" lon="6.64954">
        <ele>2897</ele>
        <time>2012-04-08T11:24:22Z</time>
      </trkpt>
      <trkpt lat="45.30904" lon="6.64954">
        <ele>2897</ele>
        <time>2012-04-08T11:24:27Z</time>
      </trkpt>
      <trkpt lat="45.30904" lon="6.64954">
        <ele>2897</ele>
        <time>2012-04-08T11:24:32Z</time>
      </trkpt>
      <trkpt lat="45.30903" lon="6.64955">
        <ele>2897</ele>
        <time>2012-04-08T11:24:37Z</time>
      </trkpt>
      <trkpt lat="45.309" lon="6.64955">
        <ele>2898</ele>
        <time>2012-04-08T11:24:42Z</time>
      </trkpt>
      <trkpt lat="45.30897" lon="6.64956">
        <ele>2899</ele>
        <time>2012-04-08T11:24:47Z</time>
      </trkpt>
      <trkpt lat="45.30895" lon="6.64957">
        <ele>2900</ele>
        <time>2012-04-08T11:24:52Z</time>
      </trkpt>
      <trkpt lat="45.30892" lon="6.64958">
        <ele>2901</ele>
        <time>2012-04-08T11:24:57Z</time>
      </trkpt>
      <trkpt lat="45.30889" lon="6.64958">
        <ele>2901</ele>
        <time>2012-04-08T11:25:02Z</time>
      </trkpt>
      <trkpt lat="45.30886" lon="6.64958">
        <ele>2902</ele>
        <time>2012-04-08T11:25:07Z</time>
      </trkpt>
      <trkpt lat="45.30883" lon="6.64958">
        <ele>2902</ele>
        <time>2012-04-08T11:25:12Z</time>
      </trkpt>
      <trkpt lat="45.3088" lon="6.64958">
        <ele>2903</ele>
        <time>2012-04-08T11:25:17Z</time>
      </trkpt>
      <trkpt lat="45.30877" lon="6.64958">
        <ele>2903</ele>
        <time>2012-04-08T11:25:22Z</time>
      </trkpt>
      <trkpt lat="45.30874" lon="6.64959">
        <ele>2904</ele>
        <time>2012-04-08T11:25:27Z</time>
      </trkpt>
      <trkpt lat="45.30872" lon="6.6496">
        <ele>2905</ele>
        <time>2012-04-08T11:25:32Z</time>
      </trkpt>
      <trkpt lat="45.30869" lon="6.64961">
        <ele>2905</ele>
        <time>2012-04-08T11:25:37Z</time>
      </trkpt>
      <trkpt lat="45.30867" lon="6.64961">
        <ele>2906</ele>
        <time>2012-04-08T11:25:42Z</time>
      </trkpt>
      <trkpt lat="45.30864" lon="6.64962">
        <ele>2906</ele>
        <time>2012-04-08T11:25:47Z</time>
      </trkpt>
      <trkpt lat="45.30862" lon="6.64963">
        <ele>2907</ele>
        <time>2012-04-08T11:25:52Z</time>
      </trkpt>
      <trkpt lat="45.30861" lon="6.64964">
        <ele>2908</ele>
        <time>2012-04-08T11:25:57Z</time>
      </trkpt>
      <trkpt lat="45.30858" lon="6.64965">
        <ele>2909</ele>
        <time>2012-04-08T11:26:02Z</time>
      </trkpt>
      <trkpt lat="45.30856" lon="6.64966">
        <ele>2909</ele>
        <time>2012-04-08T11:26:07Z</time>
      </trkpt>
      <trkpt lat="45.30854" lon="6.64967">
        <ele>2909</ele>
        <time>2012-04-08T11:26:12Z</time>
      </trkpt>
      <trkpt lat="45.30851" lon="6.64967">
        <ele>2910</ele>
        <time>2012-04-08T11:26:17Z</time>
      </trkpt>
      <trkpt lat="45.30849" lon="6.64968">
        <ele>2910</ele>
        <time>2012-04-08T11:26:22Z</time>
      </trkpt>
      <trkpt lat="45.30847" lon="6.64969">
        <ele>2910</ele>
        <time>2012-04-08T11:26:27Z</time>
      </trkpt>
      <trkpt lat="45.30845" lon="6.6497">
        <ele>2911</ele>
        <time>2012-04-08T11:26:32Z</time>
      </trkpt>
      <trkpt lat="45.30842" lon="6.64971">
        <ele>2911</ele>
        <time>2012-04-08T11:26:37Z</time>
      </trkpt>
      <trkpt lat="45.3084" lon="6.64972">
        <ele>2912</ele>
        <time>2012-04-08T11:26:42Z</time>
      </trkpt>
      <trkpt lat="45.30838" lon="6.64972">
        <ele>2913</ele>
        <time>2012-04-08T11:26:47Z</time>
      </trkpt>
      <trkpt lat="45.30835" lon="6.64972">
        <ele>2913</ele>
        <time>2012-04-08T11:26:52Z</time>
      </trkpt>
      <trkpt lat="45.30832" lon="6.64971">
        <ele>2914</ele>
        <time>2012-04-08T11:26:57Z</time>
      </trkpt>
      <trkpt lat="45.30829" lon="6.64971">
        <ele>2914</ele>
        <time>2012-04-08T11:27:02Z</time>
      </trkpt>
      <trkpt lat="45.30827" lon="6.6497">
        <ele>2915</ele>
        <time>2012-04-08T11:27:07Z</time>
      </trkpt>
      <trkpt lat="45.30825" lon="6.6497">
        <ele>2915</ele>
        <time>2012-04-08T11:27:12Z</time>
      </trkpt>
      <trkpt lat="45.30823" lon="6.6497">
        <ele>2916</ele>
        <time>2012-04-08T11:27:17Z</time>
      </trkpt>
      <trkpt lat="45.3082" lon="6.64969">
        <ele>2916</ele>
        <time>2012-04-08T11:27:22Z</time>
      </trkpt>
      <trkpt lat="45.30818" lon="6.64967">
        <ele>2917</ele>
        <time>2012-04-08T11:27:27Z</time>
      </trkpt>
      <trkpt lat="45.30816" lon="6.64966">
        <ele>2917</ele>
        <time>2012-04-08T11:27:32Z</time>
      </trkpt>
      <trkpt lat="45.30813" lon="6.64966">
        <ele>2917</ele>
        <time>2012-04-08T11:27:37Z</time>
      </trkpt>
      <trkpt lat="45.30811" lon="6.64964">
        <ele>2918</ele>
        <time>2012-04-08T11:27:42Z</time>
      </trkpt>
      <trkpt lat="45.30808" lon="6.64963">
        <ele>2918</ele>
        <time>2012-04-08T11:27:47Z</time>
      </trkpt>
      <trkpt lat="45.30806" lon="6.64962">
        <ele>2919</ele>
        <time>2012-04-08T11:27:52Z</time>
      </trkpt>
      <trkpt lat="45.30805" lon="6.64961">
        <ele>2920</ele>
        <time>2012-04-08T11:27:57Z</time>
      </trkpt>
      <trkpt lat="45.30802" lon="6.6496">
        <ele>2920</ele>
        <time>2012-04-08T11:28:02Z</time>
      </trkpt>
      <trkpt lat="45.308" lon="6.64959">
        <ele>2921</ele>
        <time>2012-04-08T11:28:07Z</time>
      </trkpt>
      <trkpt lat="45.30798" lon="6.64958">
        <ele>2921</ele>
        <time>2012-04-08T11:28:12Z</time>
      </trkpt>
      <trkpt lat="45.30796" lon="6.64956">
        <ele>2922</ele>
        <time>2012-04-08T11:28:17Z</time>
      </trkpt>
      <trkpt lat="45.30795" lon="6.64956">
        <ele>2922</ele>
        <time>2012-04-08T11:28:22Z</time>
      </trkpt>
      <trkpt lat="45.30795" lon="6.64956">
        <ele>2922</ele>
        <time>2012-04-08T11:28:27Z</time>
      </trkpt>
      <trkpt lat="45.30793" lon="6.64955">
        <ele>2922</ele>
        <time>2012-04-08T11:28:32Z</time>
      </trkpt>
      <trkpt lat="45.30791" lon="6.64954">
        <ele>2923</ele>
        <time>2012-04-08T11:28:37Z</time>
      </trkpt>
      <trkpt lat="45.30789" lon="6.64951">
        <ele>2924</ele>
        <time>2012-04-08T11:28:42Z</time>
      </trkpt>
      <trkpt lat="45.30787" lon="6.64949">
        <ele>2924</ele>
        <time>2012-04-08T11:28:47Z</time>
      </trkpt>
      <trkpt lat="45.30784" lon="6.64947">
        <ele>2925</ele>
        <time>2012-04-08T11:28:52Z</time>
      </trkpt>
      <trkpt lat="45.30782" lon="6.64945">
        <ele>2925</ele>
        <time>2012-04-08T11:28:57Z</time>
      </trkpt>
      <trkpt lat="45.30779" lon="6.64943">
        <ele>2926</ele>
        <time>2012-04-08T11:29:02Z</time>
      </trkpt>
      <trkpt lat="45.30777" lon="6.64941">
        <ele>2927</ele>
        <time>2012-04-08T11:29:07Z</time>
      </trkpt>
      <trkpt lat="45.30775" lon="6.64944">
        <ele>2927</ele>
        <time>2012-04-08T11:29:12Z</time>
      </trkpt>
      <trkpt lat="45.30774" lon="6.64948">
        <ele>2928</ele>
        <time>2012-04-08T11:29:17Z</time>
      </trkpt>
      <trkpt lat="45.30772" lon="6.64952">
        <ele>2928</ele>
        <time>2012-04-08T11:29:22Z</time>
      </trkpt>
      <trkpt lat="45.30771" lon="6.64958">
        <ele>2928</ele>
        <time>2012-04-08T11:29:27Z</time>
      </trkpt>
      <trkpt lat="45.30769" lon="6.64964">
        <ele>2928</ele>
        <time>2012-04-08T11:29:32Z</time>
      </trkpt>
      <trkpt lat="45.30766" lon="6.64965">
        <ele>2928</ele>
        <time>2012-04-08T11:29:37Z</time>
      </trkpt>
      <trkpt lat="45.30761" lon="6.64963">
        <ele>2928</ele>
        <time>2012-04-08T11:29:42Z</time>
      </trkpt>
      <trkpt lat="45.30757" lon="6.64962">
        <ele>2928</ele>
        <time>2012-04-08T11:29:47Z</time>
      </trkpt>
      <trkpt lat="45.30756" lon="6.64961">
        <ele>2928</ele>
        <time>2012-04-08T11:29:52Z</time>
      </trkpt>
      <trkpt lat="45.30756" lon="6.64961">
        <ele>2928</ele>
        <time>2012-04-08T11:29:57Z</time>
      </trkpt>
      <trkpt lat="45.30755" lon="6.64959">
        <ele>2928</ele>
        <time>2012-04-08T11:30:02Z</time>
      </trkpt>
      <trkpt lat="45.30753" lon="6.64955">
        <ele>2928</ele>
        <time>2012-04-08T11:30:07Z</time>
      </trkpt>
      <trkpt lat="45.30753" lon="6.64952">
        <ele>2928</ele>
        <time>2012-04-08T11:52:12Z</time>
      </trkpt>
      <trkpt lat="45.30753" lon="6.64952">
        <ele>2928</ele>
        <time>2012-04-08T11:52:17Z</time>
      </trkpt>
      <trkpt lat="45.30753" lon="6.64952">
        <ele>2928</ele>
        <time>2012-04-08T11:52:22Z</time>
      </trkpt>
      <trkpt lat="45.30753" lon="6.64952">
        <ele>2928</ele>
        <time>2012-04-08T11:52:27Z</time>
      </trkpt>
      <trkpt lat="45.30753" lon="6.64952">
        <ele>2928</ele>
        <time>2012-04-08T11:52:32Z</time>
      </trkpt>
      <trkpt lat="45.30755" lon="6.64952">
        <ele>2926</ele>
        <time>2012-04-08T11:53:42Z</time>
      </trkpt>
      <trkpt lat="45.30755" lon="6.64952">
        <ele>2927</ele>
        <time>2012-04-08T11:53:47Z</time>
      </trkpt>
      <trkpt lat="45.30758" lon="6.64957">
        <ele>2926</ele>
        <time>2012-04-08T11:53:52Z</time>
      </trkpt>
      <trkpt lat="45.3076" lon="6.64965">
        <ele>2926</ele>
        <time>2012-04-08T11:53:57Z</time>
      </trkpt>
      <trkpt lat="45.30762" lon="6.64969">
        <ele>2926</ele>
        <time>2012-04-08T11:54:02Z</time>
      </trkpt>
      <trkpt lat="45.30762" lon="6.64969">
        <ele>2926</ele>
        <time>2012-04-08T11:54:07Z</time>
      </trkpt>
      <trkpt lat="45.30762" lon="6.64969">
        <ele>2926</ele>
        <time>2012-04-08T11:54:12Z</time>
      </trkpt>
      <trkpt lat="45.30762" lon="6.64969">
        <ele>2925</ele>
        <time>2012-04-08T11:54:17Z</time>
      </trkpt>
      <trkpt lat="45.30762" lon="6.6497">
        <ele>2925</ele>
        <time>2012-04-08T11:54:22Z</time>
      </trkpt>
      <trkpt lat="45.30762" lon="6.6497">
        <ele>2925</ele>
        <time>2012-04-08T11:54:27Z</time>
      </trkpt>
      <trkpt lat="45.30761" lon="6.6497">
        <ele>2925</ele>
        <time>2012-04-08T11:54:32Z</time>
      </trkpt>
      <trkpt lat="45.30762" lon="6.6497">
        <ele>2925</ele>
        <time>2012-04-08T11:54:37Z</time>
      </trkpt>
      <trkpt lat="45.30761" lon="6.6497">
        <ele>2925</ele>
        <time>2012-04-08T11:54:42Z</time>
      </trkpt>
      <trkpt lat="45.30761" lon="6.6497">
        <ele>2925</ele>
        <time>2012-04-08T11:54:47Z</time>
      </trkpt>
      <trkpt lat="45.30761" lon="6.6497">
        <ele>2925</ele>
        <time>2012-04-08T11:54:52Z</time>
      </trkpt>
      <trkpt lat="45.30761" lon="6.6497">
        <ele>2925</ele>
        <time>2012-04-08T11:54:57Z</time>
      </trkpt>
      <trkpt lat="45.30761" lon="6.6497">
        <ele>2925</ele>
        <time>2012-04-08T11:55:02Z</time>
      </trkpt>
      <trkpt lat="45.30761" lon="6.6497">
        <ele>2925</ele>
        <time>2012-04-08T11:55:07Z</time>
      </trkpt>
      <trkpt lat="45.30761" lon="6.6497">
        <ele>2925</ele>
        <time>2012-04-08T11:55:12Z</time>
      </trkpt>
      <trkpt lat="45.30761" lon="6.6497">
        <ele>2925</ele>
        <time>2012-04-08T11:55:17Z</time>
      </trkpt>
      <trkpt lat="45.30761" lon="6.6497">
        <ele>2925</ele>
        <time>2012-04-08T11:55:22Z</time>
      </trkpt>
      <trkpt lat="45.30761" lon="6.6497">
        <ele>2925</ele>
        <time>2012-04-08T11:55:27Z</time>
      </trkpt>
      <trkpt lat="45.30761" lon="6.6497">
        <ele>2925</ele>
        <time>2012-04-08T11:55:32Z</time>
      </trkpt>
      <trkpt lat="45.30761" lon="6.6497">
        <ele>2925</ele>
        <time>2012-04-08T11:55:37Z</time>
      </trkpt>
      <trkpt lat="45.30761" lon="6.6497">
        <ele>2925</ele>
        <time>2012-04-08T11:55:42Z</time>
      </trkpt>
      <trkpt lat="45.30761" lon="6.6497">
        <ele>2924</ele>
        <time>2012-04-08T11:55:47Z</time>
      </trkpt>
      <trkpt lat="45.30761" lon="6.6497">
        <ele>2924</ele>
        <time>2012-04-08T11:55:52Z</time>
      </trkpt>
      <trkpt lat="45.30761" lon="6.6497">
        <ele>2924</ele>
        <time>2012-04-08T11:55:57Z</time>
      </trkpt>
      <trkpt lat="45.30761" lon="6.6497">
        <ele>2924</ele>
        <time>2012-04-08T11:56:02Z</time>
      </trkpt>
      <trkpt lat="45.30761" lon="6.6497">
        <ele>2924</ele>
        <time>2012-04-08T11:56:07Z</time>
      </trkpt>
      <trkpt lat="45.30761" lon="6.6497">
        <ele>2924</ele>
        <time>2012-04-08T11:56:12Z</time>
      </trkpt>
      <trkpt lat="45.30761" lon="6.64971">
        <ele>2924</ele>
        <time>2012-04-08T11:56:17Z</time>
      </trkpt>
      <trkpt lat="45.30761" lon="6.64971">
        <ele>2924</ele>
        <time>2012-04-08T11:56:22Z</time>
      </trkpt>
      <trkpt lat="45.3076" lon="6.64971">
        <ele>2924</ele>
        <time>2012-04-08T11:56:27Z</time>
      </trkpt>
      <trkpt lat="45.3076" lon="6.64972">
        <ele>2924</ele>
        <time>2012-04-08T11:56:32Z</time>
      </trkpt>
      <trkpt lat="45.30759" lon="6.64973">
        <ele>2924</ele>
        <time>2012-04-08T11:56:37Z</time>
      </trkpt>
      <trkpt lat="45.30758" lon="6.64974">
        <ele>2924</ele>
        <time>2012-04-08T11:56:42Z</time>
      </trkpt>
      <trkpt lat="45.30758" lon="6.64975">
        <ele>2924</ele>
        <time>2012-04-08T11:56:47Z</time>
      </trkpt>
      <trkpt lat="45.30758" lon="6.64974">
        <ele>2924</ele>
        <time>2012-04-08T11:56:52Z</time>
      </trkpt>
      <trkpt lat="45.30756" lon="6.64972">
        <ele>2924</ele>
        <time>2012-04-08T11:56:57Z</time>
      </trkpt>
      <trkpt lat="45.30756" lon="6.64972">
        <ele>2924</ele>
        <time>2012-04-08T11:57:02Z</time>
      </trkpt>
      <trkpt lat="45.30755" lon="6.64971">
        <ele>2923</ele>
        <time>2012-04-08T11:57:07Z</time>
      </trkpt>
      <trkpt lat="45.30755" lon="6.64971">
        <ele>2919</ele>
        <time>2012-04-08T11:57:12Z</time>
      </trkpt>
      <trkpt lat="45.30755" lon="6.64971">
        <ele>2920</ele>
        <time>2012-04-08T11:57:17Z</time>
      </trkpt>
      <trkpt lat="45.30755" lon="6.64971">
        <ele>2920</ele>
        <time>2012-04-08T11:57:22Z</time>
      </trkpt>
      <trkpt lat="45.30754" lon="6.64969">
        <ele>2921</ele>
        <time>2012-04-08T11:57:27Z</time>
      </trkpt>
      <trkpt lat="45.30753" lon="6.64968">
        <ele>2921</ele>
        <time>2012-04-08T11:57:32Z</time>
      </trkpt>
      <trkpt lat="45.30753" lon="6.64967">
        <ele>2921</ele>
        <time>2012-04-08T11:57:37Z</time>
      </trkpt>
      <trkpt lat="45.30753" lon="6.64967">
        <ele>2921</ele>
        <time>2012-04-08T11:57:42Z</time>
      </trkpt>
      <trkpt lat="45.30752" lon="6.64965">
        <ele>2921</ele>
        <time>2012-04-08T11:57:47Z</time>
      </trkpt>
      <trkpt lat="45.30752" lon="6.64965">
        <ele>2921</ele>
        <time>2012-04-08T11:57:52Z</time>
      </trkpt>
      <trkpt lat="45.30752" lon="6.64964">
        <ele>2921</ele>
        <time>2012-04-08T11:57:57Z</time>
      </trkpt>
      <trkpt lat="45.30751" lon="6.64964">
        <ele>2921</ele>
        <time>2012-04-08T11:58:02Z</time>
      </trkpt>
      <trkpt lat="45.30749" lon="6.64961">
        <ele>2920</ele>
        <time>2012-04-08T11:58:07Z</time>
      </trkpt>
      <trkpt lat="45.30747" lon="6.64959">
        <ele>2919</ele>
        <time>2012-04-08T11:58:12Z</time>
      </trkpt>
      <trkpt lat="45.30746" lon="6.64958">
        <ele>2919</ele>
        <time>2012-04-08T11:58:17Z</time>
      </trkpt>
      <trkpt lat="45.30745" lon="6.64958">
        <ele>2918</ele>
        <time>2012-04-08T11:58:22Z</time>
      </trkpt>
      <trkpt lat="45.30745" lon="6.64957">
        <ele>2918</ele>
        <time>2012-04-08T11:58:27Z</time>
      </trkpt>
      <trkpt lat="45.30743" lon="6.64955">
        <ele>2918</ele>
        <time>2012-04-08T11:58:32Z</time>
      </trkpt>
      <trkpt lat="45.30743" lon="6.64955">
        <ele>2918</ele>
        <time>2012-04-08T11:58:37Z</time>
      </trkpt>
      <trkpt lat="45.30742" lon="6.64955">
        <ele>2918</ele>
        <time>2012-04-08T11:58:42Z</time>
      </trkpt>
      <trkpt lat="45.30742" lon="6.64953">
        <ele>2918</ele>
        <time>2012-04-08T11:58:47Z</time>
      </trkpt>
      <trkpt lat="45.3074" lon="6.64953">
        <ele>2917</ele>
        <time>2012-04-08T11:58:52Z</time>
      </trkpt>
      <trkpt lat="45.3074" lon="6.64952">
        <ele>2917</ele>
        <time>2012-04-08T11:58:57Z</time>
      </trkpt>
      <trkpt lat="45.30739" lon="6.64951">
        <ele>2917</ele>
        <time>2012-04-08T11:59:02Z</time>
      </trkpt>
      <trkpt lat="45.30737" lon="6.6495">
        <ele>2917</ele>
        <time>2012-04-08T11:59:07Z</time>
      </trkpt>
      <trkpt lat="45.30737" lon="6.64949">
        <ele>2916</ele>
        <time>2012-04-08T11:59:12Z</time>
      </trkpt>
      <trkpt lat="45.30735" lon="6.64948">
        <ele>2916</ele>
        <time>2012-04-08T11:59:17Z</time>
      </trkpt>
      <trkpt lat="45.30734" lon="6.64948">
        <ele>2916</ele>
        <time>2012-04-08T11:59:22Z</time>
      </trkpt>
      <trkpt lat="45.30735" lon="6.64948">
        <ele>2916</ele>
        <time>2012-04-08T11:59:27Z</time>
      </trkpt>
      <trkpt lat="45.30735" lon="6.64948">
        <ele>2916</ele>
        <time>2012-04-08T11:59:32Z</time>
      </trkpt>
      <trkpt lat="45.30735" lon="6.64948">
        <ele>2916</ele>
        <time>2012-04-08T11:59:37Z</time>
      </trkpt>
      <trkpt lat="45.30735" lon="6.64949">
        <ele>2916</ele>
        <time>2012-04-08T11:59:42Z</time>
      </trkpt>
      <trkpt lat="45.30735" lon="6.64948">
        <ele>2916</ele>
        <time>2012-04-08T11:59:47Z</time>
      </trkpt>
      <trkpt lat="45.30735" lon="6.64949">
        <ele>2917</ele>
        <time>2012-04-08T11:59:52Z</time>
      </trkpt>
      <trkpt lat="45.30735" lon="6.64948">
        <ele>2917</ele>
        <time>2012-04-08T11:59:57Z</time>
      </trkpt>
      <trkpt lat="45.30735" lon="6.64949">
        <ele>2917</ele>
        <time>2012-04-08T12:00:02Z</time>
      </trkpt>
      <trkpt lat="45.30735" lon="6.64948">
        <ele>2916</ele>
        <time>2012-04-08T12:00:07Z</time>
      </trkpt>
      <trkpt lat="45.30735" lon="6.64948">
        <ele>2916</ele>
        <time>2012-04-08T12:00:12Z</time>
      </trkpt>
      <trkpt lat="45.30735" lon="6.64948">
        <ele>2916</ele>
        <time>2012-04-08T12:00:17Z</time>
      </trkpt>
      <trkpt lat="45.30735" lon="6.64948">
        <ele>2916</ele>
        <time>2012-04-08T12:00:22Z</time>
      </trkpt>
      <trkpt lat="45.30735" lon="6.64948">
        <ele>2917</ele>
        <time>2012-04-08T12:00:27Z</time>
      </trkpt>
      <trkpt lat="45.30735" lon="6.64948">
        <ele>2917</ele>
        <time>2012-04-08T12:00:32Z</time>
      </trkpt>
      <trkpt lat="45.30735" lon="6.64948">
        <ele>2916</ele>
        <time>2012-04-08T12:00:37Z</time>
      </trkpt>
      <trkpt lat="45.30735" lon="6.64948">
        <ele>2916</ele>
        <time>2012-04-08T12:00:42Z</time>
      </trkpt>
      <trkpt lat="45.30735" lon="6.64948">
        <ele>2916</ele>
        <time>2012-04-08T12:00:47Z</time>
      </trkpt>
      <trkpt lat="45.30735" lon="6.64948">
        <ele>2916</ele>
        <time>2012-04-08T12:00:52Z</time>
      </trkpt>
      <trkpt lat="45.30735" lon="6.64948">
        <ele>2917</ele>
        <time>2012-04-08T12:00:57Z</time>
      </trkpt>
      <trkpt lat="45.30735" lon="6.64948">
        <ele>2917</ele>
        <time>2012-04-08T12:01:02Z</time>
      </trkpt>
      <trkpt lat="45.30735" lon="6.64948">
        <ele>2917</ele>
        <time>2012-04-08T12:01:07Z</time>
      </trkpt>
      <trkpt lat="45.30734" lon="6.64948">
        <ele>2916</ele>
        <time>2012-04-08T12:01:12Z</time>
      </trkpt>
      <trkpt lat="45.30726" lon="6.64947">
        <ele>2911</ele>
        <time>2012-04-08T12:01:17Z</time>
      </trkpt>
      <trkpt lat="45.30729" lon="6.64959">
        <ele>2909</ele>
        <time>2012-04-08T12:01:22Z</time>
      </trkpt>
      <trkpt lat="45.30721" lon="6.64958">
        <ele>2905</ele>
        <time>2012-04-08T12:01:27Z</time>
      </trkpt>
      <trkpt lat="45.30718" lon="6.64954">
        <ele>2905</ele>
        <time>2012-04-08T12:01:32Z</time>
      </trkpt>
      <trkpt lat="45.30718" lon="6.64954">
        <ele>2905</ele>
        <time>2012-04-08T12:01:37Z</time>
      </trkpt>
      <trkpt lat="45.30718" lon="6.64954">
        <ele>2905</ele>
        <time>2012-04-08T12:01:42Z</time>
      </trkpt>
      <trkpt lat="45.30718" lon="6.64954">
        <ele>2905</ele>
        <time>2012-04-08T12:01:47Z</time>
      </trkpt>
      <trkpt lat="45.30718" lon="6.64954">
        <ele>2905</ele>
        <time>2012-04-08T12:01:52Z</time>
      </trkpt>
      <trkpt lat="45.30718" lon="6.64954">
        <ele>2905</ele>
        <time>2012-04-08T12:01:57Z</time>
      </trkpt>
      <trkpt lat="45.30718" lon="6.64954">
        <ele>2905</ele>
        <time>2012-04-08T12:02:02Z</time>
      </trkpt>
      <trkpt lat="45.30718" lon="6.64954">
        <ele>2905</ele>
        <time>2012-04-08T12:02:07Z</time>
      </trkpt>
      <trkpt lat="45.30718" lon="6.64954">
        <ele>2905</ele>
        <time>2012-04-08T12:02:12Z</time>
      </trkpt>
      <trkpt lat="45.30718" lon="6.64954">
        <ele>2905</ele>
        <time>2012-04-08T12:02:17Z</time>
      </trkpt>
      <trkpt lat="45.30718" lon="6.64954">
        <ele>2905</ele>
        <time>2012-04-08T12:02:22Z</time>
      </trkpt>
      <trkpt lat="45.30718" lon="6.64954">
        <ele>2905</ele>
        <time>2012-04-08T12:02:27Z</time>
      </trkpt>
      <trkpt lat="45.30718" lon="6.64954">
        <ele>2905</ele>
        <time>2012-04-08T12:02:32Z</time>
      </trkpt>
      <trkpt lat="45.30719" lon="6.64954">
        <ele>2905</ele>
        <time>2012-04-08T12:02:37Z</time>
      </trkpt>
      <trkpt lat="45.30718" lon="6.64954">
        <ele>2905</ele>
        <time>2012-04-08T12:02:42Z</time>
      </trkpt>
      <trkpt lat="45.30718" lon="6.64954">
        <ele>2905</ele>
        <time>2012-04-08T12:02:47Z</time>
      </trkpt>
      <trkpt lat="45.30718" lon="6.64954">
        <ele>2905</ele>
        <time>2012-04-08T12:02:52Z</time>
      </trkpt>
      <trkpt lat="45.30719" lon="6.64954">
        <ele>2905</ele>
        <time>2012-04-08T12:02:57Z</time>
      </trkpt>
      <trkpt lat="45.30719" lon="6.64954">
        <ele>2905</ele>
        <time>2012-04-08T12:03:02Z</time>
      </trkpt>
      <trkpt lat="45.30719" lon="6.64954">
        <ele>2905</ele>
        <time>2012-04-08T12:03:07Z</time>
      </trkpt>
      <trkpt lat="45.30718" lon="6.64954">
        <ele>2905</ele>
        <time>2012-04-08T12:03:12Z</time>
      </trkpt>
      <trkpt lat="45.30718" lon="6.64954">
        <ele>2905</ele>
        <time>2012-04-08T12:03:17Z</time>
      </trkpt>
      <trkpt lat="45.30718" lon="6.64954">
        <ele>2905</ele>
        <time>2012-04-08T12:03:22Z</time>
      </trkpt>
      <trkpt lat="45.30718" lon="6.64954">
        <ele>2905</ele>
        <time>2012-04-08T12:03:27Z</time>
      </trkpt>
      <trkpt lat="45.30718" lon="6.64954">
        <ele>2905</ele>
        <time>2012-04-08T12:03:32Z</time>
      </trkpt>
      <trkpt lat="45.30718" lon="6.64954">
        <ele>2905</ele>
        <time>2012-04-08T12:03:37Z</time>
      </trkpt>
      <trkpt lat="45.30718" lon="6.64954">
        <ele>2905</ele>
        <time>2012-04-08T12:03:42Z</time>
      </trkpt>
      <trkpt lat="45.30718" lon="6.64954">
        <ele>2902</ele>
        <time>2012-04-08T12:11:22Z</time>
      </trkpt>
      <trkpt lat="45.30718" lon="6.64954">
        <ele>2902</ele>
        <time>2012-04-08T12:11:27Z</time>
      </trkpt>
      <trkpt lat="45.30717" lon="6.64954">
        <ele>2902</ele>
        <time>2012-04-08T12:11:32Z</time>
      </trkpt>
      <trkpt lat="45.3071" lon="6.6495">
        <ele>2900</ele>
        <time>2012-04-08T12:11:37Z</time>
      </trkpt>
      <trkpt lat="45.3071" lon="6.64956">
        <ele>2897</ele>
        <time>2012-04-08T12:11:42Z</time>
      </trkpt>
      <trkpt lat="45.3071" lon="6.64963">
        <ele>2896</ele>
        <time>2012-04-08T12:11:47Z</time>
      </trkpt>
      <trkpt lat="45.30707" lon="6.64965">
        <ele>2894</ele>
        <time>2012-04-08T12:11:52Z</time>
      </trkpt>
      <trkpt lat="45.30705" lon="6.64964">
        <ele>2893</ele>
        <time>2012-04-08T12:11:57Z</time>
      </trkpt>
      <trkpt lat="45.30705" lon="6.64964">
        <ele>2893</ele>
        <time>2012-04-08T12:12:02Z</time>
      </trkpt>
      <trkpt lat="45.30704" lon="6.64964">
        <ele>2893</ele>
        <time>2012-04-08T12:12:07Z</time>
      </trkpt>
      <trkpt lat="45.30697" lon="6.64966">
        <ele>2891</ele>
        <time>2012-04-08T12:12:12Z</time>
      </trkpt>
      <trkpt lat="45.30691" lon="6.64967">
        <ele>2889</ele>
        <time>2012-04-08T12:12:17Z</time>
      </trkpt>
      <trkpt lat="45.30691" lon="6.64967">
        <ele>2889</ele>
        <time>2012-04-08T12:12:22Z</time>
      </trkpt>
      <trkpt lat="45.30691" lon="6.64967">
        <ele>2889</ele>
        <time>2012-04-08T12:12:27Z</time>
      </trkpt>
      <trkpt lat="45.30691" lon="6.64967">
        <ele>2889</ele>
        <time>2012-04-08T12:12:32Z</time>
      </trkpt>
      <trkpt lat="45.30691" lon="6.64967">
        <ele>2889</ele>
        <time>2012-04-08T12:12:37Z</time>
      </trkpt>
      <trkpt lat="45.30691" lon="6.64967">
        <ele>2888</ele>
        <time>2012-04-08T12:12:42Z</time>
      </trkpt>
      <trkpt lat="45.30691" lon="6.64967">
        <ele>2886</ele>
        <time>2012-04-08T12:12:47Z</time>
      </trkpt>
      <trkpt lat="45.30692" lon="6.64967">
        <ele>2884</ele>
        <time>2012-04-08T12:12:52Z</time>
      </trkpt>
      <trkpt lat="45.30693" lon="6.64966">
        <ele>2884</ele>
        <time>2012-04-08T12:12:57Z</time>
      </trkpt>
      <trkpt lat="45.30693" lon="6.64966">
        <ele>2884</ele>
        <time>2012-04-08T12:13:02Z</time>
      </trkpt>
      <trkpt lat="45.30693" lon="6.64966">
        <ele>2884</ele>
        <time>2012-04-08T12:13:07Z</time>
      </trkpt>
      <trkpt lat="45.30693" lon="6.64966">
        <ele>2883</ele>
        <time>2012-04-08T12:13:12Z</time>
      </trkpt>
      <trkpt lat="45.30694" lon="6.64966">
        <ele>2882</ele>
        <time>2012-04-08T12:13:17Z</time>
      </trkpt>
      <trkpt lat="45.30694" lon="6.64966">
        <ele>2881</ele>
        <time>2012-04-08T12:13:22Z</time>
      </trkpt>
      <trkpt lat="45.30694" lon="6.64966">
        <ele>2880</ele>
        <time>2012-04-08T12:13:27Z</time>
      </trkpt>
      <trkpt lat="45.30694" lon="6.64966">
        <ele>2880</ele>
        <time>2012-04-08T12:13:32Z</time>
      </trkpt>
      <trkpt lat="45.30695" lon="6.64966">
        <ele>2880</ele>
        <time>2012-04-08T12:13:37Z</time>
      </trkpt>
      <trkpt lat="45.30694" lon="6.64967">
        <ele>2881</ele>
        <time>2012-04-08T12:13:42Z</time>
      </trkpt>
      <trkpt lat="45.30693" lon="6.64968">
        <ele>2883</ele>
        <time>2012-04-08T12:13:47Z</time>
      </trkpt>
      <trkpt lat="45.30693" lon="6.64968">
        <ele>2885</ele>
        <time>2012-04-08T12:13:52Z</time>
      </trkpt>
      <trkpt lat="45.30692" lon="6.64968">
        <ele>2886</ele>
        <time>2012-04-08T12:13:57Z</time>
      </trkpt>
      <trkpt lat="45.30692" lon="6.64969">
        <ele>2887</ele>
        <time>2012-04-08T12:14:02Z</time>
      </trkpt>
      <trkpt lat="45.3069" lon="6.64971">
        <ele>2886</ele>
        <time>2012-04-08T12:14:07Z</time>
      </trkpt>
      <trkpt lat="45.30686" lon="6.64982">
        <ele>2885</ele>
        <time>2012-04-08T12:14:12Z</time>
      </trkpt>
      <trkpt lat="45.30685" lon="6.64987">
        <ele>2884</ele>
        <time>2012-04-08T12:14:17Z</time>
      </trkpt>
      <trkpt lat="45.30689" lon="6.64993">
        <ele>2883</ele>
        <time>2012-04-08T12:14:22Z</time>
      </trkpt>
      <trkpt lat="45.30689" lon="6.64995">
        <ele>2883</ele>
        <time>2012-04-08T12:14:27Z</time>
      </trkpt>
      <trkpt lat="45.30688" lon="6.64996">
        <ele>2883</ele>
        <time>2012-04-08T12:14:32Z</time>
      </trkpt>
      <trkpt lat="45.30686" lon="6.65002">
        <ele>2875</ele>
        <time>2012-04-08T12:14:37Z</time>
      </trkpt>
      <trkpt lat="45.30686" lon="6.65006">
        <ele>2875</ele>
        <time>2012-04-08T12:14:42Z</time>
      </trkpt>
      <trkpt lat="45.30682" lon="6.65003">
        <ele>2874</ele>
        <time>2012-04-08T12:14:47Z</time>
      </trkpt>
      <trkpt lat="45.3068" lon="6.65002">
        <ele>2873</ele>
        <time>2012-04-08T12:14:52Z</time>
      </trkpt>
      <trkpt lat="45.30679" lon="6.65002">
        <ele>2872</ele>
        <time>2012-04-08T12:14:57Z</time>
      </trkpt>
      <trkpt lat="45.30679" lon="6.65001">
        <ele>2872</ele>
        <time>2012-04-08T12:15:02Z</time>
      </trkpt>
      <trkpt lat="45.30679" lon="6.65001">
        <ele>2873</ele>
        <time>2012-04-08T12:15:07Z</time>
      </trkpt>
      <trkpt lat="45.30679" lon="6.65002">
        <ele>2873</ele>
        <time>2012-04-08T12:15:12Z</time>
      </trkpt>
      <trkpt lat="45.30679" lon="6.65006">
        <ele>2872</ele>
        <time>2012-04-08T12:15:17Z</time>
      </trkpt>
      <trkpt lat="45.3068" lon="6.65013">
        <ele>2871</ele>
        <time>2012-04-08T12:15:22Z</time>
      </trkpt>
      <trkpt lat="45.30681" lon="6.65022">
        <ele>2869</ele>
        <time>2012-04-08T12:15:27Z</time>
      </trkpt>
      <trkpt lat="45.30683" lon="6.65035">
        <ele>2867</ele>
        <time>2012-04-08T12:15:32Z</time>
      </trkpt>
      <trkpt lat="45.30688" lon="6.65043">
        <ele>2866</ele>
        <time>2012-04-08T12:15:37Z</time>
      </trkpt>
      <trkpt lat="45.30693" lon="6.65052">
        <ele>2864</ele>
        <time>2012-04-08T12:15:42Z</time>
      </trkpt>
      <trkpt lat="45.30695" lon="6.65056">
        <ele>2864</ele>
        <time>2012-04-08T12:15:47Z</time>
      </trkpt>
      <trkpt lat="45.30695" lon="6.65056">
        <ele>2864</ele>
        <time>2012-04-08T12:15:52Z</time>
      </trkpt>
      <trkpt lat="45.30695" lon="6.65056">
        <ele>2863</ele>
        <time>2012-04-08T12:15:57Z</time>
      </trkpt>
      <trkpt lat="45.30694" lon="6.65056">
        <ele>2863</ele>
        <time>2012-04-08T12:16:02Z</time>
      </trkpt>
      <trkpt lat="45.30694" lon="6.65056">
        <ele>2863</ele>
        <time>2012-04-08T12:16:07Z</time>
      </trkpt>
      <trkpt lat="45.30694" lon="6.65056">
        <ele>2863</ele>
        <time>2012-04-08T12:16:12Z</time>
      </trkpt>
      <trkpt lat="45.30694" lon="6.65056">
        <ele>2863</ele>
        <time>2012-04-08T12:16:17Z</time>
      </trkpt>
      <trkpt lat="45.30694" lon="6.65055">
        <ele>2864</ele>
        <time>2012-04-08T12:16:22Z</time>
      </trkpt>
      <trkpt lat="45.30694" lon="6.65056">
        <ele>2864</ele>
        <time>2012-04-08T12:16:27Z</time>
      </trkpt>
      <trkpt lat="45.30694" lon="6.65056">
        <ele>2864</ele>
        <time>2012-04-08T12:16:32Z</time>
      </trkpt>
      <trkpt lat="45.30695" lon="6.65058">
        <ele>2864</ele>
        <time>2012-04-08T12:16:37Z</time>
      </trkpt>
      <trkpt lat="45.30687" lon="6.65058">
        <ele>2862</ele>
        <time>2012-04-08T12:16:42Z</time>
      </trkpt>
      <trkpt lat="45.30682" lon="6.65063">
        <ele>2859</ele>
        <time>2012-04-08T12:16:47Z</time>
      </trkpt>
      <trkpt lat="45.3068" lon="6.65075">
        <ele>2856</ele>
        <time>2012-04-08T12:16:52Z</time>
      </trkpt>
      <trkpt lat="45.30665" lon="6.65074">
        <ele>2852</ele>
        <time>2012-04-08T12:16:57Z</time>
      </trkpt>
      <trkpt lat="45.3065" lon="6.65061">
        <ele>2849</ele>
        <time>2012-04-08T12:17:02Z</time>
      </trkpt>
      <trkpt lat="45.30645" lon="6.65064">
        <ele>2846</ele>
        <time>2012-04-08T12:17:07Z</time>
      </trkpt>
      <trkpt lat="45.30644" lon="6.65071">
        <ele>2845</ele>
        <time>2012-04-08T12:17:12Z</time>
      </trkpt>
      <trkpt lat="45.30642" lon="6.65084">
        <ele>2843</ele>
        <time>2012-04-08T12:17:17Z</time>
      </trkpt>
      <trkpt lat="45.30639" lon="6.65093">
        <ele>2841</ele>
        <time>2012-04-08T12:17:22Z</time>
      </trkpt>
      <trkpt lat="45.30634" lon="6.65084">
        <ele>2840</ele>
        <time>2012-04-08T12:17:27Z</time>
      </trkpt>
      <trkpt lat="45.30629" lon="6.65076">
        <ele>2838</ele>
        <time>2012-04-08T12:17:32Z</time>
      </trkpt>
      <trkpt lat="45.30629" lon="6.65072">
        <ele>2838</ele>
        <time>2012-04-08T12:17:37Z</time>
      </trkpt>
      <trkpt lat="45.30629" lon="6.65072">
        <ele>2838</ele>
        <time>2012-04-08T12:17:42Z</time>
      </trkpt>
      <trkpt lat="45.30629" lon="6.65073">
        <ele>2838</ele>
        <time>2012-04-08T12:17:47Z</time>
      </trkpt>
      <trkpt lat="45.30629" lon="6.65073">
        <ele>2838</ele>
        <time>2012-04-08T12:17:52Z</time>
      </trkpt>
      <trkpt lat="45.30629" lon="6.65073">
        <ele>2838</ele>
        <time>2012-04-08T12:17:57Z</time>
      </trkpt>
      <trkpt lat="45.30629" lon="6.65073">
        <ele>2838</ele>
        <time>2012-04-08T12:18:02Z</time>
      </trkpt>
      <trkpt lat="45.30629" lon="6.65073">
        <ele>2838</ele>
        <time>2012-04-08T12:18:07Z</time>
      </trkpt>
      <trkpt lat="45.30629" lon="6.65073">
        <ele>2838</ele>
        <time>2012-04-08T12:18:12Z</time>
      </trkpt>
      <trkpt lat="45.30629" lon="6.65073">
        <ele>2838</ele>
        <time>2012-04-08T12:18:17Z</time>
      </trkpt>
      <trkpt lat="45.30629" lon="6.65073">
        <ele>2838</ele>
        <time>2012-04-08T12:18:22Z</time>
      </trkpt>
      <trkpt lat="45.30629" lon="6.65073">
        <ele>2838</ele>
        <time>2012-04-08T12:18:27Z</time>
      </trkpt>
      <trkpt lat="45.30629" lon="6.65073">
        <ele>2838</ele>
        <time>2012-04-08T12:18:32Z</time>
      </trkpt>
      <trkpt lat="45.30629" lon="6.65073">
        <ele>2839</ele>
        <time>2012-04-08T12:18:37Z</time>
      </trkpt>
      <trkpt lat="45.30629" lon="6.65073">
        <ele>2839</ele>
        <time>2012-04-08T12:18:42Z</time>
      </trkpt>
      <trkpt lat="45.30628" lon="6.65073">
        <ele>2839</ele>
        <time>2012-04-08T12:18:47Z</time>
      </trkpt>
      <trkpt lat="45.30625" lon="6.65073">
        <ele>2837</ele>
        <time>2012-04-08T12:18:52Z</time>
      </trkpt>
      <trkpt lat="45.30621" lon="6.65076">
        <ele>2834</ele>
        <time>2012-04-08T12:18:57Z</time>
      </trkpt>
      <trkpt lat="45.30619" lon="6.65066">
        <ele>2832</ele>
        <time>2012-04-08T12:19:02Z</time>
      </trkpt>
      <trkpt lat="45.30618" lon="6.65056">
        <ele>2831</ele>
        <time>2012-04-08T12:19:07Z</time>
      </trkpt>
      <trkpt lat="45.30618" lon="6.65055">
        <ele>2830</ele>
        <time>2012-04-08T12:19:12Z</time>
      </trkpt>
      <trkpt lat="45.30618" lon="6.65055">
        <ele>2830</ele>
        <time>2012-04-08T12:19:17Z</time>
      </trkpt>
      <trkpt lat="45.30615" lon="6.65059">
        <ele>2828</ele>
        <time>2012-04-08T12:19:22Z</time>
      </trkpt>
      <trkpt lat="45.30612" lon="6.65068">
        <ele>2825</ele>
        <time>2012-04-08T12:19:27Z</time>
      </trkpt>
      <trkpt lat="45.30608" lon="6.6508">
        <ele>2821</ele>
        <time>2012-04-08T12:19:32Z</time>
      </trkpt>
      <trkpt lat="45.30604" lon="6.65093">
        <ele>2818</ele>
        <time>2012-04-08T12:19:37Z</time>
      </trkpt>
      <trkpt lat="45.30599" lon="6.65109">
        <ele>2813</ele>
        <time>2012-04-08T12:19:42Z</time>
      </trkpt>
      <trkpt lat="45.30593" lon="6.65126">
        <ele>2808</ele>
        <time>2012-04-08T12:19:47Z</time>
      </trkpt>
      <trkpt lat="45.30589" lon="6.6513">
        <ele>2804</ele>
        <time>2012-04-08T12:19:52Z</time>
      </trkpt>
      <trkpt lat="45.30582" lon="6.65138">
        <ele>2800</ele>
        <time>2012-04-08T12:19:57Z</time>
      </trkpt>
      <trkpt lat="45.30576" lon="6.65137">
        <ele>2796</ele>
        <time>2012-04-08T12:20:02Z</time>
      </trkpt>
      <trkpt lat="45.30576" lon="6.65137">
        <ele>2796</ele>
        <time>2012-04-08T12:20:07Z</time>
      </trkpt>
      <trkpt lat="45.30576" lon="6.65137">
        <ele>2795</ele>
        <time>2012-04-08T12:20:12Z</time>
      </trkpt>
      <trkpt lat="45.30576" lon="6.65136">
        <ele>2796</ele>
        <time>2012-04-08T12:20:17Z</time>
      </trkpt>
      <trkpt lat="45.30576" lon="6.65137">
        <ele>2796</ele>
        <time>2012-04-08T12:20:22Z</time>
      </trkpt>
      <trkpt lat="45.30576" lon="6.65137">
        <ele>2796</ele>
        <time>2012-04-08T12:20:27Z</time>
      </trkpt>
      <trkpt lat="45.30577" lon="6.65136">
        <ele>2796</ele>
        <time>2012-04-08T12:20:32Z</time>
      </trkpt>
      <trkpt lat="45.30576" lon="6.65139">
        <ele>2796</ele>
        <time>2012-04-08T12:20:37Z</time>
      </trkpt>
      <trkpt lat="45.30569" lon="6.65142">
        <ele>2793</ele>
        <time>2012-04-08T12:20:42Z</time>
      </trkpt>
      <trkpt lat="45.30559" lon="6.65145">
        <ele>2789</ele>
        <time>2012-04-08T12:20:47Z</time>
      </trkpt>
      <trkpt lat="45.30556" lon="6.6514">
        <ele>2786</ele>
        <time>2012-04-08T12:20:52Z</time>
      </trkpt>
      <trkpt lat="45.30551" lon="6.65141">
        <ele>2783</ele>
        <time>2012-04-08T12:20:57Z</time>
      </trkpt>
      <trkpt lat="45.30551" lon="6.65141">
        <ele>2782</ele>
        <time>2012-04-08T12:21:02Z</time>
      </trkpt>
      <trkpt lat="45.30551" lon="6.65141">
        <ele>2783</ele>
        <time>2012-04-08T12:21:07Z</time>
      </trkpt>
      <trkpt lat="45.30551" lon="6.65141">
        <ele>2783</ele>
        <time>2012-04-08T12:21:12Z</time>
      </trkpt>
      <trkpt lat="45.30551" lon="6.65142">
        <ele>2783</ele>
        <time>2012-04-08T12:21:17Z</time>
      </trkpt>
      <trkpt lat="45.30549" lon="6.65136">
        <ele>2782</ele>
        <time>2012-04-08T12:21:22Z</time>
      </trkpt>
      <trkpt lat="45.30551" lon="6.65119">
        <ele>2778</ele>
        <time>2012-04-08T12:21:27Z</time>
      </trkpt>
      <trkpt lat="45.3055" lon="6.65103">
        <ele>2775</ele>
        <time>2012-04-08T12:21:32Z</time>
      </trkpt>
      <trkpt lat="45.30546" lon="6.65086">
        <ele>2771</ele>
        <time>2012-04-08T12:21:37Z</time>
      </trkpt>
      <trkpt lat="45.30542" lon="6.6507">
        <ele>2768</ele>
        <time>2012-04-08T12:21:42Z</time>
      </trkpt>
      <trkpt lat="45.30536" lon="6.65072">
        <ele>2764</ele>
        <time>2012-04-08T12:21:47Z</time>
      </trkpt>
      <trkpt lat="45.30529" lon="6.65057">
        <ele>2759</ele>
        <time>2012-04-08T12:21:52Z</time>
      </trkpt>
      <trkpt lat="45.30525" lon="6.65065">
        <ele>2755</ele>
        <time>2012-04-08T12:21:57Z</time>
      </trkpt>
      <trkpt lat="45.30524" lon="6.65071">
        <ele>2752</ele>
        <time>2012-04-08T12:22:02Z</time>
      </trkpt>
      <trkpt lat="45.30516" lon="6.6507">
        <ele>2749</ele>
        <time>2012-04-08T12:22:07Z</time>
      </trkpt>
      <trkpt lat="45.30507" lon="6.65072">
        <ele>2744</ele>
        <time>2012-04-08T12:22:12Z</time>
      </trkpt>
      <trkpt lat="45.30507" lon="6.65071">
        <ele>2742</ele>
        <time>2012-04-08T12:22:17Z</time>
      </trkpt>
      <trkpt lat="45.30507" lon="6.65071">
        <ele>2741</ele>
        <time>2012-04-08T12:22:22Z</time>
      </trkpt>
      <trkpt lat="45.30504" lon="6.65082">
        <ele>2738</ele>
        <time>2012-04-08T12:22:27Z</time>
      </trkpt>
      <trkpt lat="45.30492" lon="6.65106">
        <ele>2733</ele>
        <time>2012-04-08T12:22:32Z</time>
      </trkpt>
      <trkpt lat="45.30483" lon="6.65124">
        <ele>2729</ele>
        <time>2012-04-08T12:22:37Z</time>
      </trkpt>
      <trkpt lat="45.30475" lon="6.65134">
        <ele>2727</ele>
        <time>2012-04-08T12:22:42Z</time>
      </trkpt>
      <trkpt lat="45.30472" lon="6.65131">
        <ele>2727</ele>
        <time>2012-04-08T12:22:47Z</time>
      </trkpt>
      <trkpt lat="45.30469" lon="6.65127">
        <ele>2727</ele>
        <time>2012-04-08T12:22:52Z</time>
      </trkpt>
      <trkpt lat="45.30467" lon="6.65125">
        <ele>2728</ele>
        <time>2012-04-08T12:22:57Z</time>
      </trkpt>
      <trkpt lat="45.30463" lon="6.65124">
        <ele>2728</ele>
        <time>2012-04-08T12:23:02Z</time>
      </trkpt>
      <trkpt lat="45.30459" lon="6.65126">
        <ele>2727</ele>
        <time>2012-04-08T12:23:07Z</time>
      </trkpt>
      <trkpt lat="45.30456" lon="6.65128">
        <ele>2727</ele>
        <time>2012-04-08T12:23:12Z</time>
      </trkpt>
      <trkpt lat="45.30456" lon="6.65127">
        <ele>2727</ele>
        <time>2012-04-08T12:23:17Z</time>
      </trkpt>
      <trkpt lat="45.30456" lon="6.65127">
        <ele>2727</ele>
        <time>2012-04-08T12:23:22Z</time>
      </trkpt>
      <trkpt lat="45.30456" lon="6.65127">
        <ele>2727</ele>
        <time>2012-04-08T12:23:27Z</time>
      </trkpt>
      <trkpt lat="45.30456" lon="6.65126">
        <ele>2727</ele>
        <time>2012-04-08T12:23:32Z</time>
      </trkpt>
      <trkpt lat="45.30456" lon="6.65127">
        <ele>2727</ele>
        <time>2012-04-08T12:23:37Z</time>
      </trkpt>
      <trkpt lat="45.30456" lon="6.65127">
        <ele>2727</ele>
        <time>2012-04-08T12:23:42Z</time>
      </trkpt>
      <trkpt lat="45.30457" lon="6.65127">
        <ele>2728</ele>
        <time>2012-04-08T12:23:47Z</time>
      </trkpt>
      <trkpt lat="45.30457" lon="6.65127">
        <ele>2729</ele>
        <time>2012-04-08T12:23:52Z</time>
      </trkpt>
      <trkpt lat="45.30456" lon="6.65127">
        <ele>2729</ele>
        <time>2012-04-08T12:23:57Z</time>
      </trkpt>
      <trkpt lat="45.30456" lon="6.65126">
        <ele>2729</ele>
        <time>2012-04-08T12:24:02Z</time>
      </trkpt>
      <trkpt lat="45.30456" lon="6.65126">
        <ele>2729</ele>
        <time>2012-04-08T12:24:07Z</time>
      </trkpt>
      <trkpt lat="45.30456" lon="6.65126">
        <ele>2729</ele>
        <time>2012-04-08T12:24:12Z</time>
      </trkpt>
      <trkpt lat="45.30456" lon="6.65126">
        <ele>2730</ele>
        <time>2012-04-08T12:24:17Z</time>
      </trkpt>
      <trkpt lat="45.30456" lon="6.65126">
        <ele>2729</ele>
        <time>2012-04-08T12:24:22Z</time>
      </trkpt>
      <trkpt lat="45.30455" lon="6.65128">
        <ele>2729</ele>
        <time>2012-04-08T12:24:27Z</time>
      </trkpt>
      <trkpt lat="45.30453" lon="6.65133">
        <ele>2729</ele>
        <time>2012-04-08T12:24:32Z</time>
      </trkpt>
      <trkpt lat="45.30451" lon="6.65135">
        <ele>2728</ele>
        <time>2012-04-08T12:24:37Z</time>
      </trkpt>
      <trkpt lat="45.30449" lon="6.65141">
        <ele>2727</ele>
        <time>2012-04-08T12:24:42Z</time>
      </trkpt>
      <trkpt lat="45.30448" lon="6.65148">
        <ele>2725</ele>
        <time>2012-04-08T12:24:47Z</time>
      </trkpt>
      <trkpt lat="45.30447" lon="6.6515">
        <ele>2724</ele>
        <time>2012-04-08T12:24:52Z</time>
      </trkpt>
      <trkpt lat="45.30447" lon="6.65154">
        <ele>2723</ele>
        <time>2012-04-08T12:24:57Z</time>
      </trkpt>
      <trkpt lat="45.30446" lon="6.65158">
        <ele>2722</ele>
        <time>2012-04-08T12:25:02Z</time>
      </trkpt>
      <trkpt lat="45.3044" lon="6.65158">
        <ele>2718</ele>
        <time>2012-04-08T12:25:07Z</time>
      </trkpt>
      <trkpt lat="45.30436" lon="6.65143">
        <ele>2715</ele>
        <time>2012-04-08T12:25:12Z</time>
      </trkpt>
      <trkpt lat="45.3043" lon="6.65148">
        <ele>2711</ele>
        <time>2012-04-08T12:25:17Z</time>
      </trkpt>
      <trkpt lat="45.30425" lon="6.6514">
        <ele>2707</ele>
        <time>2012-04-08T12:25:22Z</time>
      </trkpt>
      <trkpt lat="45.3042" lon="6.65126">
        <ele>2705</ele>
        <time>2012-04-08T12:25:27Z</time>
      </trkpt>
      <trkpt lat="45.30412" lon="6.65136">
        <ele>2702</ele>
        <time>2012-04-08T12:25:32Z</time>
      </trkpt>
      <trkpt lat="45.30397" lon="6.6513">
        <ele>2698</ele>
        <time>2012-04-08T12:25:37Z</time>
      </trkpt>
      <trkpt lat="45.30391" lon="6.65115">
        <ele>2696</ele>
        <time>2012-04-08T12:25:42Z</time>
      </trkpt>
      <trkpt lat="45.30383" lon="6.65114">
        <ele>2694</ele>
        <time>2012-04-08T12:25:47Z</time>
      </trkpt>
      <trkpt lat="45.30367" lon="6.65121">
        <ele>2692</ele>
        <time>2012-04-08T12:25:52Z</time>
      </trkpt>
      <trkpt lat="45.30348" lon="6.65133">
        <ele>2688</ele>
        <time>2012-04-08T12:25:57Z</time>
      </trkpt>
      <trkpt lat="45.30328" lon="6.65138">
        <ele>2684</ele>
        <time>2012-04-08T12:26:02Z</time>
      </trkpt>
      <trkpt lat="45.30315" lon="6.65135">
        <ele>2682</ele>
        <time>2012-04-08T12:26:07Z</time>
      </trkpt>
      <trkpt lat="45.30302" lon="6.6514">
        <ele>2678</ele>
        <time>2012-04-08T12:26:12Z</time>
      </trkpt>
      <trkpt lat="45.30287" lon="6.65149">
        <ele>2676</ele>
        <time>2012-04-08T12:26:17Z</time>
      </trkpt>
      <trkpt lat="45.3028" lon="6.65148">
        <ele>2676</ele>
        <time>2012-04-08T12:26:22Z</time>
      </trkpt>
      <trkpt lat="45.30274" lon="6.65143">
        <ele>2675</ele>
        <time>2012-04-08T12:26:27Z</time>
      </trkpt>
      <trkpt lat="45.30265" lon="6.65136">
        <ele>2674</ele>
        <time>2012-04-08T12:26:32Z</time>
      </trkpt>
      <trkpt lat="45.30256" lon="6.65128">
        <ele>2673</ele>
        <time>2012-04-08T12:26:37Z</time>
      </trkpt>
      <trkpt lat="45.3024" lon="6.65118">
        <ele>2669</ele>
        <time>2012-04-08T12:26:42Z</time>
      </trkpt>
      <trkpt lat="45.30211" lon="6.65105">
        <ele>2664</ele>
        <time>2012-04-08T12:26:47Z</time>
      </trkpt>
      <trkpt lat="45.30186" lon="6.65091">
        <ele>2660</ele>
        <time>2012-04-08T12:26:52Z</time>
      </trkpt>
      <trkpt lat="45.30166" lon="6.65073">
        <ele>2657</ele>
        <time>2012-04-08T12:26:57Z</time>
      </trkpt>
      <trkpt lat="45.30154" lon="6.65069">
        <ele>2657</ele>
        <time>2012-04-08T12:27:02Z</time>
      </trkpt>
      <trkpt lat="45.30147" lon="6.65063">
        <ele>2656</ele>
        <time>2012-04-08T12:27:07Z</time>
      </trkpt>
      <trkpt lat="45.30143" lon="6.65061">
        <ele>2656</ele>
        <time>2012-04-08T12:27:12Z</time>
      </trkpt>
      <trkpt lat="45.3014" lon="6.65059">
        <ele>2655</ele>
        <time>2012-04-08T12:27:17Z</time>
      </trkpt>
      <trkpt lat="45.3014" lon="6.65059">
        <ele>2655</ele>
        <time>2012-04-08T12:27:22Z</time>
      </trkpt>
      <trkpt lat="45.30141" lon="6.65059">
        <ele>2655</ele>
        <time>2012-04-08T12:27:27Z</time>
      </trkpt>
      <trkpt lat="45.30141" lon="6.65059">
        <ele>2654</ele>
        <time>2012-04-08T12:27:32Z</time>
      </trkpt>
      <trkpt lat="45.3014" lon="6.65059">
        <ele>2654</ele>
        <time>2012-04-08T12:27:37Z</time>
      </trkpt>
      <trkpt lat="45.3014" lon="6.65059">
        <ele>2655</ele>
        <time>2012-04-08T12:27:42Z</time>
      </trkpt>
      <trkpt lat="45.30141" lon="6.65059">
        <ele>2655</ele>
        <time>2012-04-08T12:27:47Z</time>
      </trkpt>
      <trkpt lat="45.3014" lon="6.65058">
        <ele>2656</ele>
        <time>2012-04-08T12:27:52Z</time>
      </trkpt>
      <trkpt lat="45.30137" lon="6.65057">
        <ele>2656</ele>
        <time>2012-04-08T12:27:57Z</time>
      </trkpt>
      <trkpt lat="45.30134" lon="6.65056">
        <ele>2656</ele>
        <time>2012-04-08T12:28:02Z</time>
      </trkpt>
      <trkpt lat="45.30131" lon="6.65055">
        <ele>2656</ele>
        <time>2012-04-08T12:28:07Z</time>
      </trkpt>
      <trkpt lat="45.30127" lon="6.65052">
        <ele>2656</ele>
        <time>2012-04-08T12:28:12Z</time>
      </trkpt>
      <trkpt lat="45.30122" lon="6.65048">
        <ele>2655</ele>
        <time>2012-04-08T12:28:17Z</time>
      </trkpt>
      <trkpt lat="45.30112" lon="6.65042">
        <ele>2653</ele>
        <time>2012-04-08T12:28:22Z</time>
      </trkpt>
      <trkpt lat="45.30107" lon="6.65023">
        <ele>2651</ele>
        <time>2012-04-08T12:28:27Z</time>
      </trkpt>
      <trkpt lat="45.30101" lon="6.64999">
        <ele>2654</ele>
        <time>2012-04-08T12:28:32Z</time>
      </trkpt>
      <trkpt lat="45.30095" lon="6.64973">
        <ele>2650</ele>
        <time>2012-04-08T12:28:37Z</time>
      </trkpt>
      <trkpt lat="45.30084" lon="6.64962">
        <ele>2648</ele>
        <time>2012-04-08T12:28:42Z</time>
      </trkpt>
      <trkpt lat="45.30076" lon="6.64948">
        <ele>2647</ele>
        <time>2012-04-08T12:28:47Z</time>
      </trkpt>
      <trkpt lat="45.30072" lon="6.64932">
        <ele>2645</ele>
        <time>2012-04-08T12:28:52Z</time>
      </trkpt>
      <trkpt lat="45.30057" lon="6.64933">
        <ele>2643</ele>
        <time>2012-04-08T12:28:57Z</time>
      </trkpt>
      <trkpt lat="45.30046" lon="6.64929">
        <ele>2641</ele>
        <time>2012-04-08T12:29:02Z</time>
      </trkpt>
      <trkpt lat="45.30045" lon="6.64912">
        <ele>2637</ele>
        <time>2012-04-08T12:29:07Z</time>
      </trkpt>
      <trkpt lat="45.3004" lon="6.64899">
        <ele>2633</ele>
        <time>2012-04-08T12:29:12Z</time>
      </trkpt>
      <trkpt lat="45.30035" lon="6.64876">
        <ele>2630</ele>
        <time>2012-04-08T12:29:17Z</time>
      </trkpt>
      <trkpt lat="45.30023" lon="6.6486">
        <ele>2627</ele>
        <time>2012-04-08T12:29:22Z</time>
      </trkpt>
      <trkpt lat="45.30005" lon="6.64856">
        <ele>2622</ele>
        <time>2012-04-08T12:29:27Z</time>
      </trkpt>
      <trkpt lat="45.29987" lon="6.64841">
        <ele>2618</ele>
        <time>2012-04-08T12:29:32Z</time>
      </trkpt>
      <trkpt lat="45.29971" lon="6.64838">
        <ele>2612</ele>
        <time>2012-04-08T12:29:37Z</time>
      </trkpt>
      <trkpt lat="45.29963" lon="6.64835">
        <ele>2607</ele>
        <time>2012-04-08T12:29:42Z</time>
      </trkpt>
      <trkpt lat="45.29963" lon="6.64834">
        <ele>2607</ele>
        <time>2012-04-08T12:29:47Z</time>
      </trkpt>
      <trkpt lat="45.29963" lon="6.64834">
        <ele>2606</ele>
        <time>2012-04-08T12:29:52Z</time>
      </trkpt>
      <trkpt lat="45.29963" lon="6.64835">
        <ele>2607</ele>
        <time>2012-04-08T12:29:57Z</time>
      </trkpt>
      <trkpt lat="45.29963" lon="6.64835">
        <ele>2608</ele>
        <time>2012-04-08T12:30:02Z</time>
      </trkpt>
      <trkpt lat="45.29963" lon="6.64836">
        <ele>2608</ele>
        <time>2012-04-08T12:30:07Z</time>
      </trkpt>
      <trkpt lat="45.29963" lon="6.64836">
        <ele>2609</ele>
        <time>2012-04-08T12:30:12Z</time>
      </trkpt>
      <trkpt lat="45.29963" lon="6.64836">
        <ele>2609</ele>
        <time>2012-04-08T12:30:17Z</time>
      </trkpt>
      <trkpt lat="45.29963" lon="6.64837">
        <ele>2609</ele>
        <time>2012-04-08T12:30:22Z</time>
      </trkpt>
      <trkpt lat="45.29963" lon="6.64836">
        <ele>2608</ele>
        <time>2012-04-08T12:30:27Z</time>
      </trkpt>
      <trkpt lat="45.2996" lon="6.64835">
        <ele>2607</ele>
        <time>2012-04-08T12:30:32Z</time>
      </trkpt>
      <trkpt lat="45.2996" lon="6.64834">
        <ele>2606</ele>
        <time>2012-04-08T12:30:37Z</time>
      </trkpt>
      <trkpt lat="45.2996" lon="6.64835">
        <ele>2605</ele>
        <time>2012-04-08T12:30:42Z</time>
      </trkpt>
      <trkpt lat="45.29958" lon="6.64845">
        <ele>2604</ele>
        <time>2012-04-08T12:30:47Z</time>
      </trkpt>
      <trkpt lat="45.29955" lon="6.64871">
        <ele>2599</ele>
        <time>2012-04-08T12:30:52Z</time>
      </trkpt>
      <trkpt lat="45.29954" lon="6.64881">
        <ele>2597</ele>
        <time>2012-04-08T12:30:57Z</time>
      </trkpt>
      <trkpt lat="45.29945" lon="6.64872">
        <ele>2594</ele>
        <time>2012-04-08T12:31:02Z</time>
      </trkpt>
      <trkpt lat="45.29938" lon="6.64879">
        <ele>2590</ele>
        <time>2012-04-08T12:31:07Z</time>
      </trkpt>
      <trkpt lat="45.29929" lon="6.64885">
        <ele>2584</ele>
        <time>2012-04-08T12:31:12Z</time>
      </trkpt>
      <trkpt lat="45.29931" lon="6.64892">
        <ele>2583</ele>
        <time>2012-04-08T12:31:17Z</time>
      </trkpt>
      <trkpt lat="45.29931" lon="6.64892">
        <ele>2583</ele>
        <time>2012-04-08T12:31:22Z</time>
      </trkpt>
      <trkpt lat="45.29931" lon="6.64892">
        <ele>2584</ele>
        <time>2012-04-08T12:31:27Z</time>
      </trkpt>
      <trkpt lat="45.29931" lon="6.64892">
        <ele>2583</ele>
        <time>2012-04-08T12:31:32Z</time>
      </trkpt>
      <trkpt lat="45.29931" lon="6.64892">
        <ele>2583</ele>
        <time>2012-04-08T12:31:37Z</time>
      </trkpt>
      <trkpt lat="45.29931" lon="6.64892">
        <ele>2583</ele>
        <time>2012-04-08T12:31:42Z</time>
      </trkpt>
      <trkpt lat="45.29931" lon="6.64892">
        <ele>2582</ele>
        <time>2012-04-08T12:31:47Z</time>
      </trkpt>
      <trkpt lat="45.29931" lon="6.64893">
        <ele>2581</ele>
        <time>2012-04-08T12:31:52Z</time>
      </trkpt>
      <trkpt lat="45.29931" lon="6.64893">
        <ele>2581</ele>
        <time>2012-04-08T12:31:57Z</time>
      </trkpt>
      <trkpt lat="45.29931" lon="6.64893">
        <ele>2581</ele>
        <time>2012-04-08T12:32:02Z</time>
      </trkpt>
      <trkpt lat="45.29932" lon="6.64898">
        <ele>2579</ele>
        <time>2012-04-08T12:32:07Z</time>
      </trkpt>
      <trkpt lat="45.29933" lon="6.64916">
        <ele>2577</ele>
        <time>2012-04-08T12:32:12Z</time>
      </trkpt>
      <trkpt lat="45.29935" lon="6.64925">
        <ele>2575</ele>
        <time>2012-04-08T12:32:17Z</time>
      </trkpt>
      <trkpt lat="45.29929" lon="6.6493">
        <ele>2572</ele>
        <time>2012-04-08T12:32:22Z</time>
      </trkpt>
      <trkpt lat="45.29934" lon="6.64942">
        <ele>2569</ele>
        <time>2012-04-08T12:32:27Z</time>
      </trkpt>
      <trkpt lat="45.29939" lon="6.64961">
        <ele>2567</ele>
        <time>2012-04-08T12:32:32Z</time>
      </trkpt>
      <trkpt lat="45.2994" lon="6.64973">
        <ele>2565</ele>
        <time>2012-04-08T12:32:37Z</time>
      </trkpt>
      <trkpt lat="45.29939" lon="6.64985">
        <ele>2563</ele>
        <time>2012-04-08T12:32:42Z</time>
      </trkpt>
      <trkpt lat="45.2994" lon="6.64996">
        <ele>2562</ele>
        <time>2012-04-08T12:32:47Z</time>
      </trkpt>
      <trkpt lat="45.2994" lon="6.65003">
        <ele>2555</ele>
        <time>2012-04-08T12:32:52Z</time>
      </trkpt>
      <trkpt lat="45.2994" lon="6.65007">
        <ele>2555</ele>
        <time>2012-04-08T12:32:57Z</time>
      </trkpt>
      <trkpt lat="45.2994" lon="6.65015">
        <ele>2554</ele>
        <time>2012-04-08T12:33:02Z</time>
      </trkpt>
      <trkpt lat="45.29941" lon="6.65022">
        <ele>2554</ele>
        <time>2012-04-08T12:33:07Z</time>
      </trkpt>
      <trkpt lat="45.29941" lon="6.65031">
        <ele>2553</ele>
        <time>2012-04-08T12:33:12Z</time>
      </trkpt>
      <trkpt lat="45.29939" lon="6.65044">
        <ele>2553</ele>
        <time>2012-04-08T12:33:17Z</time>
      </trkpt>
      <trkpt lat="45.29938" lon="6.65056">
        <ele>2552</ele>
        <time>2012-04-08T12:33:22Z</time>
      </trkpt>
      <trkpt lat="45.29938" lon="6.65069">
        <ele>2552</ele>
        <time>2012-04-08T12:33:27Z</time>
      </trkpt>
      <trkpt lat="45.29938" lon="6.65078">
        <ele>2551</ele>
        <time>2012-04-08T12:33:32Z</time>
      </trkpt>
      <trkpt lat="45.29937" lon="6.65078">
        <ele>2551</ele>
        <time>2012-04-08T12:33:37Z</time>
      </trkpt>
      <trkpt lat="45.29937" lon="6.65078">
        <ele>2550</ele>
        <time>2012-04-08T12:33:42Z</time>
      </trkpt>
      <trkpt lat="45.29935" lon="6.6508">
        <ele>2549</ele>
        <time>2012-04-08T12:33:47Z</time>
      </trkpt>
      <trkpt lat="45.29935" lon="6.65084">
        <ele>2548</ele>
        <time>2012-04-08T12:33:52Z</time>
      </trkpt>
      <trkpt lat="45.29935" lon="6.65087">
        <ele>2548</ele>
        <time>2012-04-08T12:33:57Z</time>
      </trkpt>
      <trkpt lat="45.29937" lon="6.65088">
        <ele>2549</ele>
        <time>2012-04-08T12:34:02Z</time>
      </trkpt>
      <trkpt lat="45.29938" lon="6.6509">
        <ele>2549</ele>
        <time>2012-04-08T12:34:07Z</time>
      </trkpt>
      <trkpt lat="45.29938" lon="6.65093">
        <ele>2549</ele>
        <time>2012-04-08T12:34:12Z</time>
      </trkpt>
      <trkpt lat="45.29939" lon="6.65095">
        <ele>2549</ele>
        <time>2012-04-08T12:34:17Z</time>
      </trkpt>
      <trkpt lat="45.29939" lon="6.65097">
        <ele>2549</ele>
        <time>2012-04-08T12:34:22Z</time>
      </trkpt>
      <trkpt lat="45.29939" lon="6.651">
        <ele>2548</ele>
        <time>2012-04-08T12:34:27Z</time>
      </trkpt>
      <trkpt lat="45.29939" lon="6.65103">
        <ele>2548</ele>
        <time>2012-04-08T12:34:32Z</time>
      </trkpt>
      <trkpt lat="45.29936" lon="6.6511">
        <ele>2546</ele>
        <time>2012-04-08T12:34:37Z</time>
      </trkpt>
      <trkpt lat="45.29933" lon="6.65124">
        <ele>2543</ele>
        <time>2012-04-08T12:34:42Z</time>
      </trkpt>
      <trkpt lat="45.29932" lon="6.65125">
        <ele>2542</ele>
        <time>2012-04-08T12:34:47Z</time>
      </trkpt>
      <trkpt lat="45.29931" lon="6.65123">
        <ele>2541</ele>
        <time>2012-04-08T12:34:52Z</time>
      </trkpt>
      <trkpt lat="45.29931" lon="6.65127">
        <ele>2540</ele>
        <time>2012-04-08T12:34:57Z</time>
      </trkpt>
      <trkpt lat="45.29931" lon="6.6513">
        <ele>2540</ele>
        <time>2012-04-08T12:35:02Z</time>
      </trkpt>
      <trkpt lat="45.29932" lon="6.65131">
        <ele>2541</ele>
        <time>2012-04-08T12:35:07Z</time>
      </trkpt>
      <trkpt lat="45.29932" lon="6.65131">
        <ele>2541</ele>
        <time>2012-04-08T12:35:12Z</time>
      </trkpt>
      <trkpt lat="45.29932" lon="6.65134">
        <ele>2540</ele>
        <time>2012-04-08T12:35:17Z</time>
      </trkpt>
      <trkpt lat="45.29933" lon="6.65139">
        <ele>2540</ele>
        <time>2012-04-08T12:35:22Z</time>
      </trkpt>
      <trkpt lat="45.29933" lon="6.65143">
        <ele>2540</ele>
        <time>2012-04-08T12:35:27Z</time>
      </trkpt>
      <trkpt lat="45.29934" lon="6.65146">
        <ele>2540</ele>
        <time>2012-04-08T12:35:32Z</time>
      </trkpt>
      <trkpt lat="45.29933" lon="6.65148">
        <ele>2539</ele>
        <time>2012-04-08T12:35:37Z</time>
      </trkpt>
      <trkpt lat="45.29932" lon="6.65148">
        <ele>2539</ele>
        <time>2012-04-08T12:35:42Z</time>
      </trkpt>
      <trkpt lat="45.29931" lon="6.65151">
        <ele>2538</ele>
        <time>2012-04-08T12:35:47Z</time>
      </trkpt>
      <trkpt lat="45.2993" lon="6.65153">
        <ele>2537</ele>
        <time>2012-04-08T12:35:52Z</time>
      </trkpt>
      <trkpt lat="45.29929" lon="6.65154">
        <ele>2536</ele>
        <time>2012-04-08T12:35:57Z</time>
      </trkpt>
      <trkpt lat="45.29929" lon="6.65157">
        <ele>2536</ele>
        <time>2012-04-08T12:36:02Z</time>
      </trkpt>
      <trkpt lat="45.29928" lon="6.65162">
        <ele>2535</ele>
        <time>2012-04-08T12:36:07Z</time>
      </trkpt>
      <trkpt lat="45.29929" lon="6.65161">
        <ele>2535</ele>
        <time>2012-04-08T12:36:12Z</time>
      </trkpt>
      <trkpt lat="45.29928" lon="6.65162">
        <ele>2535</ele>
        <time>2012-04-08T12:36:17Z</time>
      </trkpt>
      <trkpt lat="45.29928" lon="6.65163">
        <ele>2535</ele>
        <time>2012-04-08T12:36:22Z</time>
      </trkpt>
      <trkpt lat="45.29926" lon="6.65167">
        <ele>2535</ele>
        <time>2012-04-08T12:36:27Z</time>
      </trkpt>
      <trkpt lat="45.29926" lon="6.65167">
        <ele>2536</ele>
        <time>2012-04-08T12:36:32Z</time>
      </trkpt>
      <trkpt lat="45.29926" lon="6.65167">
        <ele>2536</ele>
        <time>2012-04-08T12:36:37Z</time>
      </trkpt>
      <trkpt lat="45.29926" lon="6.65167">
        <ele>2536</ele>
        <time>2012-04-08T12:36:42Z</time>
      </trkpt>
      <trkpt lat="45.29926" lon="6.65167">
        <ele>2537</ele>
        <time>2012-04-08T12:36:47Z</time>
      </trkpt>
      <trkpt lat="45.29926" lon="6.65167">
        <ele>2537</ele>
        <time>2012-04-08T12:36:52Z</time>
      </trkpt>
      <trkpt lat="45.29926" lon="6.65167">
        <ele>2537</ele>
        <time>2012-04-08T12:36:57Z</time>
      </trkpt>
      <trkpt lat="45.29926" lon="6.65166">
        <ele>2537</ele>
        <time>2012-04-08T12:37:02Z</time>
      </trkpt>
      <trkpt lat="45.29926" lon="6.65166">
        <ele>2537</ele>
        <time>2012-04-08T12:37:07Z</time>
      </trkpt>
      <trkpt lat="45.29926" lon="6.65166">
        <ele>2538</ele>
        <time>2012-04-08T12:37:12Z</time>
      </trkpt>
      <trkpt lat="45.29926" lon="6.65166">
        <ele>2538</ele>
        <time>2012-04-08T12:37:17Z</time>
      </trkpt>
      <trkpt lat="45.29925" lon="6.65166">
        <ele>2538</ele>
        <time>2012-04-08T12:37:22Z</time>
      </trkpt>
      <trkpt lat="45.29925" lon="6.65166">
        <ele>2538</ele>
        <time>2012-04-08T12:37:27Z</time>
      </trkpt>
      <trkpt lat="45.29925" lon="6.65166">
        <ele>2538</ele>
        <time>2012-04-08T12:37:32Z</time>
      </trkpt>
      <trkpt lat="45.29925" lon="6.65166">
        <ele>2538</ele>
        <time>2012-04-08T12:37:37Z</time>
      </trkpt>
      <trkpt lat="45.29925" lon="6.65166">
        <ele>2538</ele>
        <time>2012-04-08T12:37:42Z</time>
      </trkpt>
      <trkpt lat="45.29925" lon="6.65166">
        <ele>2538</ele>
        <time>2012-04-08T12:37:47Z</time>
      </trkpt>
      <trkpt lat="45.29924" lon="6.65165">
        <ele>2538</ele>
        <time>2012-04-08T12:37:52Z</time>
      </trkpt>
      <trkpt lat="45.29925" lon="6.65165">
        <ele>2538</ele>
        <time>2012-04-08T12:37:57Z</time>
      </trkpt>
      <trkpt lat="45.29925" lon="6.65165">
        <ele>2537</ele>
        <time>2012-04-08T12:38:02Z</time>
      </trkpt>
      <trkpt lat="45.29925" lon="6.65165">
        <ele>2537</ele>
        <time>2012-04-08T12:38:07Z</time>
      </trkpt>
      <trkpt lat="45.29924" lon="6.65161">
        <ele>2536</ele>
        <time>2012-04-08T12:38:12Z</time>
      </trkpt>
      <trkpt lat="45.29924" lon="6.65162">
        <ele>2537</ele>
        <time>2012-04-08T12:38:17Z</time>
      </trkpt>
      <trkpt lat="45.29924" lon="6.65162">
        <ele>2536</ele>
        <time>2012-04-08T12:38:22Z</time>
      </trkpt>
      <trkpt lat="45.29924" lon="6.65162">
        <ele>2536</ele>
        <time>2012-04-08T12:38:27Z</time>
      </trkpt>
      <trkpt lat="45.29923" lon="6.65162">
        <ele>2536</ele>
        <time>2012-04-08T12:38:32Z</time>
      </trkpt>
      <trkpt lat="45.29923" lon="6.65162">
        <ele>2535</ele>
        <time>2012-04-08T12:38:37Z</time>
      </trkpt>
      <trkpt lat="45.29923" lon="6.65162">
        <ele>2535</ele>
        <time>2012-04-08T12:38:42Z</time>
      </trkpt>
      <trkpt lat="45.29923" lon="6.65162">
        <ele>2535</ele>
        <time>2012-04-08T12:38:47Z</time>
      </trkpt>
      <trkpt lat="45.29923" lon="6.65162">
        <ele>2535</ele>
        <time>2012-04-08T12:38:52Z</time>
      </trkpt>
      <trkpt lat="45.29923" lon="6.65162">
        <ele>2535</ele>
        <time>2012-04-08T12:38:57Z</time>
      </trkpt>
      <trkpt lat="45.29923" lon="6.65163">
        <ele>2536</ele>
        <time>2012-04-08T12:39:02Z</time>
      </trkpt>
      <trkpt lat="45.29923" lon="6.65163">
        <ele>2537</ele>
        <time>2012-04-08T12:39:07Z</time>
      </trkpt>
      <trkpt lat="45.29923" lon="6.65162">
        <ele>2538</ele>
        <time>2012-04-08T12:39:12Z</time>
      </trkpt>
      <trkpt lat="45.29922" lon="6.65162">
        <ele>2539</ele>
        <time>2012-04-08T12:39:17Z</time>
      </trkpt>
      <trkpt lat="45.29923" lon="6.65162">
        <ele>2540</ele>
        <time>2012-04-08T12:39:22Z</time>
      </trkpt>
      <trkpt lat="45.29923" lon="6.65162">
        <ele>2540</ele>
        <time>2012-04-08T12:39:27Z</time>
      </trkpt>
      <trkpt lat="45.29923" lon="6.65162">
        <ele>2541</ele>
        <time>2012-04-08T12:39:32Z</time>
      </trkpt>
      <trkpt lat="45.29923" lon="6.65165">
        <ele>2541</ele>
        <time>2012-04-08T12:39:37Z</time>
      </trkpt>
      <trkpt lat="45.29924" lon="6.65173">
        <ele>2540</ele>
        <time>2012-04-08T12:39:42Z</time>
      </trkpt>
      <trkpt lat="45.29923" lon="6.65177">
        <ele>2539</ele>
        <time>2012-04-08T12:39:47Z</time>
      </trkpt>
      <trkpt lat="45.29921" lon="6.65183">
        <ele>2538</ele>
        <time>2012-04-08T12:39:52Z</time>
      </trkpt>
      <trkpt lat="45.29921" lon="6.65184">
        <ele>2537</ele>
        <time>2012-04-08T12:39:57Z</time>
      </trkpt>
      <trkpt lat="45.29918" lon="6.65182">
        <ele>2534</ele>
        <time>2012-04-08T12:40:02Z</time>
      </trkpt>
      <trkpt lat="45.29915" lon="6.6518">
        <ele>2532</ele>
        <time>2012-04-08T12:40:07Z</time>
      </trkpt>
      <trkpt lat="45.29912" lon="6.65185">
        <ele>2530</ele>
        <time>2012-04-08T12:40:12Z</time>
      </trkpt>
      <trkpt lat="45.29912" lon="6.65198">
        <ele>2527</ele>
        <time>2012-04-08T12:40:17Z</time>
      </trkpt>
      <trkpt lat="45.29912" lon="6.65203">
        <ele>2525</ele>
        <time>2012-04-08T12:40:22Z</time>
      </trkpt>
      <trkpt lat="45.29912" lon="6.6521">
        <ele>2523</ele>
        <time>2012-04-08T12:40:27Z</time>
      </trkpt>
      <trkpt lat="45.29912" lon="6.65219">
        <ele>2522</ele>
        <time>2012-04-08T12:40:32Z</time>
      </trkpt>
      <trkpt lat="45.29914" lon="6.65232">
        <ele>2521</ele>
        <time>2012-04-08T12:40:37Z</time>
      </trkpt>
      <trkpt lat="45.29915" lon="6.6524">
        <ele>2519</ele>
        <time>2012-04-08T12:40:42Z</time>
      </trkpt>
      <trkpt lat="45.29915" lon="6.65249">
        <ele>2517</ele>
        <time>2012-04-08T12:40:47Z</time>
      </trkpt>
      <trkpt lat="45.29916" lon="6.65258">
        <ele>2515</ele>
        <time>2012-04-08T12:40:52Z</time>
      </trkpt>
      <trkpt lat="45.29916" lon="6.65272">
        <ele>2513</ele>
        <time>2012-04-08T12:40:57Z</time>
      </trkpt>
      <trkpt lat="45.29913" lon="6.65281">
        <ele>2511</ele>
        <time>2012-04-08T12:41:02Z</time>
      </trkpt>
      <trkpt lat="45.29913" lon="6.65284">
        <ele>2510</ele>
        <time>2012-04-08T12:41:07Z</time>
      </trkpt>
      <trkpt lat="45.29913" lon="6.65291">
        <ele>2510</ele>
        <time>2012-04-08T12:41:12Z</time>
      </trkpt>
      <trkpt lat="45.29911" lon="6.65295">
        <ele>2509</ele>
        <time>2012-04-08T12:41:17Z</time>
      </trkpt>
      <trkpt lat="45.29908" lon="6.65307">
        <ele>2507</ele>
        <time>2012-04-08T12:41:22Z</time>
      </trkpt>
      <trkpt lat="45.29905" lon="6.65332">
        <ele>2505</ele>
        <time>2012-04-08T12:41:27Z</time>
      </trkpt>
      <trkpt lat="45.29905" lon="6.65348">
        <ele>2503</ele>
        <time>2012-04-08T12:41:32Z</time>
      </trkpt>
      <trkpt lat="45.29901" lon="6.65368">
        <ele>2500</ele>
        <time>2012-04-08T12:41:37Z</time>
      </trkpt>
      <trkpt lat="45.29898" lon="6.65392">
        <ele>2496</ele>
        <time>2012-04-08T12:41:42Z</time>
      </trkpt>
      <trkpt lat="45.29895" lon="6.65417">
        <ele>2493</ele>
        <time>2012-04-08T12:41:47Z</time>
      </trkpt>
      <trkpt lat="45.29891" lon="6.65439">
        <ele>2491</ele>
        <time>2012-04-08T12:41:52Z</time>
      </trkpt>
      <trkpt lat="45.29889" lon="6.65453">
        <ele>2490</ele>
        <time>2012-04-08T12:41:57Z</time>
      </trkpt>
      <trkpt lat="45.29887" lon="6.65464">
        <ele>2490</ele>
        <time>2012-04-08T12:42:02Z</time>
      </trkpt>
      <trkpt lat="45.29885" lon="6.6547">
        <ele>2490</ele>
        <time>2012-04-08T12:42:07Z</time>
      </trkpt>
      <trkpt lat="45.29883" lon="6.65472">
        <ele>2490</ele>
        <time>2012-04-08T12:42:12Z</time>
      </trkpt>
      <trkpt lat="45.29884" lon="6.65472">
        <ele>2491</ele>
        <time>2012-04-08T12:42:17Z</time>
      </trkpt>
      <trkpt lat="45.29884" lon="6.65472">
        <ele>2491</ele>
        <time>2012-04-08T12:42:22Z</time>
      </trkpt>
      <trkpt lat="45.29884" lon="6.65471">
        <ele>2492</ele>
        <time>2012-04-08T12:42:27Z</time>
      </trkpt>
      <trkpt lat="45.29883" lon="6.65471">
        <ele>2492</ele>
        <time>2012-04-08T12:42:32Z</time>
      </trkpt>
      <trkpt lat="45.29883" lon="6.65471">
        <ele>2492</ele>
        <time>2012-04-08T12:42:37Z</time>
      </trkpt>
      <trkpt lat="45.29883" lon="6.65471">
        <ele>2492</ele>
        <time>2012-04-08T12:42:42Z</time>
      </trkpt>
      <trkpt lat="45.29883" lon="6.6547">
        <ele>2493</ele>
        <time>2012-04-08T12:42:47Z</time>
      </trkpt>
      <trkpt lat="45.29883" lon="6.6547">
        <ele>2494</ele>
        <time>2012-04-08T12:42:52Z</time>
      </trkpt>
      <trkpt lat="45.29883" lon="6.6547">
        <ele>2494</ele>
        <time>2012-04-08T12:42:57Z</time>
      </trkpt>
      <trkpt lat="45.29883" lon="6.65469">
        <ele>2494</ele>
        <time>2012-04-08T12:43:02Z</time>
      </trkpt>
      <trkpt lat="45.29881" lon="6.65474">
        <ele>2494</ele>
        <time>2012-04-08T12:43:07Z</time>
      </trkpt>
      <trkpt lat="45.29873" lon="6.6548">
        <ele>2493</ele>
        <time>2012-04-08T12:43:12Z</time>
      </trkpt>
      <trkpt lat="45.29858" lon="6.65487">
        <ele>2491</ele>
        <time>2012-04-08T12:43:17Z</time>
      </trkpt>
      <trkpt lat="45.29842" lon="6.65498">
        <ele>2491</ele>
        <time>2012-04-08T12:43:22Z</time>
      </trkpt>
      <trkpt lat="45.29835" lon="6.65503">
        <ele>2491</ele>
        <time>2012-04-08T12:43:27Z</time>
      </trkpt>
      <trkpt lat="45.2983" lon="6.65505">
        <ele>2491</ele>
        <time>2012-04-08T12:43:32Z</time>
      </trkpt>
      <trkpt lat="45.29828" lon="6.65507">
        <ele>2491</ele>
        <time>2012-04-08T12:43:37Z</time>
      </trkpt>
      <trkpt lat="45.29824" lon="6.6551">
        <ele>2491</ele>
        <time>2012-04-08T12:43:42Z</time>
      </trkpt>
      <trkpt lat="45.29821" lon="6.65513">
        <ele>2492</ele>
        <time>2012-04-08T12:43:47Z</time>
      </trkpt>
      <trkpt lat="45.29818" lon="6.65517">
        <ele>2493</ele>
        <time>2012-04-08T12:43:52Z</time>
      </trkpt>
      <trkpt lat="45.29817" lon="6.65518">
        <ele>2493</ele>
        <time>2012-04-08T12:43:57Z</time>
      </trkpt>
      <trkpt lat="45.29817" lon="6.65519">
        <ele>2493</ele>
        <time>2012-04-08T12:44:02Z</time>
      </trkpt>
      <trkpt lat="45.29817" lon="6.65519">
        <ele>2492</ele>
        <time>2012-04-08T12:44:07Z</time>
      </trkpt>
      <trkpt lat="45.29819" lon="6.65519">
        <ele>2492</ele>
        <time>2012-04-08T12:44:12Z</time>
      </trkpt>
      <trkpt lat="45.2982" lon="6.6552">
        <ele>2492</ele>
        <time>2012-04-08T12:44:17Z</time>
      </trkpt>
      <trkpt lat="45.29821" lon="6.6552">
        <ele>2492</ele>
        <time>2012-04-08T12:44:22Z</time>
      </trkpt>
      <trkpt lat="45.29821" lon="6.6552">
        <ele>2492</ele>
        <time>2012-04-08T12:44:27Z</time>
      </trkpt>
      <trkpt lat="45.29821" lon="6.6552">
        <ele>2491</ele>
        <time>2012-04-08T12:44:32Z</time>
      </trkpt>
      <trkpt lat="45.29821" lon="6.6552">
        <ele>2491</ele>
        <time>2012-04-08T12:44:37Z</time>
      </trkpt>
      <trkpt lat="45.29821" lon="6.6552">
        <ele>2491</ele>
        <time>2012-04-08T12:44:42Z</time>
      </trkpt>
      <trkpt lat="45.29819" lon="6.65522">
        <ele>2491</ele>
        <time>2012-04-08T12:44:47Z</time>
      </trkpt>
      <trkpt lat="45.29815" lon="6.65527">
        <ele>2491</ele>
        <time>2012-04-08T12:44:52Z</time>
      </trkpt>
      <trkpt lat="45.29808" lon="6.65531">
        <ele>2490</ele>
        <time>2012-04-08T12:44:57Z</time>
      </trkpt>
      <trkpt lat="45.298" lon="6.65539">
        <ele>2490</ele>
        <time>2012-04-08T12:45:02Z</time>
      </trkpt>
      <trkpt lat="45.29792" lon="6.65548">
        <ele>2489</ele>
        <time>2012-04-08T12:45:07Z</time>
      </trkpt>
      <trkpt lat="45.29773" lon="6.65567">
        <ele>2484</ele>
        <time>2012-04-08T12:45:12Z</time>
      </trkpt>
      <trkpt lat="45.29752" lon="6.65584">
        <ele>2483</ele>
        <time>2012-04-08T12:45:17Z</time>
      </trkpt>
      <trkpt lat="45.29749" lon="6.65584">
        <ele>2483</ele>
        <time>2012-04-08T12:45:22Z</time>
      </trkpt>
      <trkpt lat="45.29746" lon="6.65585">
        <ele>2483</ele>
        <time>2012-04-08T12:45:27Z</time>
      </trkpt>
      <trkpt lat="45.29743" lon="6.65585">
        <ele>2483</ele>
        <time>2012-04-08T12:45:32Z</time>
      </trkpt>
      <trkpt lat="45.29739" lon="6.65586">
        <ele>2483</ele>
        <time>2012-04-08T12:45:37Z</time>
      </trkpt>
      <trkpt lat="45.29736" lon="6.65586">
        <ele>2483</ele>
        <time>2012-04-08T12:45:42Z</time>
      </trkpt>
      <trkpt lat="45.29732" lon="6.65587">
        <ele>2483</ele>
        <time>2012-04-08T12:45:47Z</time>
      </trkpt>
      <trkpt lat="45.29728" lon="6.65588">
        <ele>2484</ele>
        <time>2012-04-08T12:45:52Z</time>
      </trkpt>
      <trkpt lat="45.29726" lon="6.65587">
        <ele>2483</ele>
        <time>2012-04-08T12:45:57Z</time>
      </trkpt>
      <trkpt lat="45.29723" lon="6.65588">
        <ele>2485</ele>
        <time>2012-04-08T12:46:02Z</time>
      </trkpt>
      <trkpt lat="45.2972" lon="6.65588">
        <ele>2486</ele>
        <time>2012-04-08T12:46:07Z</time>
      </trkpt>
      <trkpt lat="45.29718" lon="6.65589">
        <ele>2486</ele>
        <time>2012-04-08T12:46:12Z</time>
      </trkpt>
      <trkpt lat="45.29717" lon="6.6559">
        <ele>2486</ele>
        <time>2012-04-08T12:46:17Z</time>
      </trkpt>
      <trkpt lat="45.29715" lon="6.65591">
        <ele>2486</ele>
        <time>2012-04-08T12:46:22Z</time>
      </trkpt>
      <trkpt lat="45.29712" lon="6.65592">
        <ele>2487</ele>
        <time>2012-04-08T12:46:27Z</time>
      </trkpt>
      <trkpt lat="45.2971" lon="6.65593">
        <ele>2487</ele>
        <time>2012-04-08T12:46:32Z</time>
      </trkpt>
      <trkpt lat="45.29707" lon="6.65594">
        <ele>2486</ele>
        <time>2012-04-08T12:46:37Z</time>
      </trkpt>
      <trkpt lat="45.29706" lon="6.65595">
        <ele>2486</ele>
        <time>2012-04-08T12:46:42Z</time>
      </trkpt>
      <trkpt lat="45.29703" lon="6.65596">
        <ele>2486</ele>
        <time>2012-04-08T12:46:47Z</time>
      </trkpt>
      <trkpt lat="45.297" lon="6.65599">
        <ele>2486</ele>
        <time>2012-04-08T12:46:52Z</time>
      </trkpt>
      <trkpt lat="45.29697" lon="6.65601">
        <ele>2487</ele>
        <time>2012-04-08T12:46:57Z</time>
      </trkpt>
      <trkpt lat="45.29694" lon="6.65603">
        <ele>2487</ele>
        <time>2012-04-08T12:47:02Z</time>
      </trkpt>
      <trkpt lat="45.29691" lon="6.65606">
        <ele>2487</ele>
        <time>2012-04-08T12:47:07Z</time>
      </trkpt>
      <trkpt lat="45.29688" lon="6.65608">
        <ele>2487</ele>
        <time>2012-04-08T12:47:12Z</time>
      </trkpt>
      <trkpt lat="45.29686" lon="6.65609">
        <ele>2487</ele>
        <time>2012-04-08T12:47:17Z</time>
      </trkpt>
      <trkpt lat="45.29686" lon="6.65606">
        <ele>2493</ele>
        <time>2012-04-08T12:48:42Z</time>
      </trkpt>
      <trkpt lat="45.29686" lon="6.65606">
        <ele>2493</ele>
        <time>2012-04-08T12:48:47Z</time>
      </trkpt>
      <trkpt lat="45.29685" lon="6.65604">
        <ele>2494</ele>
        <time>2012-04-08T12:48:52Z</time>
      </trkpt>
      <trkpt lat="45.29685" lon="6.65605">
        <ele>2493</ele>
        <time>2012-04-08T12:48:57Z</time>
      </trkpt>
      <trkpt lat="45.29686" lon="6.65605">
        <ele>2493</ele>
        <time>2012-04-08T12:49:02Z</time>
      </trkpt>
      <trkpt lat="45.29685" lon="6.65605">
        <ele>2493</ele>
        <time>2012-04-08T12:49:07Z</time>
      </trkpt>
      <trkpt lat="45.29685" lon="6.65606">
        <ele>2493</ele>
        <time>2012-04-08T12:49:12Z</time>
      </trkpt>
      <trkpt lat="45.29682" lon="6.65617">
        <ele>2491</ele>
        <time>2012-04-08T12:49:17Z</time>
      </trkpt>
      <trkpt lat="45.29674" lon="6.65626">
        <ele>2488</ele>
        <time>2012-04-08T12:49:22Z</time>
      </trkpt>
      <trkpt lat="45.29669" lon="6.65642">
        <ele>2486</ele>
        <time>2012-04-08T12:49:27Z</time>
      </trkpt>
      <trkpt lat="45.29664" lon="6.65651">
        <ele>2484</ele>
        <time>2012-04-08T12:49:32Z</time>
      </trkpt>
      <trkpt lat="45.29657" lon="6.6566">
        <ele>2481</ele>
        <time>2012-04-08T12:49:37Z</time>
      </trkpt>
      <trkpt lat="45.29649" lon="6.65669">
        <ele>2480</ele>
        <time>2012-04-08T12:49:42Z</time>
      </trkpt>
      <trkpt lat="45.29646" lon="6.65677">
        <ele>2480</ele>
        <time>2012-04-08T12:49:47Z</time>
      </trkpt>
      <trkpt lat="45.29646" lon="6.65678">
        <ele>2479</ele>
        <time>2012-04-08T12:49:52Z</time>
      </trkpt>
      <trkpt lat="45.29647" lon="6.65679">
        <ele>2479</ele>
        <time>2012-04-08T12:49:57Z</time>
      </trkpt>
      <trkpt lat="45.29648" lon="6.65679">
        <ele>2479</ele>
        <time>2012-04-08T12:50:02Z</time>
      </trkpt>
      <trkpt lat="45.29648" lon="6.65679">
        <ele>2478</ele>
        <time>2012-04-08T12:50:07Z</time>
      </trkpt>
      <trkpt lat="45.29641" lon="6.65679">
        <ele>2477</ele>
        <time>2012-04-08T12:56:42Z</time>
      </trkpt>
      <trkpt lat="45.29642" lon="6.65677">
        <ele>2478</ele>
        <time>2012-04-08T12:56:47Z</time>
      </trkpt>
      <trkpt lat="45.29644" lon="6.65674">
        <ele>2478</ele>
        <time>2012-04-08T12:56:52Z</time>
      </trkpt>
      <trkpt lat="45.29648" lon="6.6567">
        <ele>2478</ele>
        <time>2012-04-08T12:56:57Z</time>
      </trkpt>
      <trkpt lat="45.29652" lon="6.65665">
        <ele>2477</ele>
        <time>2012-04-08T12:57:02Z</time>
      </trkpt>
      <trkpt lat="45.29654" lon="6.65662">
        <ele>2478</ele>
        <time>2012-04-08T12:57:07Z</time>
      </trkpt>
      <trkpt lat="45.29657" lon="6.65659">
        <ele>2478</ele>
        <time>2012-04-08T12:57:12Z</time>
      </trkpt>
      <trkpt lat="45.29659" lon="6.65655">
        <ele>2478</ele>
        <time>2012-04-08T12:57:17Z</time>
      </trkpt>
      <trkpt lat="45.29662" lon="6.65652">
        <ele>2479</ele>
        <time>2012-04-08T12:57:22Z</time>
      </trkpt>
      <trkpt lat="45.29664" lon="6.65649">
        <ele>2479</ele>
        <time>2012-04-08T12:57:27Z</time>
      </trkpt>
      <trkpt lat="45.29667" lon="6.65645">
        <ele>2480</ele>
        <time>2012-04-08T12:57:32Z</time>
      </trkpt>
      <trkpt lat="45.29669" lon="6.65641">
        <ele>2480</ele>
        <time>2012-04-08T12:57:37Z</time>
      </trkpt>
      <trkpt lat="45.29672" lon="6.65636">
        <ele>2480</ele>
        <time>2012-04-08T12:57:42Z</time>
      </trkpt>
      <trkpt lat="45.29673" lon="6.65633">
        <ele>2480</ele>
        <time>2012-04-08T12:57:47Z</time>
      </trkpt>
      <trkpt lat="45.29674" lon="6.65629">
        <ele>2481</ele>
        <time>2012-04-08T12:57:52Z</time>
      </trkpt>
      <trkpt lat="45.29674" lon="6.65625">
        <ele>2482</ele>
        <time>2012-04-08T12:57:57Z</time>
      </trkpt>
      <trkpt lat="45.29675" lon="6.65622">
        <ele>2482</ele>
        <time>2012-04-08T12:58:02Z</time>
      </trkpt>
      <trkpt lat="45.29674" lon="6.65621">
        <ele>2484</ele>
        <time>2012-04-08T12:58:07Z</time>
      </trkpt>
      <trkpt lat="45.29675" lon="6.65621">
        <ele>2483</ele>
        <time>2012-04-08T12:58:12Z</time>
      </trkpt>
      <trkpt lat="45.29674" lon="6.65618">
        <ele>2484</ele>
        <time>2012-04-08T12:58:17Z</time>
      </trkpt>
      <trkpt lat="45.29674" lon="6.65614">
        <ele>2485</ele>
        <time>2012-04-08T12:58:22Z</time>
      </trkpt>
      <trkpt lat="45.29673" lon="6.65611">
        <ele>2485</ele>
        <time>2012-04-08T12:58:27Z</time>
      </trkpt>
      <trkpt lat="45.29671" lon="6.65608">
        <ele>2486</ele>
        <time>2012-04-08T12:58:32Z</time>
      </trkpt>
      <trkpt lat="45.2967" lon="6.65605">
        <ele>2487</ele>
        <time>2012-04-08T12:58:37Z</time>
      </trkpt>
      <trkpt lat="45.29667" lon="6.65602">
        <ele>2488</ele>
        <time>2012-04-08T12:58:42Z</time>
      </trkpt>
      <trkpt lat="45.29665" lon="6.65599">
        <ele>2488</ele>
        <time>2012-04-08T12:58:47Z</time>
      </trkpt>
      <trkpt lat="45.29665" lon="6.65599">
        <ele>2490</ele>
        <time>2012-04-08T12:58:52Z</time>
      </trkpt>
      <trkpt lat="45.29664" lon="6.656">
        <ele>2490</ele>
        <time>2012-04-08T12:58:57Z</time>
      </trkpt>
      <trkpt lat="45.29664" lon="6.656">
        <ele>2490</ele>
        <time>2012-04-08T12:59:02Z</time>
      </trkpt>
      <trkpt lat="45.29664" lon="6.656">
        <ele>2490</ele>
        <time>2012-04-08T12:59:07Z</time>
      </trkpt>
      <trkpt lat="45.29661" lon="6.65598">
        <ele>2491</ele>
        <time>2012-04-08T12:59:12Z</time>
      </trkpt>
      <trkpt lat="45.29657" lon="6.65597">
        <ele>2493</ele>
        <time>2012-04-08T12:59:17Z</time>
      </trkpt>
      <trkpt lat="45.29654" lon="6.65596">
        <ele>2494</ele>
        <time>2012-04-08T12:59:22Z</time>
      </trkpt>
      <trkpt lat="45.29651" lon="6.65596">
        <ele>2496</ele>
        <time>2012-04-08T12:59:27Z</time>
      </trkpt>
      <trkpt lat="45.29648" lon="6.65592">
        <ele>2495</ele>
        <time>2012-04-08T12:59:32Z</time>
      </trkpt>
      <trkpt lat="45.29644" lon="6.65591">
        <ele>2497</ele>
        <time>2012-04-08T12:59:37Z</time>
      </trkpt>
      <trkpt lat="45.2964" lon="6.65591">
        <ele>2499</ele>
        <time>2012-04-08T12:59:42Z</time>
      </trkpt>
      <trkpt lat="45.29636" lon="6.65589">
        <ele>2499</ele>
        <time>2012-04-08T12:59:47Z</time>
      </trkpt>
      <trkpt lat="45.29632" lon="6.65588">
        <ele>2500</ele>
        <time>2012-04-08T12:59:52Z</time>
      </trkpt>
      <trkpt lat="45.29628" lon="6.65586">
        <ele>2499</ele>
        <time>2012-04-08T12:59:57Z</time>
      </trkpt>
      <trkpt lat="45.29624" lon="6.65585">
        <ele>2500</ele>
        <time>2012-04-08T13:00:02Z</time>
      </trkpt>
      <trkpt lat="45.2962" lon="6.65585">
        <ele>2500</ele>
        <time>2012-04-08T13:00:07Z</time>
      </trkpt>
      <trkpt lat="45.29615" lon="6.65584">
        <ele>2501</ele>
        <time>2012-04-08T13:00:12Z</time>
      </trkpt>
      <trkpt lat="45.29612" lon="6.65585">
        <ele>2502</ele>
        <time>2012-04-08T13:00:17Z</time>
      </trkpt>
      <trkpt lat="45.29608" lon="6.65585">
        <ele>2503</ele>
        <time>2012-04-08T13:00:22Z</time>
      </trkpt>
      <trkpt lat="45.29604" lon="6.65584">
        <ele>2503</ele>
        <time>2012-04-08T13:00:27Z</time>
      </trkpt>
      <trkpt lat="45.29601" lon="6.65581">
        <ele>2502</ele>
        <time>2012-04-08T13:00:32Z</time>
      </trkpt>
      <trkpt lat="45.29597" lon="6.6558">
        <ele>2501</ele>
        <time>2012-04-08T13:00:37Z</time>
      </trkpt>
      <trkpt lat="45.29593" lon="6.65578">
        <ele>2501</ele>
        <time>2012-04-08T13:00:42Z</time>
      </trkpt>
      <trkpt lat="45.29588" lon="6.65577">
        <ele>2500</ele>
        <time>2012-04-08T13:00:47Z</time>
      </trkpt>
      <trkpt lat="45.29583" lon="6.65576">
        <ele>2499</ele>
        <time>2012-04-08T13:00:52Z</time>
      </trkpt>
      <trkpt lat="45.29579" lon="6.65575">
        <ele>2499</ele>
        <time>2012-04-08T13:00:57Z</time>
      </trkpt>
      <trkpt lat="45.29576" lon="6.65574">
        <ele>2500</ele>
        <time>2012-04-08T13:01:02Z</time>
      </trkpt>
      <trkpt lat="45.29572" lon="6.65573">
        <ele>2501</ele>
        <time>2012-04-08T13:01:07Z</time>
      </trkpt>
      <trkpt lat="45.29569" lon="6.65574">
        <ele>2506</ele>
        <time>2012-04-08T13:01:12Z</time>
      </trkpt>
      <trkpt lat="45.29565" lon="6.65572">
        <ele>2506</ele>
        <time>2012-04-08T13:01:17Z</time>
      </trkpt>
      <trkpt lat="45.29562" lon="6.65569">
        <ele>2504</ele>
        <time>2012-04-08T13:01:22Z</time>
      </trkpt>
      <trkpt lat="45.29559" lon="6.65566">
        <ele>2501</ele>
        <time>2012-04-08T13:01:27Z</time>
      </trkpt>
      <trkpt lat="45.29555" lon="6.65564">
        <ele>2500</ele>
        <time>2012-04-08T13:01:32Z</time>
      </trkpt>
      <trkpt lat="45.2955" lon="6.65563">
        <ele>2500</ele>
        <time>2012-04-08T13:01:37Z</time>
      </trkpt>
      <trkpt lat="45.29549" lon="6.65562">
        <ele>2499</ele>
        <time>2012-04-08T13:01:42Z</time>
      </trkpt>
      <trkpt lat="45.2955" lon="6.65562">
        <ele>2498</ele>
        <time>2012-04-08T13:01:47Z</time>
      </trkpt>
      <trkpt lat="45.2955" lon="6.65561">
        <ele>2497</ele>
        <time>2012-04-08T13:01:52Z</time>
      </trkpt>
      <trkpt lat="45.2955" lon="6.65561">
        <ele>2496</ele>
        <time>2012-04-08T13:01:57Z</time>
      </trkpt>
      <trkpt lat="45.2955" lon="6.6556">
        <ele>2495</ele>
        <time>2012-04-08T13:02:02Z</time>
      </trkpt>
      <trkpt lat="45.29548" lon="6.6556">
        <ele>2496</ele>
        <time>2012-04-08T13:02:07Z</time>
      </trkpt>
      <trkpt lat="45.29543" lon="6.6556">
        <ele>2496</ele>
        <time>2012-04-08T13:02:12Z</time>
      </trkpt>
      <trkpt lat="45.29538" lon="6.6556">
        <ele>2495</ele>
        <time>2012-04-08T13:02:17Z</time>
      </trkpt>
      <trkpt lat="45.29532" lon="6.6556">
        <ele>2495</ele>
        <time>2012-04-08T13:02:22Z</time>
      </trkpt>
      <trkpt lat="45.29526" lon="6.65559">
        <ele>2495</ele>
        <time>2012-04-08T13:02:27Z</time>
      </trkpt>
      <trkpt lat="45.2952" lon="6.6556">
        <ele>2497</ele>
        <time>2012-04-08T13:02:32Z</time>
      </trkpt>
      <trkpt lat="45.29517" lon="6.65559">
        <ele>2497</ele>
        <time>2012-04-08T13:02:37Z</time>
      </trkpt>
      <trkpt lat="45.29512" lon="6.65559">
        <ele>2496</ele>
        <time>2012-04-08T13:02:42Z</time>
      </trkpt>
      <trkpt lat="45.29507" lon="6.65558">
        <ele>2496</ele>
        <time>2012-04-08T13:02:47Z</time>
      </trkpt>
      <trkpt lat="45.29503" lon="6.65556">
        <ele>2495</ele>
        <time>2012-04-08T13:02:52Z</time>
      </trkpt>
      <trkpt lat="45.29499" lon="6.65555">
        <ele>2496</ele>
        <time>2012-04-08T13:02:57Z</time>
      </trkpt>
      <trkpt lat="45.29495" lon="6.65554">
        <ele>2496</ele>
        <time>2012-04-08T13:03:02Z</time>
      </trkpt>
      <trkpt lat="45.2949" lon="6.65553">
        <ele>2496</ele>
        <time>2012-04-08T13:03:07Z</time>
      </trkpt>
      <trkpt lat="45.29485" lon="6.65552">
        <ele>2495</ele>
        <time>2012-04-08T13:03:12Z</time>
      </trkpt>
      <trkpt lat="45.2948" lon="6.65553">
        <ele>2494</ele>
        <time>2012-04-08T13:03:17Z</time>
      </trkpt>
      <trkpt lat="45.29475" lon="6.65554">
        <ele>2494</ele>
        <time>2012-04-08T13:03:22Z</time>
      </trkpt>
      <trkpt lat="45.29471" lon="6.65555">
        <ele>2493</ele>
        <time>2012-04-08T13:03:27Z</time>
      </trkpt>
      <trkpt lat="45.29467" lon="6.65557">
        <ele>2493</ele>
        <time>2012-04-08T13:03:32Z</time>
      </trkpt>
      <trkpt lat="45.29464" lon="6.65559">
        <ele>2493</ele>
        <time>2012-04-08T13:03:37Z</time>
      </trkpt>
      <trkpt lat="45.29461" lon="6.65561">
        <ele>2493</ele>
        <time>2012-04-08T13:03:42Z</time>
      </trkpt>
      <trkpt lat="45.29457" lon="6.65563">
        <ele>2493</ele>
        <time>2012-04-08T13:03:47Z</time>
      </trkpt>
      <trkpt lat="45.29455" lon="6.65563">
        <ele>2493</ele>
        <time>2012-04-08T13:03:52Z</time>
      </trkpt>
      <trkpt lat="45.29455" lon="6.65563">
        <ele>2494</ele>
        <time>2012-04-08T13:03:57Z</time>
      </trkpt>
      <trkpt lat="45.29455" lon="6.65563">
        <ele>2494</ele>
        <time>2012-04-08T13:04:02Z</time>
      </trkpt>
      <trkpt lat="45.29456" lon="6.65563">
        <ele>2494</ele>
        <time>2012-04-08T13:04:07Z</time>
      </trkpt>
      <trkpt lat="45.29456" lon="6.65563">
        <ele>2494</ele>
        <time>2012-04-08T13:04:12Z</time>
      </trkpt>
      <trkpt lat="45.29455" lon="6.65563">
        <ele>2494</ele>
        <time>2012-04-08T13:04:17Z</time>
      </trkpt>
      <trkpt lat="45.29452" lon="6.65566">
        <ele>2494</ele>
        <time>2012-04-08T13:04:22Z</time>
      </trkpt>
      <trkpt lat="45.29449" lon="6.6557">
        <ele>2495</ele>
        <time>2012-04-08T13:04:27Z</time>
      </trkpt>
      <trkpt lat="45.29446" lon="6.65574">
        <ele>2495</ele>
        <time>2012-04-08T13:04:32Z</time>
      </trkpt>
      <trkpt lat="45.29441" lon="6.65579">
        <ele>2495</ele>
        <time>2012-04-08T13:04:37Z</time>
      </trkpt>
      <trkpt lat="45.29436" lon="6.65584">
        <ele>2495</ele>
        <time>2012-04-08T13:04:42Z</time>
      </trkpt>
      <trkpt lat="45.29431" lon="6.65589">
        <ele>2494</ele>
        <time>2012-04-08T13:04:47Z</time>
      </trkpt>
      <trkpt lat="45.29427" lon="6.65594">
        <ele>2494</ele>
        <time>2012-04-08T13:04:52Z</time>
      </trkpt>
      <trkpt lat="45.29423" lon="6.65599">
        <ele>2494</ele>
        <time>2012-04-08T13:04:57Z</time>
      </trkpt>
      <trkpt lat="45.29419" lon="6.65604">
        <ele>2494</ele>
        <time>2012-04-08T13:05:02Z</time>
      </trkpt>
      <trkpt lat="45.29415" lon="6.65607">
        <ele>2493</ele>
        <time>2012-04-08T13:05:07Z</time>
      </trkpt>
      <trkpt lat="45.2941" lon="6.65611">
        <ele>2493</ele>
        <time>2012-04-08T13:05:12Z</time>
      </trkpt>
      <trkpt lat="45.29405" lon="6.65615">
        <ele>2493</ele>
        <time>2012-04-08T13:05:17Z</time>
      </trkpt>
      <trkpt lat="45.294" lon="6.6562">
        <ele>2492</ele>
        <time>2012-04-08T13:05:22Z</time>
      </trkpt>
      <trkpt lat="45.29393" lon="6.65625">
        <ele>2491</ele>
        <time>2012-04-08T13:05:27Z</time>
      </trkpt>
      <trkpt lat="45.2939" lon="6.65629">
        <ele>2491</ele>
        <time>2012-04-08T13:05:32Z</time>
      </trkpt>
      <trkpt lat="45.29387" lon="6.65633">
        <ele>2491</ele>
        <time>2012-04-08T13:05:37Z</time>
      </trkpt>
      <trkpt lat="45.29384" lon="6.65636">
        <ele>2491</ele>
        <time>2012-04-08T13:05:42Z</time>
      </trkpt>
      <trkpt lat="45.29384" lon="6.65637">
        <ele>2491</ele>
        <time>2012-04-08T13:05:47Z</time>
      </trkpt>
      <trkpt lat="45.29384" lon="6.65637">
        <ele>2491</ele>
        <time>2012-04-08T13:05:52Z</time>
      </trkpt>
      <trkpt lat="45.29382" lon="6.65638">
        <ele>2491</ele>
        <time>2012-04-08T13:05:57Z</time>
      </trkpt>
      <trkpt lat="45.2938" lon="6.6564">
        <ele>2491</ele>
        <time>2012-04-08T13:06:02Z</time>
      </trkpt>
      <trkpt lat="45.2938" lon="6.6564">
        <ele>2491</ele>
        <time>2012-04-08T13:06:07Z</time>
      </trkpt>
      <trkpt lat="45.29381" lon="6.6564">
        <ele>2491</ele>
        <time>2012-04-08T13:06:12Z</time>
      </trkpt>
      <trkpt lat="45.2938" lon="6.65641">
        <ele>2492</ele>
        <time>2012-04-08T13:06:17Z</time>
      </trkpt>
      <trkpt lat="45.29376" lon="6.65646">
        <ele>2492</ele>
        <time>2012-04-08T13:06:22Z</time>
      </trkpt>
      <trkpt lat="45.29373" lon="6.65647">
        <ele>2491</ele>
        <time>2012-04-08T13:06:27Z</time>
      </trkpt>
      <trkpt lat="45.29371" lon="6.65648">
        <ele>2491</ele>
        <time>2012-04-08T13:06:32Z</time>
      </trkpt>
      <trkpt lat="45.29363" lon="6.65653">
        <ele>2489</ele>
        <time>2012-04-08T13:06:37Z</time>
      </trkpt>
      <trkpt lat="45.29348" lon="6.6566">
        <ele>2487</ele>
        <time>2012-04-08T13:06:42Z</time>
      </trkpt>
      <trkpt lat="45.29345" lon="6.65659">
        <ele>2487</ele>
        <time>2012-04-08T13:06:47Z</time>
      </trkpt>
      <trkpt lat="45.29343" lon="6.65655">
        <ele>2486</ele>
        <time>2012-04-08T13:06:52Z</time>
      </trkpt>
      <trkpt lat="45.2934" lon="6.6565">
        <ele>2485</ele>
        <time>2012-04-08T13:06:57Z</time>
      </trkpt>
      <trkpt lat="45.29337" lon="6.65646">
        <ele>2485</ele>
        <time>2012-04-08T13:07:02Z</time>
      </trkpt>
      <trkpt lat="45.29336" lon="6.65644">
        <ele>2486</ele>
        <time>2012-04-08T13:07:07Z</time>
      </trkpt>
      <trkpt lat="45.29335" lon="6.65644">
        <ele>2486</ele>
        <time>2012-04-08T13:07:12Z</time>
      </trkpt>
      <trkpt lat="45.29335" lon="6.65645">
        <ele>2486</ele>
        <time>2012-04-08T13:07:17Z</time>
      </trkpt>
      <trkpt lat="45.29335" lon="6.65645">
        <ele>2486</ele>
        <time>2012-04-08T13:07:22Z</time>
      </trkpt>
      <trkpt lat="45.29335" lon="6.65646">
        <ele>2486</ele>
        <time>2012-04-08T13:07:27Z</time>
      </trkpt>
      <trkpt lat="45.29334" lon="6.65644">
        <ele>2486</ele>
        <time>2012-04-08T13:07:32Z</time>
      </trkpt>
      <trkpt lat="45.29332" lon="6.6564">
        <ele>2486</ele>
        <time>2012-04-08T13:07:37Z</time>
      </trkpt>
      <trkpt lat="45.29331" lon="6.65635">
        <ele>2487</ele>
        <time>2012-04-08T13:07:42Z</time>
      </trkpt>
      <trkpt lat="45.29329" lon="6.65631">
        <ele>2487</ele>
        <time>2012-04-08T13:07:47Z</time>
      </trkpt>
      <trkpt lat="45.29327" lon="6.65629">
        <ele>2488</ele>
        <time>2012-04-08T13:07:52Z</time>
      </trkpt>
      <trkpt lat="45.29326" lon="6.65625">
        <ele>2488</ele>
        <time>2012-04-08T13:07:57Z</time>
      </trkpt>
      <trkpt lat="45.29325" lon="6.65621">
        <ele>2488</ele>
        <time>2012-04-08T13:08:02Z</time>
      </trkpt>
      <trkpt lat="45.29323" lon="6.65616">
        <ele>2486</ele>
        <time>2012-04-08T13:08:07Z</time>
      </trkpt>
      <trkpt lat="45.29321" lon="6.65614">
        <ele>2487</ele>
        <time>2012-04-08T13:08:12Z</time>
      </trkpt>
      <trkpt lat="45.29319" lon="6.6561">
        <ele>2486</ele>
        <time>2012-04-08T13:08:17Z</time>
      </trkpt>
      <trkpt lat="45.29317" lon="6.65607">
        <ele>2486</ele>
        <time>2012-04-08T13:08:22Z</time>
      </trkpt>
      <trkpt lat="45.29316" lon="6.65602">
        <ele>2485</ele>
        <time>2012-04-08T13:08:27Z</time>
      </trkpt>
      <trkpt lat="45.29315" lon="6.65599">
        <ele>2487</ele>
        <time>2012-04-08T13:08:32Z</time>
      </trkpt>
      <trkpt lat="45.29313" lon="6.65598">
        <ele>2490</ele>
        <time>2012-04-08T13:08:37Z</time>
      </trkpt>
      <trkpt lat="45.29312" lon="6.65597">
        <ele>2494</ele>
        <time>2012-04-08T13:08:42Z</time>
      </trkpt>
      <trkpt lat="45.29312" lon="6.65595">
        <ele>2496</ele>
        <time>2012-04-08T13:08:47Z</time>
      </trkpt>
      <trkpt lat="45.29312" lon="6.65595">
        <ele>2497</ele>
        <time>2012-04-08T13:08:52Z</time>
      </trkpt>
      <trkpt lat="45.29312" lon="6.65595">
        <ele>2496</ele>
        <time>2012-04-08T13:08:57Z</time>
      </trkpt>
      <trkpt lat="45.29313" lon="6.65592">
        <ele>2492</ele>
        <time>2012-04-08T13:09:02Z</time>
      </trkpt>
      <trkpt lat="45.29312" lon="6.65593">
        <ele>2493</ele>
        <time>2012-04-08T13:09:07Z</time>
      </trkpt>
      <trkpt lat="45.29311" lon="6.65595">
        <ele>2492</ele>
        <time>2012-04-08T13:09:12Z</time>
      </trkpt>
      <trkpt lat="45.2931" lon="6.65597">
        <ele>2492</ele>
        <time>2012-04-08T13:09:17Z</time>
      </trkpt>
      <trkpt lat="45.29309" lon="6.65597">
        <ele>2493</ele>
        <time>2012-04-08T13:09:22Z</time>
      </trkpt>
      <trkpt lat="45.29309" lon="6.65595">
        <ele>2493</ele>
        <time>2012-04-08T13:09:27Z</time>
      </trkpt>
      <trkpt lat="45.29308" lon="6.65592">
        <ele>2495</ele>
        <time>2012-04-08T13:09:32Z</time>
      </trkpt>
      <trkpt lat="45.29308" lon="6.65589">
        <ele>2498</ele>
        <time>2012-04-08T13:09:37Z</time>
      </trkpt>
      <trkpt lat="45.29307" lon="6.65586">
        <ele>2500</ele>
        <time>2012-04-08T13:09:42Z</time>
      </trkpt>
      <trkpt lat="45.29305" lon="6.65583">
        <ele>2501</ele>
        <time>2012-04-08T13:09:47Z</time>
      </trkpt>
      <trkpt lat="45.29305" lon="6.65577">
        <ele>2498</ele>
        <time>2012-04-08T13:09:52Z</time>
      </trkpt>
      <trkpt lat="45.29302" lon="6.65573">
        <ele>2498</ele>
        <time>2012-04-08T13:09:57Z</time>
      </trkpt>
      <trkpt lat="45.293" lon="6.65572">
        <ele>2498</ele>
        <time>2012-04-08T13:10:02Z</time>
      </trkpt>
      <trkpt lat="45.29297" lon="6.65571">
        <ele>2497</ele>
        <time>2012-04-08T13:10:07Z</time>
      </trkpt>
      <trkpt lat="45.29295" lon="6.6557">
        <ele>2497</ele>
        <time>2012-04-08T13:10:12Z</time>
      </trkpt>
      <trkpt lat="45.29292" lon="6.6557">
        <ele>2497</ele>
        <time>2012-04-08T13:10:17Z</time>
      </trkpt>
      <trkpt lat="45.29289" lon="6.65571">
        <ele>2497</ele>
        <time>2012-04-08T13:10:22Z</time>
      </trkpt>
      <trkpt lat="45.29289" lon="6.65571">
        <ele>2496</ele>
        <time>2012-04-08T13:10:27Z</time>
      </trkpt>
      <trkpt lat="45.29289" lon="6.65571">
        <ele>2496</ele>
        <time>2012-04-08T13:10:32Z</time>
      </trkpt>
      <trkpt lat="45.29289" lon="6.65571">
        <ele>2496</ele>
        <time>2012-04-08T13:10:37Z</time>
      </trkpt>
      <trkpt lat="45.29289" lon="6.6557">
        <ele>2498</ele>
        <time>2012-04-08T13:10:42Z</time>
      </trkpt>
      <trkpt lat="45.29289" lon="6.6557">
        <ele>2499</ele>
        <time>2012-04-08T13:10:47Z</time>
      </trkpt>
      <trkpt lat="45.29289" lon="6.6557">
        <ele>2499</ele>
        <time>2012-04-08T13:10:52Z</time>
      </trkpt>
      <trkpt lat="45.29288" lon="6.65571">
        <ele>2500</ele>
        <time>2012-04-08T13:10:57Z</time>
      </trkpt>
      <trkpt lat="45.29285" lon="6.65573">
        <ele>2501</ele>
        <time>2012-04-08T13:11:02Z</time>
      </trkpt>
      <trkpt lat="45.29281" lon="6.65575">
        <ele>2502</ele>
        <time>2012-04-08T13:11:07Z</time>
      </trkpt>
      <trkpt lat="45.29278" lon="6.65576">
        <ele>2502</ele>
        <time>2012-04-08T13:11:12Z</time>
      </trkpt>
      <trkpt lat="45.29274" lon="6.65578">
        <ele>2503</ele>
        <time>2012-04-08T13:11:17Z</time>
      </trkpt>
      <trkpt lat="45.29269" lon="6.6558">
        <ele>2503</ele>
        <time>2012-04-08T13:11:22Z</time>
      </trkpt>
      <trkpt lat="45.29266" lon="6.65583">
        <ele>2503</ele>
        <time>2012-04-08T13:11:27Z</time>
      </trkpt>
      <trkpt lat="45.29262" lon="6.65585">
        <ele>2503</ele>
        <time>2012-04-08T13:11:32Z</time>
      </trkpt>
      <trkpt lat="45.29258" lon="6.65588">
        <ele>2502</ele>
        <time>2012-04-08T13:11:37Z</time>
      </trkpt>
      <trkpt lat="45.29255" lon="6.65591">
        <ele>2502</ele>
        <time>2012-04-08T13:11:42Z</time>
      </trkpt>
      <trkpt lat="45.29251" lon="6.65594">
        <ele>2501</ele>
        <time>2012-04-08T13:11:47Z</time>
      </trkpt>
      <trkpt lat="45.29248" lon="6.65597">
        <ele>2501</ele>
        <time>2012-04-08T13:11:52Z</time>
      </trkpt>
      <trkpt lat="45.29244" lon="6.65601">
        <ele>2501</ele>
        <time>2012-04-08T13:11:57Z</time>
      </trkpt>
      <trkpt lat="45.2924" lon="6.65604">
        <ele>2501</ele>
        <time>2012-04-08T13:12:02Z</time>
      </trkpt>
      <trkpt lat="45.29236" lon="6.65606">
        <ele>2502</ele>
        <time>2012-04-08T13:12:07Z</time>
      </trkpt>
      <trkpt lat="45.29232" lon="6.65609">
        <ele>2502</ele>
        <time>2012-04-08T13:12:12Z</time>
      </trkpt>
      <trkpt lat="45.29228" lon="6.65611">
        <ele>2502</ele>
        <time>2012-04-08T13:12:17Z</time>
      </trkpt>
      <trkpt lat="45.29225" lon="6.65614">
        <ele>2503</ele>
        <time>2012-04-08T13:12:22Z</time>
      </trkpt>
      <trkpt lat="45.29222" lon="6.65615">
        <ele>2503</ele>
        <time>2012-04-08T13:12:27Z</time>
      </trkpt>
      <trkpt lat="45.29218" lon="6.65617">
        <ele>2504</ele>
        <time>2012-04-08T13:12:32Z</time>
      </trkpt>
      <trkpt lat="45.29215" lon="6.65619">
        <ele>2504</ele>
        <time>2012-04-08T13:12:37Z</time>
      </trkpt>
      <trkpt lat="45.29212" lon="6.65621">
        <ele>2504</ele>
        <time>2012-04-08T13:12:42Z</time>
      </trkpt>
      <trkpt lat="45.29212" lon="6.65621">
        <ele>2504</ele>
        <time>2012-04-08T13:12:47Z</time>
      </trkpt>
      <trkpt lat="45.29212" lon="6.65621">
        <ele>2504</ele>
        <time>2012-04-08T13:12:52Z</time>
      </trkpt>
      <trkpt lat="45.29212" lon="6.65621">
        <ele>2504</ele>
        <time>2012-04-08T13:12:57Z</time>
      </trkpt>
      <trkpt lat="45.29213" lon="6.65621">
        <ele>2504</ele>
        <time>2012-04-08T13:13:02Z</time>
      </trkpt>
      <trkpt lat="45.29213" lon="6.65621">
        <ele>2504</ele>
        <time>2012-04-08T13:13:07Z</time>
      </trkpt>
      <trkpt lat="45.29213" lon="6.65621">
        <ele>2503</ele>
        <time>2012-04-08T13:13:12Z</time>
      </trkpt>
      <trkpt lat="45.2921" lon="6.65622">
        <ele>2504</ele>
        <time>2012-04-08T13:13:17Z</time>
      </trkpt>
      <trkpt lat="45.29207" lon="6.65623">
        <ele>2505</ele>
        <time>2012-04-08T13:13:22Z</time>
      </trkpt>
      <trkpt lat="45.29207" lon="6.65623">
        <ele>2504</ele>
        <time>2012-04-08T13:13:27Z</time>
      </trkpt>
      <trkpt lat="45.29203" lon="6.65624">
        <ele>2504</ele>
        <time>2012-04-08T13:13:32Z</time>
      </trkpt>
      <trkpt lat="45.292" lon="6.65625">
        <ele>2504</ele>
        <time>2012-04-08T13:13:37Z</time>
      </trkpt>
      <trkpt lat="45.29197" lon="6.65627">
        <ele>2504</ele>
        <time>2012-04-08T13:13:42Z</time>
      </trkpt>
      <trkpt lat="45.29195" lon="6.65628">
        <ele>2504</ele>
        <time>2012-04-08T13:13:47Z</time>
      </trkpt>
      <trkpt lat="45.29195" lon="6.65629">
        <ele>2504</ele>
        <time>2012-04-08T13:13:52Z</time>
      </trkpt>
      <trkpt lat="45.29195" lon="6.6563">
        <ele>2505</ele>
        <time>2012-04-08T13:13:57Z</time>
      </trkpt>
      <trkpt lat="45.29194" lon="6.6563">
        <ele>2505</ele>
        <time>2012-04-08T13:14:02Z</time>
      </trkpt>
      <trkpt lat="45.29194" lon="6.6563">
        <ele>2505</ele>
        <time>2012-04-08T13:14:07Z</time>
      </trkpt>
      <trkpt lat="45.29191" lon="6.65631">
        <ele>2505</ele>
        <time>2012-04-08T13:14:12Z</time>
      </trkpt>
      <trkpt lat="45.29188" lon="6.65632">
        <ele>2506</ele>
        <time>2012-04-08T13:14:17Z</time>
      </trkpt>
      <trkpt lat="45.29185" lon="6.65632">
        <ele>2506</ele>
        <time>2012-04-08T13:14:22Z</time>
      </trkpt>
      <trkpt lat="45.29181" lon="6.65632">
        <ele>2506</ele>
        <time>2012-04-08T13:14:27Z</time>
      </trkpt>
      <trkpt lat="45.29178" lon="6.65632">
        <ele>2506</ele>
        <time>2012-04-08T13:14:32Z</time>
      </trkpt>
      <trkpt lat="45.29173" lon="6.65632">
        <ele>2506</ele>
        <time>2012-04-08T13:14:37Z</time>
      </trkpt>
      <trkpt lat="45.2917" lon="6.65632">
        <ele>2506</ele>
        <time>2012-04-08T13:14:42Z</time>
      </trkpt>
      <trkpt lat="45.29165" lon="6.65632">
        <ele>2506</ele>
        <time>2012-04-08T13:14:47Z</time>
      </trkpt>
      <trkpt lat="45.29161" lon="6.65632">
        <ele>2505</ele>
        <time>2012-04-08T13:14:52Z</time>
      </trkpt>
      <trkpt lat="45.29156" lon="6.65632">
        <ele>2505</ele>
        <time>2012-04-08T13:14:57Z</time>
      </trkpt>
      <trkpt lat="45.29152" lon="6.65632">
        <ele>2505</ele>
        <time>2012-04-08T13:15:02Z</time>
      </trkpt>
      <trkpt lat="45.29147" lon="6.65631">
        <ele>2505</ele>
        <time>2012-04-08T13:15:07Z</time>
      </trkpt>
      <trkpt lat="45.29142" lon="6.65631">
        <ele>2506</ele>
        <time>2012-04-08T13:15:12Z</time>
      </trkpt>
      <trkpt lat="45.29138" lon="6.65628">
        <ele>2506</ele>
        <time>2012-04-08T13:15:17Z</time>
      </trkpt>
      <trkpt lat="45.29134" lon="6.65624">
        <ele>2505</ele>
        <time>2012-04-08T13:15:22Z</time>
      </trkpt>
      <trkpt lat="45.2913" lon="6.65623">
        <ele>2505</ele>
        <time>2012-04-08T13:15:27Z</time>
      </trkpt>
      <trkpt lat="45.29126" lon="6.65621">
        <ele>2505</ele>
        <time>2012-04-08T13:15:32Z</time>
      </trkpt>
      <trkpt lat="45.29122" lon="6.65619">
        <ele>2505</ele>
        <time>2012-04-08T13:15:37Z</time>
      </trkpt>
      <trkpt lat="45.29118" lon="6.65618">
        <ele>2506</ele>
        <time>2012-04-08T13:15:42Z</time>
      </trkpt>
      <trkpt lat="45.29115" lon="6.65617">
        <ele>2506</ele>
        <time>2012-04-08T13:15:47Z</time>
      </trkpt>
      <trkpt lat="45.2911" lon="6.65616">
        <ele>2507</ele>
        <time>2012-04-08T13:15:52Z</time>
      </trkpt>
      <trkpt lat="45.29106" lon="6.65616">
        <ele>2507</ele>
        <time>2012-04-08T13:15:57Z</time>
      </trkpt>
      <trkpt lat="45.29101" lon="6.65616">
        <ele>2507</ele>
        <time>2012-04-08T13:16:02Z</time>
      </trkpt>
      <trkpt lat="45.29097" lon="6.65616">
        <ele>2508</ele>
        <time>2012-04-08T13:16:07Z</time>
      </trkpt>
      <trkpt lat="45.29094" lon="6.65616">
        <ele>2509</ele>
        <time>2012-04-08T13:16:12Z</time>
      </trkpt>
      <trkpt lat="45.2909" lon="6.65617">
        <ele>2508</ele>
        <time>2012-04-08T13:16:17Z</time>
      </trkpt>
      <trkpt lat="45.29086" lon="6.65617">
        <ele>2508</ele>
        <time>2012-04-08T13:16:22Z</time>
      </trkpt>
      <trkpt lat="45.29082" lon="6.65617">
        <ele>2507</ele>
        <time>2012-04-08T13:16:27Z</time>
      </trkpt>
      <trkpt lat="45.29078" lon="6.65618">
        <ele>2507</ele>
        <time>2012-04-08T13:16:32Z</time>
      </trkpt>
      <trkpt lat="45.29078" lon="6.65618">
        <ele>2507</ele>
        <time>2012-04-08T13:16:37Z</time>
      </trkpt>
      <trkpt lat="45.29078" lon="6.65618">
        <ele>2507</ele>
        <time>2012-04-08T13:16:42Z</time>
      </trkpt>
      <trkpt lat="45.29077" lon="6.65619">
        <ele>2507</ele>
        <time>2012-04-08T13:16:47Z</time>
      </trkpt>
      <trkpt lat="45.29076" lon="6.65619">
        <ele>2508</ele>
        <time>2012-04-08T13:16:52Z</time>
      </trkpt>
      <trkpt lat="45.29076" lon="6.65618">
        <ele>2508</ele>
        <time>2012-04-08T13:16:57Z</time>
      </trkpt>
      <trkpt lat="45.29076" lon="6.65618">
        <ele>2508</ele>
        <time>2012-04-08T13:17:02Z</time>
      </trkpt>
      <trkpt lat="45.29076" lon="6.65617">
        <ele>2509</ele>
        <time>2012-04-08T13:17:07Z</time>
      </trkpt>
      <trkpt lat="45.29076" lon="6.65618">
        <ele>2509</ele>
        <time>2012-04-08T13:17:12Z</time>
      </trkpt>
      <trkpt lat="45.29076" lon="6.65618">
        <ele>2508</ele>
        <time>2012-04-08T13:17:17Z</time>
      </trkpt>
      <trkpt lat="45.29074" lon="6.65619">
        <ele>2508</ele>
        <time>2012-04-08T13:17:22Z</time>
      </trkpt>
      <trkpt lat="45.2907" lon="6.6562">
        <ele>2509</ele>
        <time>2012-04-08T13:17:27Z</time>
      </trkpt>
      <trkpt lat="45.29066" lon="6.65622">
        <ele>2509</ele>
        <time>2012-04-08T13:17:32Z</time>
      </trkpt>
      <trkpt lat="45.29062" lon="6.65624">
        <ele>2509</ele>
        <time>2012-04-08T13:17:37Z</time>
      </trkpt>
      <trkpt lat="45.29058" lon="6.65627">
        <ele>2509</ele>
        <time>2012-04-08T13:17:42Z</time>
      </trkpt>
      <trkpt lat="45.29055" lon="6.65629">
        <ele>2510</ele>
        <time>2012-04-08T13:17:47Z</time>
      </trkpt>
      <trkpt lat="45.29051" lon="6.65634">
        <ele>2510</ele>
        <time>2012-04-08T13:17:52Z</time>
      </trkpt>
      <trkpt lat="45.29048" lon="6.6564">
        <ele>2511</ele>
        <time>2012-04-08T13:17:57Z</time>
      </trkpt>
      <trkpt lat="45.29045" lon="6.65645">
        <ele>2511</ele>
        <time>2012-04-08T13:18:02Z</time>
      </trkpt>
      <trkpt lat="45.29043" lon="6.65651">
        <ele>2512</ele>
        <time>2012-04-08T13:18:07Z</time>
      </trkpt>
      <trkpt lat="45.29041" lon="6.65657">
        <ele>2512</ele>
        <time>2012-04-08T13:18:12Z</time>
      </trkpt>
      <trkpt lat="45.29038" lon="6.65664">
        <ele>2512</ele>
        <time>2012-04-08T13:18:17Z</time>
      </trkpt>
      <trkpt lat="45.29035" lon="6.6567">
        <ele>2513</ele>
        <time>2012-04-08T13:18:22Z</time>
      </trkpt>
      <trkpt lat="45.29033" lon="6.65675">
        <ele>2513</ele>
        <time>2012-04-08T13:18:27Z</time>
      </trkpt>
      <trkpt lat="45.2903" lon="6.65679">
        <ele>2514</ele>
        <time>2012-04-08T13:18:32Z</time>
      </trkpt>
      <trkpt lat="45.29028" lon="6.65684">
        <ele>2514</ele>
        <time>2012-04-08T13:18:37Z</time>
      </trkpt>
      <trkpt lat="45.29025" lon="6.65689">
        <ele>2515</ele>
        <time>2012-04-08T13:18:42Z</time>
      </trkpt>
      <trkpt lat="45.29023" lon="6.65695">
        <ele>2515</ele>
        <time>2012-04-08T13:18:47Z</time>
      </trkpt>
      <trkpt lat="45.29021" lon="6.657">
        <ele>2516</ele>
        <time>2012-04-08T13:18:52Z</time>
      </trkpt>
      <trkpt lat="45.29018" lon="6.65706">
        <ele>2516</ele>
        <time>2012-04-08T13:18:57Z</time>
      </trkpt>
      <trkpt lat="45.29017" lon="6.65711">
        <ele>2516</ele>
        <time>2012-04-08T13:19:02Z</time>
      </trkpt>
      <trkpt lat="45.29015" lon="6.65715">
        <ele>2517</ele>
        <time>2012-04-08T13:19:07Z</time>
      </trkpt>
      <trkpt lat="45.29013" lon="6.65722">
        <ele>2517</ele>
        <time>2012-04-08T13:19:12Z</time>
      </trkpt>
      <trkpt lat="45.29012" lon="6.65727">
        <ele>2518</ele>
        <time>2012-04-08T13:19:17Z</time>
      </trkpt>
      <trkpt lat="45.2901" lon="6.65733">
        <ele>2518</ele>
        <time>2012-04-08T13:19:22Z</time>
      </trkpt>
      <trkpt lat="45.29007" lon="6.65739">
        <ele>2518</ele>
        <time>2012-04-08T13:19:27Z</time>
      </trkpt>
      <trkpt lat="45.29004" lon="6.65746">
        <ele>2518</ele>
        <time>2012-04-08T13:19:32Z</time>
      </trkpt>
      <trkpt lat="45.28999" lon="6.6575">
        <ele>2518</ele>
        <time>2012-04-08T13:19:37Z</time>
      </trkpt>
      <trkpt lat="45.28996" lon="6.65753">
        <ele>2517</ele>
        <time>2012-04-08T13:19:42Z</time>
      </trkpt>
      <trkpt lat="45.28996" lon="6.65753">
        <ele>2517</ele>
        <time>2012-04-08T13:19:47Z</time>
      </trkpt>
      <trkpt lat="45.28996" lon="6.65753">
        <ele>2517</ele>
        <time>2012-04-08T13:19:52Z</time>
      </trkpt>
      <trkpt lat="45.28996" lon="6.65753">
        <ele>2515</ele>
        <time>2012-04-08T13:19:57Z</time>
      </trkpt>
      <trkpt lat="45.28995" lon="6.65752">
        <ele>2515</ele>
        <time>2012-04-08T13:20:02Z</time>
      </trkpt>
      <trkpt lat="45.28995" lon="6.65752">
        <ele>2516</ele>
        <time>2012-04-08T13:20:07Z</time>
      </trkpt>
      <trkpt lat="45.28994" lon="6.65752">
        <ele>2514</ele>
        <time>2012-04-08T13:20:12Z</time>
      </trkpt>
      <trkpt lat="45.28993" lon="6.65751">
        <ele>2512</ele>
        <time>2012-04-08T13:20:17Z</time>
      </trkpt>
      <trkpt lat="45.28992" lon="6.65749">
        <ele>2509</ele>
        <time>2012-04-08T13:27:22Z</time>
      </trkpt>
      <trkpt lat="45.28989" lon="6.65754">
        <ele>2510</ele>
        <time>2012-04-08T13:27:27Z</time>
      </trkpt>
      <trkpt lat="45.28985" lon="6.6576">
        <ele>2510</ele>
        <time>2012-04-08T13:27:32Z</time>
      </trkpt>
      <trkpt lat="45.2898" lon="6.65771">
        <ele>2510</ele>
        <time>2012-04-08T13:27:37Z</time>
      </trkpt>
      <trkpt lat="45.28977" lon="6.65794">
        <ele>2509</ele>
        <time>2012-04-08T13:27:42Z</time>
      </trkpt>
      <trkpt lat="45.28977" lon="6.65811">
        <ele>2508</ele>
        <time>2012-04-08T13:27:47Z</time>
      </trkpt>
      <trkpt lat="45.28979" lon="6.65814">
        <ele>2509</ele>
        <time>2012-04-08T13:27:52Z</time>
      </trkpt>
      <trkpt lat="45.28981" lon="6.65816">
        <ele>2509</ele>
        <time>2012-04-08T13:27:57Z</time>
      </trkpt>
      <trkpt lat="45.28982" lon="6.65821">
        <ele>2509</ele>
        <time>2012-04-08T13:28:02Z</time>
      </trkpt>
      <trkpt lat="45.28983" lon="6.65824">
        <ele>2510</ele>
        <time>2012-04-08T13:28:07Z</time>
      </trkpt>
      <trkpt lat="45.28985" lon="6.6583">
        <ele>2510</ele>
        <time>2012-04-08T13:28:12Z</time>
      </trkpt>
      <trkpt lat="45.28986" lon="6.65836">
        <ele>2510</ele>
        <time>2012-04-08T13:28:17Z</time>
      </trkpt>
      <trkpt lat="45.28986" lon="6.65841">
        <ele>2509</ele>
        <time>2012-04-08T13:28:22Z</time>
      </trkpt>
      <trkpt lat="45.28987" lon="6.65851">
        <ele>2509</ele>
        <time>2012-04-08T13:28:27Z</time>
      </trkpt>
      <trkpt lat="45.28985" lon="6.65862">
        <ele>2508</ele>
        <time>2012-04-08T13:28:32Z</time>
      </trkpt>
      <trkpt lat="45.28982" lon="6.65863">
        <ele>2508</ele>
        <time>2012-04-08T13:28:37Z</time>
      </trkpt>
      <trkpt lat="45.28976" lon="6.65869">
        <ele>2506</ele>
        <time>2012-04-08T13:28:42Z</time>
      </trkpt>
      <trkpt lat="45.28973" lon="6.6587">
        <ele>2506</ele>
        <time>2012-04-08T13:28:47Z</time>
      </trkpt>
      <trkpt lat="45.28973" lon="6.6587">
        <ele>2506</ele>
        <time>2012-04-08T13:28:52Z</time>
      </trkpt>
      <trkpt lat="45.28973" lon="6.6587">
        <ele>2506</ele>
        <time>2012-04-08T13:28:57Z</time>
      </trkpt>
      <trkpt lat="45.28973" lon="6.6587">
        <ele>2506</ele>
        <time>2012-04-08T13:29:02Z</time>
      </trkpt>
      <trkpt lat="45.28965" lon="6.6587">
        <ele>2504</ele>
        <time>2012-04-08T13:29:07Z</time>
      </trkpt>
      <trkpt lat="45.28953" lon="6.65876">
        <ele>2501</ele>
        <time>2012-04-08T13:29:12Z</time>
      </trkpt>
      <trkpt lat="45.2894" lon="6.65883">
        <ele>2495</ele>
        <time>2012-04-08T13:29:17Z</time>
      </trkpt>
      <trkpt lat="45.28927" lon="6.65895">
        <ele>2489</ele>
        <time>2012-04-08T13:29:22Z</time>
      </trkpt>
      <trkpt lat="45.28926" lon="6.65918">
        <ele>2485</ele>
        <time>2012-04-08T13:29:27Z</time>
      </trkpt>
      <trkpt lat="45.28926" lon="6.6592">
        <ele>2486</ele>
        <time>2012-04-08T13:29:32Z</time>
      </trkpt>
    </trkseg>
  </trk>
</gpx>